<?xml version="1.0" encoding="UTF-8" standalone="no" ?>
<gpx xmlns="http://www.topografix.com/GPX/1/1" xmlns:xsi="http://www.w3.org/2001/XMLSchema-instance" xsi:schemaLocation="http://www.topografix.com/GPX/1/1 http://www.topografix.com/GPX/1/1/gpx.xsd" version="1.1" creator="VisuGPX - https://www.visugpx.com">
  <metadata>
    <name>Stage2 - Bauge en Anjou - Airvault</name>
    <desc><![CDATA[2e etape d'un biketrip depuis Le Mans vers Niort]]></desc>
  </metadata>
  <trk>
    <name><![CDATA[Stage2 - Camping du pont des fees - camping de courte vallee]]></name>
    <extensions>
      <line xmlns="http://www.topografix.com/GPX/gpx_style/0/2">
        <color>0000FF</color>
        <width>4</width>
      </line>
    </extensions>
    <trkseg>
      <trkpt lat="47.5401" lon="-0.09576">
        <ele>51.84</ele>
        <time>2024-07-14T21:44:14.000Z</time>
      </trkpt>
      <trkpt lat="47.5399" lon="-0.09612">
        <ele>51.05</ele>
        <time>2024-07-14T21:44:14.005Z</time>
      </trkpt>
      <trkpt lat="47.53964" lon="-0.0959">
        <ele>50</ele>
        <time>2024-07-14T21:44:14.015Z</time>
      </trkpt>
      <trkpt lat="47.53939" lon="-0.09659">
        <ele>51.02</ele>
        <time>2024-07-14T21:44:14.033Z</time>
      </trkpt>
      <trkpt lat="47.53954" lon="-0.0967">
        <ele>51</ele>
        <time>2024-07-14T21:44:14.054Z</time>
      </trkpt>
      <trkpt lat="47.53962" lon="-0.09676">
        <ele>51.31</ele>
        <time>2024-07-14T21:44:14.077Z</time>
      </trkpt>
      <trkpt lat="47.53976" lon="-0.09685">
        <ele>52.08</ele>
        <time>2024-07-14T21:44:14.102Z</time>
      </trkpt>
      <trkpt lat="47.53992" lon="-0.09697">
        <ele>52.67</ele>
        <time>2024-07-14T21:44:14.130Z</time>
      </trkpt>
      <trkpt lat="47.54014" lon="-0.09709">
        <ele>53.83</ele>
        <time>2024-07-14T21:44:14.162Z</time>
      </trkpt>
      <trkpt lat="47.54026" lon="-0.09719">
        <ele>54.73</ele>
        <time>2024-07-14T21:44:14.196Z</time>
      </trkpt>
      <trkpt lat="47.54042" lon="-0.09726">
        <ele>55.91</ele>
        <time>2024-07-14T21:44:14.232Z</time>
      </trkpt>
      <trkpt lat="47.54055" lon="-0.09734">
        <ele>57.6</ele>
        <time>2024-07-14T21:44:14.271Z</time>
      </trkpt>
      <trkpt lat="47.54093" lon="-0.09791">
        <ele>59.88</ele>
        <time>2024-07-14T21:44:14.318Z</time>
      </trkpt>
      <trkpt lat="47.54097" lon="-0.09798">
        <ele>60</ele>
        <time>2024-07-14T21:44:14.366Z</time>
      </trkpt>
      <trkpt lat="47.54102" lon="-0.09809">
        <ele>59.84</ele>
        <time>2024-07-14T21:44:14.416Z</time>
      </trkpt>
      <trkpt lat="47.54117" lon="-0.09852">
        <ele>57.4</ele>
        <time>2024-07-14T21:44:14.471Z</time>
      </trkpt>
      <trkpt lat="47.5413" lon="-0.09938">
        <ele>56.73</ele>
        <time>2024-07-14T21:44:14.536Z</time>
      </trkpt>
      <trkpt lat="47.54163" lon="-0.10038">
        <ele>56.92</ele>
        <time>2024-07-14T21:44:14.613Z</time>
      </trkpt>
      <trkpt lat="47.54166" lon="-0.10049">
        <ele>57.17</ele>
        <time>2024-07-14T21:44:14.691Z</time>
      </trkpt>
      <trkpt lat="47.54168" lon="-0.10062">
        <ele>57.61</ele>
        <time>2024-07-14T21:44:14.770Z</time>
      </trkpt>
      <trkpt lat="47.54168" lon="-0.10067">
        <ele>57.82</ele>
        <time>2024-07-14T21:44:14.850Z</time>
      </trkpt>
      <trkpt lat="47.54136" lon="-0.10153">
        <ele>55.46</ele>
        <time>2024-07-14T21:44:14.941Z</time>
      </trkpt>
      <trkpt lat="47.54132" lon="-0.10162">
        <ele>55.11</ele>
        <time>2024-07-14T21:44:15.033Z</time>
      </trkpt>
      <trkpt lat="47.54127" lon="-0.10165">
        <ele>55.2</ele>
        <time>2024-07-14T21:44:15.126Z</time>
      </trkpt>
      <trkpt lat="47.54126" lon="-0.10173">
        <ele>54.79</ele>
        <time>2024-07-14T21:44:15.219Z</time>
      </trkpt>
      <trkpt lat="47.54117" lon="-0.10194">
        <ele>54.3</ele>
        <time>2024-07-14T21:44:15.315Z</time>
      </trkpt>
      <trkpt lat="47.5411" lon="-0.1021">
        <ele>54.2</ele>
        <time>2024-07-14T21:44:15.413Z</time>
      </trkpt>
      <trkpt lat="47.54108" lon="-0.10237">
        <ele>52.27</ele>
        <time>2024-07-14T21:44:15.514Z</time>
      </trkpt>
      <trkpt lat="47.54106" lon="-0.10253">
        <ele>51.5</ele>
        <time>2024-07-14T21:44:15.617Z</time>
      </trkpt>
      <trkpt lat="47.541" lon="-0.10277">
        <ele>50.64</ele>
        <time>2024-07-14T21:44:15.723Z</time>
      </trkpt>
      <trkpt lat="47.54087" lon="-0.10313">
        <ele>50</ele>
        <time>2024-07-14T21:44:15.833Z</time>
      </trkpt>
      <trkpt lat="47.54084" lon="-0.10321">
        <ele>50</ele>
        <time>2024-07-14T21:44:15.944Z</time>
      </trkpt>
      <trkpt lat="47.54082" lon="-0.10331">
        <ele>49.91</ele>
        <time>2024-07-14T21:44:16.056Z</time>
      </trkpt>
      <trkpt lat="47.54071" lon="-0.10324">
        <ele>49.92</ele>
        <time>2024-07-14T21:44:16.170Z</time>
      </trkpt>
      <trkpt lat="47.54043" lon="-0.10297">
        <ele>49.9</ele>
        <time>2024-07-14T21:44:16.290Z</time>
      </trkpt>
      <trkpt lat="47.5401" lon="-0.10275">
        <ele>50.39</ele>
        <time>2024-07-14T21:44:16.415Z</time>
      </trkpt>
      <trkpt lat="47.54005" lon="-0.10269">
        <ele>50.77</ele>
        <time>2024-07-14T21:44:16.541Z</time>
      </trkpt>
      <trkpt lat="47.53999" lon="-0.10264">
        <ele>51</ele>
        <time>2024-07-14T21:44:16.668Z</time>
      </trkpt>
      <trkpt lat="47.53987" lon="-0.10254">
        <ele>51</ele>
        <time>2024-07-14T21:44:16.798Z</time>
      </trkpt>
      <trkpt lat="47.5397" lon="-0.10241">
        <ele>50.89</ele>
        <time>2024-07-14T21:44:16.931Z</time>
      </trkpt>
      <trkpt lat="47.53923" lon="-0.10203">
        <ele>48.19</ele>
        <time>2024-07-14T21:44:17.072Z</time>
      </trkpt>
      <trkpt lat="47.53892" lon="-0.10178">
        <ele>48.19</ele>
        <time>2024-07-14T21:44:17.219Z</time>
      </trkpt>
      <trkpt lat="47.53875" lon="-0.10163">
        <ele>49.29</ele>
        <time>2024-07-14T21:44:17.369Z</time>
      </trkpt>
      <trkpt lat="47.53854" lon="-0.10145">
        <ele>50</ele>
        <time>2024-07-14T21:44:17.523Z</time>
      </trkpt>
      <trkpt lat="47.53838" lon="-0.10133">
        <ele>50</ele>
        <time>2024-07-14T21:44:17.680Z</time>
      </trkpt>
      <trkpt lat="47.53826" lon="-0.10123">
        <ele>50.47</ele>
        <time>2024-07-14T21:44:17.839Z</time>
      </trkpt>
      <trkpt lat="47.53815" lon="-0.1012">
        <ele>50.97</ele>
        <time>2024-07-14T21:44:18.000Z</time>
      </trkpt>
      <trkpt lat="47.53808" lon="-0.10124">
        <ele>51.08</ele>
        <time>2024-07-14T21:44:18.162Z</time>
      </trkpt>
      <trkpt lat="47.53805" lon="-0.10127">
        <ele>51.14</ele>
        <time>2024-07-14T21:44:18.325Z</time>
      </trkpt>
      <trkpt lat="47.53803" lon="-0.10133">
        <ele>51.12</ele>
        <time>2024-07-14T21:44:18.488Z</time>
      </trkpt>
      <trkpt lat="47.53801" lon="-0.10139">
        <ele>51.2</ele>
        <time>2024-07-14T21:44:18.652Z</time>
      </trkpt>
      <trkpt lat="47.53797" lon="-0.10145">
        <ele>51.35</ele>
        <time>2024-07-14T21:44:18.817Z</time>
      </trkpt>
      <trkpt lat="47.53791" lon="-0.10149">
        <ele>51.57</ele>
        <time>2024-07-14T21:44:18.983Z</time>
      </trkpt>
      <trkpt lat="47.53785" lon="-0.1015">
        <ele>51.8</ele>
        <time>2024-07-14T21:44:19.150Z</time>
      </trkpt>
      <trkpt lat="47.53781" lon="-0.10149">
        <ele>52.06</ele>
        <time>2024-07-14T21:44:19.318Z</time>
      </trkpt>
      <trkpt lat="47.53778" lon="-0.10147">
        <ele>52.35</ele>
        <time>2024-07-14T21:44:19.486Z</time>
      </trkpt>
      <trkpt lat="47.53772" lon="-0.10147">
        <ele>52.82</ele>
        <time>2024-07-14T21:44:19.655Z</time>
      </trkpt>
      <trkpt lat="47.53766" lon="-0.10149">
        <ele>53.18</ele>
        <time>2024-07-14T21:44:19.825Z</time>
      </trkpt>
      <trkpt lat="47.53755" lon="-0.10158">
        <ele>53.76</ele>
        <time>2024-07-14T21:44:19.997Z</time>
      </trkpt>
      <trkpt lat="47.53734" lon="-0.10175">
        <ele>54.69</ele>
        <time>2024-07-14T21:44:20.173Z</time>
      </trkpt>
      <trkpt lat="47.53726" lon="-0.10182">
        <ele>54.96</ele>
        <time>2024-07-14T21:44:20.350Z</time>
      </trkpt>
      <trkpt lat="47.5372" lon="-0.10193">
        <ele>55.11</ele>
        <time>2024-07-14T21:44:20.529Z</time>
      </trkpt>
      <trkpt lat="47.53714" lon="-0.10207">
        <ele>55.31</ele>
        <time>2024-07-14T21:44:20.710Z</time>
      </trkpt>
      <trkpt lat="47.53667" lon="-0.10331">
        <ele>57.7</ele>
        <time>2024-07-14T21:44:20.906Z</time>
      </trkpt>
      <trkpt lat="47.53647" lon="-0.10394">
        <ele>57.47</ele>
        <time>2024-07-14T21:44:21.110Z</time>
      </trkpt>
      <trkpt lat="47.53636" lon="-0.10434">
        <ele>58.12</ele>
        <time>2024-07-14T21:44:21.319Z</time>
      </trkpt>
      <trkpt lat="47.5364" lon="-0.10436">
        <ele>57.96</ele>
        <time>2024-07-14T21:44:21.528Z</time>
      </trkpt>
      <trkpt lat="47.53633" lon="-0.10458">
        <ele>58</ele>
        <time>2024-07-14T21:44:21.740Z</time>
      </trkpt>
      <trkpt lat="47.5361" lon="-0.1052">
        <ele>57.03</ele>
        <time>2024-07-14T21:44:21.960Z</time>
      </trkpt>
      <trkpt lat="47.53599" lon="-0.10547">
        <ele>57.53</ele>
        <time>2024-07-14T21:44:22.183Z</time>
      </trkpt>
      <trkpt lat="47.5359" lon="-0.10574">
        <ele>57.13</ele>
        <time>2024-07-14T21:44:22.409Z</time>
      </trkpt>
      <trkpt lat="47.53578" lon="-0.10618">
        <ele>56</ele>
        <time>2024-07-14T21:44:22.640Z</time>
      </trkpt>
      <trkpt lat="47.53559" lon="-0.10691">
        <ele>57</ele>
        <time>2024-07-14T21:44:22.880Z</time>
      </trkpt>
      <trkpt lat="47.53556" lon="-0.10704">
        <ele>57</ele>
        <time>2024-07-14T21:44:23.121Z</time>
      </trkpt>
      <trkpt lat="47.53537" lon="-0.10774">
        <ele>57.43</ele>
        <time>2024-07-14T21:44:23.371Z</time>
      </trkpt>
      <trkpt lat="47.5355" lon="-0.10788">
        <ele>55.89</ele>
        <time>2024-07-14T21:44:23.623Z</time>
      </trkpt>
      <trkpt lat="47.53562" lon="-0.10801">
        <ele>54.13</ele>
        <time>2024-07-14T21:44:23.878Z</time>
      </trkpt>
      <trkpt lat="47.53565" lon="-0.10814">
        <ele>53.01</ele>
        <time>2024-07-14T21:44:24.134Z</time>
      </trkpt>
      <trkpt lat="47.53558" lon="-0.10822">
        <ele>52.99</ele>
        <time>2024-07-14T21:44:24.391Z</time>
      </trkpt>
      <trkpt lat="47.53556" lon="-0.10832">
        <ele>52.69</ele>
        <time>2024-07-14T21:44:24.650Z</time>
      </trkpt>
      <trkpt lat="47.53552" lon="-0.10842">
        <ele>52.65</ele>
        <time>2024-07-14T21:44:24.910Z</time>
      </trkpt>
      <trkpt lat="47.53545" lon="-0.10853">
        <ele>52.74</ele>
        <time>2024-07-14T21:44:25.172Z</time>
      </trkpt>
      <trkpt lat="47.53535" lon="-0.10866">
        <ele>53.02</ele>
        <time>2024-07-14T21:44:25.436Z</time>
      </trkpt>
      <trkpt lat="47.53515" lon="-0.10889">
        <ele>53.57</ele>
        <time>2024-07-14T21:44:25.704Z</time>
      </trkpt>
      <trkpt lat="47.53503" lon="-0.10906">
        <ele>53.84</ele>
        <time>2024-07-14T21:44:25.974Z</time>
      </trkpt>
      <trkpt lat="47.53498" lon="-0.10908">
        <ele>54.19</ele>
        <time>2024-07-14T21:44:26.245Z</time>
      </trkpt>
      <trkpt lat="47.53485" lon="-0.10915">
        <ele>55.02</ele>
        <time>2024-07-14T21:44:26.518Z</time>
      </trkpt>
      <trkpt lat="47.53422" lon="-0.11012">
        <ele>54.72</ele>
        <time>2024-07-14T21:44:26.806Z</time>
      </trkpt>
      <trkpt lat="47.53302" lon="-0.1114">
        <ele>53.78</ele>
        <time>2024-07-14T21:44:27.118Z</time>
      </trkpt>
      <trkpt lat="47.5323" lon="-0.11192">
        <ele>50.37</ele>
        <time>2024-07-14T21:44:27.443Z</time>
      </trkpt>
      <trkpt lat="47.53156" lon="-0.11239">
        <ele>50.02</ele>
        <time>2024-07-14T21:44:27.780Z</time>
      </trkpt>
      <trkpt lat="47.5308" lon="-0.11263">
        <ele>51</ele>
        <time>2024-07-14T21:44:28.130Z</time>
      </trkpt>
      <trkpt lat="47.52975" lon="-0.11285">
        <ele>52.34</ele>
        <time>2024-07-14T21:44:28.497Z</time>
      </trkpt>
      <trkpt lat="47.52875" lon="-0.11309">
        <ele>49.48</ele>
        <time>2024-07-14T21:44:28.880Z</time>
      </trkpt>
      <trkpt lat="47.52739" lon="-0.1134">
        <ele>46.12</ele>
        <time>2024-07-14T21:44:29.285Z</time>
      </trkpt>
      <trkpt lat="47.52602" lon="-0.11372">
        <ele>42.46</ele>
        <time>2024-07-14T21:44:29.712Z</time>
      </trkpt>
      <trkpt lat="47.52539" lon="-0.11385">
        <ele>40.73</ele>
        <time>2024-07-14T21:44:30.150Z</time>
      </trkpt>
      <trkpt lat="47.52397" lon="-0.11419">
        <ele>41.54</ele>
        <time>2024-07-14T21:44:30.610Z</time>
      </trkpt>
      <trkpt lat="47.52348" lon="-0.11431">
        <ele>40.59</ele>
        <time>2024-07-14T21:44:31.079Z</time>
      </trkpt>
      <trkpt lat="47.51978" lon="-0.11509">
        <ele>42.88</ele>
        <time>2024-07-14T21:44:31.607Z</time>
      </trkpt>
      <trkpt lat="47.51754" lon="-0.11565">
        <ele>45.59</ele>
        <time>2024-07-14T21:44:32.172Z</time>
      </trkpt>
      <trkpt lat="47.51752" lon="-0.11566">
        <ele>45.68</ele>
        <time>2024-07-14T21:44:32.737Z</time>
      </trkpt>
      <trkpt lat="47.5175" lon="-0.11567">
        <ele>45.77</ele>
        <time>2024-07-14T21:44:33.302Z</time>
      </trkpt>
      <trkpt lat="47.51697" lon="-0.1158">
        <ele>47.17</ele>
        <time>2024-07-14T21:44:33.876Z</time>
      </trkpt>
      <trkpt lat="47.51475" lon="-0.1163">
        <ele>59.77</ele>
        <time>2024-07-14T21:44:34.486Z</time>
      </trkpt>
      <trkpt lat="47.51125" lon="-0.1171">
        <ele>54.55</ele>
        <time>2024-07-14T21:44:35.153Z</time>
      </trkpt>
      <trkpt lat="47.50734" lon="-0.11799">
        <ele>52.84</ele>
        <time>2024-07-14T21:44:35.883Z</time>
      </trkpt>
      <trkpt lat="47.50543" lon="-0.11842">
        <ele>47.44</ele>
        <time>2024-07-14T21:44:36.644Z</time>
      </trkpt>
      <trkpt lat="47.50277" lon="-0.11904">
        <ele>50.1</ele>
        <time>2024-07-14T21:44:37.448Z</time>
      </trkpt>
      <trkpt lat="47.50269" lon="-0.11907">
        <ele>51.3</ele>
        <time>2024-07-14T21:44:38.253Z</time>
      </trkpt>
      <trkpt lat="47.50138" lon="-0.11935">
        <ele>52.12</ele>
        <time>2024-07-14T21:44:39.079Z</time>
      </trkpt>
      <trkpt lat="47.50011" lon="-0.11964">
        <ele>49.87</ele>
        <time>2024-07-14T21:44:39.926Z</time>
      </trkpt>
      <trkpt lat="47.4974" lon="-0.12038">
        <ele>50.02</ele>
        <time>2024-07-14T21:44:40.817Z</time>
      </trkpt>
      <trkpt lat="47.49675" lon="-0.12059">
        <ele>43.78</ele>
        <time>2024-07-14T21:44:41.719Z</time>
      </trkpt>
      <trkpt lat="47.49669" lon="-0.12062">
        <ele>42.94</ele>
        <time>2024-07-14T21:44:42.622Z</time>
      </trkpt>
      <trkpt lat="47.49564" lon="-0.12097">
        <ele>40</ele>
        <time>2024-07-14T21:44:43.542Z</time>
      </trkpt>
      <trkpt lat="47.49325" lon="-0.12174">
        <ele>43.37</ele>
        <time>2024-07-14T21:44:44.501Z</time>
      </trkpt>
      <trkpt lat="47.49292" lon="-0.12186">
        <ele>43</ele>
        <time>2024-07-14T21:44:45.466Z</time>
      </trkpt>
      <trkpt lat="47.49074" lon="-0.12256">
        <ele>39.51</ele>
        <time>2024-07-14T21:44:46.466Z</time>
      </trkpt>
      <trkpt lat="47.48909" lon="-0.12311">
        <ele>38.82</ele>
        <time>2024-07-14T21:44:47.494Z</time>
      </trkpt>
      <trkpt lat="47.48565" lon="-0.12417">
        <ele>43.64</ele>
        <time>2024-07-14T21:44:48.578Z</time>
      </trkpt>
      <trkpt lat="47.4836" lon="-0.12454">
        <ele>40.98</ele>
        <time>2024-07-14T21:44:49.695Z</time>
      </trkpt>
      <trkpt lat="47.48352" lon="-0.12455">
        <ele>40.4</ele>
        <time>2024-07-14T21:44:50.813Z</time>
      </trkpt>
      <trkpt lat="47.48296" lon="-0.12466">
        <ele>36.86</ele>
        <time>2024-07-14T21:44:51.940Z</time>
      </trkpt>
      <trkpt lat="47.48063" lon="-0.12508">
        <ele>39.7</ele>
        <time>2024-07-14T21:44:53.105Z</time>
      </trkpt>
      <trkpt lat="47.47959" lon="-0.12525">
        <ele>41</ele>
        <time>2024-07-14T21:44:54.287Z</time>
      </trkpt>
      <trkpt lat="47.479" lon="-0.12536">
        <ele>40.42</ele>
        <time>2024-07-14T21:44:55.478Z</time>
      </trkpt>
      <trkpt lat="47.47728" lon="-0.12569">
        <ele>40</ele>
        <time>2024-07-14T21:44:56.697Z</time>
      </trkpt>
      <trkpt lat="47.47165" lon="-0.1267">
        <ele>36.51</ele>
        <time>2024-07-14T21:44:58.007Z</time>
      </trkpt>
      <trkpt lat="47.47143" lon="-0.12674">
        <ele>37</ele>
        <time>2024-07-14T21:44:59.320Z</time>
      </trkpt>
      <trkpt lat="47.47041" lon="-0.12696">
        <ele>37.49</ele>
        <time>2024-07-14T21:45:00.650Z</time>
      </trkpt>
      <trkpt lat="47.47035" lon="-0.12697">
        <ele>37.71</ele>
        <time>2024-07-14T21:45:01.981Z</time>
      </trkpt>
      <trkpt lat="47.46973" lon="-0.12706">
        <ele>37.05</ele>
        <time>2024-07-14T21:45:03.322Z</time>
      </trkpt>
      <trkpt lat="47.46801" lon="-0.12736">
        <ele>37</ele>
        <time>2024-07-14T21:45:04.690Z</time>
      </trkpt>
      <trkpt lat="47.46544" lon="-0.12801">
        <ele>36.97</ele>
        <time>2024-07-14T21:45:06.100Z</time>
      </trkpt>
      <trkpt lat="47.46541" lon="-0.12802">
        <ele>37.03</ele>
        <time>2024-07-14T21:45:07.511Z</time>
      </trkpt>
      <trkpt lat="47.46308" lon="-0.12861">
        <ele>39.48</ele>
        <time>2024-07-14T21:45:08.959Z</time>
      </trkpt>
      <trkpt lat="47.46246" lon="-0.12875">
        <ele>38.77</ele>
        <time>2024-07-14T21:45:10.417Z</time>
      </trkpt>
      <trkpt lat="47.4597" lon="-0.12972">
        <ele>37.53</ele>
        <time>2024-07-14T21:45:11.921Z</time>
      </trkpt>
      <trkpt lat="47.45774" lon="-0.1299">
        <ele>39.08</ele>
        <time>2024-07-14T21:45:13.456Z</time>
      </trkpt>
      <trkpt lat="47.45741" lon="-0.12998">
        <ele>40.57</ele>
        <time>2024-07-14T21:45:14.997Z</time>
      </trkpt>
      <trkpt lat="47.45476" lon="-0.13081">
        <ele>36.48</ele>
        <time>2024-07-14T21:45:16.581Z</time>
      </trkpt>
      <trkpt lat="47.4539" lon="-0.13117">
        <ele>37.43</ele>
        <time>2024-07-14T21:45:18.179Z</time>
      </trkpt>
      <trkpt lat="47.45128" lon="-0.13211">
        <ele>32.37</ele>
        <time>2024-07-14T21:45:19.820Z</time>
      </trkpt>
      <trkpt lat="47.45114" lon="-0.13217">
        <ele>32.85</ele>
        <time>2024-07-14T21:45:21.464Z</time>
      </trkpt>
      <trkpt lat="47.44563" lon="-0.13429">
        <ele>32.69</ele>
        <time>2024-07-14T21:45:23.199Z</time>
      </trkpt>
      <trkpt lat="47.44077" lon="-0.13621">
        <ele>33.12</ele>
        <time>2024-07-14T21:45:25.015Z</time>
      </trkpt>
      <trkpt lat="47.43704" lon="-0.13767">
        <ele>27.43</ele>
        <time>2024-07-14T21:45:26.892Z</time>
      </trkpt>
      <trkpt lat="47.43532" lon="-0.13816">
        <ele>30.04</ele>
        <time>2024-07-14T21:45:28.797Z</time>
      </trkpt>
      <trkpt lat="47.43387" lon="-0.13801">
        <ele>29</ele>
        <time>2024-07-14T21:45:30.726Z</time>
      </trkpt>
      <trkpt lat="47.4333" lon="-0.13601">
        <ele>28.9</ele>
        <time>2024-07-14T21:45:32.678Z</time>
      </trkpt>
      <trkpt lat="47.43193" lon="-0.13085">
        <ele>28.01</ele>
        <time>2024-07-14T21:45:34.690Z</time>
      </trkpt>
      <trkpt lat="47.43131" lon="-0.12851">
        <ele>35.06</ele>
        <time>2024-07-14T21:45:36.730Z</time>
      </trkpt>
      <trkpt lat="47.43119" lon="-0.12806">
        <ele>35.41</ele>
        <time>2024-07-14T21:45:38.775Z</time>
      </trkpt>
      <trkpt lat="47.43053" lon="-0.12535">
        <ele>36.25</ele>
        <time>2024-07-14T21:45:40.851Z</time>
      </trkpt>
      <trkpt lat="47.4301" lon="-0.12362">
        <ele>28.24</ele>
        <time>2024-07-14T21:45:42.947Z</time>
      </trkpt>
      <trkpt lat="47.43006" lon="-0.12337">
        <ele>27.83</ele>
        <time>2024-07-14T21:45:45.046Z</time>
      </trkpt>
      <trkpt lat="47.43005" lon="-0.12324">
        <ele>27.7</ele>
        <time>2024-07-14T21:45:47.146Z</time>
      </trkpt>
      <trkpt lat="47.42999" lon="-0.12322">
        <ele>27.13</ele>
        <time>2024-07-14T21:45:49.247Z</time>
      </trkpt>
      <trkpt lat="47.42718" lon="-0.11751">
        <ele>29.42</ele>
        <time>2024-07-14T21:45:51.425Z</time>
      </trkpt>
      <trkpt lat="47.42704" lon="-0.11764">
        <ele>29.87</ele>
        <time>2024-07-14T21:45:53.606Z</time>
      </trkpt>
      <trkpt lat="47.42604" lon="-0.11807">
        <ele>28</ele>
        <time>2024-07-14T21:45:55.803Z</time>
      </trkpt>
      <trkpt lat="47.42534" lon="-0.11833">
        <ele>28</ele>
        <time>2024-07-14T21:45:58.012Z</time>
      </trkpt>
      <trkpt lat="47.42487" lon="-0.11861">
        <ele>27.61</ele>
        <time>2024-07-14T21:46:00.229Z</time>
      </trkpt>
      <trkpt lat="47.42459" lon="-0.11887">
        <ele>26.28</ele>
        <time>2024-07-14T21:46:02.451Z</time>
      </trkpt>
      <trkpt lat="47.42451" lon="-0.11891">
        <ele>25.84</ele>
        <time>2024-07-14T21:46:04.675Z</time>
      </trkpt>
      <trkpt lat="47.42441" lon="-0.11898">
        <ele>25.34</ele>
        <time>2024-07-14T21:46:06.900Z</time>
      </trkpt>
      <trkpt lat="47.42407" lon="-0.1191">
        <ele>25.73</ele>
        <time>2024-07-14T21:46:09.131Z</time>
      </trkpt>
      <trkpt lat="47.42366" lon="-0.11914">
        <ele>25</ele>
        <time>2024-07-14T21:46:11.369Z</time>
      </trkpt>
      <trkpt lat="47.42293" lon="-0.11905">
        <ele>26.97</ele>
        <time>2024-07-14T21:46:13.618Z</time>
      </trkpt>
      <trkpt lat="47.42264" lon="-0.11919">
        <ele>26.52</ele>
        <time>2024-07-14T21:46:15.872Z</time>
      </trkpt>
      <trkpt lat="47.4219" lon="-0.11946">
        <ele>27.58</ele>
        <time>2024-07-14T21:46:18.138Z</time>
      </trkpt>
      <trkpt lat="47.42153" lon="-0.11956">
        <ele>27</ele>
        <time>2024-07-14T21:46:20.410Z</time>
      </trkpt>
      <trkpt lat="47.42096" lon="-0.11969">
        <ele>31.44</ele>
        <time>2024-07-14T21:46:22.692Z</time>
      </trkpt>
      <trkpt lat="47.42033" lon="-0.11985">
        <ele>35.83</ele>
        <time>2024-07-14T21:46:24.984Z</time>
      </trkpt>
      <trkpt lat="47.41947" lon="-0.11988">
        <ele>37.93</ele>
        <time>2024-07-14T21:46:27.290Z</time>
      </trkpt>
      <trkpt lat="47.41889" lon="-0.11983">
        <ele>35.71</ele>
        <time>2024-07-14T21:46:29.605Z</time>
      </trkpt>
      <trkpt lat="47.41718" lon="-0.11985">
        <ele>27</ele>
        <time>2024-07-14T21:46:31.947Z</time>
      </trkpt>
      <trkpt lat="47.41638" lon="-0.11986">
        <ele>28</ele>
        <time>2024-07-14T21:46:34.302Z</time>
      </trkpt>
      <trkpt lat="47.41491" lon="-0.1196">
        <ele>29.16</ele>
        <time>2024-07-14T21:46:36.681Z</time>
      </trkpt>
      <trkpt lat="47.41337" lon="-0.11928">
        <ele>26</ele>
        <time>2024-07-14T21:46:39.085Z</time>
      </trkpt>
      <trkpt lat="47.41331" lon="-0.11952">
        <ele>26</ele>
        <time>2024-07-14T21:46:41.492Z</time>
      </trkpt>
      <trkpt lat="47.41314" lon="-0.12002">
        <ele>25.38</ele>
        <time>2024-07-14T21:46:43.905Z</time>
      </trkpt>
      <trkpt lat="47.41283" lon="-0.12074">
        <ele>25.72</ele>
        <time>2024-07-14T21:46:46.327Z</time>
      </trkpt>
      <trkpt lat="47.41234" lon="-0.12189">
        <ele>26.68</ele>
        <time>2024-07-14T21:46:48.764Z</time>
      </trkpt>
      <trkpt lat="47.41157" lon="-0.12365">
        <ele>31.5</ele>
        <time>2024-07-14T21:46:51.223Z</time>
      </trkpt>
      <trkpt lat="47.41138" lon="-0.12409">
        <ele>33.08</ele>
        <time>2024-07-14T21:46:53.688Z</time>
      </trkpt>
      <trkpt lat="47.4113" lon="-0.12429">
        <ele>33.35</ele>
        <time>2024-07-14T21:46:56.155Z</time>
      </trkpt>
      <trkpt lat="47.41125" lon="-0.12442">
        <ele>33.45</ele>
        <time>2024-07-14T21:46:58.624Z</time>
      </trkpt>
      <trkpt lat="47.41122" lon="-0.12452">
        <ele>33.46</ele>
        <time>2024-07-14T21:47:01.094Z</time>
      </trkpt>
      <trkpt lat="47.41121" lon="-0.1246">
        <ele>33.42</ele>
        <time>2024-07-14T21:47:03.565Z</time>
      </trkpt>
      <trkpt lat="47.4112" lon="-0.12471">
        <ele>33.4</ele>
        <time>2024-07-14T21:47:06.037Z</time>
      </trkpt>
      <trkpt lat="47.4112" lon="-0.12481">
        <ele>33.31</ele>
        <time>2024-07-14T21:47:08.511Z</time>
      </trkpt>
      <trkpt lat="47.41121" lon="-0.1249">
        <ele>33</ele>
        <time>2024-07-14T21:47:10.985Z</time>
      </trkpt>
      <trkpt lat="47.41123" lon="-0.12497">
        <ele>33</ele>
        <time>2024-07-14T21:47:13.460Z</time>
      </trkpt>
      <trkpt lat="47.41125" lon="-0.12503">
        <ele>33</ele>
        <time>2024-07-14T21:47:15.936Z</time>
      </trkpt>
      <trkpt lat="47.41128" lon="-0.12509">
        <ele>33</ele>
        <time>2024-07-14T21:47:18.413Z</time>
      </trkpt>
      <trkpt lat="47.41131" lon="-0.12515">
        <ele>33</ele>
        <time>2024-07-14T21:47:20.891Z</time>
      </trkpt>
      <trkpt lat="47.41134" lon="-0.1252">
        <ele>33</ele>
        <time>2024-07-14T21:47:23.369Z</time>
      </trkpt>
      <trkpt lat="47.41173" lon="-0.12573">
        <ele>30.69</ele>
        <time>2024-07-14T21:47:25.856Z</time>
      </trkpt>
      <trkpt lat="47.4121" lon="-0.1263">
        <ele>29.08</ele>
        <time>2024-07-14T21:47:28.351Z</time>
      </trkpt>
      <trkpt lat="47.41241" lon="-0.12677">
        <ele>29.26</ele>
        <time>2024-07-14T21:47:30.854Z</time>
      </trkpt>
      <trkpt lat="47.41254" lon="-0.12698">
        <ele>28.51</ele>
        <time>2024-07-14T21:47:33.360Z</time>
      </trkpt>
      <trkpt lat="47.41266" lon="-0.12721">
        <ele>28</ele>
        <time>2024-07-14T21:47:35.869Z</time>
      </trkpt>
      <trkpt lat="47.4127" lon="-0.12729">
        <ele>28</ele>
        <time>2024-07-14T21:47:38.379Z</time>
      </trkpt>
      <trkpt lat="47.41273" lon="-0.12738">
        <ele>28</ele>
        <time>2024-07-14T21:47:40.890Z</time>
      </trkpt>
      <trkpt lat="47.41274" lon="-0.12747">
        <ele>28.22</ele>
        <time>2024-07-14T21:47:43.402Z</time>
      </trkpt>
      <trkpt lat="47.41275" lon="-0.12761">
        <ele>28.75</ele>
        <time>2024-07-14T21:47:45.916Z</time>
      </trkpt>
      <trkpt lat="47.41274" lon="-0.12774">
        <ele>28.94</ele>
        <time>2024-07-14T21:47:48.431Z</time>
      </trkpt>
      <trkpt lat="47.41271" lon="-0.12787">
        <ele>28.83</ele>
        <time>2024-07-14T21:47:50.947Z</time>
      </trkpt>
      <trkpt lat="47.41267" lon="-0.12799">
        <ele>28.57</ele>
        <time>2024-07-14T21:47:53.465Z</time>
      </trkpt>
      <trkpt lat="47.41262" lon="-0.12811">
        <ele>27.97</ele>
        <time>2024-07-14T21:47:55.984Z</time>
      </trkpt>
      <trkpt lat="47.41246" lon="-0.12803">
        <ele>27.8</ele>
        <time>2024-07-14T21:47:58.506Z</time>
      </trkpt>
      <trkpt lat="47.40726" lon="-0.12549">
        <ele>27.1</ele>
        <time>2024-07-14T21:48:01.116Z</time>
      </trkpt>
      <trkpt lat="47.40539" lon="-0.12457">
        <ele>25.5</ele>
        <time>2024-07-14T21:48:03.757Z</time>
      </trkpt>
      <trkpt lat="47.40534" lon="-0.12454">
        <ele>25.32</ele>
        <time>2024-07-14T21:48:06.399Z</time>
      </trkpt>
      <trkpt lat="47.40531" lon="-0.12451">
        <ele>25.21</ele>
        <time>2024-07-14T21:48:09.042Z</time>
      </trkpt>
      <trkpt lat="47.40528" lon="-0.12446">
        <ele>25.12</ele>
        <time>2024-07-14T21:48:11.686Z</time>
      </trkpt>
      <trkpt lat="47.40526" lon="-0.12437">
        <ele>25.02</ele>
        <time>2024-07-14T21:48:14.331Z</time>
      </trkpt>
      <trkpt lat="47.40503" lon="-0.12296">
        <ele>26</ele>
        <time>2024-07-14T21:48:16.991Z</time>
      </trkpt>
      <trkpt lat="47.40501" lon="-0.12287">
        <ele>26</ele>
        <time>2024-07-14T21:48:19.652Z</time>
      </trkpt>
      <trkpt lat="47.40498" lon="-0.1228">
        <ele>26</ele>
        <time>2024-07-14T21:48:22.314Z</time>
      </trkpt>
      <trkpt lat="47.40495" lon="-0.12276">
        <ele>26</ele>
        <time>2024-07-14T21:48:24.977Z</time>
      </trkpt>
      <trkpt lat="47.4049" lon="-0.12273">
        <ele>26</ele>
        <time>2024-07-14T21:48:27.641Z</time>
      </trkpt>
      <trkpt lat="47.40485" lon="-0.12272">
        <ele>26</ele>
        <time>2024-07-14T21:48:30.306Z</time>
      </trkpt>
      <trkpt lat="47.4047" lon="-0.12271">
        <ele>26</ele>
        <time>2024-07-14T21:48:32.973Z</time>
      </trkpt>
      <trkpt lat="47.40461" lon="-0.1227">
        <ele>25.58</ele>
        <time>2024-07-14T21:48:35.642Z</time>
      </trkpt>
      <trkpt lat="47.40451" lon="-0.12267">
        <ele>25.33</ele>
        <time>2024-07-14T21:48:38.312Z</time>
      </trkpt>
      <trkpt lat="47.40442" lon="-0.12262">
        <ele>25</ele>
        <time>2024-07-14T21:48:40.984Z</time>
      </trkpt>
      <trkpt lat="47.40433" lon="-0.12255">
        <ele>24.67</ele>
        <time>2024-07-14T21:48:43.657Z</time>
      </trkpt>
      <trkpt lat="47.40424" lon="-0.12245">
        <ele>24.82</ele>
        <time>2024-07-14T21:48:46.332Z</time>
      </trkpt>
      <trkpt lat="47.40415" lon="-0.12232">
        <ele>25.04</ele>
        <time>2024-07-14T21:48:49.009Z</time>
      </trkpt>
      <trkpt lat="47.40409" lon="-0.12221">
        <ele>25</ele>
        <time>2024-07-14T21:48:51.688Z</time>
      </trkpt>
      <trkpt lat="47.40404" lon="-0.1221">
        <ele>25</ele>
        <time>2024-07-14T21:48:54.368Z</time>
      </trkpt>
      <trkpt lat="47.404" lon="-0.12195">
        <ele>25</ele>
        <time>2024-07-14T21:48:57.050Z</time>
      </trkpt>
      <trkpt lat="47.40396" lon="-0.12181">
        <ele>25</ele>
        <time>2024-07-14T21:48:59.733Z</time>
      </trkpt>
      <trkpt lat="47.40394" lon="-0.12165">
        <ele>24.59</ele>
        <time>2024-07-14T21:49:02.418Z</time>
      </trkpt>
      <trkpt lat="47.40393" lon="-0.12148">
        <ele>24.23</ele>
        <time>2024-07-14T21:49:05.105Z</time>
      </trkpt>
      <trkpt lat="47.40393" lon="-0.12123">
        <ele>24.43</ele>
        <time>2024-07-14T21:49:07.795Z</time>
      </trkpt>
      <trkpt lat="47.40392" lon="-0.12114">
        <ele>24.38</ele>
        <time>2024-07-14T21:49:10.486Z</time>
      </trkpt>
      <trkpt lat="47.4039" lon="-0.1211">
        <ele>24.24</ele>
        <time>2024-07-14T21:49:13.177Z</time>
      </trkpt>
      <trkpt lat="47.40387" lon="-0.12106">
        <ele>24.05</ele>
        <time>2024-07-14T21:49:15.869Z</time>
      </trkpt>
      <trkpt lat="47.40383" lon="-0.12104">
        <ele>24</ele>
        <time>2024-07-14T21:49:18.562Z</time>
      </trkpt>
      <trkpt lat="47.40379" lon="-0.12105">
        <ele>24</ele>
        <time>2024-07-14T21:49:21.255Z</time>
      </trkpt>
      <trkpt lat="47.4025" lon="-0.12159">
        <ele>24.11</ele>
        <time>2024-07-14T21:49:23.970Z</time>
      </trkpt>
      <trkpt lat="47.40249" lon="-0.12149">
        <ele>24.25</ele>
        <time>2024-07-14T21:49:26.686Z</time>
      </trkpt>
      <trkpt lat="47.40247" lon="-0.12143">
        <ele>24.48</ele>
        <time>2024-07-14T21:49:29.403Z</time>
      </trkpt>
      <trkpt lat="47.40198" lon="-0.11987">
        <ele>24</ele>
        <time>2024-07-14T21:49:32.138Z</time>
      </trkpt>
      <trkpt lat="47.40193" lon="-0.11976">
        <ele>24</ele>
        <time>2024-07-14T21:49:34.875Z</time>
      </trkpt>
      <trkpt lat="47.40183" lon="-0.11966">
        <ele>24</ele>
        <time>2024-07-14T21:49:37.614Z</time>
      </trkpt>
      <trkpt lat="47.40117" lon="-0.11927">
        <ele>23.67</ele>
        <time>2024-07-14T21:49:40.364Z</time>
      </trkpt>
      <trkpt lat="47.40095" lon="-0.11912">
        <ele>24.26</ele>
        <time>2024-07-14T21:49:43.118Z</time>
      </trkpt>
      <trkpt lat="47.40072" lon="-0.11897">
        <ele>24.7</ele>
        <time>2024-07-14T21:49:45.876Z</time>
      </trkpt>
      <trkpt lat="47.40036" lon="-0.1187">
        <ele>23.76</ele>
        <time>2024-07-14T21:49:48.640Z</time>
      </trkpt>
      <trkpt lat="47.4" lon="-0.1184">
        <ele>23</ele>
        <time>2024-07-14T21:49:51.411Z</time>
      </trkpt>
      <trkpt lat="47.39958" lon="-0.11803">
        <ele>22.59</ele>
        <time>2024-07-14T21:49:54.190Z</time>
      </trkpt>
      <trkpt lat="47.39917" lon="-0.11766">
        <ele>21.17</ele>
        <time>2024-07-14T21:49:56.977Z</time>
      </trkpt>
      <trkpt lat="47.39911" lon="-0.11762">
        <ele>21.17</ele>
        <time>2024-07-14T21:49:59.764Z</time>
      </trkpt>
      <trkpt lat="47.39905" lon="-0.11761">
        <ele>21.2</ele>
        <time>2024-07-14T21:50:02.552Z</time>
      </trkpt>
      <trkpt lat="47.39899" lon="-0.11763">
        <ele>21.13</ele>
        <time>2024-07-14T21:50:05.341Z</time>
      </trkpt>
      <trkpt lat="47.39894" lon="-0.1177">
        <ele>21.09</ele>
        <time>2024-07-14T21:50:08.132Z</time>
      </trkpt>
      <trkpt lat="47.39889" lon="-0.11778">
        <ele>21.4</ele>
        <time>2024-07-14T21:50:10.924Z</time>
      </trkpt>
      <trkpt lat="47.39885" lon="-0.11789">
        <ele>21.74</ele>
        <time>2024-07-14T21:50:13.717Z</time>
      </trkpt>
      <trkpt lat="47.39842" lon="-0.11928">
        <ele>23.39</ele>
        <time>2024-07-14T21:50:16.527Z</time>
      </trkpt>
      <trkpt lat="47.39837" lon="-0.11938">
        <ele>23.05</ele>
        <time>2024-07-14T21:50:19.338Z</time>
      </trkpt>
      <trkpt lat="47.39831" lon="-0.11946">
        <ele>22.57</ele>
        <time>2024-07-14T21:50:22.150Z</time>
      </trkpt>
      <trkpt lat="47.39824" lon="-0.11951">
        <ele>22.64</ele>
        <time>2024-07-14T21:50:24.964Z</time>
      </trkpt>
      <trkpt lat="47.39815" lon="-0.11952">
        <ele>22.91</ele>
        <time>2024-07-14T21:50:27.779Z</time>
      </trkpt>
      <trkpt lat="47.39766" lon="-0.11955">
        <ele>24.08</ele>
        <time>2024-07-14T21:50:30.602Z</time>
      </trkpt>
      <trkpt lat="47.39721" lon="-0.12028">
        <ele>26</ele>
        <time>2024-07-14T21:50:33.436Z</time>
      </trkpt>
      <trkpt lat="47.39707" lon="-0.12048">
        <ele>26.1</ele>
        <time>2024-07-14T21:50:36.273Z</time>
      </trkpt>
      <trkpt lat="47.39705" lon="-0.12047">
        <ele>26.07</ele>
        <time>2024-07-14T21:50:39.110Z</time>
      </trkpt>
      <trkpt lat="47.39402" lon="-0.11899">
        <ele>24</ele>
        <time>2024-07-14T21:50:41.998Z</time>
      </trkpt>
      <trkpt lat="47.392" lon="-0.11776">
        <ele>23.32</ele>
        <time>2024-07-14T21:50:44.921Z</time>
      </trkpt>
      <trkpt lat="47.39058" lon="-0.11672">
        <ele>24.19</ele>
        <time>2024-07-14T21:50:47.870Z</time>
      </trkpt>
      <trkpt lat="47.39033" lon="-0.11655">
        <ele>23.31</ele>
        <time>2024-07-14T21:50:50.823Z</time>
      </trkpt>
      <trkpt lat="47.39018" lon="-0.11653">
        <ele>22.87</ele>
        <time>2024-07-14T21:50:53.778Z</time>
      </trkpt>
      <trkpt lat="47.39006" lon="-0.11654">
        <ele>22.4</ele>
        <time>2024-07-14T21:50:56.735Z</time>
      </trkpt>
      <trkpt lat="47.39" lon="-0.11657">
        <ele>22.14</ele>
        <time>2024-07-14T21:50:59.693Z</time>
      </trkpt>
      <trkpt lat="47.38993" lon="-0.11668">
        <ele>22.26</ele>
        <time>2024-07-14T21:51:02.653Z</time>
      </trkpt>
      <trkpt lat="47.38965" lon="-0.11718">
        <ele>22.85</ele>
        <time>2024-07-14T21:51:05.620Z</time>
      </trkpt>
      <trkpt lat="47.38927" lon="-0.11788">
        <ele>22.78</ele>
        <time>2024-07-14T21:51:08.597Z</time>
      </trkpt>
      <trkpt lat="47.3892" lon="-0.11794">
        <ele>22.78</ele>
        <time>2024-07-14T21:51:11.575Z</time>
      </trkpt>
      <trkpt lat="47.38917" lon="-0.11797">
        <ele>22.88</ele>
        <time>2024-07-14T21:51:14.554Z</time>
      </trkpt>
      <trkpt lat="47.38913" lon="-0.11794">
        <ele>23.02</ele>
        <time>2024-07-14T21:51:17.533Z</time>
      </trkpt>
      <trkpt lat="47.38906" lon="-0.11777">
        <ele>23.26</ele>
        <time>2024-07-14T21:51:20.514Z</time>
      </trkpt>
      <trkpt lat="47.38901" lon="-0.11761">
        <ele>23.46</ele>
        <time>2024-07-14T21:51:23.497Z</time>
      </trkpt>
      <trkpt lat="47.38887" lon="-0.11768">
        <ele>23.96</ele>
        <time>2024-07-14T21:51:26.483Z</time>
      </trkpt>
      <trkpt lat="47.38881" lon="-0.11771">
        <ele>24</ele>
        <time>2024-07-14T21:51:29.470Z</time>
      </trkpt>
      <trkpt lat="47.38875" lon="-0.11772">
        <ele>24</ele>
        <time>2024-07-14T21:51:32.458Z</time>
      </trkpt>
      <trkpt lat="47.38863" lon="-0.11757">
        <ele>24.16</ele>
        <time>2024-07-14T21:51:35.448Z</time>
      </trkpt>
      <trkpt lat="47.38857" lon="-0.11755">
        <ele>24.47</ele>
        <time>2024-07-14T21:51:38.439Z</time>
      </trkpt>
      <trkpt lat="47.38855" lon="-0.11744">
        <ele>24.93</ele>
        <time>2024-07-14T21:51:41.431Z</time>
      </trkpt>
      <trkpt lat="47.3885" lon="-0.11742">
        <ele>25</ele>
        <time>2024-07-14T21:51:44.424Z</time>
      </trkpt>
      <trkpt lat="47.38845" lon="-0.11737">
        <ele>25.09</ele>
        <time>2024-07-14T21:51:47.418Z</time>
      </trkpt>
      <trkpt lat="47.38841" lon="-0.11731">
        <ele>25.29</ele>
        <time>2024-07-14T21:51:50.413Z</time>
      </trkpt>
      <trkpt lat="47.38831" lon="-0.11714">
        <ele>25.91</ele>
        <time>2024-07-14T21:51:53.410Z</time>
      </trkpt>
      <trkpt lat="47.38823" lon="-0.117">
        <ele>26</ele>
        <time>2024-07-14T21:51:56.409Z</time>
      </trkpt>
      <trkpt lat="47.38815" lon="-0.11688">
        <ele>26</ele>
        <time>2024-07-14T21:51:59.410Z</time>
      </trkpt>
      <trkpt lat="47.38805" lon="-0.11677">
        <ele>25.92</ele>
        <time>2024-07-14T21:52:02.413Z</time>
      </trkpt>
      <trkpt lat="47.38734" lon="-0.11599">
        <ele>23.86</ele>
        <time>2024-07-14T21:52:05.430Z</time>
      </trkpt>
      <trkpt lat="47.38718" lon="-0.11581">
        <ele>24.31</ele>
        <time>2024-07-14T21:52:08.451Z</time>
      </trkpt>
      <trkpt lat="47.38687" lon="-0.11549">
        <ele>24</ele>
        <time>2024-07-14T21:52:11.478Z</time>
      </trkpt>
      <trkpt lat="47.38677" lon="-0.1154">
        <ele>24.16</ele>
        <time>2024-07-14T21:52:14.507Z</time>
      </trkpt>
      <trkpt lat="47.3867" lon="-0.11536">
        <ele>24.23</ele>
        <time>2024-07-14T21:52:17.537Z</time>
      </trkpt>
      <trkpt lat="47.38667" lon="-0.11536">
        <ele>24.1</ele>
        <time>2024-07-14T21:52:20.567Z</time>
      </trkpt>
      <trkpt lat="47.38663" lon="-0.11537">
        <ele>24.01</ele>
        <time>2024-07-14T21:52:23.598Z</time>
      </trkpt>
      <trkpt lat="47.38659" lon="-0.11538">
        <ele>24.17</ele>
        <time>2024-07-14T21:52:26.630Z</time>
      </trkpt>
      <trkpt lat="47.38654" lon="-0.11536">
        <ele>24.33</ele>
        <time>2024-07-14T21:52:29.662Z</time>
      </trkpt>
      <trkpt lat="47.3865" lon="-0.11532">
        <ele>24.48</ele>
        <time>2024-07-14T21:52:32.695Z</time>
      </trkpt>
      <trkpt lat="47.38648" lon="-0.11527">
        <ele>24.34</ele>
        <time>2024-07-14T21:52:35.729Z</time>
      </trkpt>
      <trkpt lat="47.38646" lon="-0.11522">
        <ele>24.17</ele>
        <time>2024-07-14T21:52:38.763Z</time>
      </trkpt>
      <trkpt lat="47.38646" lon="-0.11515">
        <ele>24.07</ele>
        <time>2024-07-14T21:52:41.798Z</time>
      </trkpt>
      <trkpt lat="47.38645" lon="-0.11508">
        <ele>24.32</ele>
        <time>2024-07-14T21:52:44.834Z</time>
      </trkpt>
      <trkpt lat="47.38641" lon="-0.11503">
        <ele>24.2</ele>
        <time>2024-07-14T21:52:47.871Z</time>
      </trkpt>
      <trkpt lat="47.38629" lon="-0.11489">
        <ele>24</ele>
        <time>2024-07-14T21:52:50.910Z</time>
      </trkpt>
      <trkpt lat="47.386" lon="-0.11459">
        <ele>23.89</ele>
        <time>2024-07-14T21:52:53.955Z</time>
      </trkpt>
      <trkpt lat="47.38581" lon="-0.11439">
        <ele>23.98</ele>
        <time>2024-07-14T21:52:57.004Z</time>
      </trkpt>
      <trkpt lat="47.38568" lon="-0.11426">
        <ele>24.43</ele>
        <time>2024-07-14T21:53:00.055Z</time>
      </trkpt>
      <trkpt lat="47.38564" lon="-0.11422">
        <ele>24.58</ele>
        <time>2024-07-14T21:53:03.107Z</time>
      </trkpt>
      <trkpt lat="47.38552" lon="-0.11415">
        <ele>24.32</ele>
        <time>2024-07-14T21:53:06.161Z</time>
      </trkpt>
      <trkpt lat="47.38526" lon="-0.11402">
        <ele>24.83</ele>
        <time>2024-07-14T21:53:09.219Z</time>
      </trkpt>
      <trkpt lat="47.38482" lon="-0.11383">
        <ele>24.33</ele>
        <time>2024-07-14T21:53:12.285Z</time>
      </trkpt>
      <trkpt lat="47.38441" lon="-0.11369">
        <ele>25.64</ele>
        <time>2024-07-14T21:53:15.357Z</time>
      </trkpt>
      <trkpt lat="47.38435" lon="-0.11366">
        <ele>25.32</ele>
        <time>2024-07-14T21:53:18.430Z</time>
      </trkpt>
      <trkpt lat="47.38427" lon="-0.11363">
        <ele>25</ele>
        <time>2024-07-14T21:53:21.505Z</time>
      </trkpt>
      <trkpt lat="47.38416" lon="-0.11359">
        <ele>25</ele>
        <time>2024-07-14T21:53:24.582Z</time>
      </trkpt>
      <trkpt lat="47.3841" lon="-0.1136">
        <ele>24.88</ele>
        <time>2024-07-14T21:53:27.659Z</time>
      </trkpt>
      <trkpt lat="47.38408" lon="-0.11356">
        <ele>24.8</ele>
        <time>2024-07-14T21:53:30.737Z</time>
      </trkpt>
      <trkpt lat="47.38401" lon="-0.11349">
        <ele>24.48</ele>
        <time>2024-07-14T21:53:33.816Z</time>
      </trkpt>
      <trkpt lat="47.38395" lon="-0.11343">
        <ele>24.05</ele>
        <time>2024-07-14T21:53:36.897Z</time>
      </trkpt>
      <trkpt lat="47.38372" lon="-0.11319">
        <ele>24</ele>
        <time>2024-07-14T21:53:39.982Z</time>
      </trkpt>
      <trkpt lat="47.38348" lon="-0.11296">
        <ele>23.97</ele>
        <time>2024-07-14T21:53:43.072Z</time>
      </trkpt>
      <trkpt lat="47.38327" lon="-0.11275">
        <ele>23.88</ele>
        <time>2024-07-14T21:53:46.166Z</time>
      </trkpt>
      <trkpt lat="47.38272" lon="-0.11218">
        <ele>24</ele>
        <time>2024-07-14T21:53:49.271Z</time>
      </trkpt>
      <trkpt lat="47.38255" lon="-0.11199">
        <ele>24</ele>
        <time>2024-07-14T21:53:52.379Z</time>
      </trkpt>
      <trkpt lat="47.38215" lon="-0.11155">
        <ele>24</ele>
        <time>2024-07-14T21:53:55.495Z</time>
      </trkpt>
      <trkpt lat="47.38209" lon="-0.11147">
        <ele>24</ele>
        <time>2024-07-14T21:53:58.612Z</time>
      </trkpt>
      <trkpt lat="47.38199" lon="-0.11128">
        <ele>24.72</ele>
        <time>2024-07-14T21:54:01.732Z</time>
      </trkpt>
      <trkpt lat="47.38181" lon="-0.11098">
        <ele>25.76</ele>
        <time>2024-07-14T21:54:04.856Z</time>
      </trkpt>
      <trkpt lat="47.38174" lon="-0.11088">
        <ele>26.17</ele>
        <time>2024-07-14T21:54:07.982Z</time>
      </trkpt>
      <trkpt lat="47.3817" lon="-0.11083">
        <ele>26.15</ele>
        <time>2024-07-14T21:54:11.109Z</time>
      </trkpt>
      <trkpt lat="47.38165" lon="-0.1108">
        <ele>26.21</ele>
        <time>2024-07-14T21:54:14.236Z</time>
      </trkpt>
      <trkpt lat="47.38161" lon="-0.11076">
        <ele>26.22</ele>
        <time>2024-07-14T21:54:17.364Z</time>
      </trkpt>
      <trkpt lat="47.38153" lon="-0.11071">
        <ele>26.34</ele>
        <time>2024-07-14T21:54:20.494Z</time>
      </trkpt>
      <trkpt lat="47.38139" lon="-0.11063">
        <ele>26.55</ele>
        <time>2024-07-14T21:54:23.626Z</time>
      </trkpt>
      <trkpt lat="47.38137" lon="-0.11062">
        <ele>26.58</ele>
        <time>2024-07-14T21:54:26.758Z</time>
      </trkpt>
      <trkpt lat="47.3813" lon="-0.11058">
        <ele>26.67</ele>
        <time>2024-07-14T21:54:29.892Z</time>
      </trkpt>
      <trkpt lat="47.38121" lon="-0.1105">
        <ele>26.73</ele>
        <time>2024-07-14T21:54:33.027Z</time>
      </trkpt>
      <trkpt lat="47.38111" lon="-0.11073">
        <ele>27.9</ele>
        <time>2024-07-14T21:54:36.165Z</time>
      </trkpt>
      <trkpt lat="47.38103" lon="-0.11096">
        <ele>28</ele>
        <time>2024-07-14T21:54:39.306Z</time>
      </trkpt>
      <trkpt lat="47.38102" lon="-0.11114">
        <ele>28.49</ele>
        <time>2024-07-14T21:54:42.449Z</time>
      </trkpt>
      <trkpt lat="47.38098" lon="-0.11128">
        <ele>29</ele>
        <time>2024-07-14T21:54:45.594Z</time>
      </trkpt>
      <trkpt lat="47.3809" lon="-0.11168">
        <ele>28.24</ele>
        <time>2024-07-14T21:54:48.743Z</time>
      </trkpt>
      <trkpt lat="47.38084" lon="-0.11203">
        <ele>26.45</ele>
        <time>2024-07-14T21:54:51.896Z</time>
      </trkpt>
      <trkpt lat="47.38079" lon="-0.11237">
        <ele>25.08</ele>
        <time>2024-07-14T21:54:55.053Z</time>
      </trkpt>
      <trkpt lat="47.38065" lon="-0.11297">
        <ele>23.45</ele>
        <time>2024-07-14T21:54:58.217Z</time>
      </trkpt>
      <trkpt lat="47.38058" lon="-0.11317">
        <ele>23.2</ele>
        <time>2024-07-14T21:55:01.383Z</time>
      </trkpt>
      <trkpt lat="47.38047" lon="-0.11335">
        <ele>23.2</ele>
        <time>2024-07-14T21:55:04.552Z</time>
      </trkpt>
      <trkpt lat="47.3803" lon="-0.11369">
        <ele>23.81</ele>
        <time>2024-07-14T21:55:07.725Z</time>
      </trkpt>
      <trkpt lat="47.38009" lon="-0.11403">
        <ele>24.54</ele>
        <time>2024-07-14T21:55:10.903Z</time>
      </trkpt>
      <trkpt lat="47.38003" lon="-0.11419">
        <ele>24.76</ele>
        <time>2024-07-14T21:55:14.083Z</time>
      </trkpt>
      <trkpt lat="47.38001" lon="-0.11431">
        <ele>24.84</ele>
        <time>2024-07-14T21:55:17.265Z</time>
      </trkpt>
      <trkpt lat="47.38064" lon="-0.11475">
        <ele>22.16</ele>
        <time>2024-07-14T21:55:20.458Z</time>
      </trkpt>
      <trkpt lat="47.38083" lon="-0.11489">
        <ele>21.99</ele>
        <time>2024-07-14T21:55:23.654Z</time>
      </trkpt>
      <trkpt lat="47.38131" lon="-0.11522">
        <ele>23.15</ele>
        <time>2024-07-14T21:55:26.859Z</time>
      </trkpt>
      <trkpt lat="47.38145" lon="-0.11525">
        <ele>23.28</ele>
        <time>2024-07-14T21:55:30.066Z</time>
      </trkpt>
      <trkpt lat="47.38147" lon="-0.11523">
        <ele>23.2</ele>
        <time>2024-07-14T21:55:33.273Z</time>
      </trkpt>
      <trkpt lat="47.3815" lon="-0.11521">
        <ele>23.15</ele>
        <time>2024-07-14T21:55:36.481Z</time>
      </trkpt>
      <trkpt lat="47.38152" lon="-0.11521">
        <ele>23.13</ele>
        <time>2024-07-14T21:55:39.689Z</time>
      </trkpt>
      <trkpt lat="47.38155" lon="-0.11521">
        <ele>23.14</ele>
        <time>2024-07-14T21:55:42.898Z</time>
      </trkpt>
      <trkpt lat="47.38157" lon="-0.11523">
        <ele>23.19</ele>
        <time>2024-07-14T21:55:46.107Z</time>
      </trkpt>
      <trkpt lat="47.3816" lon="-0.11525">
        <ele>23.13</ele>
        <time>2024-07-14T21:55:49.317Z</time>
      </trkpt>
      <trkpt lat="47.38161" lon="-0.11528">
        <ele>23.06</ele>
        <time>2024-07-14T21:55:52.527Z</time>
      </trkpt>
      <trkpt lat="47.38163" lon="-0.11532">
        <ele>23.02</ele>
        <time>2024-07-14T21:55:55.737Z</time>
      </trkpt>
      <trkpt lat="47.38163" lon="-0.11536">
        <ele>23</ele>
        <time>2024-07-14T21:55:58.948Z</time>
      </trkpt>
      <trkpt lat="47.38163" lon="-0.1154">
        <ele>23.01</ele>
        <time>2024-07-14T21:56:02.159Z</time>
      </trkpt>
      <trkpt lat="47.38162" lon="-0.11543">
        <ele>23.04</ele>
        <time>2024-07-14T21:56:05.371Z</time>
      </trkpt>
      <trkpt lat="47.38217" lon="-0.11581">
        <ele>23.3</ele>
        <time>2024-07-14T21:56:08.592Z</time>
      </trkpt>
      <trkpt lat="47.38221" lon="-0.1159">
        <ele>23.52</ele>
        <time>2024-07-14T21:56:11.815Z</time>
      </trkpt>
      <trkpt lat="47.38221" lon="-0.11599">
        <ele>23.88</ele>
        <time>2024-07-14T21:56:15.039Z</time>
      </trkpt>
      <trkpt lat="47.38201" lon="-0.11634">
        <ele>24.22</ele>
        <time>2024-07-14T21:56:18.268Z</time>
      </trkpt>
      <trkpt lat="47.38182" lon="-0.11664">
        <ele>24.93</ele>
        <time>2024-07-14T21:56:21.501Z</time>
      </trkpt>
      <trkpt lat="47.38101" lon="-0.11756">
        <ele>22</ele>
        <time>2024-07-14T21:56:24.750Z</time>
      </trkpt>
      <trkpt lat="47.38029" lon="-0.11833">
        <ele>21</ele>
        <time>2024-07-14T21:56:28.014Z</time>
      </trkpt>
      <trkpt lat="47.38055" lon="-0.11839">
        <ele>21.08</ele>
        <time>2024-07-14T21:56:31.282Z</time>
      </trkpt>
      <trkpt lat="47.38048" lon="-0.1185">
        <ele>21</ele>
        <time>2024-07-14T21:56:34.551Z</time>
      </trkpt>
      <trkpt lat="47.37995" lon="-0.11907">
        <ele>22.05</ele>
        <time>2024-07-14T21:56:37.831Z</time>
      </trkpt>
      <trkpt lat="47.37968" lon="-0.11937">
        <ele>22.91</ele>
        <time>2024-07-14T21:56:41.116Z</time>
      </trkpt>
      <trkpt lat="47.37881" lon="-0.12031">
        <ele>22</ele>
        <time>2024-07-14T21:56:44.418Z</time>
      </trkpt>
      <trkpt lat="47.3785" lon="-0.12066">
        <ele>21.53</ele>
        <time>2024-07-14T21:56:47.727Z</time>
      </trkpt>
      <trkpt lat="47.37803" lon="-0.12125">
        <ele>22.97</ele>
        <time>2024-07-14T21:56:51.046Z</time>
      </trkpt>
      <trkpt lat="47.37776" lon="-0.12167">
        <ele>23.87</ele>
        <time>2024-07-14T21:56:54.371Z</time>
      </trkpt>
      <trkpt lat="47.37754" lon="-0.12201">
        <ele>26.19</ele>
        <time>2024-07-14T21:56:57.701Z</time>
      </trkpt>
      <trkpt lat="47.37725" lon="-0.12247">
        <ele>26.22</ele>
        <time>2024-07-14T21:57:01.038Z</time>
      </trkpt>
      <trkpt lat="47.37708" lon="-0.12284">
        <ele>24.4</ele>
        <time>2024-07-14T21:57:04.380Z</time>
      </trkpt>
      <trkpt lat="47.37688" lon="-0.12347">
        <ele>24.1</ele>
        <time>2024-07-14T21:57:07.729Z</time>
      </trkpt>
      <trkpt lat="47.37679" lon="-0.12391">
        <ele>24.42</ele>
        <time>2024-07-14T21:57:11.083Z</time>
      </trkpt>
      <trkpt lat="47.37655" lon="-0.12517">
        <ele>22.31</ele>
        <time>2024-07-14T21:57:14.452Z</time>
      </trkpt>
      <trkpt lat="47.37655" lon="-0.12535">
        <ele>21.66</ele>
        <time>2024-07-14T21:57:17.823Z</time>
      </trkpt>
      <trkpt lat="47.37666" lon="-0.12549">
        <ele>20.85</ele>
        <time>2024-07-14T21:57:21.196Z</time>
      </trkpt>
      <trkpt lat="47.37675" lon="-0.12564">
        <ele>20.09</ele>
        <time>2024-07-14T21:57:24.571Z</time>
      </trkpt>
      <trkpt lat="47.37645" lon="-0.12582">
        <ele>19.64</ele>
        <time>2024-07-14T21:57:27.951Z</time>
      </trkpt>
      <trkpt lat="47.37632" lon="-0.12586">
        <ele>20.22</ele>
        <time>2024-07-14T21:57:31.333Z</time>
      </trkpt>
      <trkpt lat="47.37621" lon="-0.12583">
        <ele>21.21</ele>
        <time>2024-07-14T21:57:34.717Z</time>
      </trkpt>
      <trkpt lat="47.37602" lon="-0.12576">
        <ele>23.2</ele>
        <time>2024-07-14T21:57:38.104Z</time>
      </trkpt>
      <trkpt lat="47.37564" lon="-0.12554">
        <ele>25</ele>
        <time>2024-07-14T21:57:41.498Z</time>
      </trkpt>
      <trkpt lat="47.37515" lon="-0.12528">
        <ele>24.02</ele>
        <time>2024-07-14T21:57:44.900Z</time>
      </trkpt>
      <trkpt lat="47.37511" lon="-0.12526">
        <ele>24</ele>
        <time>2024-07-14T21:57:48.303Z</time>
      </trkpt>
      <trkpt lat="47.37494" lon="-0.12615">
        <ele>24.48</ele>
        <time>2024-07-14T21:57:51.716Z</time>
      </trkpt>
      <trkpt lat="47.37473" lon="-0.127">
        <ele>23.26</ele>
        <time>2024-07-14T21:57:55.139Z</time>
      </trkpt>
      <trkpt lat="47.3744" lon="-0.1284">
        <ele>21.01</ele>
        <time>2024-07-14T21:57:58.578Z</time>
      </trkpt>
      <trkpt lat="47.37426" lon="-0.12896">
        <ele>22.57</ele>
        <time>2024-07-14T21:58:02.023Z</time>
      </trkpt>
      <trkpt lat="47.37421" lon="-0.12911">
        <ele>23.27</ele>
        <time>2024-07-14T21:58:05.470Z</time>
      </trkpt>
      <trkpt lat="47.3742" lon="-0.12928">
        <ele>24.08</ele>
        <time>2024-07-14T21:58:08.919Z</time>
      </trkpt>
      <trkpt lat="47.37423" lon="-0.12938">
        <ele>23.64</ele>
        <time>2024-07-14T21:58:12.369Z</time>
      </trkpt>
      <trkpt lat="47.37424" lon="-0.12948">
        <ele>23.53</ele>
        <time>2024-07-14T21:58:15.820Z</time>
      </trkpt>
      <trkpt lat="47.37423" lon="-0.12956">
        <ele>23.69</ele>
        <time>2024-07-14T21:58:19.272Z</time>
      </trkpt>
      <trkpt lat="47.37422" lon="-0.12968">
        <ele>23.85</ele>
        <time>2024-07-14T21:58:22.726Z</time>
      </trkpt>
      <trkpt lat="47.37417" lon="-0.1298">
        <ele>23.9</ele>
        <time>2024-07-14T21:58:26.181Z</time>
      </trkpt>
      <trkpt lat="47.37411" lon="-0.12989">
        <ele>24.08</ele>
        <time>2024-07-14T21:58:29.638Z</time>
      </trkpt>
      <trkpt lat="47.37405" lon="-0.12995">
        <ele>23.93</ele>
        <time>2024-07-14T21:58:33.096Z</time>
      </trkpt>
      <trkpt lat="47.37396" lon="-0.12997">
        <ele>24.07</ele>
        <time>2024-07-14T21:58:36.555Z</time>
      </trkpt>
      <trkpt lat="47.37381" lon="-0.12995">
        <ele>24.62</ele>
        <time>2024-07-14T21:58:40.017Z</time>
      </trkpt>
      <trkpt lat="47.37372" lon="-0.12987">
        <ele>25.17</ele>
        <time>2024-07-14T21:58:43.480Z</time>
      </trkpt>
      <trkpt lat="47.37366" lon="-0.12978">
        <ele>25.87</ele>
        <time>2024-07-14T21:58:46.945Z</time>
      </trkpt>
      <trkpt lat="47.37359" lon="-0.12977">
        <ele>25.88</ele>
        <time>2024-07-14T21:58:50.411Z</time>
      </trkpt>
      <trkpt lat="47.37352" lon="-0.12978">
        <ele>25.25</ele>
        <time>2024-07-14T21:58:53.878Z</time>
      </trkpt>
      <trkpt lat="47.37344" lon="-0.12983">
        <ele>23.98</ele>
        <time>2024-07-14T21:58:57.346Z</time>
      </trkpt>
      <trkpt lat="47.37338" lon="-0.12996">
        <ele>22.87</ele>
        <time>2024-07-14T21:59:00.816Z</time>
      </trkpt>
      <trkpt lat="47.37336" lon="-0.13005">
        <ele>22.66</ele>
        <time>2024-07-14T21:59:04.287Z</time>
      </trkpt>
      <trkpt lat="47.37336" lon="-0.13016">
        <ele>22.28</ele>
        <time>2024-07-14T21:59:07.759Z</time>
      </trkpt>
      <trkpt lat="47.37336" lon="-0.13027">
        <ele>21.91</ele>
        <time>2024-07-14T21:59:11.232Z</time>
      </trkpt>
      <trkpt lat="47.37339" lon="-0.13039">
        <ele>21.63</ele>
        <time>2024-07-14T21:59:14.707Z</time>
      </trkpt>
      <trkpt lat="47.37353" lon="-0.13076">
        <ele>22</ele>
        <time>2024-07-14T21:59:18.186Z</time>
      </trkpt>
      <trkpt lat="47.37356" lon="-0.13091">
        <ele>22</ele>
        <time>2024-07-14T21:59:21.667Z</time>
      </trkpt>
      <trkpt lat="47.37358" lon="-0.13109">
        <ele>22.27</ele>
        <time>2024-07-14T21:59:25.150Z</time>
      </trkpt>
      <trkpt lat="47.37358" lon="-0.13127">
        <ele>22.93</ele>
        <time>2024-07-14T21:59:28.635Z</time>
      </trkpt>
      <trkpt lat="47.37356" lon="-0.13144">
        <ele>23.07</ele>
        <time>2024-07-14T21:59:32.122Z</time>
      </trkpt>
      <trkpt lat="47.37348" lon="-0.13164">
        <ele>23.33</ele>
        <time>2024-07-14T21:59:35.611Z</time>
      </trkpt>
      <trkpt lat="47.37342" lon="-0.13176">
        <ele>23.68</ele>
        <time>2024-07-14T21:59:39.102Z</time>
      </trkpt>
      <trkpt lat="47.37336" lon="-0.13187">
        <ele>24.08</ele>
        <time>2024-07-14T21:59:42.595Z</time>
      </trkpt>
      <trkpt lat="47.37327" lon="-0.13197">
        <ele>24.35</ele>
        <time>2024-07-14T21:59:46.089Z</time>
      </trkpt>
      <trkpt lat="47.37273" lon="-0.13241">
        <ele>22.95</ele>
        <time>2024-07-14T21:59:49.593Z</time>
      </trkpt>
      <trkpt lat="47.37243" lon="-0.13275">
        <ele>21.45</ele>
        <time>2024-07-14T21:59:53.103Z</time>
      </trkpt>
      <trkpt lat="47.37212" lon="-0.13303">
        <ele>20.22</ele>
        <time>2024-07-14T21:59:56.619Z</time>
      </trkpt>
      <trkpt lat="47.37198" lon="-0.13311">
        <ele>20.76</ele>
        <time>2024-07-14T22:00:00.138Z</time>
      </trkpt>
      <trkpt lat="47.37141" lon="-0.1333">
        <ele>23</ele>
        <time>2024-07-14T22:00:03.666Z</time>
      </trkpt>
      <trkpt lat="47.37011" lon="-0.13392">
        <ele>21.92</ele>
        <time>2024-07-14T22:00:07.216Z</time>
      </trkpt>
      <trkpt lat="47.36984" lon="-0.13408">
        <ele>23</ele>
        <time>2024-07-14T22:00:10.770Z</time>
      </trkpt>
      <trkpt lat="47.36964" lon="-0.13423">
        <ele>23</ele>
        <time>2024-07-14T22:00:14.328Z</time>
      </trkpt>
      <trkpt lat="47.36876" lon="-0.13488">
        <ele>21.66</ele>
        <time>2024-07-14T22:00:17.902Z</time>
      </trkpt>
      <trkpt lat="47.3669" lon="-0.13636">
        <ele>23.95</ele>
        <time>2024-07-14T22:00:21.510Z</time>
      </trkpt>
      <trkpt lat="47.36592" lon="-0.13698">
        <ele>23.48</ele>
        <time>2024-07-14T22:00:25.135Z</time>
      </trkpt>
      <trkpt lat="47.36556" lon="-0.13724">
        <ele>23.13</ele>
        <time>2024-07-14T22:00:28.766Z</time>
      </trkpt>
      <trkpt lat="47.36506" lon="-0.13763">
        <ele>23</ele>
        <time>2024-07-14T22:00:32.406Z</time>
      </trkpt>
      <trkpt lat="47.36494" lon="-0.13778">
        <ele>23</ele>
        <time>2024-07-14T22:00:36.049Z</time>
      </trkpt>
      <trkpt lat="47.36488" lon="-0.1379">
        <ele>23</ele>
        <time>2024-07-14T22:00:39.693Z</time>
      </trkpt>
      <trkpt lat="47.36456" lon="-0.13703">
        <ele>23.54</ele>
        <time>2024-07-14T22:00:43.348Z</time>
      </trkpt>
      <trkpt lat="47.36446" lon="-0.13672">
        <ele>23</ele>
        <time>2024-07-14T22:00:47.007Z</time>
      </trkpt>
      <trkpt lat="47.36441" lon="-0.13649">
        <ele>22.74</ele>
        <time>2024-07-14T22:00:50.669Z</time>
      </trkpt>
      <trkpt lat="47.36436" lon="-0.13623">
        <ele>21.79</ele>
        <time>2024-07-14T22:00:54.333Z</time>
      </trkpt>
      <trkpt lat="47.36432" lon="-0.1359">
        <ele>21.33</ele>
        <time>2024-07-14T22:00:58.001Z</time>
      </trkpt>
      <trkpt lat="47.36424" lon="-0.13553">
        <ele>22.92</ele>
        <time>2024-07-14T22:01:01.673Z</time>
      </trkpt>
      <trkpt lat="47.36416" lon="-0.13517">
        <ele>24</ele>
        <time>2024-07-14T22:01:05.349Z</time>
      </trkpt>
      <trkpt lat="47.36411" lon="-0.13501">
        <ele>24.05</ele>
        <time>2024-07-14T22:01:09.027Z</time>
      </trkpt>
      <trkpt lat="47.36406" lon="-0.13484">
        <ele>23.8</ele>
        <time>2024-07-14T22:01:12.707Z</time>
      </trkpt>
      <trkpt lat="47.36398" lon="-0.13469">
        <ele>23.24</ele>
        <time>2024-07-14T22:01:16.389Z</time>
      </trkpt>
      <trkpt lat="47.3639" lon="-0.13456">
        <ele>22.94</ele>
        <time>2024-07-14T22:01:20.073Z</time>
      </trkpt>
      <trkpt lat="47.36366" lon="-0.13433">
        <ele>22</ele>
        <time>2024-07-14T22:01:23.762Z</time>
      </trkpt>
      <trkpt lat="47.36352" lon="-0.13415">
        <ele>22.19</ele>
        <time>2024-07-14T22:01:27.454Z</time>
      </trkpt>
      <trkpt lat="47.36339" lon="-0.13397">
        <ele>22.98</ele>
        <time>2024-07-14T22:01:31.149Z</time>
      </trkpt>
      <trkpt lat="47.36324" lon="-0.13371">
        <ele>23.2</ele>
        <time>2024-07-14T22:01:34.848Z</time>
      </trkpt>
      <trkpt lat="47.36243" lon="-0.13227">
        <ele>26.37</ele>
        <time>2024-07-14T22:01:38.567Z</time>
      </trkpt>
      <trkpt lat="47.36225" lon="-0.13197">
        <ele>25.48</ele>
        <time>2024-07-14T22:01:42.290Z</time>
      </trkpt>
      <trkpt lat="47.36212" lon="-0.13177">
        <ele>24.25</ele>
        <time>2024-07-14T22:01:46.016Z</time>
      </trkpt>
      <trkpt lat="47.36194" lon="-0.13157">
        <ele>23.13</ele>
        <time>2024-07-14T22:01:49.746Z</time>
      </trkpt>
      <trkpt lat="47.36138" lon="-0.13107">
        <ele>23</ele>
        <time>2024-07-14T22:01:53.486Z</time>
      </trkpt>
      <trkpt lat="47.36124" lon="-0.13092">
        <ele>23</ele>
        <time>2024-07-14T22:01:57.229Z</time>
      </trkpt>
      <trkpt lat="47.3603" lon="-0.13177">
        <ele>22.78</ele>
        <time>2024-07-14T22:02:00.990Z</time>
      </trkpt>
      <trkpt lat="47.35925" lon="-0.13272">
        <ele>22.07</ele>
        <time>2024-07-14T22:02:04.770Z</time>
      </trkpt>
      <trkpt lat="47.35909" lon="-0.13284">
        <ele>20.93</ele>
        <time>2024-07-14T22:02:08.553Z</time>
      </trkpt>
      <trkpt lat="47.35895" lon="-0.13292">
        <ele>20.87</ele>
        <time>2024-07-14T22:02:12.339Z</time>
      </trkpt>
      <trkpt lat="47.35873" lon="-0.13301">
        <ele>21.42</ele>
        <time>2024-07-14T22:02:16.128Z</time>
      </trkpt>
      <trkpt lat="47.35847" lon="-0.13307">
        <ele>22.37</ele>
        <time>2024-07-14T22:02:19.922Z</time>
      </trkpt>
      <trkpt lat="47.35818" lon="-0.13311">
        <ele>23.43</ele>
        <time>2024-07-14T22:02:23.720Z</time>
      </trkpt>
      <trkpt lat="47.35778" lon="-0.13316">
        <ele>24.11</ele>
        <time>2024-07-14T22:02:27.525Z</time>
      </trkpt>
      <trkpt lat="47.35734" lon="-0.13329">
        <ele>23.8</ele>
        <time>2024-07-14T22:02:31.337Z</time>
      </trkpt>
      <trkpt lat="47.35684" lon="-0.1335">
        <ele>23.74</ele>
        <time>2024-07-14T22:02:35.157Z</time>
      </trkpt>
      <trkpt lat="47.35637" lon="-0.1337">
        <ele>23</ele>
        <time>2024-07-14T22:02:38.985Z</time>
      </trkpt>
      <trkpt lat="47.35621" lon="-0.1338">
        <ele>23.54</ele>
        <time>2024-07-14T22:02:42.816Z</time>
      </trkpt>
      <trkpt lat="47.35606" lon="-0.1339">
        <ele>24.42</ele>
        <time>2024-07-14T22:02:46.649Z</time>
      </trkpt>
      <trkpt lat="47.35595" lon="-0.13401">
        <ele>24.8</ele>
        <time>2024-07-14T22:02:50.485Z</time>
      </trkpt>
      <trkpt lat="47.35582" lon="-0.13417">
        <ele>25</ele>
        <time>2024-07-14T22:02:54.323Z</time>
      </trkpt>
      <trkpt lat="47.35556" lon="-0.13456">
        <ele>24.21</ele>
        <time>2024-07-14T22:02:58.167Z</time>
      </trkpt>
      <trkpt lat="47.35504" lon="-0.13537">
        <ele>21.71</ele>
        <time>2024-07-14T22:03:02.023Z</time>
      </trkpt>
      <trkpt lat="47.35497" lon="-0.13552">
        <ele>21.93</ele>
        <time>2024-07-14T22:03:05.881Z</time>
      </trkpt>
      <trkpt lat="47.35489" lon="-0.13576">
        <ele>22.42</ele>
        <time>2024-07-14T22:03:09.742Z</time>
      </trkpt>
      <trkpt lat="47.35469" lon="-0.13643">
        <ele>21.48</ele>
        <time>2024-07-14T22:03:13.611Z</time>
      </trkpt>
      <trkpt lat="47.35461" lon="-0.13663">
        <ele>21.25</ele>
        <time>2024-07-14T22:03:17.483Z</time>
      </trkpt>
      <trkpt lat="47.35452" lon="-0.13678">
        <ele>21.77</ele>
        <time>2024-07-14T22:03:21.357Z</time>
      </trkpt>
      <trkpt lat="47.35447" lon="-0.13684">
        <ele>21.97</ele>
        <time>2024-07-14T22:03:25.232Z</time>
      </trkpt>
      <trkpt lat="47.35437" lon="-0.1369">
        <ele>22.18</ele>
        <time>2024-07-14T22:03:29.109Z</time>
      </trkpt>
      <trkpt lat="47.35422" lon="-0.13697">
        <ele>22.67</ele>
        <time>2024-07-14T22:03:32.988Z</time>
      </trkpt>
      <trkpt lat="47.35415" lon="-0.13701">
        <ele>22.9</ele>
        <time>2024-07-14T22:03:36.868Z</time>
      </trkpt>
      <trkpt lat="47.35409" lon="-0.13707">
        <ele>23.13</ele>
        <time>2024-07-14T22:03:40.750Z</time>
      </trkpt>
      <trkpt lat="47.35401" lon="-0.13718">
        <ele>23.41</ele>
        <time>2024-07-14T22:03:44.633Z</time>
      </trkpt>
      <trkpt lat="47.35393" lon="-0.13735">
        <ele>23.71</ele>
        <time>2024-07-14T22:03:48.519Z</time>
      </trkpt>
      <trkpt lat="47.35389" lon="-0.13746">
        <ele>23.6</ele>
        <time>2024-07-14T22:03:52.406Z</time>
      </trkpt>
      <trkpt lat="47.3538" lon="-0.13731">
        <ele>24.18</ele>
        <time>2024-07-14T22:03:56.295Z</time>
      </trkpt>
      <trkpt lat="47.35351" lon="-0.13686">
        <ele>24</ele>
        <time>2024-07-14T22:04:00.191Z</time>
      </trkpt>
      <trkpt lat="47.35338" lon="-0.13654">
        <ele>23.21</ele>
        <time>2024-07-14T22:04:04.091Z</time>
      </trkpt>
      <trkpt lat="47.35321" lon="-0.13616">
        <ele>22.17</ele>
        <time>2024-07-14T22:04:07.996Z</time>
      </trkpt>
      <trkpt lat="47.35304" lon="-0.13581">
        <ele>23.7</ele>
        <time>2024-07-14T22:04:11.906Z</time>
      </trkpt>
      <trkpt lat="47.35278" lon="-0.13538">
        <ele>25.1</ele>
        <time>2024-07-14T22:04:15.822Z</time>
      </trkpt>
      <trkpt lat="47.35258" lon="-0.13494">
        <ele>25</ele>
        <time>2024-07-14T22:04:19.744Z</time>
      </trkpt>
      <trkpt lat="47.35249" lon="-0.13464">
        <ele>24.07</ele>
        <time>2024-07-14T22:04:23.669Z</time>
      </trkpt>
      <trkpt lat="47.35246" lon="-0.13441">
        <ele>24</ele>
        <time>2024-07-14T22:04:27.597Z</time>
      </trkpt>
      <trkpt lat="47.35242" lon="-0.13386">
        <ele>23</ele>
        <time>2024-07-14T22:04:31.531Z</time>
      </trkpt>
      <trkpt lat="47.3524" lon="-0.13359">
        <ele>23</ele>
        <time>2024-07-14T22:04:35.468Z</time>
      </trkpt>
      <trkpt lat="47.35235" lon="-0.13329">
        <ele>23.6</ele>
        <time>2024-07-14T22:04:39.408Z</time>
      </trkpt>
      <trkpt lat="47.35227" lon="-0.13293">
        <ele>24.07</ele>
        <time>2024-07-14T22:04:43.352Z</time>
      </trkpt>
      <trkpt lat="47.35203" lon="-0.13186">
        <ele>23.52</ele>
        <time>2024-07-14T22:04:47.308Z</time>
      </trkpt>
      <trkpt lat="47.35201" lon="-0.13179">
        <ele>23.2</ele>
        <time>2024-07-14T22:04:51.265Z</time>
      </trkpt>
      <trkpt lat="47.3525" lon="-0.13149">
        <ele>22.74</ele>
        <time>2024-07-14T22:04:55.231Z</time>
      </trkpt>
      <trkpt lat="47.35248" lon="-0.13144">
        <ele>22.55</ele>
        <time>2024-07-14T22:04:59.197Z</time>
      </trkpt>
      <trkpt lat="47.35235" lon="-0.13093">
        <ele>22.9</ele>
        <time>2024-07-14T22:05:03.169Z</time>
      </trkpt>
      <trkpt lat="47.35229" lon="-0.13077">
        <ele>23.25</ele>
        <time>2024-07-14T22:05:07.143Z</time>
      </trkpt>
      <trkpt lat="47.35222" lon="-0.13062">
        <ele>23.55</ele>
        <time>2024-07-14T22:05:11.119Z</time>
      </trkpt>
      <trkpt lat="47.35165" lon="-0.1295">
        <ele>25</ele>
        <time>2024-07-14T22:05:15.110Z</time>
      </trkpt>
      <trkpt lat="47.35133" lon="-0.12868">
        <ele>23.52</ele>
        <time>2024-07-14T22:05:19.112Z</time>
      </trkpt>
      <trkpt lat="47.35086" lon="-0.12781">
        <ele>24.25</ele>
        <time>2024-07-14T22:05:23.126Z</time>
      </trkpt>
      <trkpt lat="47.35071" lon="-0.12752">
        <ele>25.84</ele>
        <time>2024-07-14T22:05:27.144Z</time>
      </trkpt>
      <trkpt lat="47.35059" lon="-0.12722">
        <ele>27.11</ele>
        <time>2024-07-14T22:05:31.166Z</time>
      </trkpt>
      <trkpt lat="47.35048" lon="-0.12688">
        <ele>28.11</ele>
        <time>2024-07-14T22:05:35.192Z</time>
      </trkpt>
      <trkpt lat="47.3504" lon="-0.12655">
        <ele>28.38</ele>
        <time>2024-07-14T22:05:39.221Z</time>
      </trkpt>
      <trkpt lat="47.35033" lon="-0.12621">
        <ele>27.14</ele>
        <time>2024-07-14T22:05:43.254Z</time>
      </trkpt>
      <trkpt lat="47.35028" lon="-0.12584">
        <ele>26.65</ele>
        <time>2024-07-14T22:05:47.291Z</time>
      </trkpt>
      <trkpt lat="47.35026" lon="-0.12545">
        <ele>25.92</ele>
        <time>2024-07-14T22:05:51.333Z</time>
      </trkpt>
      <trkpt lat="47.35025" lon="-0.12495">
        <ele>26</ele>
        <time>2024-07-14T22:05:55.380Z</time>
      </trkpt>
      <trkpt lat="47.35026" lon="-0.12458">
        <ele>25.92</ele>
        <time>2024-07-14T22:05:59.431Z</time>
      </trkpt>
      <trkpt lat="47.35027" lon="-0.12427">
        <ele>25.89</ele>
        <time>2024-07-14T22:06:03.485Z</time>
      </trkpt>
      <trkpt lat="47.35024" lon="-0.12391">
        <ele>25.97</ele>
        <time>2024-07-14T22:06:07.543Z</time>
      </trkpt>
      <trkpt lat="47.35021" lon="-0.12365">
        <ele>25.43</ele>
        <time>2024-07-14T22:06:11.604Z</time>
      </trkpt>
      <trkpt lat="47.35016" lon="-0.12341">
        <ele>24.73</ele>
        <time>2024-07-14T22:06:15.668Z</time>
      </trkpt>
      <trkpt lat="47.35004" lon="-0.12282">
        <ele>24.7</ele>
        <time>2024-07-14T22:06:19.739Z</time>
      </trkpt>
      <trkpt lat="47.34989" lon="-0.12232">
        <ele>24.96</ele>
        <time>2024-07-14T22:06:23.816Z</time>
      </trkpt>
      <trkpt lat="47.34979" lon="-0.122">
        <ele>24.19</ele>
        <time>2024-07-14T22:06:27.897Z</time>
      </trkpt>
      <trkpt lat="47.34955" lon="-0.12135">
        <ele>26.72</ele>
        <time>2024-07-14T22:06:31.986Z</time>
      </trkpt>
      <trkpt lat="47.34938" lon="-0.12083">
        <ele>28</ele>
        <time>2024-07-14T22:06:36.081Z</time>
      </trkpt>
      <trkpt lat="47.34923" lon="-0.12039">
        <ele>27</ele>
        <time>2024-07-14T22:06:40.181Z</time>
      </trkpt>
      <trkpt lat="47.34915" lon="-0.12017">
        <ele>26.1</ele>
        <time>2024-07-14T22:06:44.284Z</time>
      </trkpt>
      <trkpt lat="47.34907" lon="-0.11997">
        <ele>25.07</ele>
        <time>2024-07-14T22:06:48.389Z</time>
      </trkpt>
      <trkpt lat="47.34872" lon="-0.11918">
        <ele>25.58</ele>
        <time>2024-07-14T22:06:52.505Z</time>
      </trkpt>
      <trkpt lat="47.34856" lon="-0.11879">
        <ele>26</ele>
        <time>2024-07-14T22:06:56.626Z</time>
      </trkpt>
      <trkpt lat="47.34845" lon="-0.11855">
        <ele>26.26</ele>
        <time>2024-07-14T22:07:00.750Z</time>
      </trkpt>
      <trkpt lat="47.34834" lon="-0.11842">
        <ele>26.7</ele>
        <time>2024-07-14T22:07:04.876Z</time>
      </trkpt>
      <trkpt lat="47.34806" lon="-0.11819">
        <ele>26.84</ele>
        <time>2024-07-14T22:07:09.007Z</time>
      </trkpt>
      <trkpt lat="47.34793" lon="-0.11806">
        <ele>27</ele>
        <time>2024-07-14T22:07:13.141Z</time>
      </trkpt>
      <trkpt lat="47.34769" lon="-0.11778">
        <ele>28.35</ele>
        <time>2024-07-14T22:07:17.280Z</time>
      </trkpt>
      <trkpt lat="47.34721" lon="-0.11722">
        <ele>30.59</ele>
        <time>2024-07-14T22:07:21.428Z</time>
      </trkpt>
      <trkpt lat="47.34669" lon="-0.11653">
        <ele>26.51</ele>
        <time>2024-07-14T22:07:25.588Z</time>
      </trkpt>
      <trkpt lat="47.34649" lon="-0.11628">
        <ele>24.99</ele>
        <time>2024-07-14T22:07:29.752Z</time>
      </trkpt>
      <trkpt lat="47.34629" lon="-0.116">
        <ele>24.84</ele>
        <time>2024-07-14T22:07:33.920Z</time>
      </trkpt>
      <trkpt lat="47.34616" lon="-0.11583">
        <ele>26.09</ele>
        <time>2024-07-14T22:07:38.091Z</time>
      </trkpt>
      <trkpt lat="47.34598" lon="-0.11567">
        <ele>27.85</ele>
        <time>2024-07-14T22:07:42.265Z</time>
      </trkpt>
      <trkpt lat="47.34566" lon="-0.11544">
        <ele>28.36</ele>
        <time>2024-07-14T22:07:46.445Z</time>
      </trkpt>
      <trkpt lat="47.3451" lon="-0.11514">
        <ele>28.25</ele>
        <time>2024-07-14T22:07:50.635Z</time>
      </trkpt>
      <trkpt lat="47.34484" lon="-0.11496">
        <ele>27.67</ele>
        <time>2024-07-14T22:07:54.829Z</time>
      </trkpt>
      <trkpt lat="47.34472" lon="-0.11482">
        <ele>27.31</ele>
        <time>2024-07-14T22:07:59.026Z</time>
      </trkpt>
      <trkpt lat="47.34458" lon="-0.11462">
        <ele>26.74</ele>
        <time>2024-07-14T22:08:03.226Z</time>
      </trkpt>
      <trkpt lat="47.34442" lon="-0.1144">
        <ele>27.09</ele>
        <time>2024-07-14T22:08:07.429Z</time>
      </trkpt>
      <trkpt lat="47.34425" lon="-0.11416">
        <ele>27.53</ele>
        <time>2024-07-14T22:08:11.636Z</time>
      </trkpt>
      <trkpt lat="47.34406" lon="-0.11386">
        <ele>27.52</ele>
        <time>2024-07-14T22:08:15.848Z</time>
      </trkpt>
      <trkpt lat="47.34392" lon="-0.11358">
        <ele>27.73</ele>
        <time>2024-07-14T22:08:20.063Z</time>
      </trkpt>
      <trkpt lat="47.34356" lon="-0.11279">
        <ele>30.03</ele>
        <time>2024-07-14T22:08:24.289Z</time>
      </trkpt>
      <trkpt lat="47.34332" lon="-0.11227">
        <ele>27.54</ele>
        <time>2024-07-14T22:08:28.522Z</time>
      </trkpt>
      <trkpt lat="47.34314" lon="-0.11189">
        <ele>25.56</ele>
        <time>2024-07-14T22:08:32.760Z</time>
      </trkpt>
      <trkpt lat="47.34308" lon="-0.11172">
        <ele>25.8</ele>
        <time>2024-07-14T22:08:37.000Z</time>
      </trkpt>
      <trkpt lat="47.34307" lon="-0.11162">
        <ele>25.62</ele>
        <time>2024-07-14T22:08:41.241Z</time>
      </trkpt>
      <trkpt lat="47.34306" lon="-0.11151">
        <ele>25.46</ele>
        <time>2024-07-14T22:08:45.483Z</time>
      </trkpt>
      <trkpt lat="47.34308" lon="-0.11126">
        <ele>24.52</ele>
        <time>2024-07-14T22:08:49.728Z</time>
      </trkpt>
      <trkpt lat="47.34317" lon="-0.11067">
        <ele>22.81</ele>
        <time>2024-07-14T22:08:53.979Z</time>
      </trkpt>
      <trkpt lat="47.34326" lon="-0.11011">
        <ele>22.22</ele>
        <time>2024-07-14T22:08:58.237Z</time>
      </trkpt>
      <trkpt lat="47.34328" lon="-0.11005">
        <ele>22.42</ele>
        <time>2024-07-14T22:09:02.495Z</time>
      </trkpt>
      <trkpt lat="47.3428" lon="-0.11008">
        <ele>23</ele>
        <time>2024-07-14T22:09:06.761Z</time>
      </trkpt>
      <trkpt lat="47.34233" lon="-0.11004">
        <ele>24.99</ele>
        <time>2024-07-14T22:09:11.034Z</time>
      </trkpt>
      <trkpt lat="47.34111" lon="-0.1099">
        <ele>31.83</ele>
        <time>2024-07-14T22:09:15.327Z</time>
      </trkpt>
      <trkpt lat="47.34003" lon="-0.10975">
        <ele>30.76</ele>
        <time>2024-07-14T22:09:19.637Z</time>
      </trkpt>
      <trkpt lat="47.33991" lon="-0.10974">
        <ele>30.1</ele>
        <time>2024-07-14T22:09:23.949Z</time>
      </trkpt>
      <trkpt lat="47.33955" lon="-0.10965">
        <ele>27.98</ele>
        <time>2024-07-14T22:09:28.267Z</time>
      </trkpt>
      <trkpt lat="47.3392" lon="-0.10954">
        <ele>26.14</ele>
        <time>2024-07-14T22:09:32.591Z</time>
      </trkpt>
      <trkpt lat="47.33876" lon="-0.10935">
        <ele>26.94</ele>
        <time>2024-07-14T22:09:36.922Z</time>
      </trkpt>
      <trkpt lat="47.33818" lon="-0.10918">
        <ele>26.15</ele>
        <time>2024-07-14T22:09:41.263Z</time>
      </trkpt>
      <trkpt lat="47.33791" lon="-0.1091">
        <ele>26.18</ele>
        <time>2024-07-14T22:09:45.608Z</time>
      </trkpt>
      <trkpt lat="47.33758" lon="-0.10905">
        <ele>27.61</ele>
        <time>2024-07-14T22:09:49.958Z</time>
      </trkpt>
      <trkpt lat="47.33682" lon="-0.10897">
        <ele>31.32</ele>
        <time>2024-07-14T22:09:54.321Z</time>
      </trkpt>
      <trkpt lat="47.3364" lon="-0.10891">
        <ele>30.2</ele>
        <time>2024-07-14T22:09:58.690Z</time>
      </trkpt>
      <trkpt lat="47.33555" lon="-0.10866">
        <ele>27</ele>
        <time>2024-07-14T22:10:03.073Z</time>
      </trkpt>
      <trkpt lat="47.33474" lon="-0.10845">
        <ele>27.4</ele>
        <time>2024-07-14T22:10:07.469Z</time>
      </trkpt>
      <trkpt lat="47.33441" lon="-0.10836">
        <ele>26.56</ele>
        <time>2024-07-14T22:10:11.871Z</time>
      </trkpt>
      <trkpt lat="47.33425" lon="-0.10829">
        <ele>26.76</ele>
        <time>2024-07-14T22:10:16.276Z</time>
      </trkpt>
      <trkpt lat="47.33406" lon="-0.10815">
        <ele>27</ele>
        <time>2024-07-14T22:10:20.684Z</time>
      </trkpt>
      <trkpt lat="47.33378" lon="-0.10794">
        <ele>26.76</ele>
        <time>2024-07-14T22:10:25.097Z</time>
      </trkpt>
      <trkpt lat="47.33378" lon="-0.1079">
        <ele>26.76</ele>
        <time>2024-07-14T22:10:29.510Z</time>
      </trkpt>
      <trkpt lat="47.33369" lon="-0.10772">
        <ele>26.82</ele>
        <time>2024-07-14T22:10:33.926Z</time>
      </trkpt>
      <trkpt lat="47.33308" lon="-0.10678">
        <ele>28.72</ele>
        <time>2024-07-14T22:10:38.356Z</time>
      </trkpt>
      <trkpt lat="47.33287" lon="-0.10645">
        <ele>29.89</ele>
        <time>2024-07-14T22:10:42.791Z</time>
      </trkpt>
      <trkpt lat="47.33262" lon="-0.10612">
        <ele>31.62</ele>
        <time>2024-07-14T22:10:47.231Z</time>
      </trkpt>
      <trkpt lat="47.33206" lon="-0.10542">
        <ele>32.91</ele>
        <time>2024-07-14T22:10:51.683Z</time>
      </trkpt>
      <trkpt lat="47.33183" lon="-0.10512">
        <ele>31.8</ele>
        <time>2024-07-14T22:10:56.140Z</time>
      </trkpt>
      <trkpt lat="47.33165" lon="-0.10483">
        <ele>30.68</ele>
        <time>2024-07-14T22:11:00.601Z</time>
      </trkpt>
      <trkpt lat="47.33137" lon="-0.10435">
        <ele>31.78</ele>
        <time>2024-07-14T22:11:05.069Z</time>
      </trkpt>
      <trkpt lat="47.33087" lon="-0.1036">
        <ele>29.65</ele>
        <time>2024-07-14T22:11:09.549Z</time>
      </trkpt>
      <trkpt lat="47.33073" lon="-0.10334">
        <ele>29.21</ele>
        <time>2024-07-14T22:11:14.032Z</time>
      </trkpt>
      <trkpt lat="47.33062" lon="-0.1031">
        <ele>28.53</ele>
        <time>2024-07-14T22:11:18.518Z</time>
      </trkpt>
      <trkpt lat="47.33047" lon="-0.10261">
        <ele>28</ele>
        <time>2024-07-14T22:11:23.010Z</time>
      </trkpt>
      <trkpt lat="47.33035" lon="-0.10213">
        <ele>28</ele>
        <time>2024-07-14T22:11:27.508Z</time>
      </trkpt>
      <trkpt lat="47.33027" lon="-0.10187">
        <ele>27.26</ele>
        <time>2024-07-14T22:11:32.009Z</time>
      </trkpt>
      <trkpt lat="47.33024" lon="-0.1018">
        <ele>27.05</ele>
        <time>2024-07-14T22:11:36.511Z</time>
      </trkpt>
      <trkpt lat="47.33016" lon="-0.10161">
        <ele>26.73</ele>
        <time>2024-07-14T22:11:41.015Z</time>
      </trkpt>
      <trkpt lat="47.33004" lon="-0.10141">
        <ele>26.32</ele>
        <time>2024-07-14T22:11:45.522Z</time>
      </trkpt>
      <trkpt lat="47.32969" lon="-0.1009">
        <ele>25.37</ele>
        <time>2024-07-14T22:11:50.037Z</time>
      </trkpt>
      <trkpt lat="47.32876" lon="-0.09983">
        <ele>27.21</ele>
        <time>2024-07-14T22:11:54.571Z</time>
      </trkpt>
      <trkpt lat="47.32805" lon="-0.09905">
        <ele>26.97</ele>
        <time>2024-07-14T22:11:59.119Z</time>
      </trkpt>
      <trkpt lat="47.32772" lon="-0.09863">
        <ele>26</ele>
        <time>2024-07-14T22:12:03.674Z</time>
      </trkpt>
      <trkpt lat="47.32746" lon="-0.09825">
        <ele>26</ele>
        <time>2024-07-14T22:12:08.235Z</time>
      </trkpt>
      <trkpt lat="47.32718" lon="-0.09784">
        <ele>27.35</ele>
        <time>2024-07-14T22:12:12.802Z</time>
      </trkpt>
      <trkpt lat="47.32619" lon="-0.09638">
        <ele>28.44</ele>
        <time>2024-07-14T22:12:17.392Z</time>
      </trkpt>
      <trkpt lat="47.32615" lon="-0.09633">
        <ele>28.32</ele>
        <time>2024-07-14T22:12:21.982Z</time>
      </trkpt>
      <trkpt lat="47.32546" lon="-0.09753">
        <ele>29.17</ele>
        <time>2024-07-14T22:12:26.590Z</time>
      </trkpt>
      <trkpt lat="47.32492" lon="-0.09864">
        <ele>27.39</ele>
        <time>2024-07-14T22:12:31.212Z</time>
      </trkpt>
      <trkpt lat="47.32413" lon="-0.10066">
        <ele>24</ele>
        <time>2024-07-14T22:12:35.860Z</time>
      </trkpt>
      <trkpt lat="47.32402" lon="-0.10093">
        <ele>24</ele>
        <time>2024-07-14T22:12:40.511Z</time>
      </trkpt>
      <trkpt lat="47.32389" lon="-0.10119">
        <ele>24.67</ele>
        <time>2024-07-14T22:12:45.166Z</time>
      </trkpt>
      <trkpt lat="47.32371" lon="-0.10147">
        <ele>25.68</ele>
        <time>2024-07-14T22:12:49.825Z</time>
      </trkpt>
      <trkpt lat="47.3225" lon="-0.10263">
        <ele>25</ele>
        <time>2024-07-14T22:12:54.507Z</time>
      </trkpt>
      <trkpt lat="47.32178" lon="-0.10346">
        <ele>25.25</ele>
        <time>2024-07-14T22:12:59.204Z</time>
      </trkpt>
      <trkpt lat="47.32139" lon="-0.10397">
        <ele>25.2</ele>
        <time>2024-07-14T22:13:03.909Z</time>
      </trkpt>
      <trkpt lat="47.32072" lon="-0.10474">
        <ele>24.55</ele>
        <time>2024-07-14T22:13:08.628Z</time>
      </trkpt>
      <trkpt lat="47.32058" lon="-0.10487">
        <ele>24.06</ele>
        <time>2024-07-14T22:13:13.349Z</time>
      </trkpt>
      <trkpt lat="47.32055" lon="-0.1049">
        <ele>23.97</ele>
        <time>2024-07-14T22:13:18.071Z</time>
      </trkpt>
      <trkpt lat="47.32053" lon="-0.10492">
        <ele>23.9</ele>
        <time>2024-07-14T22:13:22.793Z</time>
      </trkpt>
      <trkpt lat="47.32033" lon="-0.10523">
        <ele>22.37</ele>
        <time>2024-07-14T22:13:27.520Z</time>
      </trkpt>
      <trkpt lat="47.32027" lon="-0.10529">
        <ele>22.15</ele>
        <time>2024-07-14T22:13:32.248Z</time>
      </trkpt>
      <trkpt lat="47.32018" lon="-0.10533">
        <ele>22</ele>
        <time>2024-07-14T22:13:36.978Z</time>
      </trkpt>
      <trkpt lat="47.32006" lon="-0.10535">
        <ele>22</ele>
        <time>2024-07-14T22:13:41.710Z</time>
      </trkpt>
      <trkpt lat="47.31988" lon="-0.10534">
        <ele>22.26</ele>
        <time>2024-07-14T22:13:46.445Z</time>
      </trkpt>
      <trkpt lat="47.31956" lon="-0.1053">
        <ele>24.34</ele>
        <time>2024-07-14T22:13:51.185Z</time>
      </trkpt>
      <trkpt lat="47.3194" lon="-0.10528">
        <ele>24.96</ele>
        <time>2024-07-14T22:13:55.927Z</time>
      </trkpt>
      <trkpt lat="47.31937" lon="-0.10492">
        <ele>25</ele>
        <time>2024-07-14T22:14:00.673Z</time>
      </trkpt>
      <trkpt lat="47.31931" lon="-0.10461">
        <ele>25</ele>
        <time>2024-07-14T22:14:05.423Z</time>
      </trkpt>
      <trkpt lat="47.31899" lon="-0.10386">
        <ele>23.82</ele>
        <time>2024-07-14T22:14:10.182Z</time>
      </trkpt>
      <trkpt lat="47.31872" lon="-0.1033">
        <ele>21.42</ele>
        <time>2024-07-14T22:14:14.949Z</time>
      </trkpt>
      <trkpt lat="47.31782" lon="-0.10202">
        <ele>22.67</ele>
        <time>2024-07-14T22:14:19.736Z</time>
      </trkpt>
      <trkpt lat="47.31696" lon="-0.10069">
        <ele>21</ele>
        <time>2024-07-14T22:14:24.543Z</time>
      </trkpt>
      <trkpt lat="47.31672" lon="-0.1003">
        <ele>21</ele>
        <time>2024-07-14T22:14:29.355Z</time>
      </trkpt>
      <trkpt lat="47.31624" lon="-0.09899">
        <ele>21.62</ele>
        <time>2024-07-14T22:14:34.184Z</time>
      </trkpt>
      <trkpt lat="47.3159" lon="-0.09813">
        <ele>22</ele>
        <time>2024-07-14T22:14:39.023Z</time>
      </trkpt>
      <trkpt lat="47.31576" lon="-0.09778">
        <ele>22</ele>
        <time>2024-07-14T22:14:43.867Z</time>
      </trkpt>
      <trkpt lat="47.3157" lon="-0.09772">
        <ele>21.89</ele>
        <time>2024-07-14T22:14:48.712Z</time>
      </trkpt>
      <trkpt lat="47.31529" lon="-0.09748">
        <ele>21</ele>
        <time>2024-07-14T22:14:53.564Z</time>
      </trkpt>
      <trkpt lat="47.31485" lon="-0.09727">
        <ele>22</ele>
        <time>2024-07-14T22:14:58.424Z</time>
      </trkpt>
      <trkpt lat="47.3147" lon="-0.09715">
        <ele>22</ele>
        <time>2024-07-14T22:15:03.286Z</time>
      </trkpt>
      <trkpt lat="47.31457" lon="-0.09702">
        <ele>22</ele>
        <time>2024-07-14T22:15:08.151Z</time>
      </trkpt>
      <trkpt lat="47.31423" lon="-0.09658">
        <ele>21</ele>
        <time>2024-07-14T22:15:13.023Z</time>
      </trkpt>
      <trkpt lat="47.31401" lon="-0.09621">
        <ele>21</ele>
        <time>2024-07-14T22:15:17.900Z</time>
      </trkpt>
      <trkpt lat="47.31381" lon="-0.09573">
        <ele>21.08</ele>
        <time>2024-07-14T22:15:22.784Z</time>
      </trkpt>
      <trkpt lat="47.31363" lon="-0.09525">
        <ele>23.45</ele>
        <time>2024-07-14T22:15:27.674Z</time>
      </trkpt>
      <trkpt lat="47.31344" lon="-0.09473">
        <ele>24.32</ele>
        <time>2024-07-14T22:15:32.570Z</time>
      </trkpt>
      <trkpt lat="47.31322" lon="-0.09419">
        <ele>22.98</ele>
        <time>2024-07-14T22:15:37.473Z</time>
      </trkpt>
      <trkpt lat="47.31237" lon="-0.09202">
        <ele>21.39</ele>
        <time>2024-07-14T22:15:42.403Z</time>
      </trkpt>
      <trkpt lat="47.31204" lon="-0.09072">
        <ele>21.46</ele>
        <time>2024-07-14T22:15:47.348Z</time>
      </trkpt>
      <trkpt lat="47.31191" lon="-0.0903">
        <ele>22.92</ele>
        <time>2024-07-14T22:15:52.298Z</time>
      </trkpt>
      <trkpt lat="47.31175" lon="-0.08989">
        <ele>23.51</ele>
        <time>2024-07-14T22:15:57.253Z</time>
      </trkpt>
      <trkpt lat="47.31131" lon="-0.089">
        <ele>24.09</ele>
        <time>2024-07-14T22:16:02.220Z</time>
      </trkpt>
      <trkpt lat="47.31093" lon="-0.08824">
        <ele>23.48</ele>
        <time>2024-07-14T22:16:07.198Z</time>
      </trkpt>
      <trkpt lat="47.31027" lon="-0.08707">
        <ele>23.69</ele>
        <time>2024-07-14T22:16:12.192Z</time>
      </trkpt>
      <trkpt lat="47.30963" lon="-0.08598">
        <ele>22.94</ele>
        <time>2024-07-14T22:16:17.202Z</time>
      </trkpt>
      <trkpt lat="47.30891" lon="-0.08491">
        <ele>23.64</ele>
        <time>2024-07-14T22:16:22.228Z</time>
      </trkpt>
      <trkpt lat="47.30842" lon="-0.08425">
        <ele>22</ele>
        <time>2024-07-14T22:16:27.265Z</time>
      </trkpt>
      <trkpt lat="47.30815" lon="-0.08394">
        <ele>22</ele>
        <time>2024-07-14T22:16:32.307Z</time>
      </trkpt>
      <trkpt lat="47.30779" lon="-0.08367">
        <ele>22.88</ele>
        <time>2024-07-14T22:16:37.356Z</time>
      </trkpt>
      <trkpt lat="47.30741" lon="-0.08345">
        <ele>22.14</ele>
        <time>2024-07-14T22:16:42.411Z</time>
      </trkpt>
      <trkpt lat="47.30715" lon="-0.08322">
        <ele>22</ele>
        <time>2024-07-14T22:16:47.471Z</time>
      </trkpt>
      <trkpt lat="47.30692" lon="-0.08294">
        <ele>22.11</ele>
        <time>2024-07-14T22:16:52.536Z</time>
      </trkpt>
      <trkpt lat="47.30678" lon="-0.08269">
        <ele>23.3</ele>
        <time>2024-07-14T22:16:57.604Z</time>
      </trkpt>
      <trkpt lat="47.30664" lon="-0.08239">
        <ele>24</ele>
        <time>2024-07-14T22:17:02.676Z</time>
      </trkpt>
      <trkpt lat="47.3065" lon="-0.08208">
        <ele>24.39</ele>
        <time>2024-07-14T22:17:07.753Z</time>
      </trkpt>
      <trkpt lat="47.30672" lon="-0.08207">
        <ele>23.73</ele>
        <time>2024-07-14T22:17:12.833Z</time>
      </trkpt>
      <trkpt lat="47.307" lon="-0.08194">
        <ele>23.18</ele>
        <time>2024-07-14T22:17:17.918Z</time>
      </trkpt>
      <trkpt lat="47.30769" lon="-0.08154">
        <ele>22.13</ele>
        <time>2024-07-14T22:17:23.015Z</time>
      </trkpt>
      <trkpt lat="47.30771" lon="-0.08152">
        <ele>22.04</ele>
        <time>2024-07-14T22:17:28.112Z</time>
      </trkpt>
      <trkpt lat="47.30686" lon="-0.07814">
        <ele>22.71</ele>
        <time>2024-07-14T22:17:33.248Z</time>
      </trkpt>
      <trkpt lat="47.30588" lon="-0.07423">
        <ele>22.31</ele>
        <time>2024-07-14T22:17:38.430Z</time>
      </trkpt>
      <trkpt lat="47.30583" lon="-0.07396">
        <ele>21.83</ele>
        <time>2024-07-14T22:17:43.615Z</time>
      </trkpt>
      <trkpt lat="47.30582" lon="-0.07392">
        <ele>21.85</ele>
        <time>2024-07-14T22:17:48.800Z</time>
      </trkpt>
      <trkpt lat="47.30581" lon="-0.07387">
        <ele>21.89</ele>
        <time>2024-07-14T22:17:53.986Z</time>
      </trkpt>
      <trkpt lat="47.30574" lon="-0.07348">
        <ele>21.19</ele>
        <time>2024-07-14T22:17:59.176Z</time>
      </trkpt>
      <trkpt lat="47.30567" lon="-0.0732">
        <ele>22.04</ele>
        <time>2024-07-14T22:18:04.369Z</time>
      </trkpt>
      <trkpt lat="47.30544" lon="-0.07344">
        <ele>22.21</ele>
        <time>2024-07-14T22:18:09.567Z</time>
      </trkpt>
      <trkpt lat="47.30528" lon="-0.07358">
        <ele>22.81</ele>
        <time>2024-07-14T22:18:14.768Z</time>
      </trkpt>
      <trkpt lat="47.30441" lon="-0.07413">
        <ele>23.58</ele>
        <time>2024-07-14T22:18:19.984Z</time>
      </trkpt>
      <trkpt lat="47.30386" lon="-0.07455">
        <ele>25.81</ele>
        <time>2024-07-14T22:18:25.210Z</time>
      </trkpt>
      <trkpt lat="47.3036" lon="-0.07472">
        <ele>26</ele>
        <time>2024-07-14T22:18:30.440Z</time>
      </trkpt>
      <trkpt lat="47.30266" lon="-0.07517">
        <ele>23.78</ele>
        <time>2024-07-14T22:18:35.686Z</time>
      </trkpt>
      <trkpt lat="47.3011" lon="-0.07589">
        <ele>23.22</ele>
        <time>2024-07-14T22:18:40.958Z</time>
      </trkpt>
      <trkpt lat="47.29964" lon="-0.07651">
        <ele>22.85</ele>
        <time>2024-07-14T22:18:46.255Z</time>
      </trkpt>
      <trkpt lat="47.29841" lon="-0.07708">
        <ele>24.45</ele>
        <time>2024-07-14T22:18:51.573Z</time>
      </trkpt>
      <trkpt lat="47.29664" lon="-0.07789">
        <ele>23.08</ele>
        <time>2024-07-14T22:18:56.920Z</time>
      </trkpt>
      <trkpt lat="47.29418" lon="-0.079">
        <ele>23</ele>
        <time>2024-07-14T22:19:02.308Z</time>
      </trkpt>
      <trkpt lat="47.2937" lon="-0.07917">
        <ele>23</ele>
        <time>2024-07-14T22:19:07.704Z</time>
      </trkpt>
      <trkpt lat="47.29366" lon="-0.0792">
        <ele>23</ele>
        <time>2024-07-14T22:19:13.101Z</time>
      </trkpt>
      <trkpt lat="47.29363" lon="-0.07922">
        <ele>23</ele>
        <time>2024-07-14T22:19:18.498Z</time>
      </trkpt>
      <trkpt lat="47.29361" lon="-0.07925">
        <ele>23</ele>
        <time>2024-07-14T22:19:23.896Z</time>
      </trkpt>
      <trkpt lat="47.29359" lon="-0.07929">
        <ele>23</ele>
        <time>2024-07-14T22:19:29.294Z</time>
      </trkpt>
      <trkpt lat="47.29359" lon="-0.07933">
        <ele>23</ele>
        <time>2024-07-14T22:19:34.693Z</time>
      </trkpt>
      <trkpt lat="47.2936" lon="-0.0794">
        <ele>23</ele>
        <time>2024-07-14T22:19:40.093Z</time>
      </trkpt>
      <trkpt lat="47.29361" lon="-0.07944">
        <ele>23</ele>
        <time>2024-07-14T22:19:45.493Z</time>
      </trkpt>
      <trkpt lat="47.29362" lon="-0.07948">
        <ele>23</ele>
        <time>2024-07-14T22:19:50.894Z</time>
      </trkpt>
      <trkpt lat="47.29363" lon="-0.07956">
        <ele>23</ele>
        <time>2024-07-14T22:19:56.295Z</time>
      </trkpt>
      <trkpt lat="47.29363" lon="-0.07962">
        <ele>23</ele>
        <time>2024-07-14T22:20:01.697Z</time>
      </trkpt>
      <trkpt lat="47.29362" lon="-0.07966">
        <ele>23</ele>
        <time>2024-07-14T22:20:07.100Z</time>
      </trkpt>
      <trkpt lat="47.2936" lon="-0.0797">
        <ele>23</ele>
        <time>2024-07-14T22:20:12.503Z</time>
      </trkpt>
      <trkpt lat="47.29358" lon="-0.07973">
        <ele>23</ele>
        <time>2024-07-14T22:20:17.907Z</time>
      </trkpt>
      <trkpt lat="47.29355" lon="-0.07975">
        <ele>23.03</ele>
        <time>2024-07-14T22:20:23.311Z</time>
      </trkpt>
      <trkpt lat="47.29335" lon="-0.07982">
        <ele>23.71</ele>
        <time>2024-07-14T22:20:28.718Z</time>
      </trkpt>
      <trkpt lat="47.29319" lon="-0.07988">
        <ele>24</ele>
        <time>2024-07-14T22:20:34.128Z</time>
      </trkpt>
      <trkpt lat="47.29304" lon="-0.07995">
        <ele>23.75</ele>
        <time>2024-07-14T22:20:39.540Z</time>
      </trkpt>
      <trkpt lat="47.29293" lon="-0.08002">
        <ele>23.51</ele>
        <time>2024-07-14T22:20:44.954Z</time>
      </trkpt>
      <trkpt lat="47.29285" lon="-0.08007">
        <ele>23.32</ele>
        <time>2024-07-14T22:20:50.370Z</time>
      </trkpt>
      <trkpt lat="47.29276" lon="-0.08014">
        <ele>23.07</ele>
        <time>2024-07-14T22:20:55.787Z</time>
      </trkpt>
      <trkpt lat="47.29251" lon="-0.08036">
        <ele>22.24</ele>
        <time>2024-07-14T22:21:01.209Z</time>
      </trkpt>
      <trkpt lat="47.29201" lon="-0.08076">
        <ele>22.84</ele>
        <time>2024-07-14T22:21:06.640Z</time>
      </trkpt>
      <trkpt lat="47.29149" lon="-0.08114">
        <ele>21.89</ele>
        <time>2024-07-14T22:21:12.081Z</time>
      </trkpt>
      <trkpt lat="47.29138" lon="-0.08123">
        <ele>21.98</ele>
        <time>2024-07-14T22:21:17.524Z</time>
      </trkpt>
      <trkpt lat="47.2913" lon="-0.08131">
        <ele>22.1</ele>
        <time>2024-07-14T22:21:22.968Z</time>
      </trkpt>
      <trkpt lat="47.29121" lon="-0.08142">
        <ele>22.44</ele>
        <time>2024-07-14T22:21:28.414Z</time>
      </trkpt>
      <trkpt lat="47.29113" lon="-0.08151">
        <ele>22.7</ele>
        <time>2024-07-14T22:21:33.862Z</time>
      </trkpt>
      <trkpt lat="47.29105" lon="-0.08165">
        <ele>23</ele>
        <time>2024-07-14T22:21:39.312Z</time>
      </trkpt>
      <trkpt lat="47.29089" lon="-0.08193">
        <ele>23</ele>
        <time>2024-07-14T22:21:44.766Z</time>
      </trkpt>
      <trkpt lat="47.29072" lon="-0.08223">
        <ele>23</ele>
        <time>2024-07-14T22:21:50.224Z</time>
      </trkpt>
      <trkpt lat="47.29051" lon="-0.0826">
        <ele>22.22</ele>
        <time>2024-07-14T22:21:55.687Z</time>
      </trkpt>
      <trkpt lat="47.2904" lon="-0.08274">
        <ele>22.04</ele>
        <time>2024-07-14T22:22:01.152Z</time>
      </trkpt>
      <trkpt lat="47.29031" lon="-0.08285">
        <ele>22</ele>
        <time>2024-07-14T22:22:06.619Z</time>
      </trkpt>
      <trkpt lat="47.29023" lon="-0.08294">
        <ele>22</ele>
        <time>2024-07-14T22:22:12.088Z</time>
      </trkpt>
      <trkpt lat="47.29008" lon="-0.08307">
        <ele>22.02</ele>
        <time>2024-07-14T22:22:17.560Z</time>
      </trkpt>
      <trkpt lat="47.28923" lon="-0.08383">
        <ele>22.78</ele>
        <time>2024-07-14T22:22:23.048Z</time>
      </trkpt>
      <trkpt lat="47.28914" lon="-0.08397">
        <ele>23.57</ele>
        <time>2024-07-14T22:22:28.538Z</time>
      </trkpt>
      <trkpt lat="47.28881" lon="-0.08412">
        <ele>22.91</ele>
        <time>2024-07-14T22:22:34.033Z</time>
      </trkpt>
      <trkpt lat="47.28861" lon="-0.0842">
        <ele>21.9</ele>
        <time>2024-07-14T22:22:39.532Z</time>
      </trkpt>
      <trkpt lat="47.28853" lon="-0.08423">
        <ele>21.54</ele>
        <time>2024-07-14T22:22:45.032Z</time>
      </trkpt>
      <trkpt lat="47.28843" lon="-0.08426">
        <ele>21.3</ele>
        <time>2024-07-14T22:22:50.534Z</time>
      </trkpt>
      <trkpt lat="47.28812" lon="-0.08435">
        <ele>21.61</ele>
        <time>2024-07-14T22:22:56.040Z</time>
      </trkpt>
      <trkpt lat="47.28766" lon="-0.08446">
        <ele>22.93</ele>
        <time>2024-07-14T22:23:01.554Z</time>
      </trkpt>
      <trkpt lat="47.28751" lon="-0.0845">
        <ele>23.37</ele>
        <time>2024-07-14T22:23:07.070Z</time>
      </trkpt>
      <trkpt lat="47.28741" lon="-0.08454">
        <ele>23.54</ele>
        <time>2024-07-14T22:23:12.588Z</time>
      </trkpt>
      <trkpt lat="47.28733" lon="-0.08457">
        <ele>23.08</ele>
        <time>2024-07-14T22:23:18.107Z</time>
      </trkpt>
      <trkpt lat="47.28714" lon="-0.08467">
        <ele>22</ele>
        <time>2024-07-14T22:23:23.630Z</time>
      </trkpt>
      <trkpt lat="47.287" lon="-0.08475">
        <ele>21.93</ele>
        <time>2024-07-14T22:23:29.155Z</time>
      </trkpt>
      <trkpt lat="47.28679" lon="-0.08491">
        <ele>22.08</ele>
        <time>2024-07-14T22:23:34.684Z</time>
      </trkpt>
      <trkpt lat="47.28652" lon="-0.08512">
        <ele>23.17</ele>
        <time>2024-07-14T22:23:40.218Z</time>
      </trkpt>
      <trkpt lat="47.28638" lon="-0.08521">
        <ele>23.82</ele>
        <time>2024-07-14T22:23:45.754Z</time>
      </trkpt>
      <trkpt lat="47.28625" lon="-0.08529">
        <ele>24</ele>
        <time>2024-07-14T22:23:51.292Z</time>
      </trkpt>
      <trkpt lat="47.28606" lon="-0.08538">
        <ele>24</ele>
        <time>2024-07-14T22:23:56.834Z</time>
      </trkpt>
      <trkpt lat="47.28591" lon="-0.0855">
        <ele>24</ele>
        <time>2024-07-14T22:24:02.378Z</time>
      </trkpt>
      <trkpt lat="47.28541" lon="-0.08643">
        <ele>23.84</ele>
        <time>2024-07-14T22:24:07.935Z</time>
      </trkpt>
      <trkpt lat="47.28506" lon="-0.087">
        <ele>25.43</ele>
        <time>2024-07-14T22:24:13.501Z</time>
      </trkpt>
      <trkpt lat="47.28402" lon="-0.0884">
        <ele>26</ele>
        <time>2024-07-14T22:24:19.089Z</time>
      </trkpt>
      <trkpt lat="47.28396" lon="-0.08851">
        <ele>26.03</ele>
        <time>2024-07-14T22:24:24.679Z</time>
      </trkpt>
      <trkpt lat="47.28372" lon="-0.08881">
        <ele>27.41</ele>
        <time>2024-07-14T22:24:30.274Z</time>
      </trkpt>
      <trkpt lat="47.28366" lon="-0.08886">
        <ele>27.6</ele>
        <time>2024-07-14T22:24:35.870Z</time>
      </trkpt>
      <trkpt lat="47.28361" lon="-0.08888">
        <ele>27.78</ele>
        <time>2024-07-14T22:24:41.467Z</time>
      </trkpt>
      <trkpt lat="47.28358" lon="-0.08888">
        <ele>27.9</ele>
        <time>2024-07-14T22:24:47.064Z</time>
      </trkpt>
      <trkpt lat="47.28354" lon="-0.08887">
        <ele>28</ele>
        <time>2024-07-14T22:24:52.662Z</time>
      </trkpt>
      <trkpt lat="47.28345" lon="-0.0888">
        <ele>28</ele>
        <time>2024-07-14T22:24:58.262Z</time>
      </trkpt>
      <trkpt lat="47.28334" lon="-0.08874">
        <ele>27.71</ele>
        <time>2024-07-14T22:25:03.863Z</time>
      </trkpt>
      <trkpt lat="47.28332" lon="-0.08872">
        <ele>27.64</ele>
        <time>2024-07-14T22:25:09.465Z</time>
      </trkpt>
      <trkpt lat="47.2833" lon="-0.08873">
        <ele>27.75</ele>
        <time>2024-07-14T22:25:15.067Z</time>
      </trkpt>
      <trkpt lat="47.28327" lon="-0.08876">
        <ele>27.94</ele>
        <time>2024-07-14T22:25:20.670Z</time>
      </trkpt>
      <trkpt lat="47.28311" lon="-0.08854">
        <ele>27.58</ele>
        <time>2024-07-14T22:25:26.276Z</time>
      </trkpt>
      <trkpt lat="47.28289" lon="-0.08834">
        <ele>27.44</ele>
        <time>2024-07-14T22:25:31.886Z</time>
      </trkpt>
      <trkpt lat="47.28244" lon="-0.08794">
        <ele>28.96</ele>
        <time>2024-07-14T22:25:37.505Z</time>
      </trkpt>
      <trkpt lat="47.28214" lon="-0.08765">
        <ele>29</ele>
        <time>2024-07-14T22:25:43.129Z</time>
      </trkpt>
      <trkpt lat="47.28175" lon="-0.08719">
        <ele>29</ele>
        <time>2024-07-14T22:25:48.762Z</time>
      </trkpt>
      <trkpt lat="47.28151" lon="-0.08692">
        <ele>28</ele>
        <time>2024-07-14T22:25:54.399Z</time>
      </trkpt>
      <trkpt lat="47.28134" lon="-0.0867">
        <ele>27.48</ele>
        <time>2024-07-14T22:26:00.040Z</time>
      </trkpt>
      <trkpt lat="47.28118" lon="-0.08642">
        <ele>26.54</ele>
        <time>2024-07-14T22:26:05.685Z</time>
      </trkpt>
      <trkpt lat="47.28081" lon="-0.08577">
        <ele>27.06</ele>
        <time>2024-07-14T22:26:11.339Z</time>
      </trkpt>
      <trkpt lat="47.28067" lon="-0.08558">
        <ele>27</ele>
        <time>2024-07-14T22:26:16.996Z</time>
      </trkpt>
      <trkpt lat="47.28062" lon="-0.08552">
        <ele>27</ele>
        <time>2024-07-14T22:26:22.654Z</time>
      </trkpt>
      <trkpt lat="47.28059" lon="-0.08548">
        <ele>27</ele>
        <time>2024-07-14T22:26:28.313Z</time>
      </trkpt>
      <trkpt lat="47.28052" lon="-0.08541">
        <ele>26.91</ele>
        <time>2024-07-14T22:26:33.973Z</time>
      </trkpt>
      <trkpt lat="47.28046" lon="-0.08536">
        <ele>26.86</ele>
        <time>2024-07-14T22:26:39.634Z</time>
      </trkpt>
      <trkpt lat="47.28037" lon="-0.08529">
        <ele>26.56</ele>
        <time>2024-07-14T22:26:45.297Z</time>
      </trkpt>
      <trkpt lat="47.28026" lon="-0.0852">
        <ele>26.13</ele>
        <time>2024-07-14T22:26:50.962Z</time>
      </trkpt>
      <trkpt lat="47.28007" lon="-0.08507">
        <ele>25.66</ele>
        <time>2024-07-14T22:26:56.630Z</time>
      </trkpt>
      <trkpt lat="47.27973" lon="-0.08479">
        <ele>26.85</ele>
        <time>2024-07-14T22:27:02.305Z</time>
      </trkpt>
      <trkpt lat="47.27941" lon="-0.0845">
        <ele>28.51</ele>
        <time>2024-07-14T22:27:07.986Z</time>
      </trkpt>
      <trkpt lat="47.27928" lon="-0.08435">
        <ele>28</ele>
        <time>2024-07-14T22:27:13.669Z</time>
      </trkpt>
      <trkpt lat="47.27919" lon="-0.08426">
        <ele>27.76</ele>
        <time>2024-07-14T22:27:19.354Z</time>
      </trkpt>
      <trkpt lat="47.27914" lon="-0.08421">
        <ele>27.56</ele>
        <time>2024-07-14T22:27:25.040Z</time>
      </trkpt>
      <trkpt lat="47.27865" lon="-0.08372">
        <ele>27.64</ele>
        <time>2024-07-14T22:27:30.735Z</time>
      </trkpt>
      <trkpt lat="47.27859" lon="-0.08367">
        <ele>28.11</ele>
        <time>2024-07-14T22:27:36.432Z</time>
      </trkpt>
      <trkpt lat="47.27853" lon="-0.08361">
        <ele>28.64</ele>
        <time>2024-07-14T22:27:42.130Z</time>
      </trkpt>
      <trkpt lat="47.27835" lon="-0.0834">
        <ele>29.78</ele>
        <time>2024-07-14T22:27:47.831Z</time>
      </trkpt>
      <trkpt lat="47.27831" lon="-0.08334">
        <ele>30.32</ele>
        <time>2024-07-14T22:27:53.533Z</time>
      </trkpt>
      <trkpt lat="47.27809" lon="-0.08307">
        <ele>31</ele>
        <time>2024-07-14T22:27:59.240Z</time>
      </trkpt>
      <trkpt lat="47.27789" lon="-0.08283">
        <ele>30.63</ele>
        <time>2024-07-14T22:28:04.951Z</time>
      </trkpt>
      <trkpt lat="47.27757" lon="-0.08239">
        <ele>29.99</ele>
        <time>2024-07-14T22:28:10.669Z</time>
      </trkpt>
      <trkpt lat="47.27751" lon="-0.0823">
        <ele>29.7</ele>
        <time>2024-07-14T22:28:16.388Z</time>
      </trkpt>
      <trkpt lat="47.27742" lon="-0.08219">
        <ele>29.26</ele>
        <time>2024-07-14T22:28:22.109Z</time>
      </trkpt>
      <trkpt lat="47.27706" lon="-0.08172">
        <ele>29</ele>
        <time>2024-07-14T22:28:27.838Z</time>
      </trkpt>
      <trkpt lat="47.277" lon="-0.08165">
        <ele>28.76</ele>
        <time>2024-07-14T22:28:33.568Z</time>
      </trkpt>
      <trkpt lat="47.27648" lon="-0.08097">
        <ele>28.91</ele>
        <time>2024-07-14T22:28:39.309Z</time>
      </trkpt>
      <trkpt lat="47.27632" lon="-0.08076">
        <ele>28.13</ele>
        <time>2024-07-14T22:28:45.054Z</time>
      </trkpt>
      <trkpt lat="47.27587" lon="-0.08017">
        <ele>28</ele>
        <time>2024-07-14T22:28:50.809Z</time>
      </trkpt>
      <trkpt lat="47.27564" lon="-0.07987">
        <ele>28</ele>
        <time>2024-07-14T22:28:56.568Z</time>
      </trkpt>
      <trkpt lat="47.27551" lon="-0.0797">
        <ele>28</ele>
        <time>2024-07-14T22:29:02.330Z</time>
      </trkpt>
      <trkpt lat="47.27545" lon="-0.07962">
        <ele>28.11</ele>
        <time>2024-07-14T22:29:08.094Z</time>
      </trkpt>
      <trkpt lat="47.27539" lon="-0.07955">
        <ele>28.36</ele>
        <time>2024-07-14T22:29:13.859Z</time>
      </trkpt>
      <trkpt lat="47.2752" lon="-0.0793">
        <ele>29</ele>
        <time>2024-07-14T22:29:19.628Z</time>
      </trkpt>
      <trkpt lat="47.27511" lon="-0.07919">
        <ele>29</ele>
        <time>2024-07-14T22:29:25.399Z</time>
      </trkpt>
      <trkpt lat="47.27477" lon="-0.07874">
        <ele>31.62</ele>
        <time>2024-07-14T22:29:31.177Z</time>
      </trkpt>
      <trkpt lat="47.27448" lon="-0.07836">
        <ele>32.84</ele>
        <time>2024-07-14T22:29:36.961Z</time>
      </trkpt>
      <trkpt lat="47.27451" lon="-0.0783">
        <ele>32.75</ele>
        <time>2024-07-14T22:29:42.746Z</time>
      </trkpt>
      <trkpt lat="47.2749" lon="-0.07778">
        <ele>32.14</ele>
        <time>2024-07-14T22:29:48.540Z</time>
      </trkpt>
      <trkpt lat="47.27506" lon="-0.07761">
        <ele>31.37</ele>
        <time>2024-07-14T22:29:54.337Z</time>
      </trkpt>
      <trkpt lat="47.27508" lon="-0.0776">
        <ele>31.25</ele>
        <time>2024-07-14T22:30:00.134Z</time>
      </trkpt>
      <trkpt lat="47.27511" lon="-0.07761">
        <ele>31.21</ele>
        <time>2024-07-14T22:30:05.931Z</time>
      </trkpt>
      <trkpt lat="47.27483" lon="-0.07808">
        <ele>32.37</ele>
        <time>2024-07-14T22:30:11.735Z</time>
      </trkpt>
      <trkpt lat="47.27468" lon="-0.07836">
        <ele>32.93</ele>
        <time>2024-07-14T22:30:17.543Z</time>
      </trkpt>
      <trkpt lat="47.27449" lon="-0.07866">
        <ele>33</ele>
        <time>2024-07-14T22:30:23.356Z</time>
      </trkpt>
      <trkpt lat="47.27399" lon="-0.07945">
        <ele>31.39</ele>
        <time>2024-07-14T22:30:29.180Z</time>
      </trkpt>
      <trkpt lat="47.27364" lon="-0.08">
        <ele>33.79</ele>
        <time>2024-07-14T22:30:35.013Z</time>
      </trkpt>
      <trkpt lat="47.27359" lon="-0.08007">
        <ele>34.37</ele>
        <time>2024-07-14T22:30:40.847Z</time>
      </trkpt>
      <trkpt lat="47.2735" lon="-0.08015">
        <ele>34.96</ele>
        <time>2024-07-14T22:30:46.682Z</time>
      </trkpt>
      <trkpt lat="47.27341" lon="-0.08023">
        <ele>35</ele>
        <time>2024-07-14T22:30:52.519Z</time>
      </trkpt>
      <trkpt lat="47.27338" lon="-0.08025">
        <ele>35</ele>
        <time>2024-07-14T22:30:58.356Z</time>
      </trkpt>
      <trkpt lat="47.2733" lon="-0.08026">
        <ele>35</ele>
        <time>2024-07-14T22:31:04.195Z</time>
      </trkpt>
      <trkpt lat="47.27324" lon="-0.08036">
        <ele>35</ele>
        <time>2024-07-14T22:31:10.035Z</time>
      </trkpt>
      <trkpt lat="47.27305" lon="-0.08066">
        <ele>34.21</ele>
        <time>2024-07-14T22:31:15.880Z</time>
      </trkpt>
      <trkpt lat="47.27296" lon="-0.08088">
        <ele>33.29</ele>
        <time>2024-07-14T22:31:21.727Z</time>
      </trkpt>
      <trkpt lat="47.27293" lon="-0.08091">
        <ele>33.07</ele>
        <time>2024-07-14T22:31:27.575Z</time>
      </trkpt>
      <trkpt lat="47.27294" lon="-0.08095">
        <ele>32.97</ele>
        <time>2024-07-14T22:31:33.424Z</time>
      </trkpt>
      <trkpt lat="47.27293" lon="-0.08099">
        <ele>32.79</ele>
        <time>2024-07-14T22:31:39.273Z</time>
      </trkpt>
      <trkpt lat="47.27293" lon="-0.08109">
        <ele>32.76</ele>
        <time>2024-07-14T22:31:45.123Z</time>
      </trkpt>
      <trkpt lat="47.27291" lon="-0.08122">
        <ele>32.72</ele>
        <time>2024-07-14T22:31:50.975Z</time>
      </trkpt>
      <trkpt lat="47.2729" lon="-0.08126">
        <ele>32.66</ele>
        <time>2024-07-14T22:31:56.827Z</time>
      </trkpt>
      <trkpt lat="47.27284" lon="-0.08138">
        <ele>32.43</ele>
        <time>2024-07-14T22:32:02.681Z</time>
      </trkpt>
      <trkpt lat="47.27281" lon="-0.08143">
        <ele>32.34</ele>
        <time>2024-07-14T22:32:08.535Z</time>
      </trkpt>
      <trkpt lat="47.26836" lon="-0.08872">
        <ele>31.27</ele>
        <time>2024-07-14T22:32:14.496Z</time>
      </trkpt>
      <trkpt lat="47.26816" lon="-0.08899">
        <ele>31.62</ele>
        <time>2024-07-14T22:32:20.461Z</time>
      </trkpt>
      <trkpt lat="47.26809" lon="-0.08905">
        <ele>31.64</ele>
        <time>2024-07-14T22:32:26.428Z</time>
      </trkpt>
      <trkpt lat="47.26805" lon="-0.08909">
        <ele>31.78</ele>
        <time>2024-07-14T22:32:32.395Z</time>
      </trkpt>
      <trkpt lat="47.2679" lon="-0.08931">
        <ele>32</ele>
        <time>2024-07-14T22:32:38.366Z</time>
      </trkpt>
      <trkpt lat="47.2677" lon="-0.08962">
        <ele>30.99</ele>
        <time>2024-07-14T22:32:44.342Z</time>
      </trkpt>
      <trkpt lat="47.26707" lon="-0.09053">
        <ele>32.37</ele>
        <time>2024-07-14T22:32:50.332Z</time>
      </trkpt>
      <trkpt lat="47.26682" lon="-0.09087">
        <ele>31</ele>
        <time>2024-07-14T22:32:56.327Z</time>
      </trkpt>
      <trkpt lat="47.26669" lon="-0.09105">
        <ele>31</ele>
        <time>2024-07-14T22:33:02.325Z</time>
      </trkpt>
      <trkpt lat="47.2666" lon="-0.09118">
        <ele>30.97</ele>
        <time>2024-07-14T22:33:08.325Z</time>
      </trkpt>
      <trkpt lat="47.26655" lon="-0.09126">
        <ele>30.64</ele>
        <time>2024-07-14T22:33:14.326Z</time>
      </trkpt>
      <trkpt lat="47.26652" lon="-0.09135">
        <ele>30.11</ele>
        <time>2024-07-14T22:33:20.328Z</time>
      </trkpt>
      <trkpt lat="47.26647" lon="-0.09145">
        <ele>29.3</ele>
        <time>2024-07-14T22:33:26.332Z</time>
      </trkpt>
      <trkpt lat="47.26641" lon="-0.09152">
        <ele>28.57</ele>
        <time>2024-07-14T22:33:32.337Z</time>
      </trkpt>
      <trkpt lat="47.26634" lon="-0.09159">
        <ele>27.92</ele>
        <time>2024-07-14T22:33:38.343Z</time>
      </trkpt>
      <trkpt lat="47.26625" lon="-0.09166">
        <ele>28.16</ele>
        <time>2024-07-14T22:33:44.351Z</time>
      </trkpt>
      <trkpt lat="47.26619" lon="-0.0917">
        <ele>28.44</ele>
        <time>2024-07-14T22:33:50.360Z</time>
      </trkpt>
      <trkpt lat="47.26595" lon="-0.0919">
        <ele>29.43</ele>
        <time>2024-07-14T22:33:56.373Z</time>
      </trkpt>
      <trkpt lat="47.26589" lon="-0.09194">
        <ele>29.67</ele>
        <time>2024-07-14T22:34:02.387Z</time>
      </trkpt>
      <trkpt lat="47.26584" lon="-0.092">
        <ele>29.87</ele>
        <time>2024-07-14T22:34:08.402Z</time>
      </trkpt>
      <trkpt lat="47.26582" lon="-0.09203">
        <ele>29.89</ele>
        <time>2024-07-14T22:34:14.418Z</time>
      </trkpt>
      <trkpt lat="47.2659" lon="-0.09215">
        <ele>30.15</ele>
        <time>2024-07-14T22:34:20.436Z</time>
      </trkpt>
      <trkpt lat="47.26614" lon="-0.09251">
        <ele>31.23</ele>
        <time>2024-07-14T22:34:26.459Z</time>
      </trkpt>
      <trkpt lat="47.26625" lon="-0.09266">
        <ele>32.71</ele>
        <time>2024-07-14T22:34:32.485Z</time>
      </trkpt>
      <trkpt lat="47.26622" lon="-0.0927">
        <ele>32.73</ele>
        <time>2024-07-14T22:34:38.511Z</time>
      </trkpt>
      <trkpt lat="47.26608" lon="-0.09285">
        <ele>32.77</ele>
        <time>2024-07-14T22:34:44.540Z</time>
      </trkpt>
      <trkpt lat="47.26588" lon="-0.09312">
        <ele>31.1</ele>
        <time>2024-07-14T22:34:50.573Z</time>
      </trkpt>
      <trkpt lat="47.26581" lon="-0.09323">
        <ele>30.15</ele>
        <time>2024-07-14T22:34:56.608Z</time>
      </trkpt>
      <trkpt lat="47.26575" lon="-0.09341">
        <ele>30</ele>
        <time>2024-07-14T22:35:02.645Z</time>
      </trkpt>
      <trkpt lat="47.26571" lon="-0.09358">
        <ele>29.72</ele>
        <time>2024-07-14T22:35:08.684Z</time>
      </trkpt>
      <trkpt lat="47.26568" lon="-0.09371">
        <ele>29.25</ele>
        <time>2024-07-14T22:35:14.724Z</time>
      </trkpt>
      <trkpt lat="47.26566" lon="-0.09385">
        <ele>28.5</ele>
        <time>2024-07-14T22:35:20.766Z</time>
      </trkpt>
      <trkpt lat="47.26566" lon="-0.09393">
        <ele>28.04</ele>
        <time>2024-07-14T22:35:26.809Z</time>
      </trkpt>
      <trkpt lat="47.26567" lon="-0.09402">
        <ele>27.77</ele>
        <time>2024-07-14T22:35:32.853Z</time>
      </trkpt>
      <trkpt lat="47.26568" lon="-0.09407">
        <ele>27.53</ele>
        <time>2024-07-14T22:35:38.897Z</time>
      </trkpt>
      <trkpt lat="47.26572" lon="-0.09422">
        <ele>26.65</ele>
        <time>2024-07-14T22:35:44.943Z</time>
      </trkpt>
      <trkpt lat="47.2658" lon="-0.09444">
        <ele>25.55</ele>
        <time>2024-07-14T22:35:50.992Z</time>
      </trkpt>
      <trkpt lat="47.26581" lon="-0.09451">
        <ele>25.2</ele>
        <time>2024-07-14T22:35:57.042Z</time>
      </trkpt>
      <trkpt lat="47.26581" lon="-0.09454">
        <ele>24.94</ele>
        <time>2024-07-14T22:36:03.092Z</time>
      </trkpt>
      <trkpt lat="47.26589" lon="-0.09457">
        <ele>25.24</ele>
        <time>2024-07-14T22:36:09.143Z</time>
      </trkpt>
      <trkpt lat="47.266" lon="-0.09463">
        <ele>25.63</ele>
        <time>2024-07-14T22:36:15.196Z</time>
      </trkpt>
      <trkpt lat="47.266" lon="-0.09471">
        <ele>25.14</ele>
        <time>2024-07-14T22:36:21.250Z</time>
      </trkpt>
      <trkpt lat="47.26601" lon="-0.09486">
        <ele>24.02</ele>
        <time>2024-07-14T22:36:27.306Z</time>
      </trkpt>
      <trkpt lat="47.26601" lon="-0.09501">
        <ele>23.74</ele>
        <time>2024-07-14T22:36:33.364Z</time>
      </trkpt>
      <trkpt lat="47.26605" lon="-0.09645">
        <ele>23</ele>
        <time>2024-07-14T22:36:39.437Z</time>
      </trkpt>
      <trkpt lat="47.26607" lon="-0.09753">
        <ele>25.39</ele>
        <time>2024-07-14T22:36:45.522Z</time>
      </trkpt>
      <trkpt lat="47.26602" lon="-0.09773">
        <ele>25.96</ele>
        <time>2024-07-14T22:36:51.609Z</time>
      </trkpt>
      <trkpt lat="47.26588" lon="-0.09787">
        <ele>26.47</ele>
        <time>2024-07-14T22:36:57.699Z</time>
      </trkpt>
      <trkpt lat="47.26577" lon="-0.09782">
        <ele>26.98</ele>
        <time>2024-07-14T22:37:03.791Z</time>
      </trkpt>
      <trkpt lat="47.26568" lon="-0.09775">
        <ele>26.97</ele>
        <time>2024-07-14T22:37:09.885Z</time>
      </trkpt>
      <trkpt lat="47.26555" lon="-0.09761">
        <ele>26.01</ele>
        <time>2024-07-14T22:37:15.981Z</time>
      </trkpt>
      <trkpt lat="47.26538" lon="-0.0974">
        <ele>25.42</ele>
        <time>2024-07-14T22:37:22.081Z</time>
      </trkpt>
      <trkpt lat="47.26524" lon="-0.09716">
        <ele>25.8</ele>
        <time>2024-07-14T22:37:28.184Z</time>
      </trkpt>
      <trkpt lat="47.26514" lon="-0.09685">
        <ele>25.85</ele>
        <time>2024-07-14T22:37:34.291Z</time>
      </trkpt>
      <trkpt lat="47.26496" lon="-0.0966">
        <ele>25.35</ele>
        <time>2024-07-14T22:37:40.402Z</time>
      </trkpt>
      <trkpt lat="47.26478" lon="-0.09645">
        <ele>24.4</ele>
        <time>2024-07-14T22:37:46.516Z</time>
      </trkpt>
      <trkpt lat="47.26473" lon="-0.09641">
        <ele>24.13</ele>
        <time>2024-07-14T22:37:52.631Z</time>
      </trkpt>
      <trkpt lat="47.26458" lon="-0.0963">
        <ele>23.53</ele>
        <time>2024-07-14T22:37:58.749Z</time>
      </trkpt>
      <trkpt lat="47.26435" lon="-0.09622">
        <ele>24.1</ele>
        <time>2024-07-14T22:38:04.870Z</time>
      </trkpt>
      <trkpt lat="47.26422" lon="-0.09616">
        <ele>24.58</ele>
        <time>2024-07-14T22:38:10.994Z</time>
      </trkpt>
      <trkpt lat="47.26402" lon="-0.09603">
        <ele>24.69</ele>
        <time>2024-07-14T22:38:17.121Z</time>
      </trkpt>
      <trkpt lat="47.26391" lon="-0.096">
        <ele>25.37</ele>
        <time>2024-07-14T22:38:23.250Z</time>
      </trkpt>
      <trkpt lat="47.26379" lon="-0.09593">
        <ele>26</ele>
        <time>2024-07-14T22:38:29.381Z</time>
      </trkpt>
      <trkpt lat="47.2636" lon="-0.09578">
        <ele>26.6</ele>
        <time>2024-07-14T22:38:35.516Z</time>
      </trkpt>
      <trkpt lat="47.26351" lon="-0.09569">
        <ele>26.78</ele>
        <time>2024-07-14T22:38:41.652Z</time>
      </trkpt>
      <trkpt lat="47.26343" lon="-0.09558">
        <ele>26.2</ele>
        <time>2024-07-14T22:38:47.790Z</time>
      </trkpt>
      <trkpt lat="47.26337" lon="-0.09546">
        <ele>26.87</ele>
        <time>2024-07-14T22:38:53.930Z</time>
      </trkpt>
      <trkpt lat="47.26329" lon="-0.0953">
        <ele>27.08</ele>
        <time>2024-07-14T22:39:00.072Z</time>
      </trkpt>
      <trkpt lat="47.2632" lon="-0.09508">
        <ele>27</ele>
        <time>2024-07-14T22:39:06.217Z</time>
      </trkpt>
      <trkpt lat="47.26314" lon="-0.09487">
        <ele>26.51</ele>
        <time>2024-07-14T22:39:12.364Z</time>
      </trkpt>
      <trkpt lat="47.26313" lon="-0.09477">
        <ele>26.06</ele>
        <time>2024-07-14T22:39:18.512Z</time>
      </trkpt>
      <trkpt lat="47.26309" lon="-0.09463">
        <ele>26</ele>
        <time>2024-07-14T22:39:24.662Z</time>
      </trkpt>
      <trkpt lat="47.26289" lon="-0.09428">
        <ele>27.34</ele>
        <time>2024-07-14T22:39:30.817Z</time>
      </trkpt>
      <trkpt lat="47.26279" lon="-0.09406">
        <ele>27.73</ele>
        <time>2024-07-14T22:39:36.975Z</time>
      </trkpt>
      <trkpt lat="47.2626" lon="-0.09369">
        <ele>27.38</ele>
        <time>2024-07-14T22:39:43.138Z</time>
      </trkpt>
      <trkpt lat="47.26247" lon="-0.09342">
        <ele>27</ele>
        <time>2024-07-14T22:39:49.304Z</time>
      </trkpt>
      <trkpt lat="47.26241" lon="-0.09326">
        <ele>27.2</ele>
        <time>2024-07-14T22:39:55.472Z</time>
      </trkpt>
      <trkpt lat="47.26237" lon="-0.09312">
        <ele>27.82</ele>
        <time>2024-07-14T22:40:01.642Z</time>
      </trkpt>
      <trkpt lat="47.26233" lon="-0.09308">
        <ele>28.25</ele>
        <time>2024-07-14T22:40:07.813Z</time>
      </trkpt>
      <trkpt lat="47.262" lon="-0.09271">
        <ele>30</ele>
        <time>2024-07-14T22:40:13.990Z</time>
      </trkpt>
      <trkpt lat="47.26159" lon="-0.0923">
        <ele>26.58</ele>
        <time>2024-07-14T22:40:20.175Z</time>
      </trkpt>
      <trkpt lat="47.26131" lon="-0.09201">
        <ele>26.39</ele>
        <time>2024-07-14T22:40:26.366Z</time>
      </trkpt>
      <trkpt lat="47.26108" lon="-0.09178">
        <ele>27.18</ele>
        <time>2024-07-14T22:40:32.561Z</time>
      </trkpt>
      <trkpt lat="47.26087" lon="-0.0916">
        <ele>28</ele>
        <time>2024-07-14T22:40:38.760Z</time>
      </trkpt>
      <trkpt lat="47.26066" lon="-0.09148">
        <ele>28</ele>
        <time>2024-07-14T22:40:44.963Z</time>
      </trkpt>
      <trkpt lat="47.26022" lon="-0.09161">
        <ele>28.18</ele>
        <time>2024-07-14T22:40:51.173Z</time>
      </trkpt>
      <trkpt lat="47.25968" lon="-0.09176">
        <ele>26.58</ele>
        <time>2024-07-14T22:40:57.392Z</time>
      </trkpt>
      <trkpt lat="47.2595" lon="-0.09178">
        <ele>26.38</ele>
        <time>2024-07-14T22:41:03.614Z</time>
      </trkpt>
      <trkpt lat="47.25944" lon="-0.09178">
        <ele>26.4</ele>
        <time>2024-07-14T22:41:09.837Z</time>
      </trkpt>
      <trkpt lat="47.25937" lon="-0.09176">
        <ele>26.51</ele>
        <time>2024-07-14T22:41:16.061Z</time>
      </trkpt>
      <trkpt lat="47.25904" lon="-0.09165">
        <ele>28.29</ele>
        <time>2024-07-14T22:41:22.290Z</time>
      </trkpt>
      <trkpt lat="47.25895" lon="-0.09162">
        <ele>27.91</ele>
        <time>2024-07-14T22:41:28.521Z</time>
      </trkpt>
      <trkpt lat="47.25872" lon="-0.09148">
        <ele>27.61</ele>
        <time>2024-07-14T22:41:34.756Z</time>
      </trkpt>
      <trkpt lat="47.25867" lon="-0.09144">
        <ele>27.95</ele>
        <time>2024-07-14T22:41:40.991Z</time>
      </trkpt>
      <trkpt lat="47.25861" lon="-0.09138">
        <ele>28.39</ele>
        <time>2024-07-14T22:41:47.228Z</time>
      </trkpt>
      <trkpt lat="47.25848" lon="-0.0912">
        <ele>28.75</ele>
        <time>2024-07-14T22:41:53.468Z</time>
      </trkpt>
      <trkpt lat="47.25844" lon="-0.09116">
        <ele>28.61</ele>
        <time>2024-07-14T22:41:59.708Z</time>
      </trkpt>
      <trkpt lat="47.25822" lon="-0.09099">
        <ele>27.55</ele>
        <time>2024-07-14T22:42:05.952Z</time>
      </trkpt>
      <trkpt lat="47.25802" lon="-0.09083">
        <ele>26.43</ele>
        <time>2024-07-14T22:42:12.200Z</time>
      </trkpt>
      <trkpt lat="47.25779" lon="-0.09071">
        <ele>26.34</ele>
        <time>2024-07-14T22:42:18.452Z</time>
      </trkpt>
      <trkpt lat="47.25771" lon="-0.09067">
        <ele>26.5</ele>
        <time>2024-07-14T22:42:24.705Z</time>
      </trkpt>
      <trkpt lat="47.25762" lon="-0.09065">
        <ele>26.71</ele>
        <time>2024-07-14T22:42:30.960Z</time>
      </trkpt>
      <trkpt lat="47.25724" lon="-0.09064">
        <ele>26.58</ele>
        <time>2024-07-14T22:42:37.221Z</time>
      </trkpt>
      <trkpt lat="47.25717" lon="-0.09063">
        <ele>26.68</ele>
        <time>2024-07-14T22:42:43.483Z</time>
      </trkpt>
      <trkpt lat="47.25712" lon="-0.09061">
        <ele>26.79</ele>
        <time>2024-07-14T22:42:49.746Z</time>
      </trkpt>
      <trkpt lat="47.25707" lon="-0.09058">
        <ele>27.04</ele>
        <time>2024-07-14T22:42:56.010Z</time>
      </trkpt>
      <trkpt lat="47.25679" lon="-0.09034">
        <ele>25.37</ele>
        <time>2024-07-14T22:43:02.279Z</time>
      </trkpt>
      <trkpt lat="47.25643" lon="-0.09005">
        <ele>23.82</ele>
        <time>2024-07-14T22:43:08.554Z</time>
      </trkpt>
      <trkpt lat="47.25635" lon="-0.08999">
        <ele>23.73</ele>
        <time>2024-07-14T22:43:14.831Z</time>
      </trkpt>
      <trkpt lat="47.25626" lon="-0.08996">
        <ele>23.94</ele>
        <time>2024-07-14T22:43:21.109Z</time>
      </trkpt>
      <trkpt lat="47.25612" lon="-0.08997">
        <ele>24</ele>
        <time>2024-07-14T22:43:27.389Z</time>
      </trkpt>
      <trkpt lat="47.25603" lon="-0.08997">
        <ele>24.17</ele>
        <time>2024-07-14T22:43:33.671Z</time>
      </trkpt>
      <trkpt lat="47.25592" lon="-0.08994">
        <ele>25.31</ele>
        <time>2024-07-14T22:43:39.955Z</time>
      </trkpt>
      <trkpt lat="47.25578" lon="-0.08988">
        <ele>25.91</ele>
        <time>2024-07-14T22:43:46.241Z</time>
      </trkpt>
      <trkpt lat="47.2556" lon="-0.08978">
        <ele>26.59</ele>
        <time>2024-07-14T22:43:52.530Z</time>
      </trkpt>
      <trkpt lat="47.25542" lon="-0.08968">
        <ele>25.99</ele>
        <time>2024-07-14T22:43:58.822Z</time>
      </trkpt>
      <trkpt lat="47.25527" lon="-0.08958">
        <ele>24.5</ele>
        <time>2024-07-14T22:44:05.117Z</time>
      </trkpt>
      <trkpt lat="47.25511" lon="-0.0894">
        <ele>23.04</ele>
        <time>2024-07-14T22:44:11.415Z</time>
      </trkpt>
      <trkpt lat="47.25495" lon="-0.08914">
        <ele>23.42</ele>
        <time>2024-07-14T22:44:17.717Z</time>
      </trkpt>
      <trkpt lat="47.25491" lon="-0.08907">
        <ele>23.92</ele>
        <time>2024-07-14T22:44:24.020Z</time>
      </trkpt>
      <trkpt lat="47.2547" lon="-0.08874">
        <ele>25.11</ele>
        <time>2024-07-14T22:44:30.328Z</time>
      </trkpt>
      <trkpt lat="47.25456" lon="-0.08851">
        <ele>26.05</ele>
        <time>2024-07-14T22:44:36.639Z</time>
      </trkpt>
      <trkpt lat="47.25449" lon="-0.08828">
        <ele>26.79</ele>
        <time>2024-07-14T22:44:42.953Z</time>
      </trkpt>
      <trkpt lat="47.25435" lon="-0.08801">
        <ele>27.67</ele>
        <time>2024-07-14T22:44:49.271Z</time>
      </trkpt>
      <trkpt lat="47.25418" lon="-0.08764">
        <ele>28.66</ele>
        <time>2024-07-14T22:44:55.593Z</time>
      </trkpt>
      <trkpt lat="47.25396" lon="-0.08736">
        <ele>28.6</ele>
        <time>2024-07-14T22:45:01.920Z</time>
      </trkpt>
      <trkpt lat="47.25388" lon="-0.08718">
        <ele>28.96</ele>
        <time>2024-07-14T22:45:08.249Z</time>
      </trkpt>
      <trkpt lat="47.25387" lon="-0.08692">
        <ele>29.84</ele>
        <time>2024-07-14T22:45:14.581Z</time>
      </trkpt>
      <trkpt lat="47.25388" lon="-0.08658">
        <ele>30.22</ele>
        <time>2024-07-14T22:45:20.917Z</time>
      </trkpt>
      <trkpt lat="47.2538" lon="-0.0863">
        <ele>30</ele>
        <time>2024-07-14T22:45:27.256Z</time>
      </trkpt>
      <trkpt lat="47.25369" lon="-0.08605">
        <ele>28.73</ele>
        <time>2024-07-14T22:45:33.599Z</time>
      </trkpt>
      <trkpt lat="47.25356" lon="-0.08593">
        <ele>27.81</ele>
        <time>2024-07-14T22:45:39.944Z</time>
      </trkpt>
      <trkpt lat="47.25353" lon="-0.08588">
        <ele>27.52</ele>
        <time>2024-07-14T22:45:46.290Z</time>
      </trkpt>
      <trkpt lat="47.25352" lon="-0.08586">
        <ele>27.42</ele>
        <time>2024-07-14T22:45:52.636Z</time>
      </trkpt>
      <trkpt lat="47.25337" lon="-0.08563">
        <ele>27</ele>
        <time>2024-07-14T22:45:58.985Z</time>
      </trkpt>
      <trkpt lat="47.25334" lon="-0.08559">
        <ele>27.2</ele>
        <time>2024-07-14T22:46:05.335Z</time>
      </trkpt>
      <trkpt lat="47.25334" lon="-0.08547">
        <ele>27.62</ele>
        <time>2024-07-14T22:46:11.686Z</time>
      </trkpt>
      <trkpt lat="47.25333" lon="-0.08533">
        <ele>28.61</ele>
        <time>2024-07-14T22:46:18.039Z</time>
      </trkpt>
      <trkpt lat="47.25329" lon="-0.08518">
        <ele>29.01</ele>
        <time>2024-07-14T22:46:24.394Z</time>
      </trkpt>
      <trkpt lat="47.25325" lon="-0.08505">
        <ele>29.81</ele>
        <time>2024-07-14T22:46:30.750Z</time>
      </trkpt>
      <trkpt lat="47.25321" lon="-0.0849">
        <ele>30.59</ele>
        <time>2024-07-14T22:46:37.108Z</time>
      </trkpt>
      <trkpt lat="47.25317" lon="-0.08487">
        <ele>30.34</ele>
        <time>2024-07-14T22:46:43.467Z</time>
      </trkpt>
      <trkpt lat="47.25312" lon="-0.08486">
        <ele>29.93</ele>
        <time>2024-07-14T22:46:49.827Z</time>
      </trkpt>
      <trkpt lat="47.25301" lon="-0.08487">
        <ele>29.13</ele>
        <time>2024-07-14T22:46:56.188Z</time>
      </trkpt>
      <trkpt lat="47.2524" lon="-0.08402">
        <ele>29.01</ele>
        <time>2024-07-14T22:47:02.563Z</time>
      </trkpt>
      <trkpt lat="47.25233" lon="-0.08393">
        <ele>29.1</ele>
        <time>2024-07-14T22:47:08.939Z</time>
      </trkpt>
      <trkpt lat="47.25225" lon="-0.08385">
        <ele>29.07</ele>
        <time>2024-07-14T22:47:15.317Z</time>
      </trkpt>
      <trkpt lat="47.25191" lon="-0.08357">
        <ele>28.83</ele>
        <time>2024-07-14T22:47:21.701Z</time>
      </trkpt>
      <trkpt lat="47.25164" lon="-0.08339">
        <ele>28.16</ele>
        <time>2024-07-14T22:47:28.090Z</time>
      </trkpt>
      <trkpt lat="47.25135" lon="-0.08322">
        <ele>27.09</ele>
        <time>2024-07-14T22:47:34.484Z</time>
      </trkpt>
      <trkpt lat="47.25108" lon="-0.08311">
        <ele>26</ele>
        <time>2024-07-14T22:47:40.882Z</time>
      </trkpt>
      <trkpt lat="47.25091" lon="-0.08309">
        <ele>26</ele>
        <time>2024-07-14T22:47:47.283Z</time>
      </trkpt>
      <trkpt lat="47.25071" lon="-0.08304">
        <ele>26.81</ele>
        <time>2024-07-14T22:47:53.687Z</time>
      </trkpt>
      <trkpt lat="47.25049" lon="-0.08305">
        <ele>27.58</ele>
        <time>2024-07-14T22:48:00.095Z</time>
      </trkpt>
      <trkpt lat="47.25033" lon="-0.08306">
        <ele>27.56</ele>
        <time>2024-07-14T22:48:06.505Z</time>
      </trkpt>
      <trkpt lat="47.25014" lon="-0.08309">
        <ele>27.47</ele>
        <time>2024-07-14T22:48:12.918Z</time>
      </trkpt>
      <trkpt lat="47.24991" lon="-0.08316">
        <ele>26.92</ele>
        <time>2024-07-14T22:48:19.335Z</time>
      </trkpt>
      <trkpt lat="47.2496" lon="-0.08329">
        <ele>26.24</ele>
        <time>2024-07-14T22:48:25.757Z</time>
      </trkpt>
      <trkpt lat="47.24951" lon="-0.08333">
        <ele>26.5</ele>
        <time>2024-07-14T22:48:32.181Z</time>
      </trkpt>
      <trkpt lat="47.24863" lon="-0.08399">
        <ele>25.67</ele>
        <time>2024-07-14T22:48:38.621Z</time>
      </trkpt>
      <trkpt lat="47.24841" lon="-0.08413">
        <ele>27.06</ele>
        <time>2024-07-14T22:48:45.064Z</time>
      </trkpt>
      <trkpt lat="47.24827" lon="-0.08422">
        <ele>28.21</ele>
        <time>2024-07-14T22:48:51.510Z</time>
      </trkpt>
      <trkpt lat="47.24812" lon="-0.08433">
        <ele>30.01</ele>
        <time>2024-07-14T22:48:57.959Z</time>
      </trkpt>
      <trkpt lat="47.248" lon="-0.08436">
        <ele>30.88</ele>
        <time>2024-07-14T22:49:04.410Z</time>
      </trkpt>
      <trkpt lat="47.24744" lon="-0.08439">
        <ele>26.15</ele>
        <time>2024-07-14T22:49:10.869Z</time>
      </trkpt>
      <trkpt lat="47.24637" lon="-0.08449">
        <ele>27.41</ele>
        <time>2024-07-14T22:49:17.346Z</time>
      </trkpt>
      <trkpt lat="47.24565" lon="-0.08493">
        <ele>25.9</ele>
        <time>2024-07-14T22:49:23.835Z</time>
      </trkpt>
      <trkpt lat="47.24541" lon="-0.08504">
        <ele>24.84</ele>
        <time>2024-07-14T22:49:30.328Z</time>
      </trkpt>
      <trkpt lat="47.2453" lon="-0.08507">
        <ele>25.3</ele>
        <time>2024-07-14T22:49:36.823Z</time>
      </trkpt>
      <trkpt lat="47.24502" lon="-0.0851">
        <ele>26.18</ele>
        <time>2024-07-14T22:49:43.322Z</time>
      </trkpt>
      <trkpt lat="47.24495" lon="-0.08509">
        <ele>26.39</ele>
        <time>2024-07-14T22:49:49.823Z</time>
      </trkpt>
      <trkpt lat="47.24479" lon="-0.08505">
        <ele>25.18</ele>
        <time>2024-07-14T22:49:56.326Z</time>
      </trkpt>
      <trkpt lat="47.24471" lon="-0.08498">
        <ele>24.56</ele>
        <time>2024-07-14T22:50:02.831Z</time>
      </trkpt>
      <trkpt lat="47.24463" lon="-0.08479">
        <ele>24</ele>
        <time>2024-07-14T22:50:09.338Z</time>
      </trkpt>
      <trkpt lat="47.2446" lon="-0.08478">
        <ele>24</ele>
        <time>2024-07-14T22:50:15.846Z</time>
      </trkpt>
      <trkpt lat="47.24458" lon="-0.08511">
        <ele>24.57</ele>
        <time>2024-07-14T22:50:22.357Z</time>
      </trkpt>
      <trkpt lat="47.24459" lon="-0.08522">
        <ele>24.95</ele>
        <time>2024-07-14T22:50:28.869Z</time>
      </trkpt>
      <trkpt lat="47.24459" lon="-0.0853">
        <ele>25.24</ele>
        <time>2024-07-14T22:50:35.382Z</time>
      </trkpt>
      <trkpt lat="47.2446" lon="-0.0855">
        <ele>26</ele>
        <time>2024-07-14T22:50:41.897Z</time>
      </trkpt>
      <trkpt lat="47.24463" lon="-0.0858">
        <ele>27</ele>
        <time>2024-07-14T22:50:48.416Z</time>
      </trkpt>
      <trkpt lat="47.24465" lon="-0.08602">
        <ele>27</ele>
        <time>2024-07-14T22:50:54.937Z</time>
      </trkpt>
      <trkpt lat="47.24461" lon="-0.08611">
        <ele>27</ele>
        <time>2024-07-14T22:51:01.459Z</time>
      </trkpt>
      <trkpt lat="47.2444" lon="-0.08648">
        <ele>27</ele>
        <time>2024-07-14T22:51:07.987Z</time>
      </trkpt>
      <trkpt lat="47.24423" lon="-0.08679">
        <ele>25.98</ele>
        <time>2024-07-14T22:51:14.519Z</time>
      </trkpt>
      <trkpt lat="47.24416" lon="-0.08697">
        <ele>25.96</ele>
        <time>2024-07-14T22:51:21.053Z</time>
      </trkpt>
      <trkpt lat="47.24412" lon="-0.08714">
        <ele>26.26</ele>
        <time>2024-07-14T22:51:27.589Z</time>
      </trkpt>
      <trkpt lat="47.24409" lon="-0.08731">
        <ele>26.71</ele>
        <time>2024-07-14T22:51:34.127Z</time>
      </trkpt>
      <trkpt lat="47.24409" lon="-0.08747">
        <ele>27.6</ele>
        <time>2024-07-14T22:51:40.667Z</time>
      </trkpt>
      <trkpt lat="47.24423" lon="-0.08791">
        <ele>32.22</ele>
        <time>2024-07-14T22:51:47.212Z</time>
      </trkpt>
      <trkpt lat="47.24429" lon="-0.08809">
        <ele>34.12</ele>
        <time>2024-07-14T22:51:53.759Z</time>
      </trkpt>
      <trkpt lat="47.24437" lon="-0.08829">
        <ele>36.46</ele>
        <time>2024-07-14T22:52:00.309Z</time>
      </trkpt>
      <trkpt lat="47.24449" lon="-0.08855">
        <ele>38.42</ele>
        <time>2024-07-14T22:52:06.862Z</time>
      </trkpt>
      <trkpt lat="47.24453" lon="-0.08866">
        <ele>38.42</ele>
        <time>2024-07-14T22:52:13.417Z</time>
      </trkpt>
      <trkpt lat="47.24454" lon="-0.08891">
        <ele>38</ele>
        <time>2024-07-14T22:52:19.974Z</time>
      </trkpt>
      <trkpt lat="47.24454" lon="-0.08928">
        <ele>37.6</ele>
        <time>2024-07-14T22:52:26.535Z</time>
      </trkpt>
      <trkpt lat="47.24454" lon="-0.08934">
        <ele>37.41</ele>
        <time>2024-07-14T22:52:33.097Z</time>
      </trkpt>
      <trkpt lat="47.24429" lon="-0.08943">
        <ele>38</ele>
        <time>2024-07-14T22:52:39.663Z</time>
      </trkpt>
      <trkpt lat="47.2441" lon="-0.0895">
        <ele>38.4</ele>
        <time>2024-07-14T22:52:46.232Z</time>
      </trkpt>
      <trkpt lat="47.244" lon="-0.08953">
        <ele>38.27</ele>
        <time>2024-07-14T22:52:52.803Z</time>
      </trkpt>
      <trkpt lat="47.24364" lon="-0.08963">
        <ele>37.93</ele>
        <time>2024-07-14T22:52:59.380Z</time>
      </trkpt>
      <trkpt lat="47.24332" lon="-0.0897">
        <ele>37.66</ele>
        <time>2024-07-14T22:53:05.962Z</time>
      </trkpt>
      <trkpt lat="47.24315" lon="-0.08974">
        <ele>37.52</ele>
        <time>2024-07-14T22:53:12.547Z</time>
      </trkpt>
      <trkpt lat="47.24295" lon="-0.08979">
        <ele>37.22</ele>
        <time>2024-07-14T22:53:19.135Z</time>
      </trkpt>
      <trkpt lat="47.24284" lon="-0.08981">
        <ele>36.77</ele>
        <time>2024-07-14T22:53:25.725Z</time>
      </trkpt>
      <trkpt lat="47.24273" lon="-0.08983">
        <ele>36.3</ele>
        <time>2024-07-14T22:53:32.316Z</time>
      </trkpt>
      <trkpt lat="47.24242" lon="-0.08988">
        <ele>36.02</ele>
        <time>2024-07-14T22:53:38.912Z</time>
      </trkpt>
      <trkpt lat="47.24235" lon="-0.0899">
        <ele>36.06</ele>
        <time>2024-07-14T22:53:45.510Z</time>
      </trkpt>
      <trkpt lat="47.24228" lon="-0.08994">
        <ele>36.2</ele>
        <time>2024-07-14T22:53:52.109Z</time>
      </trkpt>
      <trkpt lat="47.24217" lon="-0.09005">
        <ele>36.57</ele>
        <time>2024-07-14T22:53:58.710Z</time>
      </trkpt>
      <trkpt lat="47.24175" lon="-0.09052">
        <ele>38.44</ele>
        <time>2024-07-14T22:54:05.319Z</time>
      </trkpt>
      <trkpt lat="47.24162" lon="-0.09064">
        <ele>38.89</ele>
        <time>2024-07-14T22:54:11.931Z</time>
      </trkpt>
      <trkpt lat="47.24148" lon="-0.09079">
        <ele>39.67</ele>
        <time>2024-07-14T22:54:18.546Z</time>
      </trkpt>
      <trkpt lat="47.24112" lon="-0.09116">
        <ele>39.6</ele>
        <time>2024-07-14T22:54:25.168Z</time>
      </trkpt>
      <trkpt lat="47.24098" lon="-0.09125">
        <ele>38.61</ele>
        <time>2024-07-14T22:54:31.792Z</time>
      </trkpt>
      <trkpt lat="47.24088" lon="-0.09131">
        <ele>37.84</ele>
        <time>2024-07-14T22:54:38.418Z</time>
      </trkpt>
      <trkpt lat="47.24079" lon="-0.09135">
        <ele>37.18</ele>
        <time>2024-07-14T22:54:45.045Z</time>
      </trkpt>
      <trkpt lat="47.23997" lon="-0.0915">
        <ele>37.1</ele>
        <time>2024-07-14T22:54:51.686Z</time>
      </trkpt>
      <trkpt lat="47.23922" lon="-0.09163">
        <ele>36.45</ele>
        <time>2024-07-14T22:54:58.339Z</time>
      </trkpt>
      <trkpt lat="47.2391" lon="-0.09165">
        <ele>36.01</ele>
        <time>2024-07-14T22:55:04.994Z</time>
      </trkpt>
      <trkpt lat="47.23908" lon="-0.09165">
        <ele>36</ele>
        <time>2024-07-14T22:55:11.649Z</time>
      </trkpt>
      <trkpt lat="47.23901" lon="-0.09166">
        <ele>36</ele>
        <time>2024-07-14T22:55:18.305Z</time>
      </trkpt>
      <trkpt lat="47.23882" lon="-0.09171">
        <ele>35.55</ele>
        <time>2024-07-14T22:55:24.964Z</time>
      </trkpt>
      <trkpt lat="47.23876" lon="-0.09172">
        <ele>35.82</ele>
        <time>2024-07-14T22:55:31.624Z</time>
      </trkpt>
      <trkpt lat="47.23863" lon="-0.09174">
        <ele>36.34</ele>
        <time>2024-07-14T22:55:38.286Z</time>
      </trkpt>
      <trkpt lat="47.23803" lon="-0.09186">
        <ele>40.81</ele>
        <time>2024-07-14T22:55:44.958Z</time>
      </trkpt>
      <trkpt lat="47.23779" lon="-0.09196">
        <ele>40.54</ele>
        <time>2024-07-14T22:55:51.634Z</time>
      </trkpt>
      <trkpt lat="47.23758" lon="-0.09208">
        <ele>39.66</ele>
        <time>2024-07-14T22:55:58.313Z</time>
      </trkpt>
      <trkpt lat="47.23709" lon="-0.09247">
        <ele>38.79</ele>
        <time>2024-07-14T22:56:05.001Z</time>
      </trkpt>
      <trkpt lat="47.23673" lon="-0.09275">
        <ele>37.5</ele>
        <time>2024-07-14T22:56:11.696Z</time>
      </trkpt>
      <trkpt lat="47.23662" lon="-0.09284">
        <ele>37.08</ele>
        <time>2024-07-14T22:56:18.393Z</time>
      </trkpt>
      <trkpt lat="47.23649" lon="-0.09296">
        <ele>36.6</ele>
        <time>2024-07-14T22:56:25.092Z</time>
      </trkpt>
      <trkpt lat="47.23639" lon="-0.09304">
        <ele>36.26</ele>
        <time>2024-07-14T22:56:31.793Z</time>
      </trkpt>
      <trkpt lat="47.23633" lon="-0.09307">
        <ele>36.07</ele>
        <time>2024-07-14T22:56:38.495Z</time>
      </trkpt>
      <trkpt lat="47.23626" lon="-0.0931">
        <ele>36.2</ele>
        <time>2024-07-14T22:56:45.198Z</time>
      </trkpt>
      <trkpt lat="47.23624" lon="-0.09311">
        <ele>36.27</ele>
        <time>2024-07-14T22:56:51.902Z</time>
      </trkpt>
      <trkpt lat="47.23612" lon="-0.09312">
        <ele>36.63</ele>
        <time>2024-07-14T22:56:58.608Z</time>
      </trkpt>
      <trkpt lat="47.23603" lon="-0.09312">
        <ele>36.66</ele>
        <time>2024-07-14T22:57:05.315Z</time>
      </trkpt>
      <trkpt lat="47.23597" lon="-0.0931">
        <ele>36.81</ele>
        <time>2024-07-14T22:57:12.023Z</time>
      </trkpt>
      <trkpt lat="47.23589" lon="-0.09306">
        <ele>36.93</ele>
        <time>2024-07-14T22:57:18.732Z</time>
      </trkpt>
      <trkpt lat="47.23585" lon="-0.09303">
        <ele>37.02</ele>
        <time>2024-07-14T22:57:25.442Z</time>
      </trkpt>
      <trkpt lat="47.23552" lon="-0.0929">
        <ele>37.72</ele>
        <time>2024-07-14T22:57:32.158Z</time>
      </trkpt>
      <trkpt lat="47.23527" lon="-0.09281">
        <ele>39</ele>
        <time>2024-07-14T22:57:38.878Z</time>
      </trkpt>
      <trkpt lat="47.23475" lon="-0.09268">
        <ele>38</ele>
        <time>2024-07-14T22:57:45.606Z</time>
      </trkpt>
      <trkpt lat="47.23459" lon="-0.09264">
        <ele>38</ele>
        <time>2024-07-14T22:57:52.337Z</time>
      </trkpt>
      <trkpt lat="47.23439" lon="-0.09252">
        <ele>38</ele>
        <time>2024-07-14T22:57:59.071Z</time>
      </trkpt>
      <trkpt lat="47.23407" lon="-0.0923">
        <ele>38.76</ele>
        <time>2024-07-14T22:58:05.811Z</time>
      </trkpt>
      <trkpt lat="47.23388" lon="-0.09216">
        <ele>38.94</ele>
        <time>2024-07-14T22:58:12.554Z</time>
      </trkpt>
      <trkpt lat="47.23328" lon="-0.09183">
        <ele>39.9</ele>
        <time>2024-07-14T22:58:19.308Z</time>
      </trkpt>
      <trkpt lat="47.23298" lon="-0.09169">
        <ele>40.41</ele>
        <time>2024-07-14T22:58:26.067Z</time>
      </trkpt>
      <trkpt lat="47.23264" lon="-0.09147">
        <ele>39.67</ele>
        <time>2024-07-14T22:58:32.832Z</time>
      </trkpt>
      <trkpt lat="47.23239" lon="-0.0913">
        <ele>37.95</ele>
        <time>2024-07-14T22:58:39.601Z</time>
      </trkpt>
      <trkpt lat="47.23195" lon="-0.09104">
        <ele>36</ele>
        <time>2024-07-14T22:58:46.377Z</time>
      </trkpt>
      <trkpt lat="47.23169" lon="-0.09089">
        <ele>34.97</ele>
        <time>2024-07-14T22:58:53.158Z</time>
      </trkpt>
      <trkpt lat="47.23153" lon="-0.09084">
        <ele>34.42</ele>
        <time>2024-07-14T22:58:59.942Z</time>
      </trkpt>
      <trkpt lat="47.23134" lon="-0.0908">
        <ele>34.3</ele>
        <time>2024-07-14T22:59:06.729Z</time>
      </trkpt>
      <trkpt lat="47.23002" lon="-0.0908">
        <ele>32.58</ele>
        <time>2024-07-14T22:59:13.537Z</time>
      </trkpt>
      <trkpt lat="47.22995" lon="-0.0908">
        <ele>32.54</ele>
        <time>2024-07-14T22:59:20.346Z</time>
      </trkpt>
      <trkpt lat="47.22869" lon="-0.09069">
        <ele>33.09</ele>
        <time>2024-07-14T22:59:27.175Z</time>
      </trkpt>
      <trkpt lat="47.22846" lon="-0.0907">
        <ele>31.94</ele>
        <time>2024-07-14T22:59:34.008Z</time>
      </trkpt>
      <trkpt lat="47.22827" lon="-0.09078">
        <ele>32.59</ele>
        <time>2024-07-14T22:59:40.844Z</time>
      </trkpt>
      <trkpt lat="47.22824" lon="-0.09068">
        <ele>31.69</ele>
        <time>2024-07-14T22:59:47.681Z</time>
      </trkpt>
      <trkpt lat="47.22796" lon="-0.09062">
        <ele>31.19</ele>
        <time>2024-07-14T22:59:54.523Z</time>
      </trkpt>
      <trkpt lat="47.22779" lon="-0.09064">
        <ele>30.72</ele>
        <time>2024-07-14T23:00:01.367Z</time>
      </trkpt>
      <trkpt lat="47.22761" lon="-0.09066">
        <ele>30.59</ele>
        <time>2024-07-14T23:00:08.214Z</time>
      </trkpt>
      <trkpt lat="47.22723" lon="-0.09077">
        <ele>31</ele>
        <time>2024-07-14T23:00:15.067Z</time>
      </trkpt>
      <trkpt lat="47.22615" lon="-0.09128">
        <ele>29.16</ele>
        <time>2024-07-14T23:00:21.939Z</time>
      </trkpt>
      <trkpt lat="47.22567" lon="-0.0916">
        <ele>29</ele>
        <time>2024-07-14T23:00:28.819Z</time>
      </trkpt>
      <trkpt lat="47.22478" lon="-0.09235">
        <ele>26.11</ele>
        <time>2024-07-14T23:00:35.715Z</time>
      </trkpt>
      <trkpt lat="47.22412" lon="-0.09296">
        <ele>26</ele>
        <time>2024-07-14T23:00:42.624Z</time>
      </trkpt>
      <trkpt lat="47.22361" lon="-0.09333">
        <ele>26.38</ele>
        <time>2024-07-14T23:00:49.542Z</time>
      </trkpt>
      <trkpt lat="47.22326" lon="-0.09348">
        <ele>27.92</ele>
        <time>2024-07-14T23:00:56.466Z</time>
      </trkpt>
      <trkpt lat="47.22314" lon="-0.09352">
        <ele>28.5</ele>
        <time>2024-07-14T23:01:03.392Z</time>
      </trkpt>
      <trkpt lat="47.2231" lon="-0.09361">
        <ele>28.99</ele>
        <time>2024-07-14T23:01:10.319Z</time>
      </trkpt>
      <trkpt lat="47.22303" lon="-0.09351">
        <ele>28.86</ele>
        <time>2024-07-14T23:01:17.248Z</time>
      </trkpt>
      <trkpt lat="47.22284" lon="-0.09327">
        <ele>28.33</ele>
        <time>2024-07-14T23:01:24.181Z</time>
      </trkpt>
      <trkpt lat="47.22278" lon="-0.09319">
        <ele>28.83</ele>
        <time>2024-07-14T23:01:31.115Z</time>
      </trkpt>
      <trkpt lat="47.22271" lon="-0.09312">
        <ele>29.34</ele>
        <time>2024-07-14T23:01:38.050Z</time>
      </trkpt>
      <trkpt lat="47.22259" lon="-0.093">
        <ele>30</ele>
        <time>2024-07-14T23:01:44.988Z</time>
      </trkpt>
      <trkpt lat="47.22245" lon="-0.0929">
        <ele>30</ele>
        <time>2024-07-14T23:01:51.928Z</time>
      </trkpt>
      <trkpt lat="47.2223" lon="-0.09284">
        <ele>29.57</ele>
        <time>2024-07-14T23:01:58.871Z</time>
      </trkpt>
      <trkpt lat="47.22186" lon="-0.09278">
        <ele>26.42</ele>
        <time>2024-07-14T23:02:05.821Z</time>
      </trkpt>
      <trkpt lat="47.22148" lon="-0.09271">
        <ele>27.58</ele>
        <time>2024-07-14T23:02:12.777Z</time>
      </trkpt>
      <trkpt lat="47.2214" lon="-0.0927">
        <ele>27.78</ele>
        <time>2024-07-14T23:02:19.734Z</time>
      </trkpt>
      <trkpt lat="47.22127" lon="-0.09266">
        <ele>28</ele>
        <time>2024-07-14T23:02:26.693Z</time>
      </trkpt>
      <trkpt lat="47.2212" lon="-0.09263">
        <ele>28</ele>
        <time>2024-07-14T23:02:33.653Z</time>
      </trkpt>
      <trkpt lat="47.22067" lon="-0.09232">
        <ele>28.67</ele>
        <time>2024-07-14T23:02:40.623Z</time>
      </trkpt>
      <trkpt lat="47.22032" lon="-0.09212">
        <ele>26.92</ele>
        <time>2024-07-14T23:02:47.599Z</time>
      </trkpt>
      <trkpt lat="47.2199" lon="-0.09184">
        <ele>25.08</ele>
        <time>2024-07-14T23:02:54.582Z</time>
      </trkpt>
      <trkpt lat="47.2192" lon="-0.09141">
        <ele>26.53</ele>
        <time>2024-07-14T23:03:01.577Z</time>
      </trkpt>
      <trkpt lat="47.21873" lon="-0.09114">
        <ele>27.8</ele>
        <time>2024-07-14T23:03:08.580Z</time>
      </trkpt>
      <trkpt lat="47.21831" lon="-0.09094">
        <ele>28.43</ele>
        <time>2024-07-14T23:03:15.590Z</time>
      </trkpt>
      <trkpt lat="47.21811" lon="-0.09085">
        <ele>29.03</ele>
        <time>2024-07-14T23:03:22.604Z</time>
      </trkpt>
      <trkpt lat="47.21789" lon="-0.09078">
        <ele>29.93</ele>
        <time>2024-07-14T23:03:29.621Z</time>
      </trkpt>
      <trkpt lat="47.2177" lon="-0.09074">
        <ele>31.79</ele>
        <time>2024-07-14T23:03:36.641Z</time>
      </trkpt>
      <trkpt lat="47.21748" lon="-0.09071">
        <ele>32.04</ele>
        <time>2024-07-14T23:03:43.665Z</time>
      </trkpt>
      <trkpt lat="47.21652" lon="-0.09066">
        <ele>33.39</ele>
        <time>2024-07-14T23:03:50.704Z</time>
      </trkpt>
      <trkpt lat="47.2157" lon="-0.09072">
        <ele>30.79</ele>
        <time>2024-07-14T23:03:57.756Z</time>
      </trkpt>
      <trkpt lat="47.21531" lon="-0.09073">
        <ele>29.41</ele>
        <time>2024-07-14T23:04:04.815Z</time>
      </trkpt>
      <trkpt lat="47.21493" lon="-0.09071">
        <ele>27.07</ele>
        <time>2024-07-14T23:04:11.880Z</time>
      </trkpt>
      <trkpt lat="47.21223" lon="-0.0903">
        <ele>25.47</ele>
        <time>2024-07-14T23:04:18.988Z</time>
      </trkpt>
      <trkpt lat="47.2119" lon="-0.09022">
        <ele>25.21</ele>
        <time>2024-07-14T23:04:26.102Z</time>
      </trkpt>
      <trkpt lat="47.21161" lon="-0.09013">
        <ele>25.95</ele>
        <time>2024-07-14T23:04:33.220Z</time>
      </trkpt>
      <trkpt lat="47.21075" lon="-0.08984">
        <ele>28</ele>
        <time>2024-07-14T23:04:40.352Z</time>
      </trkpt>
      <trkpt lat="47.21032" lon="-0.08969">
        <ele>26.45</ele>
        <time>2024-07-14T23:04:47.491Z</time>
      </trkpt>
      <trkpt lat="47.20985" lon="-0.08956">
        <ele>26.24</ele>
        <time>2024-07-14T23:04:54.638Z</time>
      </trkpt>
      <trkpt lat="47.20978" lon="-0.08955">
        <ele>26.49</ele>
        <time>2024-07-14T23:05:01.786Z</time>
      </trkpt>
      <trkpt lat="47.20952" lon="-0.08951">
        <ele>27</ele>
        <time>2024-07-14T23:05:08.938Z</time>
      </trkpt>
      <trkpt lat="47.20947" lon="-0.08949">
        <ele>27.04</ele>
        <time>2024-07-14T23:05:16.091Z</time>
      </trkpt>
      <trkpt lat="47.20868" lon="-0.0891">
        <ele>29.17</ele>
        <time>2024-07-14T23:05:23.258Z</time>
      </trkpt>
      <trkpt lat="47.20788" lon="-0.0889">
        <ele>31</ele>
        <time>2024-07-14T23:05:30.438Z</time>
      </trkpt>
      <trkpt lat="47.20699" lon="-0.08881">
        <ele>28.34</ele>
        <time>2024-07-14T23:05:37.632Z</time>
      </trkpt>
      <trkpt lat="47.20656" lon="-0.08871">
        <ele>26.24</ele>
        <time>2024-07-14T23:05:44.833Z</time>
      </trkpt>
      <trkpt lat="47.20559" lon="-0.08869">
        <ele>25.68</ele>
        <time>2024-07-14T23:05:52.049Z</time>
      </trkpt>
      <trkpt lat="47.20388" lon="-0.08907">
        <ele>26</ele>
        <time>2024-07-14T23:05:59.293Z</time>
      </trkpt>
      <trkpt lat="47.2032" lon="-0.08943">
        <ele>24</ele>
        <time>2024-07-14T23:06:06.549Z</time>
      </trkpt>
      <trkpt lat="47.20291" lon="-0.08963">
        <ele>24.23</ele>
        <time>2024-07-14T23:06:13.810Z</time>
      </trkpt>
      <trkpt lat="47.20289" lon="-0.08964">
        <ele>24.3</ele>
        <time>2024-07-14T23:06:21.071Z</time>
      </trkpt>
      <trkpt lat="47.20226" lon="-0.09001">
        <ele>26.99</ele>
        <time>2024-07-14T23:06:28.343Z</time>
      </trkpt>
      <trkpt lat="47.20091" lon="-0.09133">
        <ele>29.18</ele>
        <time>2024-07-14T23:06:35.641Z</time>
      </trkpt>
      <trkpt lat="47.20021" lon="-0.09181">
        <ele>28.98</ele>
        <time>2024-07-14T23:06:42.951Z</time>
      </trkpt>
      <trkpt lat="47.19986" lon="-0.09207">
        <ele>29.49</ele>
        <time>2024-07-14T23:06:50.268Z</time>
      </trkpt>
      <trkpt lat="47.19896" lon="-0.0924">
        <ele>29.67</ele>
        <time>2024-07-14T23:06:57.600Z</time>
      </trkpt>
      <trkpt lat="47.19866" lon="-0.09245">
        <ele>29.44</ele>
        <time>2024-07-14T23:07:04.936Z</time>
      </trkpt>
      <trkpt lat="47.19847" lon="-0.09246">
        <ele>29.53</ele>
        <time>2024-07-14T23:07:12.275Z</time>
      </trkpt>
      <trkpt lat="47.19801" lon="-0.09252">
        <ele>30.05</ele>
        <time>2024-07-14T23:07:19.622Z</time>
      </trkpt>
      <trkpt lat="47.19771" lon="-0.09257">
        <ele>29.64</ele>
        <time>2024-07-14T23:07:26.974Z</time>
      </trkpt>
      <trkpt lat="47.19706" lon="-0.09265">
        <ele>29</ele>
        <time>2024-07-14T23:07:34.336Z</time>
      </trkpt>
      <trkpt lat="47.19599" lon="-0.0929">
        <ele>28</ele>
        <time>2024-07-14T23:07:41.715Z</time>
      </trkpt>
      <trkpt lat="47.19518" lon="-0.09288">
        <ele>27</ele>
        <time>2024-07-14T23:07:49.107Z</time>
      </trkpt>
      <trkpt lat="47.19445" lon="-0.09304">
        <ele>26.33</ele>
        <time>2024-07-14T23:07:56.511Z</time>
      </trkpt>
      <trkpt lat="47.192" lon="-0.09381">
        <ele>26</ele>
        <time>2024-07-14T23:08:03.955Z</time>
      </trkpt>
      <trkpt lat="47.19173" lon="-0.09399">
        <ele>26.89</ele>
        <time>2024-07-14T23:08:11.404Z</time>
      </trkpt>
      <trkpt lat="47.19135" lon="-0.09441">
        <ele>28</ele>
        <time>2024-07-14T23:08:18.861Z</time>
      </trkpt>
      <trkpt lat="47.19116" lon="-0.09467">
        <ele>27.27</ele>
        <time>2024-07-14T23:08:26.322Z</time>
      </trkpt>
      <trkpt lat="47.19104" lon="-0.09509">
        <ele>26.78</ele>
        <time>2024-07-14T23:08:33.788Z</time>
      </trkpt>
      <trkpt lat="47.19104" lon="-0.09536">
        <ele>27.71</ele>
        <time>2024-07-14T23:08:41.257Z</time>
      </trkpt>
      <trkpt lat="47.19092" lon="-0.09559">
        <ele>28.51</ele>
        <time>2024-07-14T23:08:48.729Z</time>
      </trkpt>
      <trkpt lat="47.19053" lon="-0.09582">
        <ele>29</ele>
        <time>2024-07-14T23:08:56.208Z</time>
      </trkpt>
      <trkpt lat="47.19019" lon="-0.09607">
        <ele>28.24</ele>
        <time>2024-07-14T23:09:03.693Z</time>
      </trkpt>
      <trkpt lat="47.19004" lon="-0.09629">
        <ele>27.94</ele>
        <time>2024-07-14T23:09:11.181Z</time>
      </trkpt>
      <trkpt lat="47.19004" lon="-0.09658">
        <ele>29.01</ele>
        <time>2024-07-14T23:09:18.672Z</time>
      </trkpt>
      <trkpt lat="47.18998" lon="-0.09673">
        <ele>29.11</ele>
        <time>2024-07-14T23:09:26.165Z</time>
      </trkpt>
      <trkpt lat="47.18989" lon="-0.09683">
        <ele>28.91</ele>
        <time>2024-07-14T23:09:33.660Z</time>
      </trkpt>
      <trkpt lat="47.18953" lon="-0.09708">
        <ele>28.52</ele>
        <time>2024-07-14T23:09:41.161Z</time>
      </trkpt>
      <trkpt lat="47.18945" lon="-0.09712">
        <ele>28.35</ele>
        <time>2024-07-14T23:09:48.664Z</time>
      </trkpt>
      <trkpt lat="47.18933" lon="-0.09717">
        <ele>27.98</ele>
        <time>2024-07-14T23:09:56.169Z</time>
      </trkpt>
      <trkpt lat="47.18929" lon="-0.09717">
        <ele>27.76</ele>
        <time>2024-07-14T23:10:03.674Z</time>
      </trkpt>
      <trkpt lat="47.18923" lon="-0.09736">
        <ele>28</ele>
        <time>2024-07-14T23:10:11.182Z</time>
      </trkpt>
      <trkpt lat="47.18913" lon="-0.09757">
        <ele>28.67</ele>
        <time>2024-07-14T23:10:18.692Z</time>
      </trkpt>
      <trkpt lat="47.18911" lon="-0.09762">
        <ele>28.88</ele>
        <time>2024-07-14T23:10:26.203Z</time>
      </trkpt>
      <trkpt lat="47.18904" lon="-0.0978">
        <ele>29.93</ele>
        <time>2024-07-14T23:10:33.716Z</time>
      </trkpt>
      <trkpt lat="47.18898" lon="-0.09795">
        <ele>30.99</ele>
        <time>2024-07-14T23:10:41.231Z</time>
      </trkpt>
      <trkpt lat="47.18894" lon="-0.09814">
        <ele>31.7</ele>
        <time>2024-07-14T23:10:48.748Z</time>
      </trkpt>
      <trkpt lat="47.18891" lon="-0.09833">
        <ele>32.15</ele>
        <time>2024-07-14T23:10:56.267Z</time>
      </trkpt>
      <trkpt lat="47.18888" lon="-0.09832">
        <ele>31.9</ele>
        <time>2024-07-14T23:11:03.787Z</time>
      </trkpt>
      <trkpt lat="47.18877" lon="-0.09837">
        <ele>31.4</ele>
        <time>2024-07-14T23:11:11.309Z</time>
      </trkpt>
      <trkpt lat="47.1886" lon="-0.09852">
        <ele>31.26</ele>
        <time>2024-07-14T23:11:18.834Z</time>
      </trkpt>
      <trkpt lat="47.18845" lon="-0.09878">
        <ele>30.73</ele>
        <time>2024-07-14T23:11:26.363Z</time>
      </trkpt>
      <trkpt lat="47.18835" lon="-0.09908">
        <ele>31.44</ele>
        <time>2024-07-14T23:11:33.895Z</time>
      </trkpt>
      <trkpt lat="47.18828" lon="-0.09937">
        <ele>32.38</ele>
        <time>2024-07-14T23:11:41.431Z</time>
      </trkpt>
      <trkpt lat="47.18811" lon="-0.10004">
        <ele>34.01</ele>
        <time>2024-07-14T23:11:48.975Z</time>
      </trkpt>
      <trkpt lat="47.18801" lon="-0.10043">
        <ele>33.49</ele>
        <time>2024-07-14T23:11:56.523Z</time>
      </trkpt>
      <trkpt lat="47.18795" lon="-0.10045">
        <ele>32.75</ele>
        <time>2024-07-14T23:12:04.072Z</time>
      </trkpt>
      <trkpt lat="47.18785" lon="-0.10049">
        <ele>31.72</ele>
        <time>2024-07-14T23:12:11.623Z</time>
      </trkpt>
      <trkpt lat="47.18778" lon="-0.10063">
        <ele>30.94</ele>
        <time>2024-07-14T23:12:19.176Z</time>
      </trkpt>
      <trkpt lat="47.18762" lon="-0.10127">
        <ele>32.69</ele>
        <time>2024-07-14T23:12:26.736Z</time>
      </trkpt>
      <trkpt lat="47.1876" lon="-0.10167">
        <ele>33.66</ele>
        <time>2024-07-14T23:12:34.300Z</time>
      </trkpt>
      <trkpt lat="47.18777" lon="-0.10211">
        <ele>33.01</ele>
        <time>2024-07-14T23:12:41.870Z</time>
      </trkpt>
      <trkpt lat="47.18795" lon="-0.10263">
        <ele>32.07</ele>
        <time>2024-07-14T23:12:49.446Z</time>
      </trkpt>
      <trkpt lat="47.18815" lon="-0.10327">
        <ele>33.26</ele>
        <time>2024-07-14T23:12:57.030Z</time>
      </trkpt>
      <trkpt lat="47.18823" lon="-0.10401">
        <ele>32.06</ele>
        <time>2024-07-14T23:13:04.622Z</time>
      </trkpt>
      <trkpt lat="47.18826" lon="-0.10457">
        <ele>32.06</ele>
        <time>2024-07-14T23:13:12.220Z</time>
      </trkpt>
      <trkpt lat="47.18833" lon="-0.10597">
        <ele>30.69</ele>
        <time>2024-07-14T23:13:19.834Z</time>
      </trkpt>
      <trkpt lat="47.18833" lon="-0.10606">
        <ele>30.61</ele>
        <time>2024-07-14T23:13:27.449Z</time>
      </trkpt>
      <trkpt lat="47.1879" lon="-0.1061">
        <ele>29.64</ele>
        <time>2024-07-14T23:13:35.071Z</time>
      </trkpt>
      <trkpt lat="47.18764" lon="-0.10618">
        <ele>29.35</ele>
        <time>2024-07-14T23:13:42.697Z</time>
      </trkpt>
      <trkpt lat="47.18734" lon="-0.10633">
        <ele>29.5</ele>
        <time>2024-07-14T23:13:50.328Z</time>
      </trkpt>
      <trkpt lat="47.187" lon="-0.10659">
        <ele>31.48</ele>
        <time>2024-07-14T23:13:57.965Z</time>
      </trkpt>
      <trkpt lat="47.18646" lon="-0.10704">
        <ele>34.16</ele>
        <time>2024-07-14T23:14:05.612Z</time>
      </trkpt>
      <trkpt lat="47.186" lon="-0.10764">
        <ele>35.28</ele>
        <time>2024-07-14T23:14:13.269Z</time>
      </trkpt>
      <trkpt lat="47.18582" lon="-0.10783">
        <ele>36.42</ele>
        <time>2024-07-14T23:14:20.929Z</time>
      </trkpt>
      <trkpt lat="47.18561" lon="-0.10799">
        <ele>37.49</ele>
        <time>2024-07-14T23:14:28.593Z</time>
      </trkpt>
      <trkpt lat="47.18513" lon="-0.10827">
        <ele>38</ele>
        <time>2024-07-14T23:14:36.265Z</time>
      </trkpt>
      <trkpt lat="47.18478" lon="-0.1086">
        <ele>38</ele>
        <time>2024-07-14T23:14:43.944Z</time>
      </trkpt>
      <trkpt lat="47.18467" lon="-0.10875">
        <ele>38</ele>
        <time>2024-07-14T23:14:51.626Z</time>
      </trkpt>
      <trkpt lat="47.18455" lon="-0.10892">
        <ele>38</ele>
        <time>2024-07-14T23:14:59.310Z</time>
      </trkpt>
      <trkpt lat="47.18425" lon="-0.10944">
        <ele>39.37</ele>
        <time>2024-07-14T23:15:07.002Z</time>
      </trkpt>
      <trkpt lat="47.18403" lon="-0.10987">
        <ele>40.33</ele>
        <time>2024-07-14T23:15:14.699Z</time>
      </trkpt>
      <trkpt lat="47.18384" lon="-0.11061">
        <ele>41</ele>
        <time>2024-07-14T23:15:22.405Z</time>
      </trkpt>
      <trkpt lat="47.1835" lon="-0.11217">
        <ele>49.25</ele>
        <time>2024-07-14T23:15:30.129Z</time>
      </trkpt>
      <trkpt lat="47.18346" lon="-0.11237">
        <ele>50.15</ele>
        <time>2024-07-14T23:15:37.855Z</time>
      </trkpt>
      <trkpt lat="47.18345" lon="-0.1126">
        <ele>49.52</ele>
        <time>2024-07-14T23:15:45.584Z</time>
      </trkpt>
      <trkpt lat="47.18346" lon="-0.11291">
        <ele>49.24</ele>
        <time>2024-07-14T23:15:53.316Z</time>
      </trkpt>
      <trkpt lat="47.18346" lon="-0.11334">
        <ele>48.48</ele>
        <time>2024-07-14T23:16:01.053Z</time>
      </trkpt>
      <trkpt lat="47.18344" lon="-0.11361">
        <ele>48.98</ele>
        <time>2024-07-14T23:16:08.793Z</time>
      </trkpt>
      <trkpt lat="47.18338" lon="-0.11396">
        <ele>50</ele>
        <time>2024-07-14T23:16:16.537Z</time>
      </trkpt>
      <trkpt lat="47.1833" lon="-0.11428">
        <ele>50.63</ele>
        <time>2024-07-14T23:16:24.284Z</time>
      </trkpt>
      <trkpt lat="47.18312" lon="-0.11468">
        <ele>51.67</ele>
        <time>2024-07-14T23:16:32.037Z</time>
      </trkpt>
      <trkpt lat="47.18287" lon="-0.11513">
        <ele>52.15</ele>
        <time>2024-07-14T23:16:39.796Z</time>
      </trkpt>
      <trkpt lat="47.18256" lon="-0.11559">
        <ele>50.03</ele>
        <time>2024-07-14T23:16:47.562Z</time>
      </trkpt>
      <trkpt lat="47.18152" lon="-0.1171">
        <ele>46.83</ele>
        <time>2024-07-14T23:16:55.352Z</time>
      </trkpt>
      <trkpt lat="47.18097" lon="-0.11809">
        <ele>40.48</ele>
        <time>2024-07-14T23:17:03.155Z</time>
      </trkpt>
      <trkpt lat="47.18087" lon="-0.11828">
        <ele>39.81</ele>
        <time>2024-07-14T23:17:10.961Z</time>
      </trkpt>
      <trkpt lat="47.18085" lon="-0.11837">
        <ele>39.49</ele>
        <time>2024-07-14T23:17:18.768Z</time>
      </trkpt>
      <trkpt lat="47.18084" lon="-0.11845">
        <ele>39.35</ele>
        <time>2024-07-14T23:17:26.576Z</time>
      </trkpt>
      <trkpt lat="47.18021" lon="-0.11895">
        <ele>38</ele>
        <time>2024-07-14T23:17:34.395Z</time>
      </trkpt>
      <trkpt lat="47.17988" lon="-0.11917">
        <ele>37</ele>
        <time>2024-07-14T23:17:42.220Z</time>
      </trkpt>
      <trkpt lat="47.17953" lon="-0.11941">
        <ele>36.75</ele>
        <time>2024-07-14T23:17:50.052Z</time>
      </trkpt>
      <trkpt lat="47.17922" lon="-0.11965">
        <ele>36.34</ele>
        <time>2024-07-14T23:17:57.889Z</time>
      </trkpt>
      <trkpt lat="47.17906" lon="-0.11982">
        <ele>36.34</ele>
        <time>2024-07-14T23:18:05.729Z</time>
      </trkpt>
      <trkpt lat="47.17892" lon="-0.12002">
        <ele>36.57</ele>
        <time>2024-07-14T23:18:13.572Z</time>
      </trkpt>
      <trkpt lat="47.17879" lon="-0.12029">
        <ele>37.04</ele>
        <time>2024-07-14T23:18:21.419Z</time>
      </trkpt>
      <trkpt lat="47.17846" lon="-0.121">
        <ele>38.51</ele>
        <time>2024-07-14T23:18:29.275Z</time>
      </trkpt>
      <trkpt lat="47.17818" lon="-0.12149">
        <ele>40.68</ele>
        <time>2024-07-14T23:18:37.138Z</time>
      </trkpt>
      <trkpt lat="47.17801" lon="-0.1217">
        <ele>42.09</ele>
        <time>2024-07-14T23:18:45.005Z</time>
      </trkpt>
      <trkpt lat="47.17785" lon="-0.12185">
        <ele>42.41</ele>
        <time>2024-07-14T23:18:52.875Z</time>
      </trkpt>
      <trkpt lat="47.17746" lon="-0.12211">
        <ele>42.04</ele>
        <time>2024-07-14T23:19:00.752Z</time>
      </trkpt>
      <trkpt lat="47.177" lon="-0.12246">
        <ele>40.23</ele>
        <time>2024-07-14T23:19:08.637Z</time>
      </trkpt>
      <trkpt lat="47.17679" lon="-0.12258">
        <ele>40.41</ele>
        <time>2024-07-14T23:19:16.526Z</time>
      </trkpt>
      <trkpt lat="47.17655" lon="-0.12266">
        <ele>39.67</ele>
        <time>2024-07-14T23:19:24.419Z</time>
      </trkpt>
      <trkpt lat="47.17623" lon="-0.12286">
        <ele>39.32</ele>
        <time>2024-07-14T23:19:32.317Z</time>
      </trkpt>
      <trkpt lat="47.17572" lon="-0.12314">
        <ele>41.09</ele>
        <time>2024-07-14T23:19:40.224Z</time>
      </trkpt>
      <trkpt lat="47.17519" lon="-0.1234">
        <ele>42.26</ele>
        <time>2024-07-14T23:19:48.140Z</time>
      </trkpt>
      <trkpt lat="47.17472" lon="-0.12369">
        <ele>43.64</ele>
        <time>2024-07-14T23:19:56.064Z</time>
      </trkpt>
      <trkpt lat="47.17444" lon="-0.12377">
        <ele>43.93</ele>
        <time>2024-07-14T23:20:03.992Z</time>
      </trkpt>
      <trkpt lat="47.17423" lon="-0.1238">
        <ele>44.45</ele>
        <time>2024-07-14T23:20:11.924Z</time>
      </trkpt>
      <trkpt lat="47.17407" lon="-0.12379">
        <ele>45</ele>
        <time>2024-07-14T23:20:19.859Z</time>
      </trkpt>
      <trkpt lat="47.17364" lon="-0.12373">
        <ele>44.61</ele>
        <time>2024-07-14T23:20:27.800Z</time>
      </trkpt>
      <trkpt lat="47.17324" lon="-0.12367">
        <ele>45.59</ele>
        <time>2024-07-14T23:20:35.748Z</time>
      </trkpt>
      <trkpt lat="47.17311" lon="-0.12367">
        <ele>45.58</ele>
        <time>2024-07-14T23:20:43.698Z</time>
      </trkpt>
      <trkpt lat="47.17275" lon="-0.12372">
        <ele>45.76</ele>
        <time>2024-07-14T23:20:51.654Z</time>
      </trkpt>
      <trkpt lat="47.17243" lon="-0.12375">
        <ele>46.86</ele>
        <time>2024-07-14T23:20:59.615Z</time>
      </trkpt>
      <trkpt lat="47.17233" lon="-0.12379">
        <ele>47.3</ele>
        <time>2024-07-14T23:21:07.578Z</time>
      </trkpt>
      <trkpt lat="47.17216" lon="-0.1239">
        <ele>47.9</ele>
        <time>2024-07-14T23:21:15.544Z</time>
      </trkpt>
      <trkpt lat="47.17197" lon="-0.12399">
        <ele>47.4</ele>
        <time>2024-07-14T23:21:23.513Z</time>
      </trkpt>
      <trkpt lat="47.17177" lon="-0.12414">
        <ele>47</ele>
        <time>2024-07-14T23:21:31.485Z</time>
      </trkpt>
      <trkpt lat="47.17155" lon="-0.12435">
        <ele>46.91</ele>
        <time>2024-07-14T23:21:39.461Z</time>
      </trkpt>
      <trkpt lat="47.17139" lon="-0.12451">
        <ele>46.34</ele>
        <time>2024-07-14T23:21:47.441Z</time>
      </trkpt>
      <trkpt lat="47.17111" lon="-0.12488">
        <ele>44.69</ele>
        <time>2024-07-14T23:21:55.427Z</time>
      </trkpt>
      <trkpt lat="47.17087" lon="-0.12528">
        <ele>42.87</ele>
        <time>2024-07-14T23:22:03.418Z</time>
      </trkpt>
      <trkpt lat="47.1708" lon="-0.12538">
        <ele>42.41</ele>
        <time>2024-07-14T23:22:11.411Z</time>
      </trkpt>
      <trkpt lat="47.17056" lon="-0.12576">
        <ele>41.44</ele>
        <time>2024-07-14T23:22:19.410Z</time>
      </trkpt>
      <trkpt lat="47.17034" lon="-0.12596">
        <ele>41.83</ele>
        <time>2024-07-14T23:22:27.413Z</time>
      </trkpt>
      <trkpt lat="47.1682" lon="-0.12748">
        <ele>46.71</ele>
        <time>2024-07-14T23:22:35.454Z</time>
      </trkpt>
      <trkpt lat="47.16726" lon="-0.12813">
        <ele>44.89</ele>
        <time>2024-07-14T23:22:43.511Z</time>
      </trkpt>
      <trkpt lat="47.16662" lon="-0.12861">
        <ele>45.82</ele>
        <time>2024-07-14T23:22:51.580Z</time>
      </trkpt>
      <trkpt lat="47.16594" lon="-0.12925">
        <ele>47.94</ele>
        <time>2024-07-14T23:22:59.662Z</time>
      </trkpt>
      <trkpt lat="47.16589" lon="-0.1293">
        <ele>48.32</ele>
        <time>2024-07-14T23:23:07.745Z</time>
      </trkpt>
      <trkpt lat="47.16565" lon="-0.12948">
        <ele>48.84</ele>
        <time>2024-07-14T23:23:15.832Z</time>
      </trkpt>
      <trkpt lat="47.16547" lon="-0.12956">
        <ele>47.85</ele>
        <time>2024-07-14T23:23:23.922Z</time>
      </trkpt>
      <trkpt lat="47.16527" lon="-0.12963">
        <ele>46.65</ele>
        <time>2024-07-14T23:23:32.015Z</time>
      </trkpt>
      <trkpt lat="47.16518" lon="-0.12965">
        <ele>46.06</ele>
        <time>2024-07-14T23:23:40.110Z</time>
      </trkpt>
      <trkpt lat="47.16487" lon="-0.12974">
        <ele>44.71</ele>
        <time>2024-07-14T23:23:48.210Z</time>
      </trkpt>
      <trkpt lat="47.16431" lon="-0.1301">
        <ele>38.51</ele>
        <time>2024-07-14T23:23:56.320Z</time>
      </trkpt>
      <trkpt lat="47.16397" lon="-0.13028">
        <ele>34.93</ele>
        <time>2024-07-14T23:24:04.436Z</time>
      </trkpt>
      <trkpt lat="47.16311" lon="-0.13078">
        <ele>34.09</ele>
        <time>2024-07-14T23:24:12.566Z</time>
      </trkpt>
      <trkpt lat="47.16165" lon="-0.13164">
        <ele>41</ele>
        <time>2024-07-14T23:24:20.722Z</time>
      </trkpt>
      <trkpt lat="47.16026" lon="-0.13245">
        <ele>41.48</ele>
        <time>2024-07-14T23:24:28.902Z</time>
      </trkpt>
      <trkpt lat="47.15853" lon="-0.13347">
        <ele>43</ele>
        <time>2024-07-14T23:24:37.111Z</time>
      </trkpt>
      <trkpt lat="47.1583" lon="-0.13363">
        <ele>43.78</ele>
        <time>2024-07-14T23:24:45.325Z</time>
      </trkpt>
      <trkpt lat="47.15811" lon="-0.13382">
        <ele>44</ele>
        <time>2024-07-14T23:24:53.542Z</time>
      </trkpt>
      <trkpt lat="47.15714" lon="-0.1349">
        <ele>43.02</ele>
        <time>2024-07-14T23:25:01.779Z</time>
      </trkpt>
      <trkpt lat="47.15632" lon="-0.13574">
        <ele>45.01</ele>
        <time>2024-07-14T23:25:10.032Z</time>
      </trkpt>
      <trkpt lat="47.15587" lon="-0.13624">
        <ele>47.36</ele>
        <time>2024-07-14T23:25:18.294Z</time>
      </trkpt>
      <trkpt lat="47.15415" lon="-0.13853">
        <ele>48.63</ele>
        <time>2024-07-14T23:25:26.593Z</time>
      </trkpt>
      <trkpt lat="47.15326" lon="-0.13975">
        <ele>45</ele>
        <time>2024-07-14T23:25:34.911Z</time>
      </trkpt>
      <trkpt lat="47.15296" lon="-0.14029">
        <ele>46.38</ele>
        <time>2024-07-14T23:25:43.237Z</time>
      </trkpt>
      <trkpt lat="47.15273" lon="-0.14075">
        <ele>46</ele>
        <time>2024-07-14T23:25:51.569Z</time>
      </trkpt>
      <trkpt lat="47.15251" lon="-0.14108">
        <ele>45.38</ele>
        <time>2024-07-14T23:25:59.906Z</time>
      </trkpt>
      <trkpt lat="47.15206" lon="-0.14166">
        <ele>43.74</ele>
        <time>2024-07-14T23:26:08.253Z</time>
      </trkpt>
      <trkpt lat="47.15193" lon="-0.14182">
        <ele>43.28</ele>
        <time>2024-07-14T23:26:16.603Z</time>
      </trkpt>
      <trkpt lat="47.15191" lon="-0.14184">
        <ele>43.23</ele>
        <time>2024-07-14T23:26:24.953Z</time>
      </trkpt>
      <trkpt lat="47.15167" lon="-0.14209">
        <ele>43.25</ele>
        <time>2024-07-14T23:26:33.308Z</time>
      </trkpt>
      <trkpt lat="47.15123" lon="-0.14243">
        <ele>44.87</ele>
        <time>2024-07-14T23:26:41.671Z</time>
      </trkpt>
      <trkpt lat="47.15069" lon="-0.14285">
        <ele>42.82</ele>
        <time>2024-07-14T23:26:50.044Z</time>
      </trkpt>
      <trkpt lat="47.15054" lon="-0.14304">
        <ele>42.58</ele>
        <time>2024-07-14T23:26:58.420Z</time>
      </trkpt>
      <trkpt lat="47.15048" lon="-0.14315">
        <ele>42.76</ele>
        <time>2024-07-14T23:27:06.797Z</time>
      </trkpt>
      <trkpt lat="47.15019" lon="-0.14385">
        <ele>44</ele>
        <time>2024-07-14T23:27:15.183Z</time>
      </trkpt>
      <trkpt lat="47.15007" lon="-0.14404">
        <ele>43.6</ele>
        <time>2024-07-14T23:27:23.572Z</time>
      </trkpt>
      <trkpt lat="47.14996" lon="-0.14418">
        <ele>43.19</ele>
        <time>2024-07-14T23:27:31.963Z</time>
      </trkpt>
      <trkpt lat="47.14983" lon="-0.14429">
        <ele>43.26</ele>
        <time>2024-07-14T23:27:40.357Z</time>
      </trkpt>
      <trkpt lat="47.14971" lon="-0.14435">
        <ele>43.68</ele>
        <time>2024-07-14T23:27:48.753Z</time>
      </trkpt>
      <trkpt lat="47.14907" lon="-0.14454">
        <ele>45.96</ele>
        <time>2024-07-14T23:27:57.159Z</time>
      </trkpt>
      <trkpt lat="47.14849" lon="-0.14469">
        <ele>48.08</ele>
        <time>2024-07-14T23:28:05.575Z</time>
      </trkpt>
      <trkpt lat="47.14781" lon="-0.1448">
        <ele>48.64</ele>
        <time>2024-07-14T23:28:14.002Z</time>
      </trkpt>
      <trkpt lat="47.14749" lon="-0.14485">
        <ele>49.48</ele>
        <time>2024-07-14T23:28:22.434Z</time>
      </trkpt>
      <trkpt lat="47.14725" lon="-0.14489">
        <ele>49.96</ele>
        <time>2024-07-14T23:28:30.870Z</time>
      </trkpt>
      <trkpt lat="47.14706" lon="-0.14498">
        <ele>50.03</ele>
        <time>2024-07-14T23:28:39.309Z</time>
      </trkpt>
      <trkpt lat="47.14661" lon="-0.14525">
        <ele>49.16</ele>
        <time>2024-07-14T23:28:47.756Z</time>
      </trkpt>
      <trkpt lat="47.14628" lon="-0.14537">
        <ele>47.94</ele>
        <time>2024-07-14T23:28:56.208Z</time>
      </trkpt>
      <trkpt lat="47.14592" lon="-0.14545">
        <ele>46.67</ele>
        <time>2024-07-14T23:29:04.666Z</time>
      </trkpt>
      <trkpt lat="47.1454" lon="-0.1455">
        <ele>45.85</ele>
        <time>2024-07-14T23:29:13.132Z</time>
      </trkpt>
      <trkpt lat="47.1453" lon="-0.14556">
        <ele>45.64</ele>
        <time>2024-07-14T23:29:21.600Z</time>
      </trkpt>
      <trkpt lat="47.14505" lon="-0.1458">
        <ele>44.78</ele>
        <time>2024-07-14T23:29:30.073Z</time>
      </trkpt>
      <trkpt lat="47.14497" lon="-0.14589">
        <ele>44.45</ele>
        <time>2024-07-14T23:29:38.547Z</time>
      </trkpt>
      <trkpt lat="47.14459" lon="-0.14646">
        <ele>44.6</ele>
        <time>2024-07-14T23:29:47.030Z</time>
      </trkpt>
      <trkpt lat="47.14426" lon="-0.14695">
        <ele>47.1</ele>
        <time>2024-07-14T23:29:55.521Z</time>
      </trkpt>
      <trkpt lat="47.14407" lon="-0.14727">
        <ele>47.53</ele>
        <time>2024-07-14T23:30:04.016Z</time>
      </trkpt>
      <trkpt lat="47.14404" lon="-0.14731">
        <ele>47.59</ele>
        <time>2024-07-14T23:30:12.512Z</time>
      </trkpt>
      <trkpt lat="47.14391" lon="-0.14715">
        <ele>46.51</ele>
        <time>2024-07-14T23:30:21.011Z</time>
      </trkpt>
      <trkpt lat="47.1438" lon="-0.14699">
        <ele>45.53</ele>
        <time>2024-07-14T23:30:29.512Z</time>
      </trkpt>
      <trkpt lat="47.14365" lon="-0.14678">
        <ele>44.51</ele>
        <time>2024-07-14T23:30:38.017Z</time>
      </trkpt>
      <trkpt lat="47.14338" lon="-0.14642">
        <ele>40.92</ele>
        <time>2024-07-14T23:30:46.527Z</time>
      </trkpt>
      <trkpt lat="47.14326" lon="-0.14631">
        <ele>39.3</ele>
        <time>2024-07-14T23:30:55.040Z</time>
      </trkpt>
      <trkpt lat="47.1432" lon="-0.14629">
        <ele>38.73</ele>
        <time>2024-07-14T23:31:03.554Z</time>
      </trkpt>
      <trkpt lat="47.14314" lon="-0.14632">
        <ele>38.58</ele>
        <time>2024-07-14T23:31:12.069Z</time>
      </trkpt>
      <trkpt lat="47.14307" lon="-0.1464">
        <ele>38.93</ele>
        <time>2024-07-14T23:31:20.585Z</time>
      </trkpt>
      <trkpt lat="47.143" lon="-0.14649">
        <ele>39.44</ele>
        <time>2024-07-14T23:31:29.102Z</time>
      </trkpt>
      <trkpt lat="47.14284" lon="-0.1467">
        <ele>40.12</ele>
        <time>2024-07-14T23:31:37.623Z</time>
      </trkpt>
      <trkpt lat="47.14278" lon="-0.14675">
        <ele>40.03</ele>
        <time>2024-07-14T23:31:46.145Z</time>
      </trkpt>
      <trkpt lat="47.14272" lon="-0.14679">
        <ele>39.82</ele>
        <time>2024-07-14T23:31:54.668Z</time>
      </trkpt>
      <trkpt lat="47.1427" lon="-0.1468">
        <ele>39.74</ele>
        <time>2024-07-14T23:32:03.191Z</time>
      </trkpt>
      <trkpt lat="47.14263" lon="-0.14685">
        <ele>39.42</ele>
        <time>2024-07-14T23:32:11.716Z</time>
      </trkpt>
      <trkpt lat="47.1425" lon="-0.14694">
        <ele>38.79</ele>
        <time>2024-07-14T23:32:20.243Z</time>
      </trkpt>
      <trkpt lat="47.14245" lon="-0.147">
        <ele>38.54</ele>
        <time>2024-07-14T23:32:28.771Z</time>
      </trkpt>
      <trkpt lat="47.14223" lon="-0.14731">
        <ele>38.43</ele>
        <time>2024-07-14T23:32:37.304Z</time>
      </trkpt>
      <trkpt lat="47.14173" lon="-0.14795">
        <ele>37.66</ele>
        <time>2024-07-14T23:32:45.848Z</time>
      </trkpt>
      <trkpt lat="47.14159" lon="-0.14812">
        <ele>36.82</ele>
        <time>2024-07-14T23:32:54.394Z</time>
      </trkpt>
      <trkpt lat="47.14152" lon="-0.14821">
        <ele>36.15</ele>
        <time>2024-07-14T23:33:02.942Z</time>
      </trkpt>
      <trkpt lat="47.14113" lon="-0.14868">
        <ele>35.06</ele>
        <time>2024-07-14T23:33:11.498Z</time>
      </trkpt>
      <trkpt lat="47.14089" lon="-0.14893">
        <ele>34.6</ele>
        <time>2024-07-14T23:33:20.059Z</time>
      </trkpt>
      <trkpt lat="47.14049" lon="-0.14967">
        <ele>35.57</ele>
        <time>2024-07-14T23:33:28.630Z</time>
      </trkpt>
      <trkpt lat="47.14015" lon="-0.15032">
        <ele>36.64</ele>
        <time>2024-07-14T23:33:37.210Z</time>
      </trkpt>
      <trkpt lat="47.13946" lon="-0.15165">
        <ele>35.55</ele>
        <time>2024-07-14T23:33:45.808Z</time>
      </trkpt>
      <trkpt lat="47.1394" lon="-0.15176">
        <ele>35.28</ele>
        <time>2024-07-14T23:33:54.408Z</time>
      </trkpt>
      <trkpt lat="47.13933" lon="-0.15187">
        <ele>35.04</ele>
        <time>2024-07-14T23:34:03.009Z</time>
      </trkpt>
      <trkpt lat="47.13899" lon="-0.15236">
        <ele>34.72</ele>
        <time>2024-07-14T23:34:11.618Z</time>
      </trkpt>
      <trkpt lat="47.13867" lon="-0.15282">
        <ele>33.72</ele>
        <time>2024-07-14T23:34:20.234Z</time>
      </trkpt>
      <trkpt lat="47.13847" lon="-0.15312">
        <ele>33.79</ele>
        <time>2024-07-14T23:34:28.855Z</time>
      </trkpt>
      <trkpt lat="47.13811" lon="-0.1537">
        <ele>33.77</ele>
        <time>2024-07-14T23:34:37.484Z</time>
      </trkpt>
      <trkpt lat="47.13804" lon="-0.15383">
        <ele>33.75</ele>
        <time>2024-07-14T23:34:46.115Z</time>
      </trkpt>
      <trkpt lat="47.13779" lon="-0.15437">
        <ele>34.89</ele>
        <time>2024-07-14T23:34:54.753Z</time>
      </trkpt>
      <trkpt lat="47.13752" lon="-0.15488">
        <ele>35.66</ele>
        <time>2024-07-14T23:35:03.398Z</time>
      </trkpt>
      <trkpt lat="47.13733" lon="-0.15521">
        <ele>35.94</ele>
        <time>2024-07-14T23:35:12.048Z</time>
      </trkpt>
      <trkpt lat="47.1373" lon="-0.15527">
        <ele>36.26</ele>
        <time>2024-07-14T23:35:20.699Z</time>
      </trkpt>
      <trkpt lat="47.13708" lon="-0.15567">
        <ele>38.18</ele>
        <time>2024-07-14T23:35:29.355Z</time>
      </trkpt>
      <trkpt lat="47.13706" lon="-0.15569">
        <ele>38.18</ele>
        <time>2024-07-14T23:35:38.012Z</time>
      </trkpt>
      <trkpt lat="47.13703" lon="-0.15569">
        <ele>38.03</ele>
        <time>2024-07-14T23:35:46.669Z</time>
      </trkpt>
      <trkpt lat="47.13701" lon="-0.15569">
        <ele>37.81</ele>
        <time>2024-07-14T23:35:55.327Z</time>
      </trkpt>
      <trkpt lat="47.13692" lon="-0.15566">
        <ele>36.96</ele>
        <time>2024-07-14T23:36:03.986Z</time>
      </trkpt>
      <trkpt lat="47.13669" lon="-0.15546">
        <ele>34.3</ele>
        <time>2024-07-14T23:36:12.649Z</time>
      </trkpt>
      <trkpt lat="47.13625" lon="-0.15505">
        <ele>30.87</ele>
        <time>2024-07-14T23:36:21.321Z</time>
      </trkpt>
      <trkpt lat="47.13616" lon="-0.15497">
        <ele>30.54</ele>
        <time>2024-07-14T23:36:29.994Z</time>
      </trkpt>
      <trkpt lat="47.13613" lon="-0.15499">
        <ele>30.42</ele>
        <time>2024-07-14T23:36:38.668Z</time>
      </trkpt>
      <trkpt lat="47.1361" lon="-0.15503">
        <ele>30.34</ele>
        <time>2024-07-14T23:36:47.343Z</time>
      </trkpt>
      <trkpt lat="47.13601" lon="-0.15493">
        <ele>30</ele>
        <time>2024-07-14T23:36:56.020Z</time>
      </trkpt>
      <trkpt lat="47.13523" lon="-0.15404">
        <ele>33.93</ele>
        <time>2024-07-14T23:37:04.712Z</time>
      </trkpt>
      <trkpt lat="47.13515" lon="-0.15395">
        <ele>34.52</ele>
        <time>2024-07-14T23:37:13.406Z</time>
      </trkpt>
      <trkpt lat="47.13512" lon="-0.15399">
        <ele>34.49</ele>
        <time>2024-07-14T23:37:22.101Z</time>
      </trkpt>
      <trkpt lat="47.1351" lon="-0.154">
        <ele>34.54</ele>
        <time>2024-07-14T23:37:30.796Z</time>
      </trkpt>
      <trkpt lat="47.13506" lon="-0.154">
        <ele>34.7</ele>
        <time>2024-07-14T23:37:39.492Z</time>
      </trkpt>
      <trkpt lat="47.13498" lon="-0.15393">
        <ele>35.21</ele>
        <time>2024-07-14T23:37:48.189Z</time>
      </trkpt>
      <trkpt lat="47.13477" lon="-0.15375">
        <ele>36.95</ele>
        <time>2024-07-14T23:37:56.890Z</time>
      </trkpt>
      <trkpt lat="47.13465" lon="-0.1537">
        <ele>37.78</ele>
        <time>2024-07-14T23:38:05.593Z</time>
      </trkpt>
      <trkpt lat="47.1346" lon="-0.15369">
        <ele>38.06</ele>
        <time>2024-07-14T23:38:14.297Z</time>
      </trkpt>
      <trkpt lat="47.13454" lon="-0.15368">
        <ele>38.28</ele>
        <time>2024-07-14T23:38:23.002Z</time>
      </trkpt>
      <trkpt lat="47.1345" lon="-0.15369">
        <ele>38.43</ele>
        <time>2024-07-14T23:38:31.707Z</time>
      </trkpt>
      <trkpt lat="47.13446" lon="-0.15371">
        <ele>38.57</ele>
        <time>2024-07-14T23:38:40.413Z</time>
      </trkpt>
      <trkpt lat="47.13431" lon="-0.15383">
        <ele>39.25</ele>
        <time>2024-07-14T23:38:49.122Z</time>
      </trkpt>
      <trkpt lat="47.13425" lon="-0.1539">
        <ele>39.66</ele>
        <time>2024-07-14T23:38:57.832Z</time>
      </trkpt>
      <trkpt lat="47.13419" lon="-0.15401">
        <ele>40.13</ele>
        <time>2024-07-14T23:39:06.544Z</time>
      </trkpt>
      <trkpt lat="47.13417" lon="-0.15405">
        <ele>40.26</ele>
        <time>2024-07-14T23:39:15.256Z</time>
      </trkpt>
      <trkpt lat="47.13412" lon="-0.15416">
        <ele>40.29</ele>
        <time>2024-07-14T23:39:23.969Z</time>
      </trkpt>
      <trkpt lat="47.1341" lon="-0.15424">
        <ele>40.19</ele>
        <time>2024-07-14T23:39:32.683Z</time>
      </trkpt>
      <trkpt lat="47.13408" lon="-0.15432">
        <ele>39.97</ele>
        <time>2024-07-14T23:39:41.398Z</time>
      </trkpt>
      <trkpt lat="47.13409" lon="-0.15453">
        <ele>39.06</ele>
        <time>2024-07-14T23:39:50.116Z</time>
      </trkpt>
      <trkpt lat="47.13409" lon="-0.1547">
        <ele>37.94</ele>
        <time>2024-07-14T23:39:58.835Z</time>
      </trkpt>
      <trkpt lat="47.13407" lon="-0.15483">
        <ele>36.78</ele>
        <time>2024-07-14T23:40:07.556Z</time>
      </trkpt>
      <trkpt lat="47.13404" lon="-0.15494">
        <ele>35.99</ele>
        <time>2024-07-14T23:40:16.278Z</time>
      </trkpt>
      <trkpt lat="47.134" lon="-0.15504">
        <ele>35.54</ele>
        <time>2024-07-14T23:40:25.001Z</time>
      </trkpt>
      <trkpt lat="47.13359" lon="-0.15594">
        <ele>34.72</ele>
        <time>2024-07-14T23:40:33.736Z</time>
      </trkpt>
      <trkpt lat="47.13358" lon="-0.15596">
        <ele>34.74</ele>
        <time>2024-07-14T23:40:42.472Z</time>
      </trkpt>
      <trkpt lat="47.13358" lon="-0.15596">
        <ele>34.74</ele>
        <time>2024-07-14T23:40:51.208Z</time>
      </trkpt>
      <trkpt lat="47.13355" lon="-0.15603">
        <ele>34.89</ele>
        <time>2024-07-14T23:40:59.944Z</time>
      </trkpt>
      <trkpt lat="47.13343" lon="-0.15592">
        <ele>36.24</ele>
        <time>2024-07-14T23:41:08.683Z</time>
      </trkpt>
      <trkpt lat="47.13339" lon="-0.15591">
        <ele>36.67</ele>
        <time>2024-07-14T23:41:17.422Z</time>
      </trkpt>
      <trkpt lat="47.13336" lon="-0.15593">
        <ele>36.91</ele>
        <time>2024-07-14T23:41:26.162Z</time>
      </trkpt>
      <trkpt lat="47.13334" lon="-0.15596">
        <ele>37.08</ele>
        <time>2024-07-14T23:41:34.902Z</time>
      </trkpt>
      <trkpt lat="47.13331" lon="-0.15601">
        <ele>37.13</ele>
        <time>2024-07-14T23:41:43.643Z</time>
      </trkpt>
      <trkpt lat="47.1332" lon="-0.15628">
        <ele>37.42</ele>
        <time>2024-07-14T23:41:52.387Z</time>
      </trkpt>
      <trkpt lat="47.13317" lon="-0.15636">
        <ele>37.18</ele>
        <time>2024-07-14T23:42:01.133Z</time>
      </trkpt>
      <trkpt lat="47.13308" lon="-0.15663">
        <ele>36.69</ele>
        <time>2024-07-14T23:42:09.882Z</time>
      </trkpt>
      <trkpt lat="47.13307" lon="-0.15667">
        <ele>36.45</ele>
        <time>2024-07-14T23:42:18.631Z</time>
      </trkpt>
      <trkpt lat="47.13305" lon="-0.15682">
        <ele>35.73</ele>
        <time>2024-07-14T23:42:27.382Z</time>
      </trkpt>
      <trkpt lat="47.13303" lon="-0.15697">
        <ele>35.3</ele>
        <time>2024-07-14T23:42:36.135Z</time>
      </trkpt>
      <trkpt lat="47.13299" lon="-0.15717">
        <ele>34.62</ele>
        <time>2024-07-14T23:42:44.890Z</time>
      </trkpt>
      <trkpt lat="47.13291" lon="-0.15741">
        <ele>34</ele>
        <time>2024-07-14T23:42:53.648Z</time>
      </trkpt>
      <trkpt lat="47.13284" lon="-0.1576">
        <ele>33.71</ele>
        <time>2024-07-14T23:43:02.408Z</time>
      </trkpt>
      <trkpt lat="47.13278" lon="-0.15774">
        <ele>33.61</ele>
        <time>2024-07-14T23:43:11.170Z</time>
      </trkpt>
      <trkpt lat="47.13273" lon="-0.15782">
        <ele>33.81</ele>
        <time>2024-07-14T23:43:19.933Z</time>
      </trkpt>
      <trkpt lat="47.13269" lon="-0.15788">
        <ele>33.94</ele>
        <time>2024-07-14T23:43:28.697Z</time>
      </trkpt>
      <trkpt lat="47.13253" lon="-0.15811">
        <ele>34.53</ele>
        <time>2024-07-14T23:43:37.465Z</time>
      </trkpt>
      <trkpt lat="47.13237" lon="-0.15833">
        <ele>35.1</ele>
        <time>2024-07-14T23:43:46.236Z</time>
      </trkpt>
      <trkpt lat="47.1323" lon="-0.15843">
        <ele>35.36</ele>
        <time>2024-07-14T23:43:55.009Z</time>
      </trkpt>
      <trkpt lat="47.13227" lon="-0.15847">
        <ele>35.45</ele>
        <time>2024-07-14T23:44:03.782Z</time>
      </trkpt>
      <trkpt lat="47.13207" lon="-0.15876">
        <ele>35.66</ele>
        <time>2024-07-14T23:44:12.560Z</time>
      </trkpt>
      <trkpt lat="47.13193" lon="-0.15898">
        <ele>36.42</ele>
        <time>2024-07-14T23:44:21.341Z</time>
      </trkpt>
      <trkpt lat="47.13188" lon="-0.15905">
        <ele>36.71</ele>
        <time>2024-07-14T23:44:30.123Z</time>
      </trkpt>
      <trkpt lat="47.13137" lon="-0.15982">
        <ele>35.45</ele>
        <time>2024-07-14T23:44:38.917Z</time>
      </trkpt>
      <trkpt lat="47.13125" lon="-0.15999">
        <ele>35.82</ele>
        <time>2024-07-14T23:44:47.714Z</time>
      </trkpt>
      <trkpt lat="47.13112" lon="-0.16017">
        <ele>35.66</ele>
        <time>2024-07-14T23:44:56.513Z</time>
      </trkpt>
      <trkpt lat="47.13098" lon="-0.16032">
        <ele>35.62</ele>
        <time>2024-07-14T23:45:05.315Z</time>
      </trkpt>
      <trkpt lat="47.13084" lon="-0.16043">
        <ele>35.73</ele>
        <time>2024-07-14T23:45:14.120Z</time>
      </trkpt>
      <trkpt lat="47.13068" lon="-0.16053">
        <ele>36</ele>
        <time>2024-07-14T23:45:22.928Z</time>
      </trkpt>
      <trkpt lat="47.13019" lon="-0.16077">
        <ele>37.69</ele>
        <time>2024-07-14T23:45:31.744Z</time>
      </trkpt>
      <trkpt lat="47.12975" lon="-0.161">
        <ele>35.09</ele>
        <time>2024-07-14T23:45:40.567Z</time>
      </trkpt>
      <trkpt lat="47.12966" lon="-0.16104">
        <ele>34.91</ele>
        <time>2024-07-14T23:45:49.392Z</time>
      </trkpt>
      <trkpt lat="47.12958" lon="-0.16106">
        <ele>34.7</ele>
        <time>2024-07-14T23:45:58.218Z</time>
      </trkpt>
      <trkpt lat="47.1295" lon="-0.16106">
        <ele>34.4</ele>
        <time>2024-07-14T23:46:07.045Z</time>
      </trkpt>
      <trkpt lat="47.12949" lon="-0.16112">
        <ele>34.15</ele>
        <time>2024-07-14T23:46:15.873Z</time>
      </trkpt>
      <trkpt lat="47.12924" lon="-0.16158">
        <ele>33.66</ele>
        <time>2024-07-14T23:46:24.708Z</time>
      </trkpt>
      <trkpt lat="47.12922" lon="-0.16164">
        <ele>33.78</ele>
        <time>2024-07-14T23:46:33.543Z</time>
      </trkpt>
      <trkpt lat="47.12921" lon="-0.16168">
        <ele>33.91</ele>
        <time>2024-07-14T23:46:42.379Z</time>
      </trkpt>
      <trkpt lat="47.12919" lon="-0.16183">
        <ele>34</ele>
        <time>2024-07-14T23:46:51.216Z</time>
      </trkpt>
      <trkpt lat="47.12917" lon="-0.16188">
        <ele>34</ele>
        <time>2024-07-14T23:47:00.054Z</time>
      </trkpt>
      <trkpt lat="47.12915" lon="-0.16191">
        <ele>34</ele>
        <time>2024-07-14T23:47:08.892Z</time>
      </trkpt>
      <trkpt lat="47.12904" lon="-0.16201">
        <ele>33.9</ele>
        <time>2024-07-14T23:47:17.733Z</time>
      </trkpt>
      <trkpt lat="47.12886" lon="-0.16218">
        <ele>33.07</ele>
        <time>2024-07-14T23:47:26.577Z</time>
      </trkpt>
      <trkpt lat="47.12875" lon="-0.16234">
        <ele>32.35</ele>
        <time>2024-07-14T23:47:35.423Z</time>
      </trkpt>
      <trkpt lat="47.12869" lon="-0.16255">
        <ele>32.72</ele>
        <time>2024-07-14T23:47:44.272Z</time>
      </trkpt>
      <trkpt lat="47.12864" lon="-0.16281">
        <ele>32.17</ele>
        <time>2024-07-14T23:47:53.124Z</time>
      </trkpt>
      <trkpt lat="47.12862" lon="-0.16292">
        <ele>31.76</ele>
        <time>2024-07-14T23:48:01.977Z</time>
      </trkpt>
      <trkpt lat="47.1286" lon="-0.16298">
        <ele>31.69</ele>
        <time>2024-07-14T23:48:10.831Z</time>
      </trkpt>
      <trkpt lat="47.12856" lon="-0.16301">
        <ele>31.81</ele>
        <time>2024-07-14T23:48:19.686Z</time>
      </trkpt>
      <trkpt lat="47.12827" lon="-0.16307">
        <ele>34.14</ele>
        <time>2024-07-14T23:48:28.545Z</time>
      </trkpt>
      <trkpt lat="47.12582" lon="-0.16352">
        <ele>29</ele>
        <time>2024-07-14T23:48:37.444Z</time>
      </trkpt>
      <trkpt lat="47.12434" lon="-0.16384">
        <ele>35.84</ele>
        <time>2024-07-14T23:48:46.367Z</time>
      </trkpt>
      <trkpt lat="47.12424" lon="-0.16371">
        <ele>35.65</ele>
        <time>2024-07-14T23:48:55.292Z</time>
      </trkpt>
      <trkpt lat="47.12408" lon="-0.16363">
        <ele>35.6</ele>
        <time>2024-07-14T23:49:04.219Z</time>
      </trkpt>
      <trkpt lat="47.12395" lon="-0.16353">
        <ele>34.75</ele>
        <time>2024-07-14T23:49:13.149Z</time>
      </trkpt>
      <trkpt lat="47.12378" lon="-0.16334">
        <ele>33.61</ele>
        <time>2024-07-14T23:49:22.082Z</time>
      </trkpt>
      <trkpt lat="47.12317" lon="-0.1626">
        <ele>33.08</ele>
        <time>2024-07-14T23:49:31.028Z</time>
      </trkpt>
      <trkpt lat="47.12278" lon="-0.16208">
        <ele>34</ele>
        <time>2024-07-14T23:49:39.982Z</time>
      </trkpt>
      <trkpt lat="47.12265" lon="-0.1619">
        <ele>34</ele>
        <time>2024-07-14T23:49:48.939Z</time>
      </trkpt>
      <trkpt lat="47.12259" lon="-0.16179">
        <ele>34</ele>
        <time>2024-07-14T23:49:57.898Z</time>
      </trkpt>
      <trkpt lat="47.12257" lon="-0.16165">
        <ele>34.09</ele>
        <time>2024-07-14T23:50:06.858Z</time>
      </trkpt>
      <trkpt lat="47.12243" lon="-0.16168">
        <ele>34.48</ele>
        <time>2024-07-14T23:50:15.820Z</time>
      </trkpt>
      <trkpt lat="47.122" lon="-0.16091">
        <ele>35.92</ele>
        <time>2024-07-14T23:50:24.793Z</time>
      </trkpt>
      <trkpt lat="47.12196" lon="-0.16084">
        <ele>35.89</ele>
        <time>2024-07-14T23:50:33.767Z</time>
      </trkpt>
      <trkpt lat="47.12194" lon="-0.16067">
        <ele>35.7</ele>
        <time>2024-07-14T23:50:42.743Z</time>
      </trkpt>
      <trkpt lat="47.12187" lon="-0.1604">
        <ele>35.17</ele>
        <time>2024-07-14T23:50:51.722Z</time>
      </trkpt>
      <trkpt lat="47.12181" lon="-0.16036">
        <ele>34.91</ele>
        <time>2024-07-14T23:51:00.702Z</time>
      </trkpt>
      <trkpt lat="47.12175" lon="-0.16039">
        <ele>34.67</ele>
        <time>2024-07-14T23:51:09.683Z</time>
      </trkpt>
      <trkpt lat="47.12168" lon="-0.16042">
        <ele>34.43</ele>
        <time>2024-07-14T23:51:18.666Z</time>
      </trkpt>
      <trkpt lat="47.12168" lon="-0.16045">
        <ele>34.44</ele>
        <time>2024-07-14T23:51:27.649Z</time>
      </trkpt>
      <trkpt lat="47.12163" lon="-0.1605">
        <ele>34.37</ele>
        <time>2024-07-14T23:51:36.633Z</time>
      </trkpt>
      <trkpt lat="47.12151" lon="-0.1606">
        <ele>34.28</ele>
        <time>2024-07-14T23:51:45.619Z</time>
      </trkpt>
      <trkpt lat="47.12141" lon="-0.16053">
        <ele>34</ele>
        <time>2024-07-14T23:51:54.607Z</time>
      </trkpt>
      <trkpt lat="47.12114" lon="-0.16039">
        <ele>34</ele>
        <time>2024-07-14T23:52:03.599Z</time>
      </trkpt>
      <trkpt lat="47.12089" lon="-0.16033">
        <ele>34.42</ele>
        <time>2024-07-14T23:52:12.596Z</time>
      </trkpt>
      <trkpt lat="47.12068" lon="-0.16039">
        <ele>35</ele>
        <time>2024-07-14T23:52:21.596Z</time>
      </trkpt>
      <trkpt lat="47.12028" lon="-0.1605">
        <ele>34.39</ele>
        <time>2024-07-14T23:52:30.602Z</time>
      </trkpt>
      <trkpt lat="47.11978" lon="-0.16068">
        <ele>33.2</ele>
        <time>2024-07-14T23:52:39.617Z</time>
      </trkpt>
      <trkpt lat="47.11982" lon="-0.16087">
        <ele>33.47</ele>
        <time>2024-07-14T23:52:48.634Z</time>
      </trkpt>
      <trkpt lat="47.12057" lon="-0.16301">
        <ele>34.42</ele>
        <time>2024-07-14T23:52:57.677Z</time>
      </trkpt>
      <trkpt lat="47.12102" lon="-0.16434">
        <ele>34</ele>
        <time>2024-07-14T23:53:06.736Z</time>
      </trkpt>
      <trkpt lat="47.12109" lon="-0.16473">
        <ele>33.42</ele>
        <time>2024-07-14T23:53:15.800Z</time>
      </trkpt>
      <trkpt lat="47.12077" lon="-0.16506">
        <ele>34.31</ele>
        <time>2024-07-14T23:53:24.870Z</time>
      </trkpt>
      <trkpt lat="47.12045" lon="-0.16539">
        <ele>34</ele>
        <time>2024-07-14T23:53:33.946Z</time>
      </trkpt>
      <trkpt lat="47.12036" lon="-0.16548">
        <ele>34.06</ele>
        <time>2024-07-14T23:53:43.024Z</time>
      </trkpt>
      <trkpt lat="47.11988" lon="-0.16593">
        <ele>34.67</ele>
        <time>2024-07-14T23:53:52.111Z</time>
      </trkpt>
      <trkpt lat="47.11909" lon="-0.16685">
        <ele>36.91</ele>
        <time>2024-07-14T23:54:01.214Z</time>
      </trkpt>
      <trkpt lat="47.11848" lon="-0.1658">
        <ele>34.2</ele>
        <time>2024-07-14T23:54:10.332Z</time>
      </trkpt>
      <trkpt lat="47.11813" lon="-0.16519">
        <ele>33.66</ele>
        <time>2024-07-14T23:54:19.459Z</time>
      </trkpt>
      <trkpt lat="47.11805" lon="-0.16505">
        <ele>33.24</ele>
        <time>2024-07-14T23:54:28.588Z</time>
      </trkpt>
      <trkpt lat="47.11798" lon="-0.16489">
        <ele>32.19</ele>
        <time>2024-07-14T23:54:37.719Z</time>
      </trkpt>
      <trkpt lat="47.11792" lon="-0.16477">
        <ele>31.89</ele>
        <time>2024-07-14T23:54:46.852Z</time>
      </trkpt>
      <trkpt lat="47.11787" lon="-0.16463">
        <ele>31.71</ele>
        <time>2024-07-14T23:54:55.987Z</time>
      </trkpt>
      <trkpt lat="47.11784" lon="-0.16451">
        <ele>31.6</ele>
        <time>2024-07-14T23:55:05.123Z</time>
      </trkpt>
      <trkpt lat="47.1178" lon="-0.16437">
        <ele>31.45</ele>
        <time>2024-07-14T23:55:14.261Z</time>
      </trkpt>
      <trkpt lat="47.11776" lon="-0.16425">
        <ele>31.63</ele>
        <time>2024-07-14T23:55:23.400Z</time>
      </trkpt>
      <trkpt lat="47.11759" lon="-0.16363">
        <ele>33.33</ele>
        <time>2024-07-14T23:55:32.546Z</time>
      </trkpt>
      <trkpt lat="47.11752" lon="-0.16366">
        <ele>32.93</ele>
        <time>2024-07-14T23:55:41.694Z</time>
      </trkpt>
      <trkpt lat="47.11743" lon="-0.16372">
        <ele>32.39</ele>
        <time>2024-07-14T23:55:50.843Z</time>
      </trkpt>
      <trkpt lat="47.11477" lon="-0.16572">
        <ele>35</ele>
        <time>2024-07-14T23:56:00.040Z</time>
      </trkpt>
      <trkpt lat="47.11342" lon="-0.16679">
        <ele>37.61</ele>
        <time>2024-07-14T23:56:09.262Z</time>
      </trkpt>
      <trkpt lat="47.11313" lon="-0.16708">
        <ele>38.66</ele>
        <time>2024-07-14T23:56:18.489Z</time>
      </trkpt>
      <trkpt lat="47.11264" lon="-0.16758">
        <ele>34.37</ele>
        <time>2024-07-14T23:56:27.726Z</time>
      </trkpt>
      <trkpt lat="47.11254" lon="-0.16778">
        <ele>34</ele>
        <time>2024-07-14T23:56:36.966Z</time>
      </trkpt>
      <trkpt lat="47.11247" lon="-0.16791">
        <ele>33.92</ele>
        <time>2024-07-14T23:56:46.207Z</time>
      </trkpt>
      <trkpt lat="47.11243" lon="-0.16804">
        <ele>33.58</ele>
        <time>2024-07-14T23:56:55.450Z</time>
      </trkpt>
      <trkpt lat="47.11239" lon="-0.16815">
        <ele>33.31</ele>
        <time>2024-07-14T23:57:04.694Z</time>
      </trkpt>
      <trkpt lat="47.11236" lon="-0.16821">
        <ele>33.11</ele>
        <time>2024-07-14T23:57:13.939Z</time>
      </trkpt>
      <trkpt lat="47.11233" lon="-0.16825">
        <ele>33</ele>
        <time>2024-07-14T23:57:23.185Z</time>
      </trkpt>
      <trkpt lat="47.11227" lon="-0.16832">
        <ele>33</ele>
        <time>2024-07-14T23:57:32.432Z</time>
      </trkpt>
      <trkpt lat="47.11212" lon="-0.16847">
        <ele>33</ele>
        <time>2024-07-14T23:57:41.682Z</time>
      </trkpt>
      <trkpt lat="47.11191" lon="-0.16867">
        <ele>33.53</ele>
        <time>2024-07-14T23:57:50.936Z</time>
      </trkpt>
      <trkpt lat="47.11171" lon="-0.16885">
        <ele>34.66</ele>
        <time>2024-07-14T23:58:00.194Z</time>
      </trkpt>
      <trkpt lat="47.11112" lon="-0.16932">
        <ele>36.42</ele>
        <time>2024-07-14T23:58:09.462Z</time>
      </trkpt>
      <trkpt lat="47.11083" lon="-0.16955">
        <ele>36.08</ele>
        <time>2024-07-14T23:58:18.736Z</time>
      </trkpt>
      <trkpt lat="47.11069" lon="-0.16966">
        <ele>36.09</ele>
        <time>2024-07-14T23:58:28.012Z</time>
      </trkpt>
      <trkpt lat="47.11055" lon="-0.16975">
        <ele>36.41</ele>
        <time>2024-07-14T23:58:37.291Z</time>
      </trkpt>
      <trkpt lat="47.11042" lon="-0.16983">
        <ele>36.7</ele>
        <time>2024-07-14T23:58:46.572Z</time>
      </trkpt>
      <trkpt lat="47.11003" lon="-0.17004">
        <ele>36.98</ele>
        <time>2024-07-14T23:58:55.859Z</time>
      </trkpt>
      <trkpt lat="47.10965" lon="-0.17025">
        <ele>36.12</ele>
        <time>2024-07-14T23:59:05.153Z</time>
      </trkpt>
      <trkpt lat="47.10947" lon="-0.17035">
        <ele>36</ele>
        <time>2024-07-14T23:59:14.450Z</time>
      </trkpt>
      <trkpt lat="47.10928" lon="-0.17044">
        <ele>35.71</ele>
        <time>2024-07-14T23:59:23.750Z</time>
      </trkpt>
      <trkpt lat="47.10908" lon="-0.17053">
        <ele>35.33</ele>
        <time>2024-07-14T23:59:33.054Z</time>
      </trkpt>
      <trkpt lat="47.10894" lon="-0.17061">
        <ele>35.08</ele>
        <time>2024-07-14T23:59:42.360Z</time>
      </trkpt>
      <trkpt lat="47.10888" lon="-0.17064">
        <ele>35</ele>
        <time>2024-07-14T23:59:51.667Z</time>
      </trkpt>
      <trkpt lat="47.10881" lon="-0.17069">
        <ele>35</ele>
        <time>2024-07-15T00:00:00.975Z</time>
      </trkpt>
      <trkpt lat="47.10875" lon="-0.17074">
        <ele>35</ele>
        <time>2024-07-15T00:00:10.284Z</time>
      </trkpt>
      <trkpt lat="47.10846" lon="-0.17101">
        <ele>35</ele>
        <time>2024-07-15T00:00:19.599Z</time>
      </trkpt>
      <trkpt lat="47.10823" lon="-0.17121">
        <ele>35</ele>
        <time>2024-07-15T00:00:28.918Z</time>
      </trkpt>
      <trkpt lat="47.10811" lon="-0.17132">
        <ele>35.4</ele>
        <time>2024-07-15T00:00:38.239Z</time>
      </trkpt>
      <trkpt lat="47.10803" lon="-0.17142">
        <ele>35.7</ele>
        <time>2024-07-15T00:00:47.562Z</time>
      </trkpt>
      <trkpt lat="47.10794" lon="-0.17153">
        <ele>36.02</ele>
        <time>2024-07-15T00:00:56.887Z</time>
      </trkpt>
      <trkpt lat="47.10772" lon="-0.17187">
        <ele>36</ele>
        <time>2024-07-15T00:01:06.217Z</time>
      </trkpt>
      <trkpt lat="47.10744" lon="-0.17229">
        <ele>35.16</ele>
        <time>2024-07-15T00:01:15.554Z</time>
      </trkpt>
      <trkpt lat="47.10701" lon="-0.17292">
        <ele>36</ele>
        <time>2024-07-15T00:01:24.900Z</time>
      </trkpt>
      <trkpt lat="47.10658" lon="-0.17358">
        <ele>37.14</ele>
        <time>2024-07-15T00:01:34.256Z</time>
      </trkpt>
      <trkpt lat="47.10634" lon="-0.17367">
        <ele>37</ele>
        <time>2024-07-15T00:01:43.616Z</time>
      </trkpt>
      <trkpt lat="47.10577" lon="-0.174">
        <ele>36.89</ele>
        <time>2024-07-15T00:01:52.986Z</time>
      </trkpt>
      <trkpt lat="47.10572" lon="-0.17406">
        <ele>36.92</ele>
        <time>2024-07-15T00:02:02.357Z</time>
      </trkpt>
      <trkpt lat="47.10583" lon="-0.17435">
        <ele>38</ele>
        <time>2024-07-15T00:02:11.732Z</time>
      </trkpt>
      <trkpt lat="47.106" lon="-0.17474">
        <ele>38.02</ele>
        <time>2024-07-15T00:02:21.112Z</time>
      </trkpt>
      <trkpt lat="47.10612" lon="-0.17496">
        <ele>38.44</ele>
        <time>2024-07-15T00:02:30.495Z</time>
      </trkpt>
      <trkpt lat="47.10634" lon="-0.1752">
        <ele>38.23</ele>
        <time>2024-07-15T00:02:39.882Z</time>
      </trkpt>
      <trkpt lat="47.10658" lon="-0.17551">
        <ele>39.15</ele>
        <time>2024-07-15T00:02:49.274Z</time>
      </trkpt>
      <trkpt lat="47.10689" lon="-0.17599">
        <ele>40</ele>
        <time>2024-07-15T00:02:58.674Z</time>
      </trkpt>
      <trkpt lat="47.10697" lon="-0.17613">
        <ele>40</ele>
        <time>2024-07-15T00:03:08.076Z</time>
      </trkpt>
      <trkpt lat="47.10733" lon="-0.17734">
        <ele>39</ele>
        <time>2024-07-15T00:03:17.492Z</time>
      </trkpt>
      <trkpt lat="47.10747" lon="-0.17767">
        <ele>38.75</ele>
        <time>2024-07-15T00:03:26.912Z</time>
      </trkpt>
      <trkpt lat="47.10765" lon="-0.1781">
        <ele>38.46</ele>
        <time>2024-07-15T00:03:36.338Z</time>
      </trkpt>
      <trkpt lat="47.10777" lon="-0.17836">
        <ele>39</ele>
        <time>2024-07-15T00:03:45.767Z</time>
      </trkpt>
      <trkpt lat="47.10795" lon="-0.17911">
        <ele>39</ele>
        <time>2024-07-15T00:03:55.205Z</time>
      </trkpt>
      <trkpt lat="47.10803" lon="-0.17936">
        <ele>39</ele>
        <time>2024-07-15T00:04:04.646Z</time>
      </trkpt>
      <trkpt lat="47.10815" lon="-0.17981">
        <ele>39.62</ele>
        <time>2024-07-15T00:04:14.092Z</time>
      </trkpt>
      <trkpt lat="47.10821" lon="-0.18005">
        <ele>40</ele>
        <time>2024-07-15T00:04:23.541Z</time>
      </trkpt>
      <trkpt lat="47.10823" lon="-0.18031">
        <ele>40</ele>
        <time>2024-07-15T00:04:32.993Z</time>
      </trkpt>
      <trkpt lat="47.10824" lon="-0.18051">
        <ele>39.79</ele>
        <time>2024-07-15T00:04:42.447Z</time>
      </trkpt>
      <trkpt lat="47.1081" lon="-0.18076">
        <ele>39</ele>
        <time>2024-07-15T00:04:51.905Z</time>
      </trkpt>
      <trkpt lat="47.10816" lon="-0.182">
        <ele>39</ele>
        <time>2024-07-15T00:05:01.376Z</time>
      </trkpt>
      <trkpt lat="47.10824" lon="-0.18258">
        <ele>37.32</ele>
        <time>2024-07-15T00:05:10.854Z</time>
      </trkpt>
      <trkpt lat="47.10794" lon="-0.18264">
        <ele>38.02</ele>
        <time>2024-07-15T00:05:20.337Z</time>
      </trkpt>
      <trkpt lat="47.10737" lon="-0.18271">
        <ele>39.05</ele>
        <time>2024-07-15T00:05:29.829Z</time>
      </trkpt>
      <trkpt lat="47.10709" lon="-0.18274">
        <ele>39.18</ele>
        <time>2024-07-15T00:05:39.325Z</time>
      </trkpt>
      <trkpt lat="47.10624" lon="-0.18293">
        <ele>41.02</ele>
        <time>2024-07-15T00:05:48.835Z</time>
      </trkpt>
      <trkpt lat="47.10552" lon="-0.18322">
        <ele>39.44</ele>
        <time>2024-07-15T00:05:58.357Z</time>
      </trkpt>
      <trkpt lat="47.10511" lon="-0.18344">
        <ele>39.68</ele>
        <time>2024-07-15T00:06:07.886Z</time>
      </trkpt>
      <trkpt lat="47.10474" lon="-0.18379">
        <ele>40</ele>
        <time>2024-07-15T00:06:17.422Z</time>
      </trkpt>
      <trkpt lat="47.10394" lon="-0.18464">
        <ele>38</ele>
        <time>2024-07-15T00:06:26.974Z</time>
      </trkpt>
      <trkpt lat="47.10343" lon="-0.18526">
        <ele>38.01</ele>
        <time>2024-07-15T00:06:36.536Z</time>
      </trkpt>
      <trkpt lat="47.10308" lon="-0.18559">
        <ele>37.14</ele>
        <time>2024-07-15T00:06:46.105Z</time>
      </trkpt>
      <trkpt lat="47.10276" lon="-0.18572">
        <ele>36.82</ele>
        <time>2024-07-15T00:06:55.679Z</time>
      </trkpt>
      <trkpt lat="47.10238" lon="-0.18577">
        <ele>36.97</ele>
        <time>2024-07-15T00:07:05.259Z</time>
      </trkpt>
      <trkpt lat="47.10167" lon="-0.18576">
        <ele>35.95</ele>
        <time>2024-07-15T00:07:14.851Z</time>
      </trkpt>
      <trkpt lat="47.10136" lon="-0.18587">
        <ele>36.7</ele>
        <time>2024-07-15T00:07:24.448Z</time>
      </trkpt>
      <trkpt lat="47.10112" lon="-0.18599">
        <ele>38.13</ele>
        <time>2024-07-15T00:07:34.049Z</time>
      </trkpt>
      <trkpt lat="47.10097" lon="-0.1861">
        <ele>39.09</ele>
        <time>2024-07-15T00:07:43.653Z</time>
      </trkpt>
      <trkpt lat="47.10086" lon="-0.18623">
        <ele>39.51</ele>
        <time>2024-07-15T00:07:53.259Z</time>
      </trkpt>
      <trkpt lat="47.10076" lon="-0.1864">
        <ele>39.85</ele>
        <time>2024-07-15T00:08:02.867Z</time>
      </trkpt>
      <trkpt lat="47.10074" lon="-0.18645">
        <ele>39.95</ele>
        <time>2024-07-15T00:08:12.476Z</time>
      </trkpt>
      <trkpt lat="47.10043" lon="-0.18713">
        <ele>38.96</ele>
        <time>2024-07-15T00:08:22.094Z</time>
      </trkpt>
      <trkpt lat="47.10022" lon="-0.18744">
        <ele>35.81</ele>
        <time>2024-07-15T00:08:31.717Z</time>
      </trkpt>
      <trkpt lat="47.09994" lon="-0.18787">
        <ele>32.72</ele>
        <time>2024-07-15T00:08:41.346Z</time>
      </trkpt>
      <trkpt lat="47.09972" lon="-0.18812">
        <ele>32.68</ele>
        <time>2024-07-15T00:08:50.980Z</time>
      </trkpt>
      <trkpt lat="47.09918" lon="-0.18857">
        <ele>34.94</ele>
        <time>2024-07-15T00:09:00.624Z</time>
      </trkpt>
      <trkpt lat="47.09865" lon="-0.18898">
        <ele>35.89</ele>
        <time>2024-07-15T00:09:10.277Z</time>
      </trkpt>
      <trkpt lat="47.09821" lon="-0.18941">
        <ele>33.17</ele>
        <time>2024-07-15T00:09:19.939Z</time>
      </trkpt>
      <trkpt lat="47.09812" lon="-0.18947">
        <ele>33.39</ele>
        <time>2024-07-15T00:09:29.602Z</time>
      </trkpt>
      <trkpt lat="47.09793" lon="-0.1896">
        <ele>33.87</ele>
        <time>2024-07-15T00:09:39.269Z</time>
      </trkpt>
      <trkpt lat="47.09789" lon="-0.18959">
        <ele>33.81</ele>
        <time>2024-07-15T00:09:48.936Z</time>
      </trkpt>
      <trkpt lat="47.09779" lon="-0.1897">
        <ele>34.24</ele>
        <time>2024-07-15T00:09:58.605Z</time>
      </trkpt>
      <trkpt lat="47.0976" lon="-0.18986">
        <ele>34.78</ele>
        <time>2024-07-15T00:10:08.278Z</time>
      </trkpt>
      <trkpt lat="47.09702" lon="-0.19011">
        <ele>34.31</ele>
        <time>2024-07-15T00:10:17.960Z</time>
      </trkpt>
      <trkpt lat="47.09646" lon="-0.1904">
        <ele>36</ele>
        <time>2024-07-15T00:10:27.652Z</time>
      </trkpt>
      <trkpt lat="47.09621" lon="-0.19057">
        <ele>35.76</ele>
        <time>2024-07-15T00:10:37.348Z</time>
      </trkpt>
      <trkpt lat="47.09606" lon="-0.19068">
        <ele>35.21</ele>
        <time>2024-07-15T00:10:47.047Z</time>
      </trkpt>
      <trkpt lat="47.09598" lon="-0.19074">
        <ele>35</ele>
        <time>2024-07-15T00:10:56.748Z</time>
      </trkpt>
      <trkpt lat="47.09589" lon="-0.19087">
        <ele>35.37</ele>
        <time>2024-07-15T00:11:06.451Z</time>
      </trkpt>
      <trkpt lat="47.09583" lon="-0.19098">
        <ele>35.61</ele>
        <time>2024-07-15T00:11:16.155Z</time>
      </trkpt>
      <trkpt lat="47.0959" lon="-0.19119">
        <ele>35.94</ele>
        <time>2024-07-15T00:11:25.862Z</time>
      </trkpt>
      <trkpt lat="47.09605" lon="-0.19161">
        <ele>37</ele>
        <time>2024-07-15T00:11:35.574Z</time>
      </trkpt>
      <trkpt lat="47.09639" lon="-0.19247">
        <ele>36.41</ele>
        <time>2024-07-15T00:11:45.297Z</time>
      </trkpt>
      <trkpt lat="47.09659" lon="-0.19284">
        <ele>35.46</ele>
        <time>2024-07-15T00:11:55.025Z</time>
      </trkpt>
      <trkpt lat="47.0968" lon="-0.19316">
        <ele>35.87</ele>
        <time>2024-07-15T00:12:04.758Z</time>
      </trkpt>
      <trkpt lat="47.0972" lon="-0.19355">
        <ele>37.68</ele>
        <time>2024-07-15T00:12:14.498Z</time>
      </trkpt>
      <trkpt lat="47.09719" lon="-0.19359">
        <ele>37.71</ele>
        <time>2024-07-15T00:12:24.239Z</time>
      </trkpt>
      <trkpt lat="47.09694" lon="-0.194">
        <ele>37.39</ele>
        <time>2024-07-15T00:12:33.986Z</time>
      </trkpt>
      <trkpt lat="47.09684" lon="-0.1942">
        <ele>37.01</ele>
        <time>2024-07-15T00:12:43.736Z</time>
      </trkpt>
      <trkpt lat="47.09672" lon="-0.19439">
        <ele>36.6</ele>
        <time>2024-07-15T00:12:53.488Z</time>
      </trkpt>
      <trkpt lat="47.09666" lon="-0.19449">
        <ele>36.36</ele>
        <time>2024-07-15T00:13:03.242Z</time>
      </trkpt>
      <trkpt lat="47.09631" lon="-0.19502">
        <ele>35.13</ele>
        <time>2024-07-15T00:13:13.004Z</time>
      </trkpt>
      <trkpt lat="47.09601" lon="-0.19552">
        <ele>36.95</ele>
        <time>2024-07-15T00:13:22.773Z</time>
      </trkpt>
      <trkpt lat="47.09591" lon="-0.19554">
        <ele>36.76</ele>
        <time>2024-07-15T00:13:32.544Z</time>
      </trkpt>
      <trkpt lat="47.09577" lon="-0.19557">
        <ele>36.64</ele>
        <time>2024-07-15T00:13:42.317Z</time>
      </trkpt>
      <trkpt lat="47.09565" lon="-0.1956">
        <ele>36.25</ele>
        <time>2024-07-15T00:13:52.092Z</time>
      </trkpt>
      <trkpt lat="47.09554" lon="-0.19563">
        <ele>35.76</ele>
        <time>2024-07-15T00:14:01.869Z</time>
      </trkpt>
      <trkpt lat="47.09495" lon="-0.19608">
        <ele>35.23</ele>
        <time>2024-07-15T00:14:11.656Z</time>
      </trkpt>
      <trkpt lat="47.09473" lon="-0.19637">
        <ele>34.75</ele>
        <time>2024-07-15T00:14:21.448Z</time>
      </trkpt>
      <trkpt lat="47.09398" lon="-0.19697">
        <ele>34.25</ele>
        <time>2024-07-15T00:14:31.254Z</time>
      </trkpt>
      <trkpt lat="47.09164" lon="-0.19862">
        <ele>35</ele>
        <time>2024-07-15T00:14:41.102Z</time>
      </trkpt>
      <trkpt lat="47.09022" lon="-0.19962">
        <ele>34</ele>
        <time>2024-07-15T00:14:50.975Z</time>
      </trkpt>
      <trkpt lat="47.09006" lon="-0.19974">
        <ele>34</ele>
        <time>2024-07-15T00:15:00.851Z</time>
      </trkpt>
      <trkpt lat="47.08997" lon="-0.19988">
        <ele>34</ele>
        <time>2024-07-15T00:15:10.729Z</time>
      </trkpt>
      <trkpt lat="47.08992" lon="-0.20008">
        <ele>34</ele>
        <time>2024-07-15T00:15:20.609Z</time>
      </trkpt>
      <trkpt lat="47.08988" lon="-0.2004">
        <ele>34.03</ele>
        <time>2024-07-15T00:15:30.493Z</time>
      </trkpt>
      <trkpt lat="47.08987" lon="-0.20082">
        <ele>37.25</ele>
        <time>2024-07-15T00:15:40.381Z</time>
      </trkpt>
      <trkpt lat="47.08987" lon="-0.20097">
        <ele>37.77</ele>
        <time>2024-07-15T00:15:50.271Z</time>
      </trkpt>
      <trkpt lat="47.08985" lon="-0.20106">
        <ele>38</ele>
        <time>2024-07-15T00:16:00.162Z</time>
      </trkpt>
      <trkpt lat="47.08979" lon="-0.20116">
        <ele>38.12</ele>
        <time>2024-07-15T00:16:10.054Z</time>
      </trkpt>
      <trkpt lat="47.08972" lon="-0.20124">
        <ele>38.16</ele>
        <time>2024-07-15T00:16:19.948Z</time>
      </trkpt>
      <trkpt lat="47.08962" lon="-0.2013">
        <ele>38.01</ele>
        <time>2024-07-15T00:16:29.843Z</time>
      </trkpt>
      <trkpt lat="47.08949" lon="-0.20132">
        <ele>38</ele>
        <time>2024-07-15T00:16:39.740Z</time>
      </trkpt>
      <trkpt lat="47.0894" lon="-0.2013">
        <ele>38</ele>
        <time>2024-07-15T00:16:49.639Z</time>
      </trkpt>
      <trkpt lat="47.08874" lon="-0.20095">
        <ele>33.73</ele>
        <time>2024-07-15T00:16:59.549Z</time>
      </trkpt>
      <trkpt lat="47.08845" lon="-0.2007">
        <ele>33.33</ele>
        <time>2024-07-15T00:17:09.465Z</time>
      </trkpt>
      <trkpt lat="47.08828" lon="-0.20051">
        <ele>34.07</ele>
        <time>2024-07-15T00:17:19.384Z</time>
      </trkpt>
      <trkpt lat="47.08814" lon="-0.20019">
        <ele>35.75</ele>
        <time>2024-07-15T00:17:29.307Z</time>
      </trkpt>
      <trkpt lat="47.08807" lon="-0.19971">
        <ele>37.23</ele>
        <time>2024-07-15T00:17:39.236Z</time>
      </trkpt>
      <trkpt lat="47.088" lon="-0.19939">
        <ele>38.12</ele>
        <time>2024-07-15T00:17:49.168Z</time>
      </trkpt>
      <trkpt lat="47.08791" lon="-0.19907">
        <ele>37.86</ele>
        <time>2024-07-15T00:17:59.104Z</time>
      </trkpt>
      <trkpt lat="47.08773" lon="-0.19859">
        <ele>35.75</ele>
        <time>2024-07-15T00:18:09.046Z</time>
      </trkpt>
      <trkpt lat="47.08754" lon="-0.1983">
        <ele>35.56</ele>
        <time>2024-07-15T00:18:18.992Z</time>
      </trkpt>
      <trkpt lat="47.08727" lon="-0.19798">
        <ele>36</ele>
        <time>2024-07-15T00:18:28.944Z</time>
      </trkpt>
      <trkpt lat="47.0871" lon="-0.19761">
        <ele>35</ele>
        <time>2024-07-15T00:18:38.901Z</time>
      </trkpt>
      <trkpt lat="47.08699" lon="-0.19724">
        <ele>35</ele>
        <time>2024-07-15T00:18:48.862Z</time>
      </trkpt>
      <trkpt lat="47.08689" lon="-0.19661">
        <ele>35.77</ele>
        <time>2024-07-15T00:18:58.830Z</time>
      </trkpt>
      <trkpt lat="47.08688" lon="-0.19655">
        <ele>35.92</ele>
        <time>2024-07-15T00:19:08.799Z</time>
      </trkpt>
      <trkpt lat="47.08637" lon="-0.19672">
        <ele>35.65</ele>
        <time>2024-07-15T00:19:18.776Z</time>
      </trkpt>
      <trkpt lat="47.08593" lon="-0.19691">
        <ele>36.25</ele>
        <time>2024-07-15T00:19:28.761Z</time>
      </trkpt>
      <trkpt lat="47.08498" lon="-0.1974">
        <ele>37.32</ele>
        <time>2024-07-15T00:19:38.762Z</time>
      </trkpt>
      <trkpt lat="47.08443" lon="-0.19768">
        <ele>36.69</ele>
        <time>2024-07-15T00:19:48.772Z</time>
      </trkpt>
      <trkpt lat="47.08374" lon="-0.19806">
        <ele>37.83</ele>
        <time>2024-07-15T00:19:58.794Z</time>
      </trkpt>
      <trkpt lat="47.08352" lon="-0.19819">
        <ele>38</ele>
        <time>2024-07-15T00:20:08.820Z</time>
      </trkpt>
      <trkpt lat="47.08349" lon="-0.1982">
        <ele>37.98</ele>
        <time>2024-07-15T00:20:18.846Z</time>
      </trkpt>
      <trkpt lat="47.0835" lon="-0.19823">
        <ele>38</ele>
        <time>2024-07-15T00:20:28.873Z</time>
      </trkpt>
      <trkpt lat="47.08349" lon="-0.19826">
        <ele>37.95</ele>
        <time>2024-07-15T00:20:38.900Z</time>
      </trkpt>
      <trkpt lat="47.08348" lon="-0.19829">
        <ele>37.85</ele>
        <time>2024-07-15T00:20:48.927Z</time>
      </trkpt>
      <trkpt lat="47.08346" lon="-0.19831">
        <ele>37.78</ele>
        <time>2024-07-15T00:20:58.955Z</time>
      </trkpt>
      <trkpt lat="47.08347" lon="-0.19834">
        <ele>37.66</ele>
        <time>2024-07-15T00:21:08.983Z</time>
      </trkpt>
      <trkpt lat="47.08352" lon="-0.1985">
        <ele>37.01</ele>
        <time>2024-07-15T00:21:19.013Z</time>
      </trkpt>
      <trkpt lat="47.08373" lon="-0.19909">
        <ele>35.32</ele>
        <time>2024-07-15T00:21:29.050Z</time>
      </trkpt>
      <trkpt lat="47.08374" lon="-0.1992">
        <ele>35.55</ele>
        <time>2024-07-15T00:21:39.088Z</time>
      </trkpt>
      <trkpt lat="47.08374" lon="-0.19932">
        <ele>35.97</ele>
        <time>2024-07-15T00:21:49.128Z</time>
      </trkpt>
      <trkpt lat="47.08371" lon="-0.19943">
        <ele>36.26</ele>
        <time>2024-07-15T00:21:59.169Z</time>
      </trkpt>
      <trkpt lat="47.08363" lon="-0.19954">
        <ele>36.65</ele>
        <time>2024-07-15T00:22:09.212Z</time>
      </trkpt>
      <trkpt lat="47.08342" lon="-0.19975">
        <ele>36.33</ele>
        <time>2024-07-15T00:22:19.259Z</time>
      </trkpt>
      <trkpt lat="47.08329" lon="-0.19993">
        <ele>35.3</ele>
        <time>2024-07-15T00:22:29.309Z</time>
      </trkpt>
      <trkpt lat="47.08318" lon="-0.20017">
        <ele>35.89</ele>
        <time>2024-07-15T00:22:39.362Z</time>
      </trkpt>
      <trkpt lat="47.08309" lon="-0.20038">
        <ele>36.48</ele>
        <time>2024-07-15T00:22:49.418Z</time>
      </trkpt>
      <trkpt lat="47.083" lon="-0.20066">
        <ele>36.76</ele>
        <time>2024-07-15T00:22:59.477Z</time>
      </trkpt>
      <trkpt lat="47.08296" lon="-0.20104">
        <ele>36.89</ele>
        <time>2024-07-15T00:23:09.540Z</time>
      </trkpt>
      <trkpt lat="47.08296" lon="-0.20134">
        <ele>36</ele>
        <time>2024-07-15T00:23:19.606Z</time>
      </trkpt>
      <trkpt lat="47.08295" lon="-0.20158">
        <ele>36</ele>
        <time>2024-07-15T00:23:29.675Z</time>
      </trkpt>
      <trkpt lat="47.08298" lon="-0.20186">
        <ele>36.99</ele>
        <time>2024-07-15T00:23:39.747Z</time>
      </trkpt>
      <trkpt lat="47.0831" lon="-0.2022">
        <ele>37</ele>
        <time>2024-07-15T00:23:49.823Z</time>
      </trkpt>
      <trkpt lat="47.08323" lon="-0.20252">
        <ele>36.94</ele>
        <time>2024-07-15T00:23:59.903Z</time>
      </trkpt>
      <trkpt lat="47.08336" lon="-0.20285">
        <ele>36.46</ele>
        <time>2024-07-15T00:24:09.987Z</time>
      </trkpt>
      <trkpt lat="47.08344" lon="-0.20311">
        <ele>35.43</ele>
        <time>2024-07-15T00:24:20.075Z</time>
      </trkpt>
      <trkpt lat="47.0836" lon="-0.20342">
        <ele>34.22</ele>
        <time>2024-07-15T00:24:30.167Z</time>
      </trkpt>
      <trkpt lat="47.08381" lon="-0.20369">
        <ele>34.44</ele>
        <time>2024-07-15T00:24:40.263Z</time>
      </trkpt>
      <trkpt lat="47.08385" lon="-0.20377">
        <ele>34.58</ele>
        <time>2024-07-15T00:24:50.360Z</time>
      </trkpt>
      <trkpt lat="47.0839" lon="-0.20386">
        <ele>34.72</ele>
        <time>2024-07-15T00:25:00.459Z</time>
      </trkpt>
      <trkpt lat="47.08421" lon="-0.2047">
        <ele>36</ele>
        <time>2024-07-15T00:25:10.568Z</time>
      </trkpt>
      <trkpt lat="47.08441" lon="-0.20481">
        <ele>36.33</ele>
        <time>2024-07-15T00:25:20.681Z</time>
      </trkpt>
      <trkpt lat="47.08459" lon="-0.20515">
        <ele>36.82</ele>
        <time>2024-07-15T00:25:30.798Z</time>
      </trkpt>
      <trkpt lat="47.08502" lon="-0.20587">
        <ele>35.03</ele>
        <time>2024-07-15T00:25:40.926Z</time>
      </trkpt>
      <trkpt lat="47.0852" lon="-0.20642">
        <ele>33.13</ele>
        <time>2024-07-15T00:25:51.060Z</time>
      </trkpt>
      <trkpt lat="47.08547" lon="-0.20708">
        <ele>37.79</ele>
        <time>2024-07-15T00:26:01.203Z</time>
      </trkpt>
      <trkpt lat="47.08557" lon="-0.20727">
        <ele>40.81</ele>
        <time>2024-07-15T00:26:11.348Z</time>
      </trkpt>
      <trkpt lat="47.08561" lon="-0.20746">
        <ele>41.93</ele>
        <time>2024-07-15T00:26:21.496Z</time>
      </trkpt>
      <trkpt lat="47.08562" lon="-0.2077">
        <ele>43</ele>
        <time>2024-07-15T00:26:31.646Z</time>
      </trkpt>
      <trkpt lat="47.08554" lon="-0.20788">
        <ele>43.69</ele>
        <time>2024-07-15T00:26:41.799Z</time>
      </trkpt>
      <trkpt lat="47.08514" lon="-0.20832">
        <ele>45.24</ele>
        <time>2024-07-15T00:26:51.960Z</time>
      </trkpt>
      <trkpt lat="47.0849" lon="-0.20853">
        <ele>45.99</ele>
        <time>2024-07-15T00:27:02.125Z</time>
      </trkpt>
      <trkpt lat="47.08476" lon="-0.20871">
        <ele>46.83</ele>
        <time>2024-07-15T00:27:12.293Z</time>
      </trkpt>
      <trkpt lat="47.08469" lon="-0.20882">
        <ele>47.33</ele>
        <time>2024-07-15T00:27:22.463Z</time>
      </trkpt>
      <trkpt lat="47.08463" lon="-0.20896">
        <ele>47.64</ele>
        <time>2024-07-15T00:27:32.634Z</time>
      </trkpt>
      <trkpt lat="47.08458" lon="-0.20913">
        <ele>48.19</ele>
        <time>2024-07-15T00:27:42.807Z</time>
      </trkpt>
      <trkpt lat="47.08457" lon="-0.20929">
        <ele>49.33</ele>
        <time>2024-07-15T00:27:52.982Z</time>
      </trkpt>
      <trkpt lat="47.08458" lon="-0.20944">
        <ele>50.26</ele>
        <time>2024-07-15T00:28:03.159Z</time>
      </trkpt>
      <trkpt lat="47.08378" lon="-0.2102">
        <ele>52.02</ele>
        <time>2024-07-15T00:28:13.351Z</time>
      </trkpt>
      <trkpt lat="47.08331" lon="-0.21064">
        <ele>51.32</ele>
        <time>2024-07-15T00:28:23.552Z</time>
      </trkpt>
      <trkpt lat="47.0829" lon="-0.211">
        <ele>50.62</ele>
        <time>2024-07-15T00:28:33.761Z</time>
      </trkpt>
      <trkpt lat="47.08257" lon="-0.21143">
        <ele>51.12</ele>
        <time>2024-07-15T00:28:43.977Z</time>
      </trkpt>
      <trkpt lat="47.0817" lon="-0.21254">
        <ele>51.06</ele>
        <time>2024-07-15T00:28:54.211Z</time>
      </trkpt>
      <trkpt lat="47.08117" lon="-0.21323">
        <ele>49.62</ele>
        <time>2024-07-15T00:29:04.457Z</time>
      </trkpt>
      <trkpt lat="47.08105" lon="-0.21357">
        <ele>49.37</ele>
        <time>2024-07-15T00:29:14.707Z</time>
      </trkpt>
      <trkpt lat="47.08097" lon="-0.21385">
        <ele>49</ele>
        <time>2024-07-15T00:29:24.960Z</time>
      </trkpt>
      <trkpt lat="47.08089" lon="-0.21413">
        <ele>49.32</ele>
        <time>2024-07-15T00:29:35.216Z</time>
      </trkpt>
      <trkpt lat="47.08088" lon="-0.2142">
        <ele>49.82</ele>
        <time>2024-07-15T00:29:45.473Z</time>
      </trkpt>
      <trkpt lat="47.08087" lon="-0.21425">
        <ele>50.14</ele>
        <time>2024-07-15T00:29:55.731Z</time>
      </trkpt>
      <trkpt lat="47.08082" lon="-0.21434">
        <ele>50.81</ele>
        <time>2024-07-15T00:30:05.990Z</time>
      </trkpt>
      <trkpt lat="47.08072" lon="-0.21449">
        <ele>51.44</ele>
        <time>2024-07-15T00:30:16.251Z</time>
      </trkpt>
      <trkpt lat="47.08021" lon="-0.21511">
        <ele>52.3</ele>
        <time>2024-07-15T00:30:26.523Z</time>
      </trkpt>
      <trkpt lat="47.07992" lon="-0.21539">
        <ele>51.47</ele>
        <time>2024-07-15T00:30:36.800Z</time>
      </trkpt>
      <trkpt lat="47.07935" lon="-0.21572">
        <ele>55.76</ele>
        <time>2024-07-15T00:30:47.087Z</time>
      </trkpt>
      <trkpt lat="47.07899" lon="-0.21592">
        <ele>56</ele>
        <time>2024-07-15T00:30:57.380Z</time>
      </trkpt>
      <trkpt lat="47.07875" lon="-0.21617">
        <ele>55.92</ele>
        <time>2024-07-15T00:31:07.678Z</time>
      </trkpt>
      <trkpt lat="47.07844" lon="-0.21665">
        <ele>54.59</ele>
        <time>2024-07-15T00:31:17.983Z</time>
      </trkpt>
      <trkpt lat="47.07814" lon="-0.21721">
        <ele>53.35</ele>
        <time>2024-07-15T00:31:28.296Z</time>
      </trkpt>
      <trkpt lat="47.07793" lon="-0.21764">
        <ele>52.67</ele>
        <time>2024-07-15T00:31:38.615Z</time>
      </trkpt>
      <trkpt lat="47.07787" lon="-0.21794">
        <ele>53.13</ele>
        <time>2024-07-15T00:31:48.937Z</time>
      </trkpt>
      <trkpt lat="47.07784" lon="-0.21833">
        <ele>53.28</ele>
        <time>2024-07-15T00:31:59.264Z</time>
      </trkpt>
      <trkpt lat="47.07791" lon="-0.21878">
        <ele>54.7</ele>
        <time>2024-07-15T00:32:09.596Z</time>
      </trkpt>
      <trkpt lat="47.07788" lon="-0.21903">
        <ele>54.53</ele>
        <time>2024-07-15T00:32:19.930Z</time>
      </trkpt>
      <trkpt lat="47.0778" lon="-0.21927">
        <ele>53.82</ele>
        <time>2024-07-15T00:32:30.267Z</time>
      </trkpt>
      <trkpt lat="47.07779" lon="-0.21934">
        <ele>53.57</ele>
        <time>2024-07-15T00:32:40.605Z</time>
      </trkpt>
      <trkpt lat="47.07775" lon="-0.21934">
        <ele>53.43</ele>
        <time>2024-07-15T00:32:50.944Z</time>
      </trkpt>
      <trkpt lat="47.07772" lon="-0.21934">
        <ele>53.32</ele>
        <time>2024-07-15T00:33:01.283Z</time>
      </trkpt>
      <trkpt lat="47.07763" lon="-0.21937">
        <ele>52.91</ele>
        <time>2024-07-15T00:33:11.624Z</time>
      </trkpt>
      <trkpt lat="47.07759" lon="-0.21929">
        <ele>52.76</ele>
        <time>2024-07-15T00:33:21.966Z</time>
      </trkpt>
      <trkpt lat="47.07753" lon="-0.21919">
        <ele>52.31</ele>
        <time>2024-07-15T00:33:32.309Z</time>
      </trkpt>
      <trkpt lat="47.07742" lon="-0.21908">
        <ele>50.31</ele>
        <time>2024-07-15T00:33:42.654Z</time>
      </trkpt>
      <trkpt lat="47.07727" lon="-0.21891">
        <ele>48.35</ele>
        <time>2024-07-15T00:33:53.002Z</time>
      </trkpt>
      <trkpt lat="47.07699" lon="-0.21862">
        <ele>44.24</ele>
        <time>2024-07-15T00:34:03.356Z</time>
      </trkpt>
      <trkpt lat="47.07695" lon="-0.2186">
        <ele>43.89</ele>
        <time>2024-07-15T00:34:13.711Z</time>
      </trkpt>
      <trkpt lat="47.0769" lon="-0.21858">
        <ele>43.63</ele>
        <time>2024-07-15T00:34:24.066Z</time>
      </trkpt>
      <trkpt lat="47.07684" lon="-0.21859">
        <ele>43.48</ele>
        <time>2024-07-15T00:34:34.422Z</time>
      </trkpt>
      <trkpt lat="47.07677" lon="-0.21861">
        <ele>43.31</ele>
        <time>2024-07-15T00:34:44.779Z</time>
      </trkpt>
      <trkpt lat="47.0759" lon="-0.21892">
        <ele>38.4</ele>
        <time>2024-07-15T00:34:55.151Z</time>
      </trkpt>
      <trkpt lat="47.07563" lon="-0.21903">
        <ele>39</ele>
        <time>2024-07-15T00:35:05.527Z</time>
      </trkpt>
      <trkpt lat="47.07559" lon="-0.21906">
        <ele>39</ele>
        <time>2024-07-15T00:35:15.904Z</time>
      </trkpt>
      <trkpt lat="47.07553" lon="-0.21909">
        <ele>39</ele>
        <time>2024-07-15T00:35:26.282Z</time>
      </trkpt>
      <trkpt lat="47.07543" lon="-0.21916">
        <ele>39.02</ele>
        <time>2024-07-15T00:35:36.662Z</time>
      </trkpt>
      <trkpt lat="47.07528" lon="-0.21928">
        <ele>39.58</ele>
        <time>2024-07-15T00:35:47.045Z</time>
      </trkpt>
      <trkpt lat="47.07484" lon="-0.21973">
        <ele>39.69</ele>
        <time>2024-07-15T00:35:57.436Z</time>
      </trkpt>
      <trkpt lat="47.07461" lon="-0.21995">
        <ele>39</ele>
        <time>2024-07-15T00:36:07.832Z</time>
      </trkpt>
      <trkpt lat="47.07416" lon="-0.22037">
        <ele>37.39</ele>
        <time>2024-07-15T00:36:18.236Z</time>
      </trkpt>
      <trkpt lat="47.07397" lon="-0.22054">
        <ele>37.21</ele>
        <time>2024-07-15T00:36:28.644Z</time>
      </trkpt>
      <trkpt lat="47.07381" lon="-0.22065">
        <ele>37.61</ele>
        <time>2024-07-15T00:36:39.055Z</time>
      </trkpt>
      <trkpt lat="47.07363" lon="-0.22075">
        <ele>38.48</ele>
        <time>2024-07-15T00:36:49.469Z</time>
      </trkpt>
      <trkpt lat="47.07345" lon="-0.22083">
        <ele>38.89</ele>
        <time>2024-07-15T00:36:59.886Z</time>
      </trkpt>
      <trkpt lat="47.07307" lon="-0.22094">
        <ele>39.33</ele>
        <time>2024-07-15T00:37:10.309Z</time>
      </trkpt>
      <trkpt lat="47.07292" lon="-0.22099">
        <ele>39.13</ele>
        <time>2024-07-15T00:37:20.734Z</time>
      </trkpt>
      <trkpt lat="47.0727" lon="-0.2211">
        <ele>38.13</ele>
        <time>2024-07-15T00:37:31.163Z</time>
      </trkpt>
      <trkpt lat="47.07239" lon="-0.22137">
        <ele>38</ele>
        <time>2024-07-15T00:37:41.598Z</time>
      </trkpt>
      <trkpt lat="47.07213" lon="-0.22165">
        <ele>38.92</ele>
        <time>2024-07-15T00:37:52.038Z</time>
      </trkpt>
      <trkpt lat="47.07191" lon="-0.22188">
        <ele>39</ele>
        <time>2024-07-15T00:38:02.482Z</time>
      </trkpt>
      <trkpt lat="47.07171" lon="-0.22207">
        <ele>39</ele>
        <time>2024-07-15T00:38:12.930Z</time>
      </trkpt>
      <trkpt lat="47.07142" lon="-0.22227">
        <ele>38.98</ele>
        <time>2024-07-15T00:38:23.383Z</time>
      </trkpt>
      <trkpt lat="47.06991" lon="-0.22318">
        <ele>38.15</ele>
        <time>2024-07-15T00:38:33.862Z</time>
      </trkpt>
      <trkpt lat="47.06809" lon="-0.22426">
        <ele>37.59</ele>
        <time>2024-07-15T00:38:44.373Z</time>
      </trkpt>
      <trkpt lat="47.06786" lon="-0.22443">
        <ele>38</ele>
        <time>2024-07-15T00:38:54.888Z</time>
      </trkpt>
      <trkpt lat="47.0669" lon="-0.22528">
        <ele>37.73</ele>
        <time>2024-07-15T00:39:05.421Z</time>
      </trkpt>
      <trkpt lat="47.06652" lon="-0.22559">
        <ele>39.1</ele>
        <time>2024-07-15T00:39:15.961Z</time>
      </trkpt>
      <trkpt lat="47.06629" lon="-0.22576">
        <ele>39.95</ele>
        <time>2024-07-15T00:39:26.505Z</time>
      </trkpt>
      <trkpt lat="47.06608" lon="-0.22588">
        <ele>40.86</ele>
        <time>2024-07-15T00:39:37.052Z</time>
      </trkpt>
      <trkpt lat="47.06586" lon="-0.22597">
        <ele>41.07</ele>
        <time>2024-07-15T00:39:47.603Z</time>
      </trkpt>
      <trkpt lat="47.06559" lon="-0.22606">
        <ele>40.54</ele>
        <time>2024-07-15T00:39:58.159Z</time>
      </trkpt>
      <trkpt lat="47.0651" lon="-0.22618">
        <ele>39.31</ele>
        <time>2024-07-15T00:40:08.723Z</time>
      </trkpt>
      <trkpt lat="47.06464" lon="-0.22637">
        <ele>38.58</ele>
        <time>2024-07-15T00:40:19.294Z</time>
      </trkpt>
      <trkpt lat="47.06399" lon="-0.22667">
        <ele>40</ele>
        <time>2024-07-15T00:40:29.876Z</time>
      </trkpt>
      <trkpt lat="47.06374" lon="-0.22677">
        <ele>39.89</ele>
        <time>2024-07-15T00:40:40.462Z</time>
      </trkpt>
      <trkpt lat="47.06355" lon="-0.22682">
        <ele>39.21</ele>
        <time>2024-07-15T00:40:51.051Z</time>
      </trkpt>
      <trkpt lat="47.06335" lon="-0.22685">
        <ele>39</ele>
        <time>2024-07-15T00:41:01.644Z</time>
      </trkpt>
      <trkpt lat="47.06307" lon="-0.22687">
        <ele>39</ele>
        <time>2024-07-15T00:41:12.241Z</time>
      </trkpt>
      <trkpt lat="47.06256" lon="-0.22692">
        <ele>38.67</ele>
        <time>2024-07-15T00:41:22.846Z</time>
      </trkpt>
      <trkpt lat="47.06205" lon="-0.22699">
        <ele>38.55</ele>
        <time>2024-07-15T00:41:33.460Z</time>
      </trkpt>
      <trkpt lat="47.06158" lon="-0.22708">
        <ele>39.12</ele>
        <time>2024-07-15T00:41:44.081Z</time>
      </trkpt>
      <trkpt lat="47.0611" lon="-0.2272">
        <ele>39.2</ele>
        <time>2024-07-15T00:41:54.710Z</time>
      </trkpt>
      <trkpt lat="47.06046" lon="-0.22738">
        <ele>39.92</ele>
        <time>2024-07-15T00:42:05.349Z</time>
      </trkpt>
      <trkpt lat="47.06016" lon="-0.22749">
        <ele>38.21</ele>
        <time>2024-07-15T00:42:15.993Z</time>
      </trkpt>
      <trkpt lat="47.05979" lon="-0.22766">
        <ele>37</ele>
        <time>2024-07-15T00:42:26.643Z</time>
      </trkpt>
      <trkpt lat="47.05924" lon="-0.22799">
        <ele>39.3</ele>
        <time>2024-07-15T00:42:37.303Z</time>
      </trkpt>
      <trkpt lat="47.05887" lon="-0.22826">
        <ele>40</ele>
        <time>2024-07-15T00:42:47.970Z</time>
      </trkpt>
      <trkpt lat="47.05869" lon="-0.22836">
        <ele>40</ele>
        <time>2024-07-15T00:42:58.640Z</time>
      </trkpt>
      <trkpt lat="47.05851" lon="-0.22843">
        <ele>40</ele>
        <time>2024-07-15T00:43:09.313Z</time>
      </trkpt>
      <trkpt lat="47.05821" lon="-0.2285">
        <ele>39</ele>
        <time>2024-07-15T00:43:19.990Z</time>
      </trkpt>
      <trkpt lat="47.05727" lon="-0.22871">
        <ele>41.77</ele>
        <time>2024-07-15T00:43:30.683Z</time>
      </trkpt>
      <trkpt lat="47.05684" lon="-0.22878">
        <ele>42</ele>
        <time>2024-07-15T00:43:41.383Z</time>
      </trkpt>
      <trkpt lat="47.05638" lon="-0.22889">
        <ele>42</ele>
        <time>2024-07-15T00:43:52.090Z</time>
      </trkpt>
      <trkpt lat="47.05591" lon="-0.22911">
        <ele>42.19</ele>
        <time>2024-07-15T00:44:02.805Z</time>
      </trkpt>
      <trkpt lat="47.05551" lon="-0.22933">
        <ele>42.84</ele>
        <time>2024-07-15T00:44:13.527Z</time>
      </trkpt>
      <trkpt lat="47.05549" lon="-0.22927">
        <ele>43.12</ele>
        <time>2024-07-15T00:44:24.250Z</time>
      </trkpt>
      <trkpt lat="47.05536" lon="-0.22881">
        <ele>44.26</ele>
        <time>2024-07-15T00:44:34.978Z</time>
      </trkpt>
      <trkpt lat="47.05525" lon="-0.22848">
        <ele>45</ele>
        <time>2024-07-15T00:44:45.710Z</time>
      </trkpt>
      <trkpt lat="47.05521" lon="-0.22839">
        <ele>45</ele>
        <time>2024-07-15T00:44:56.443Z</time>
      </trkpt>
      <trkpt lat="47.05515" lon="-0.22834">
        <ele>44.96</ele>
        <time>2024-07-15T00:45:07.177Z</time>
      </trkpt>
      <trkpt lat="47.05504" lon="-0.22833">
        <ele>44.59</ele>
        <time>2024-07-15T00:45:17.913Z</time>
      </trkpt>
      <trkpt lat="47.05488" lon="-0.22838">
        <ele>44</ele>
        <time>2024-07-15T00:45:28.652Z</time>
      </trkpt>
      <trkpt lat="47.05454" lon="-0.22866">
        <ele>42.77</ele>
        <time>2024-07-15T00:45:39.397Z</time>
      </trkpt>
      <trkpt lat="47.05422" lon="-0.22837">
        <ele>41.63</ele>
        <time>2024-07-15T00:45:50.148Z</time>
      </trkpt>
      <trkpt lat="47.05416" lon="-0.22834">
        <ele>41.43</ele>
        <time>2024-07-15T00:46:00.900Z</time>
      </trkpt>
      <trkpt lat="47.05411" lon="-0.22837">
        <ele>41.23</ele>
        <time>2024-07-15T00:46:11.653Z</time>
      </trkpt>
      <trkpt lat="47.05386" lon="-0.22866">
        <ele>41.42</ele>
        <time>2024-07-15T00:46:22.411Z</time>
      </trkpt>
      <trkpt lat="47.0538" lon="-0.22869">
        <ele>41.55</ele>
        <time>2024-07-15T00:46:33.170Z</time>
      </trkpt>
      <trkpt lat="47.05375" lon="-0.2287">
        <ele>41.59</ele>
        <time>2024-07-15T00:46:43.930Z</time>
      </trkpt>
      <trkpt lat="47.05356" lon="-0.22848">
        <ele>41</ele>
        <time>2024-07-15T00:46:54.694Z</time>
      </trkpt>
      <trkpt lat="47.05352" lon="-0.22852">
        <ele>41</ele>
        <time>2024-07-15T00:47:05.459Z</time>
      </trkpt>
      <trkpt lat="47.05349" lon="-0.2286">
        <ele>41.21</ele>
        <time>2024-07-15T00:47:16.224Z</time>
      </trkpt>
      <trkpt lat="47.05338" lon="-0.22833">
        <ele>41.1</ele>
        <time>2024-07-15T00:47:26.993Z</time>
      </trkpt>
      <trkpt lat="47.05333" lon="-0.22837">
        <ele>41.22</ele>
        <time>2024-07-15T00:47:37.763Z</time>
      </trkpt>
      <trkpt lat="47.05261" lon="-0.22702">
        <ele>38.58</ele>
        <time>2024-07-15T00:47:48.551Z</time>
      </trkpt>
      <trkpt lat="47.05257" lon="-0.22708">
        <ele>38.53</ele>
        <time>2024-07-15T00:47:59.340Z</time>
      </trkpt>
      <trkpt lat="47.05246" lon="-0.22696">
        <ele>39</ele>
        <time>2024-07-15T00:48:10.132Z</time>
      </trkpt>
      <trkpt lat="47.05236" lon="-0.22689">
        <ele>39</ele>
        <time>2024-07-15T00:48:20.925Z</time>
      </trkpt>
      <trkpt lat="47.05223" lon="-0.22688">
        <ele>39</ele>
        <time>2024-07-15T00:48:31.721Z</time>
      </trkpt>
      <trkpt lat="47.05217" lon="-0.22689">
        <ele>39</ele>
        <time>2024-07-15T00:48:42.517Z</time>
      </trkpt>
      <trkpt lat="47.05211" lon="-0.22693">
        <ele>39</ele>
        <time>2024-07-15T00:48:53.314Z</time>
      </trkpt>
      <trkpt lat="47.05203" lon="-0.22699">
        <ele>39.26</ele>
        <time>2024-07-15T00:49:04.113Z</time>
      </trkpt>
      <trkpt lat="47.05179" lon="-0.22727">
        <ele>40.43</ele>
        <time>2024-07-15T00:49:14.917Z</time>
      </trkpt>
      <trkpt lat="47.05164" lon="-0.22746">
        <ele>41</ele>
        <time>2024-07-15T00:49:25.724Z</time>
      </trkpt>
      <trkpt lat="47.05136" lon="-0.2278">
        <ele>40.34</ele>
        <time>2024-07-15T00:49:36.537Z</time>
      </trkpt>
      <trkpt lat="47.05123" lon="-0.22793">
        <ele>39.88</ele>
        <time>2024-07-15T00:49:47.352Z</time>
      </trkpt>
      <trkpt lat="47.05114" lon="-0.228">
        <ele>39.53</ele>
        <time>2024-07-15T00:49:58.169Z</time>
      </trkpt>
      <trkpt lat="47.05075" lon="-0.22819">
        <ele>39</ele>
        <time>2024-07-15T00:50:08.993Z</time>
      </trkpt>
      <trkpt lat="47.05056" lon="-0.22826">
        <ele>39.52</ele>
        <time>2024-07-15T00:50:19.820Z</time>
      </trkpt>
      <trkpt lat="47.05036" lon="-0.22825">
        <ele>40</ele>
        <time>2024-07-15T00:50:30.650Z</time>
      </trkpt>
      <trkpt lat="47.04882" lon="-0.22825">
        <ele>40.56</ele>
        <time>2024-07-15T00:50:41.505Z</time>
      </trkpt>
      <trkpt lat="47.04851" lon="-0.22823">
        <ele>40.9</ele>
        <time>2024-07-15T00:50:52.365Z</time>
      </trkpt>
      <trkpt lat="47.0483" lon="-0.22819">
        <ele>40.32</ele>
        <time>2024-07-15T00:51:03.228Z</time>
      </trkpt>
      <trkpt lat="47.04807" lon="-0.22814">
        <ele>39.56</ele>
        <time>2024-07-15T00:51:14.095Z</time>
      </trkpt>
      <trkpt lat="47.04742" lon="-0.22786">
        <ele>40.84</ele>
        <time>2024-07-15T00:51:24.973Z</time>
      </trkpt>
      <trkpt lat="47.04667" lon="-0.22755">
        <ele>40.98</ele>
        <time>2024-07-15T00:51:35.863Z</time>
      </trkpt>
      <trkpt lat="47.04661" lon="-0.22761">
        <ele>41.42</ele>
        <time>2024-07-15T00:51:46.754Z</time>
      </trkpt>
      <trkpt lat="47.04632" lon="-0.22767">
        <ele>41.06</ele>
        <time>2024-07-15T00:51:57.650Z</time>
      </trkpt>
      <trkpt lat="47.04606" lon="-0.22776">
        <ele>41</ele>
        <time>2024-07-15T00:52:08.550Z</time>
      </trkpt>
      <trkpt lat="47.0457" lon="-0.22792">
        <ele>41.03</ele>
        <time>2024-07-15T00:52:19.456Z</time>
      </trkpt>
      <trkpt lat="47.04545" lon="-0.22802">
        <ele>41.78</ele>
        <time>2024-07-15T00:52:30.366Z</time>
      </trkpt>
      <trkpt lat="47.04519" lon="-0.22808">
        <ele>41.65</ele>
        <time>2024-07-15T00:52:41.280Z</time>
      </trkpt>
      <trkpt lat="47.04492" lon="-0.22811">
        <ele>41.17</ele>
        <time>2024-07-15T00:52:52.199Z</time>
      </trkpt>
      <trkpt lat="47.04451" lon="-0.2281">
        <ele>39.7</ele>
        <time>2024-07-15T00:53:03.124Z</time>
      </trkpt>
      <trkpt lat="47.04383" lon="-0.22816">
        <ele>38.65</ele>
        <time>2024-07-15T00:53:14.060Z</time>
      </trkpt>
      <trkpt lat="47.0435" lon="-0.22819">
        <ele>38.94</ele>
        <time>2024-07-15T00:53:25.002Z</time>
      </trkpt>
      <trkpt lat="47.04319" lon="-0.22826">
        <ele>39.14</ele>
        <time>2024-07-15T00:53:35.949Z</time>
      </trkpt>
      <trkpt lat="47.04265" lon="-0.22832">
        <ele>42.04</ele>
        <time>2024-07-15T00:53:46.904Z</time>
      </trkpt>
      <trkpt lat="47.04246" lon="-0.22834">
        <ele>42.98</ele>
        <time>2024-07-15T00:53:57.862Z</time>
      </trkpt>
      <trkpt lat="47.04221" lon="-0.22827">
        <ele>43.06</ele>
        <time>2024-07-15T00:54:08.824Z</time>
      </trkpt>
      <trkpt lat="47.04193" lon="-0.22788">
        <ele>40.29</ele>
        <time>2024-07-15T00:54:19.793Z</time>
      </trkpt>
      <trkpt lat="47.04184" lon="-0.2277">
        <ele>39</ele>
        <time>2024-07-15T00:54:30.764Z</time>
      </trkpt>
      <trkpt lat="47.04132" lon="-0.22634">
        <ele>39.88</ele>
        <time>2024-07-15T00:54:41.752Z</time>
      </trkpt>
      <trkpt lat="47.04125" lon="-0.22617">
        <ele>40.52</ele>
        <time>2024-07-15T00:54:52.742Z</time>
      </trkpt>
      <trkpt lat="47.04111" lon="-0.22562">
        <ele>42.04</ele>
        <time>2024-07-15T00:55:03.739Z</time>
      </trkpt>
      <trkpt lat="47.04102" lon="-0.22545">
        <ele>43.09</ele>
        <time>2024-07-15T00:55:14.738Z</time>
      </trkpt>
      <trkpt lat="47.04097" lon="-0.22541">
        <ele>43.92</ele>
        <time>2024-07-15T00:55:25.738Z</time>
      </trkpt>
      <trkpt lat="47.04087" lon="-0.22537">
        <ele>44.97</ele>
        <time>2024-07-15T00:55:36.740Z</time>
      </trkpt>
      <trkpt lat="47.0408" lon="-0.22537">
        <ele>45.49</ele>
        <time>2024-07-15T00:55:47.743Z</time>
      </trkpt>
      <trkpt lat="47.04055" lon="-0.22545">
        <ele>45.35</ele>
        <time>2024-07-15T00:55:58.750Z</time>
      </trkpt>
      <trkpt lat="47.04035" lon="-0.22549">
        <ele>44.69</ele>
        <time>2024-07-15T00:56:09.760Z</time>
      </trkpt>
      <trkpt lat="47.03999" lon="-0.22553">
        <ele>43.81</ele>
        <time>2024-07-15T00:56:20.776Z</time>
      </trkpt>
      <trkpt lat="47.0396" lon="-0.22548">
        <ele>44.01</ele>
        <time>2024-07-15T00:56:31.798Z</time>
      </trkpt>
      <trkpt lat="47.03906" lon="-0.2255">
        <ele>48.48</ele>
        <time>2024-07-15T00:56:42.829Z</time>
      </trkpt>
      <trkpt lat="47.03863" lon="-0.22561">
        <ele>48.58</ele>
        <time>2024-07-15T00:56:53.867Z</time>
      </trkpt>
      <trkpt lat="47.03821" lon="-0.22579">
        <ele>46.74</ele>
        <time>2024-07-15T00:57:04.912Z</time>
      </trkpt>
      <trkpt lat="47.03815" lon="-0.22588">
        <ele>45.89</ele>
        <time>2024-07-15T00:57:15.958Z</time>
      </trkpt>
      <trkpt lat="47.03812" lon="-0.22599">
        <ele>45.05</ele>
        <time>2024-07-15T00:57:27.005Z</time>
      </trkpt>
      <trkpt lat="47.03813" lon="-0.22613">
        <ele>44.56</ele>
        <time>2024-07-15T00:57:38.054Z</time>
      </trkpt>
      <trkpt lat="47.03819" lon="-0.22641">
        <ele>43.04</ele>
        <time>2024-07-15T00:57:49.106Z</time>
      </trkpt>
      <trkpt lat="47.03822" lon="-0.22653">
        <ele>42.94</ele>
        <time>2024-07-15T00:58:00.159Z</time>
      </trkpt>
      <trkpt lat="47.0382" lon="-0.2267">
        <ele>42.63</ele>
        <time>2024-07-15T00:58:11.214Z</time>
      </trkpt>
      <trkpt lat="47.03815" lon="-0.22681">
        <ele>42.41</ele>
        <time>2024-07-15T00:58:22.271Z</time>
      </trkpt>
      <trkpt lat="47.03802" lon="-0.22693">
        <ele>42.47</ele>
        <time>2024-07-15T00:58:33.330Z</time>
      </trkpt>
      <trkpt lat="47.03784" lon="-0.22712">
        <ele>42.1</ele>
        <time>2024-07-15T00:58:44.393Z</time>
      </trkpt>
      <trkpt lat="47.03774" lon="-0.22715">
        <ele>42</ele>
        <time>2024-07-15T00:58:55.458Z</time>
      </trkpt>
      <trkpt lat="47.0376" lon="-0.22716">
        <ele>42.18</ele>
        <time>2024-07-15T00:59:06.525Z</time>
      </trkpt>
      <trkpt lat="47.03752" lon="-0.22718">
        <ele>42.46</ele>
        <time>2024-07-15T00:59:17.593Z</time>
      </trkpt>
      <trkpt lat="47.03747" lon="-0.22725">
        <ele>42.63</ele>
        <time>2024-07-15T00:59:28.662Z</time>
      </trkpt>
      <trkpt lat="47.03745" lon="-0.22733">
        <ele>42.72</ele>
        <time>2024-07-15T00:59:39.732Z</time>
      </trkpt>
      <trkpt lat="47.03742" lon="-0.22758">
        <ele>42.81</ele>
        <time>2024-07-15T00:59:50.805Z</time>
      </trkpt>
      <trkpt lat="47.03745" lon="-0.22778">
        <ele>42.7</ele>
        <time>2024-07-15T01:00:01.880Z</time>
      </trkpt>
      <trkpt lat="47.03752" lon="-0.22799">
        <ele>43</ele>
        <time>2024-07-15T01:00:12.958Z</time>
      </trkpt>
      <trkpt lat="47.0376" lon="-0.22822">
        <ele>43.67</ele>
        <time>2024-07-15T01:00:24.038Z</time>
      </trkpt>
      <trkpt lat="47.03779" lon="-0.22927">
        <ele>42.84</ele>
        <time>2024-07-15T01:00:35.130Z</time>
      </trkpt>
      <trkpt lat="47.03786" lon="-0.22979">
        <ele>40.73</ele>
        <time>2024-07-15T01:00:46.228Z</time>
      </trkpt>
      <trkpt lat="47.03789" lon="-0.23021">
        <ele>40.12</ele>
        <time>2024-07-15T01:00:57.331Z</time>
      </trkpt>
      <trkpt lat="47.03791" lon="-0.23047">
        <ele>40.06</ele>
        <time>2024-07-15T01:01:08.437Z</time>
      </trkpt>
      <trkpt lat="47.03791" lon="-0.23061">
        <ele>40.06</ele>
        <time>2024-07-15T01:01:19.544Z</time>
      </trkpt>
      <trkpt lat="47.03789" lon="-0.23069">
        <ele>40.11</ele>
        <time>2024-07-15T01:01:30.652Z</time>
      </trkpt>
      <trkpt lat="47.03786" lon="-0.23075">
        <ele>40.25</ele>
        <time>2024-07-15T01:01:41.761Z</time>
      </trkpt>
      <trkpt lat="47.03782" lon="-0.23079">
        <ele>40.38</ele>
        <time>2024-07-15T01:01:52.871Z</time>
      </trkpt>
      <trkpt lat="47.03774" lon="-0.23081">
        <ele>40.66</ele>
        <time>2024-07-15T01:02:03.982Z</time>
      </trkpt>
      <trkpt lat="47.03738" lon="-0.23084">
        <ele>41.96</ele>
        <time>2024-07-15T01:02:15.099Z</time>
      </trkpt>
      <trkpt lat="47.03658" lon="-0.23096">
        <ele>41.7</ele>
        <time>2024-07-15T01:02:26.229Z</time>
      </trkpt>
      <trkpt lat="47.03639" lon="-0.23103">
        <ele>42.52</ele>
        <time>2024-07-15T01:02:37.362Z</time>
      </trkpt>
      <trkpt lat="47.03621" lon="-0.23113">
        <ele>42.46</ele>
        <time>2024-07-15T01:02:48.498Z</time>
      </trkpt>
      <trkpt lat="47.0359" lon="-0.23144">
        <ele>40.86</ele>
        <time>2024-07-15T01:02:59.640Z</time>
      </trkpt>
      <trkpt lat="47.03573" lon="-0.23165">
        <ele>40.89</ele>
        <time>2024-07-15T01:03:10.785Z</time>
      </trkpt>
      <trkpt lat="47.03558" lon="-0.23185">
        <ele>41.43</ele>
        <time>2024-07-15T01:03:21.934Z</time>
      </trkpt>
      <trkpt lat="47.03531" lon="-0.23239">
        <ele>40.57</ele>
        <time>2024-07-15T01:03:33.090Z</time>
      </trkpt>
      <trkpt lat="47.03498" lon="-0.23304">
        <ele>41</ele>
        <time>2024-07-15T01:03:44.255Z</time>
      </trkpt>
      <trkpt lat="47.03471" lon="-0.23348">
        <ele>42.39</ele>
        <time>2024-07-15T01:03:55.426Z</time>
      </trkpt>
      <trkpt lat="47.03461" lon="-0.23362">
        <ele>43.23</ele>
        <time>2024-07-15T01:04:06.600Z</time>
      </trkpt>
      <trkpt lat="47.03453" lon="-0.23369">
        <ele>43.54</ele>
        <time>2024-07-15T01:04:17.775Z</time>
      </trkpt>
      <trkpt lat="47.03445" lon="-0.23373">
        <ele>43.67</ele>
        <time>2024-07-15T01:04:28.951Z</time>
      </trkpt>
      <trkpt lat="47.03442" lon="-0.23374">
        <ele>43.71</ele>
        <time>2024-07-15T01:04:40.128Z</time>
      </trkpt>
      <trkpt lat="47.03438" lon="-0.23374">
        <ele>43.75</ele>
        <time>2024-07-15T01:04:51.305Z</time>
      </trkpt>
      <trkpt lat="47.03421" lon="-0.23375">
        <ele>44</ele>
        <time>2024-07-15T01:05:02.485Z</time>
      </trkpt>
      <trkpt lat="47.03409" lon="-0.23376">
        <ele>44</ele>
        <time>2024-07-15T01:05:13.667Z</time>
      </trkpt>
      <trkpt lat="47.03397" lon="-0.23378">
        <ele>44</ele>
        <time>2024-07-15T01:05:24.851Z</time>
      </trkpt>
      <trkpt lat="47.03374" lon="-0.23382">
        <ele>43.93</ele>
        <time>2024-07-15T01:05:36.039Z</time>
      </trkpt>
      <trkpt lat="47.03326" lon="-0.23387">
        <ele>42.21</ele>
        <time>2024-07-15T01:05:47.234Z</time>
      </trkpt>
      <trkpt lat="47.03319" lon="-0.23388">
        <ele>42</ele>
        <time>2024-07-15T01:05:58.431Z</time>
      </trkpt>
      <trkpt lat="47.03313" lon="-0.2339">
        <ele>42</ele>
        <time>2024-07-15T01:06:09.629Z</time>
      </trkpt>
      <trkpt lat="47.03295" lon="-0.23397">
        <ele>42</ele>
        <time>2024-07-15T01:06:20.830Z</time>
      </trkpt>
      <trkpt lat="47.03272" lon="-0.23406">
        <ele>42.73</ele>
        <time>2024-07-15T01:06:32.034Z</time>
      </trkpt>
      <trkpt lat="47.03219" lon="-0.23425">
        <ele>41.43</ele>
        <time>2024-07-15T01:06:43.247Z</time>
      </trkpt>
      <trkpt lat="47.03207" lon="-0.23429">
        <ele>41.29</ele>
        <time>2024-07-15T01:06:54.462Z</time>
      </trkpt>
      <trkpt lat="47.03199" lon="-0.23431">
        <ele>41.22</ele>
        <time>2024-07-15T01:07:05.678Z</time>
      </trkpt>
      <trkpt lat="47.03191" lon="-0.23432">
        <ele>41.19</ele>
        <time>2024-07-15T01:07:16.896Z</time>
      </trkpt>
      <trkpt lat="47.03182" lon="-0.23431">
        <ele>41.02</ele>
        <time>2024-07-15T01:07:28.115Z</time>
      </trkpt>
      <trkpt lat="47.03176" lon="-0.2343">
        <ele>41</ele>
        <time>2024-07-15T01:07:39.335Z</time>
      </trkpt>
      <trkpt lat="47.03159" lon="-0.23426">
        <ele>41</ele>
        <time>2024-07-15T01:07:50.558Z</time>
      </trkpt>
      <trkpt lat="47.03152" lon="-0.23425">
        <ele>41.05</ele>
        <time>2024-07-15T01:08:01.782Z</time>
      </trkpt>
      <trkpt lat="47.03121" lon="-0.23421">
        <ele>42.16</ele>
        <time>2024-07-15T01:08:13.011Z</time>
      </trkpt>
      <trkpt lat="47.03096" lon="-0.23425">
        <ele>42.46</ele>
        <time>2024-07-15T01:08:24.244Z</time>
      </trkpt>
      <trkpt lat="47.0308" lon="-0.23428">
        <ele>42.02</ele>
        <time>2024-07-15T01:08:35.480Z</time>
      </trkpt>
      <trkpt lat="47.03067" lon="-0.23437">
        <ele>42</ele>
        <time>2024-07-15T01:08:46.718Z</time>
      </trkpt>
      <trkpt lat="47.03037" lon="-0.23472">
        <ele>42.86</ele>
        <time>2024-07-15T01:08:57.962Z</time>
      </trkpt>
      <trkpt lat="47.03014" lon="-0.23497">
        <ele>42</ele>
        <time>2024-07-15T01:09:09.211Z</time>
      </trkpt>
      <trkpt lat="47.02994" lon="-0.23531">
        <ele>42</ele>
        <time>2024-07-15T01:09:20.465Z</time>
      </trkpt>
      <trkpt lat="47.02976" lon="-0.23552">
        <ele>42.54</ele>
        <time>2024-07-15T01:09:31.722Z</time>
      </trkpt>
      <trkpt lat="47.02927" lon="-0.23602">
        <ele>44.77</ele>
        <time>2024-07-15T01:09:42.989Z</time>
      </trkpt>
      <trkpt lat="47.02869" lon="-0.23682">
        <ele>44.54</ele>
        <time>2024-07-15T01:09:54.269Z</time>
      </trkpt>
      <trkpt lat="47.02764" lon="-0.2385">
        <ele>44.05</ele>
        <time>2024-07-15T01:10:05.574Z</time>
      </trkpt>
      <trkpt lat="47.0264" lon="-0.24062">
        <ele>44.52</ele>
        <time>2024-07-15T01:10:16.909Z</time>
      </trkpt>
      <trkpt lat="47.02609" lon="-0.24116">
        <ele>43</ele>
        <time>2024-07-15T01:10:28.252Z</time>
      </trkpt>
      <trkpt lat="47.02576" lon="-0.24187">
        <ele>42.8</ele>
        <time>2024-07-15T01:10:39.604Z</time>
      </trkpt>
      <trkpt lat="47.02559" lon="-0.2423">
        <ele>43.14</ele>
        <time>2024-07-15T01:10:50.962Z</time>
      </trkpt>
      <trkpt lat="47.0255" lon="-0.24253">
        <ele>43.26</ele>
        <time>2024-07-15T01:11:02.322Z</time>
      </trkpt>
      <trkpt lat="47.02541" lon="-0.24269">
        <ele>42.94</ele>
        <time>2024-07-15T01:11:13.685Z</time>
      </trkpt>
      <trkpt lat="47.0253" lon="-0.24283">
        <ele>43</ele>
        <time>2024-07-15T01:11:25.050Z</time>
      </trkpt>
      <trkpt lat="47.02512" lon="-0.243">
        <ele>43</ele>
        <time>2024-07-15T01:11:36.418Z</time>
      </trkpt>
      <trkpt lat="47.02496" lon="-0.24319">
        <ele>43.05</ele>
        <time>2024-07-15T01:11:47.790Z</time>
      </trkpt>
      <trkpt lat="47.0248" lon="-0.24341">
        <ele>42.76</ele>
        <time>2024-07-15T01:11:59.165Z</time>
      </trkpt>
      <trkpt lat="47.02408" lon="-0.24444">
        <ele>43.09</ele>
        <time>2024-07-15T01:12:10.556Z</time>
      </trkpt>
      <trkpt lat="47.02396" lon="-0.24461">
        <ele>43.85</ele>
        <time>2024-07-15T01:12:21.950Z</time>
      </trkpt>
      <trkpt lat="47.02385" lon="-0.24472">
        <ele>44.23</ele>
        <time>2024-07-15T01:12:33.346Z</time>
      </trkpt>
      <trkpt lat="47.02378" lon="-0.24478">
        <ele>44.46</ele>
        <time>2024-07-15T01:12:44.744Z</time>
      </trkpt>
      <trkpt lat="47.02348" lon="-0.24502">
        <ele>44</ele>
        <time>2024-07-15T01:12:56.147Z</time>
      </trkpt>
      <trkpt lat="47.02324" lon="-0.24521">
        <ele>44</ele>
        <time>2024-07-15T01:13:07.554Z</time>
      </trkpt>
      <trkpt lat="47.02319" lon="-0.24525">
        <ele>44</ele>
        <time>2024-07-15T01:13:18.962Z</time>
      </trkpt>
      <trkpt lat="47.02308" lon="-0.24532">
        <ele>44</ele>
        <time>2024-07-15T01:13:30.372Z</time>
      </trkpt>
      <trkpt lat="47.02308" lon="-0.24585">
        <ele>43.57</ele>
        <time>2024-07-15T01:13:41.788Z</time>
      </trkpt>
      <trkpt lat="47.02307" lon="-0.24613">
        <ele>42.68</ele>
        <time>2024-07-15T01:13:53.207Z</time>
      </trkpt>
      <trkpt lat="47.02305" lon="-0.24634">
        <ele>41.91</ele>
        <time>2024-07-15T01:14:04.628Z</time>
      </trkpt>
      <trkpt lat="47.02299" lon="-0.24656">
        <ele>41.13</ele>
        <time>2024-07-15T01:14:16.052Z</time>
      </trkpt>
      <trkpt lat="47.02278" lon="-0.247">
        <ele>42.04</ele>
        <time>2024-07-15T01:14:27.482Z</time>
      </trkpt>
      <trkpt lat="47.02246" lon="-0.24786">
        <ele>43.12</ele>
        <time>2024-07-15T01:14:38.923Z</time>
      </trkpt>
      <trkpt lat="47.02224" lon="-0.24854">
        <ele>42</ele>
        <time>2024-07-15T01:14:50.372Z</time>
      </trkpt>
      <trkpt lat="47.02209" lon="-0.24907">
        <ele>41</ele>
        <time>2024-07-15T01:15:01.827Z</time>
      </trkpt>
      <trkpt lat="47.02176" lon="-0.24993">
        <ele>42.18</ele>
        <time>2024-07-15T01:15:13.293Z</time>
      </trkpt>
      <trkpt lat="47.02151" lon="-0.25062">
        <ele>43</ele>
        <time>2024-07-15T01:15:24.767Z</time>
      </trkpt>
      <trkpt lat="47.0212" lon="-0.25139">
        <ele>44.5</ele>
        <time>2024-07-15T01:15:36.251Z</time>
      </trkpt>
      <trkpt lat="47.02098" lon="-0.25183">
        <ele>46</ele>
        <time>2024-07-15T01:15:47.741Z</time>
      </trkpt>
      <trkpt lat="47.02061" lon="-0.25253">
        <ele>46.34</ele>
        <time>2024-07-15T01:15:59.241Z</time>
      </trkpt>
      <trkpt lat="47.02044" lon="-0.25285">
        <ele>47</ele>
        <time>2024-07-15T01:16:10.745Z</time>
      </trkpt>
      <trkpt lat="47.02032" lon="-0.25317">
        <ele>46.93</ele>
        <time>2024-07-15T01:16:22.253Z</time>
      </trkpt>
      <trkpt lat="47.02018" lon="-0.25369">
        <ele>45.71</ele>
        <time>2024-07-15T01:16:33.767Z</time>
      </trkpt>
      <trkpt lat="47.02004" lon="-0.25405">
        <ele>44.17</ele>
        <time>2024-07-15T01:16:45.286Z</time>
      </trkpt>
      <trkpt lat="47.0199" lon="-0.25435">
        <ele>44</ele>
        <time>2024-07-15T01:16:56.809Z</time>
      </trkpt>
      <trkpt lat="47.01974" lon="-0.25465">
        <ele>44</ele>
        <time>2024-07-15T01:17:08.336Z</time>
      </trkpt>
      <trkpt lat="47.01957" lon="-0.25492">
        <ele>44</ele>
        <time>2024-07-15T01:17:19.867Z</time>
      </trkpt>
      <trkpt lat="47.01937" lon="-0.25515">
        <ele>43.22</ele>
        <time>2024-07-15T01:17:31.402Z</time>
      </trkpt>
      <trkpt lat="47.01914" lon="-0.25537">
        <ele>43.04</ele>
        <time>2024-07-15T01:17:42.942Z</time>
      </trkpt>
      <trkpt lat="47.01903" lon="-0.25544">
        <ele>43.16</ele>
        <time>2024-07-15T01:17:54.483Z</time>
      </trkpt>
      <trkpt lat="47.01893" lon="-0.25551">
        <ele>43.31</ele>
        <time>2024-07-15T01:18:06.026Z</time>
      </trkpt>
      <trkpt lat="47.01885" lon="-0.25557">
        <ele>43.4</ele>
        <time>2024-07-15T01:18:17.571Z</time>
      </trkpt>
      <trkpt lat="47.01875" lon="-0.25561">
        <ele>43.55</ele>
        <time>2024-07-15T01:18:29.117Z</time>
      </trkpt>
      <trkpt lat="47.01828" lon="-0.25583">
        <ele>43.72</ele>
        <time>2024-07-15T01:18:40.671Z</time>
      </trkpt>
      <trkpt lat="47.01807" lon="-0.25591">
        <ele>44.47</ele>
        <time>2024-07-15T01:18:52.229Z</time>
      </trkpt>
      <trkpt lat="47.01784" lon="-0.25599">
        <ele>45.5</ele>
        <time>2024-07-15T01:19:03.791Z</time>
      </trkpt>
      <trkpt lat="47.01763" lon="-0.25602">
        <ele>45.92</ele>
        <time>2024-07-15T01:19:15.356Z</time>
      </trkpt>
      <trkpt lat="47.01741" lon="-0.25604">
        <ele>45.15</ele>
        <time>2024-07-15T01:19:26.924Z</time>
      </trkpt>
      <trkpt lat="47.0166" lon="-0.25602">
        <ele>45.83</ele>
        <time>2024-07-15T01:19:38.505Z</time>
      </trkpt>
      <trkpt lat="47.0162" lon="-0.25608">
        <ele>45</ele>
        <time>2024-07-15T01:19:50.093Z</time>
      </trkpt>
      <trkpt lat="47.01607" lon="-0.25612">
        <ele>45</ele>
        <time>2024-07-15T01:20:01.683Z</time>
      </trkpt>
      <trkpt lat="47.01594" lon="-0.2562">
        <ele>44.87</ele>
        <time>2024-07-15T01:20:13.275Z</time>
      </trkpt>
      <trkpt lat="47.01581" lon="-0.25629">
        <ele>44.4</ele>
        <time>2024-07-15T01:20:24.869Z</time>
      </trkpt>
      <trkpt lat="47.01557" lon="-0.25648">
        <ele>43.44</ele>
        <time>2024-07-15T01:20:36.468Z</time>
      </trkpt>
      <trkpt lat="47.01462" lon="-0.25717">
        <ele>45.8</ele>
        <time>2024-07-15T01:20:48.084Z</time>
      </trkpt>
      <trkpt lat="47.01425" lon="-0.25738">
        <ele>45</ele>
        <time>2024-07-15T01:20:59.706Z</time>
      </trkpt>
      <trkpt lat="47.01403" lon="-0.25749">
        <ele>44.99</ele>
        <time>2024-07-15T01:21:11.332Z</time>
      </trkpt>
      <trkpt lat="47.01377" lon="-0.2576">
        <ele>44.41</ele>
        <time>2024-07-15T01:21:22.962Z</time>
      </trkpt>
      <trkpt lat="47.01338" lon="-0.2577">
        <ele>43.03</ele>
        <time>2024-07-15T01:21:34.599Z</time>
      </trkpt>
      <trkpt lat="47.01314" lon="-0.25774">
        <ele>43.3</ele>
        <time>2024-07-15T01:21:46.239Z</time>
      </trkpt>
      <trkpt lat="47.01289" lon="-0.25776">
        <ele>44.93</ele>
        <time>2024-07-15T01:21:57.884Z</time>
      </trkpt>
      <trkpt lat="47.01262" lon="-0.25774">
        <ele>44.9</ele>
        <time>2024-07-15T01:22:09.533Z</time>
      </trkpt>
      <trkpt lat="47.01244" lon="-0.25767">
        <ele>44.09</ele>
        <time>2024-07-15T01:22:21.185Z</time>
      </trkpt>
      <trkpt lat="47.01222" lon="-0.25754">
        <ele>42.84</ele>
        <time>2024-07-15T01:22:32.841Z</time>
      </trkpt>
      <trkpt lat="47.01199" lon="-0.25732">
        <ele>41.65</ele>
        <time>2024-07-15T01:22:44.501Z</time>
      </trkpt>
      <trkpt lat="47.01181" lon="-0.25708">
        <ele>41.26</ele>
        <time>2024-07-15T01:22:56.165Z</time>
      </trkpt>
      <trkpt lat="47.01166" lon="-0.25684">
        <ele>41.6</ele>
        <time>2024-07-15T01:23:07.833Z</time>
      </trkpt>
      <trkpt lat="47.01163" lon="-0.25679">
        <ele>41.7</ele>
        <time>2024-07-15T01:23:19.501Z</time>
      </trkpt>
      <trkpt lat="47.01137" lon="-0.25621">
        <ele>42</ele>
        <time>2024-07-15T01:23:31.177Z</time>
      </trkpt>
      <trkpt lat="47.01127" lon="-0.25595">
        <ele>42.04</ele>
        <time>2024-07-15T01:23:42.856Z</time>
      </trkpt>
      <trkpt lat="47.01118" lon="-0.25572">
        <ele>42.16</ele>
        <time>2024-07-15T01:23:54.538Z</time>
      </trkpt>
      <trkpt lat="47.01109" lon="-0.2554">
        <ele>42.71</ele>
        <time>2024-07-15T01:24:06.224Z</time>
      </trkpt>
      <trkpt lat="47.01107" lon="-0.25534">
        <ele>42.86</ele>
        <time>2024-07-15T01:24:17.910Z</time>
      </trkpt>
      <trkpt lat="47.01104" lon="-0.25528">
        <ele>42.97</ele>
        <time>2024-07-15T01:24:29.597Z</time>
      </trkpt>
      <trkpt lat="47.01101" lon="-0.25524">
        <ele>43.01</ele>
        <time>2024-07-15T01:24:41.285Z</time>
      </trkpt>
      <trkpt lat="47.01096" lon="-0.25518">
        <ele>43.26</ele>
        <time>2024-07-15T01:24:52.974Z</time>
      </trkpt>
      <trkpt lat="47.01091" lon="-0.25514">
        <ele>43.75</ele>
        <time>2024-07-15T01:25:04.664Z</time>
      </trkpt>
      <trkpt lat="47.0108" lon="-0.25506">
        <ele>44.17</ele>
        <time>2024-07-15T01:25:16.356Z</time>
      </trkpt>
      <trkpt lat="47.01074" lon="-0.25502">
        <ele>43.62</ele>
        <time>2024-07-15T01:25:28.049Z</time>
      </trkpt>
      <trkpt lat="47.01071" lon="-0.255">
        <ele>43.33</ele>
        <time>2024-07-15T01:25:39.742Z</time>
      </trkpt>
      <trkpt lat="47.01068" lon="-0.25498">
        <ele>43.09</ele>
        <time>2024-07-15T01:25:51.436Z</time>
      </trkpt>
      <trkpt lat="47.01064" lon="-0.2549">
        <ele>43</ele>
        <time>2024-07-15T01:26:03.131Z</time>
      </trkpt>
      <trkpt lat="47.01032" lon="-0.25426">
        <ele>42.41</ele>
        <time>2024-07-15T01:26:14.835Z</time>
      </trkpt>
      <trkpt lat="47.01003" lon="-0.25368">
        <ele>43</ele>
        <time>2024-07-15T01:26:26.546Z</time>
      </trkpt>
      <trkpt lat="47.00974" lon="-0.25321">
        <ele>43.46</ele>
        <time>2024-07-15T01:26:38.264Z</time>
      </trkpt>
      <trkpt lat="47.00933" lon="-0.25253">
        <ele>44.08</ele>
        <time>2024-07-15T01:26:49.992Z</time>
      </trkpt>
      <trkpt lat="47.00852" lon="-0.2515">
        <ele>45.35</ele>
        <time>2024-07-15T01:27:01.738Z</time>
      </trkpt>
      <trkpt lat="47.00775" lon="-0.25054">
        <ele>43.61</ele>
        <time>2024-07-15T01:27:13.500Z</time>
      </trkpt>
      <trkpt lat="47.00717" lon="-0.24965">
        <ele>47.89</ele>
        <time>2024-07-15T01:27:25.275Z</time>
      </trkpt>
      <trkpt lat="47.00684" lon="-0.24902">
        <ele>47.31</ele>
        <time>2024-07-15T01:27:37.059Z</time>
      </trkpt>
      <trkpt lat="47.00623" lon="-0.2481">
        <ele>53.79</ele>
        <time>2024-07-15T01:27:48.857Z</time>
      </trkpt>
      <trkpt lat="47.00601" lon="-0.24779">
        <ele>54.7</ele>
        <time>2024-07-15T01:28:00.660Z</time>
      </trkpt>
      <trkpt lat="47.00576" lon="-0.24748">
        <ele>52.95</ele>
        <time>2024-07-15T01:28:12.468Z</time>
      </trkpt>
      <trkpt lat="47.0055" lon="-0.24719">
        <ele>51.09</ele>
        <time>2024-07-15T01:28:24.281Z</time>
      </trkpt>
      <trkpt lat="47.00535" lon="-0.247">
        <ele>50.68</ele>
        <time>2024-07-15T01:28:36.098Z</time>
      </trkpt>
      <trkpt lat="47.00513" lon="-0.24677">
        <ele>50.88</ele>
        <time>2024-07-15T01:28:47.919Z</time>
      </trkpt>
      <trkpt lat="47.00506" lon="-0.24668">
        <ele>50.9</ele>
        <time>2024-07-15T01:28:59.741Z</time>
      </trkpt>
      <trkpt lat="47.005" lon="-0.24659">
        <ele>51</ele>
        <time>2024-07-15T01:29:11.565Z</time>
      </trkpt>
      <trkpt lat="47.00495" lon="-0.24645">
        <ele>52.03</ele>
        <time>2024-07-15T01:29:23.390Z</time>
      </trkpt>
      <trkpt lat="47.00488" lon="-0.24634">
        <ele>52.11</ele>
        <time>2024-07-15T01:29:35.217Z</time>
      </trkpt>
      <trkpt lat="47.00479" lon="-0.24624">
        <ele>52.9</ele>
        <time>2024-07-15T01:29:47.046Z</time>
      </trkpt>
      <trkpt lat="47.00463" lon="-0.24612">
        <ele>52.28</ele>
        <time>2024-07-15T01:29:58.878Z</time>
      </trkpt>
      <trkpt lat="47.00456" lon="-0.24608">
        <ele>51.44</ele>
        <time>2024-07-15T01:30:10.711Z</time>
      </trkpt>
      <trkpt lat="47.00448" lon="-0.24605">
        <ele>50.81</ele>
        <time>2024-07-15T01:30:22.545Z</time>
      </trkpt>
      <trkpt lat="47.00438" lon="-0.24603">
        <ele>50.09</ele>
        <time>2024-07-15T01:30:34.381Z</time>
      </trkpt>
      <trkpt lat="47.00429" lon="-0.24602">
        <ele>49.3</ele>
        <time>2024-07-15T01:30:46.218Z</time>
      </trkpt>
      <trkpt lat="47.00419" lon="-0.24603">
        <ele>48.69</ele>
        <time>2024-07-15T01:30:58.057Z</time>
      </trkpt>
      <trkpt lat="47.0041" lon="-0.24604">
        <ele>48.25</ele>
        <time>2024-07-15T01:31:09.897Z</time>
      </trkpt>
      <trkpt lat="47.00387" lon="-0.24604">
        <ele>47.99</ele>
        <time>2024-07-15T01:31:21.741Z</time>
      </trkpt>
      <trkpt lat="47.00362" lon="-0.24603">
        <ele>48.09</ele>
        <time>2024-07-15T01:31:33.589Z</time>
      </trkpt>
      <trkpt lat="47.00313" lon="-0.246">
        <ele>48.29</ele>
        <time>2024-07-15T01:31:45.445Z</time>
      </trkpt>
      <trkpt lat="47.00279" lon="-0.24596">
        <ele>47.82</ele>
        <time>2024-07-15T01:31:57.306Z</time>
      </trkpt>
      <trkpt lat="47.00248" lon="-0.24593">
        <ele>46.42</ele>
        <time>2024-07-15T01:32:09.172Z</time>
      </trkpt>
      <trkpt lat="47.00225" lon="-0.24589">
        <ele>46.55</ele>
        <time>2024-07-15T01:32:21.042Z</time>
      </trkpt>
      <trkpt lat="47.00204" lon="-0.24582">
        <ele>45.84</ele>
        <time>2024-07-15T01:32:32.916Z</time>
      </trkpt>
      <trkpt lat="47.00123" lon="-0.24554">
        <ele>44.86</ele>
        <time>2024-07-15T01:32:44.803Z</time>
      </trkpt>
      <trkpt lat="47.00109" lon="-0.24551">
        <ele>45</ele>
        <time>2024-07-15T01:32:56.692Z</time>
      </trkpt>
      <trkpt lat="47.00092" lon="-0.24549">
        <ele>44.82</ele>
        <time>2024-07-15T01:33:08.584Z</time>
      </trkpt>
      <trkpt lat="47.00052" lon="-0.24547">
        <ele>44.13</ele>
        <time>2024-07-15T01:33:20.482Z</time>
      </trkpt>
      <trkpt lat="46.99976" lon="-0.24537">
        <ele>46.75</ele>
        <time>2024-07-15T01:33:32.392Z</time>
      </trkpt>
      <trkpt lat="46.99901" lon="-0.24529">
        <ele>47</ele>
        <time>2024-07-15T01:33:44.315Z</time>
      </trkpt>
      <trkpt lat="46.99871" lon="-0.24525">
        <ele>48.14</ele>
        <time>2024-07-15T01:33:56.242Z</time>
      </trkpt>
      <trkpt lat="46.9985" lon="-0.24526">
        <ele>48.92</ele>
        <time>2024-07-15T01:34:08.173Z</time>
      </trkpt>
      <trkpt lat="46.99847" lon="-0.24534">
        <ele>49</ele>
        <time>2024-07-15T01:34:20.105Z</time>
      </trkpt>
      <trkpt lat="46.9984" lon="-0.2455">
        <ele>49</ele>
        <time>2024-07-15T01:34:32.039Z</time>
      </trkpt>
      <trkpt lat="46.99836" lon="-0.24556">
        <ele>49</ele>
        <time>2024-07-15T01:34:43.974Z</time>
      </trkpt>
      <trkpt lat="46.99829" lon="-0.24559">
        <ele>49</ele>
        <time>2024-07-15T01:34:55.910Z</time>
      </trkpt>
      <trkpt lat="46.99818" lon="-0.24563">
        <ele>48.93</ele>
        <time>2024-07-15T01:35:07.848Z</time>
      </trkpt>
      <trkpt lat="46.998" lon="-0.24569">
        <ele>47.61</ele>
        <time>2024-07-15T01:35:19.789Z</time>
      </trkpt>
      <trkpt lat="46.9978" lon="-0.24573">
        <ele>47.11</ele>
        <time>2024-07-15T01:35:31.733Z</time>
      </trkpt>
      <trkpt lat="46.99755" lon="-0.24575">
        <ele>47.35</ele>
        <time>2024-07-15T01:35:43.681Z</time>
      </trkpt>
      <trkpt lat="46.99746" lon="-0.24578">
        <ele>47.58</ele>
        <time>2024-07-15T01:35:55.630Z</time>
      </trkpt>
      <trkpt lat="46.99738" lon="-0.24582">
        <ele>47.73</ele>
        <time>2024-07-15T01:36:07.581Z</time>
      </trkpt>
      <trkpt lat="46.9973" lon="-0.24586">
        <ele>47.43</ele>
        <time>2024-07-15T01:36:19.533Z</time>
      </trkpt>
      <trkpt lat="46.99721" lon="-0.24589">
        <ele>46.98</ele>
        <time>2024-07-15T01:36:31.487Z</time>
      </trkpt>
      <trkpt lat="46.99714" lon="-0.24589">
        <ele>46.74</ele>
        <time>2024-07-15T01:36:43.442Z</time>
      </trkpt>
      <trkpt lat="46.99707" lon="-0.24588">
        <ele>46.55</ele>
        <time>2024-07-15T01:36:55.398Z</time>
      </trkpt>
      <trkpt lat="46.99697" lon="-0.24586">
        <ele>46.32</ele>
        <time>2024-07-15T01:37:07.355Z</time>
      </trkpt>
      <trkpt lat="46.99685" lon="-0.24583">
        <ele>46.5</ele>
        <time>2024-07-15T01:37:19.314Z</time>
      </trkpt>
      <trkpt lat="46.99676" lon="-0.24582">
        <ele>46.56</ele>
        <time>2024-07-15T01:37:31.275Z</time>
      </trkpt>
      <trkpt lat="46.99647" lon="-0.24586">
        <ele>47.62</ele>
        <time>2024-07-15T01:37:43.240Z</time>
      </trkpt>
      <trkpt lat="46.99585" lon="-0.24601">
        <ele>48.77</ele>
        <time>2024-07-15T01:37:55.216Z</time>
      </trkpt>
      <trkpt lat="46.99555" lon="-0.24608">
        <ele>47.7</ele>
        <time>2024-07-15T01:38:07.196Z</time>
      </trkpt>
      <trkpt lat="46.99527" lon="-0.24611">
        <ele>48.22</ele>
        <time>2024-07-15T01:38:19.181Z</time>
      </trkpt>
      <trkpt lat="46.99517" lon="-0.24601">
        <ele>50.13</ele>
        <time>2024-07-15T01:38:31.168Z</time>
      </trkpt>
      <trkpt lat="46.9951" lon="-0.24606">
        <ele>50.1</ele>
        <time>2024-07-15T01:38:43.156Z</time>
      </trkpt>
      <trkpt lat="46.99507" lon="-0.24608">
        <ele>50.08</ele>
        <time>2024-07-15T01:38:55.145Z</time>
      </trkpt>
      <trkpt lat="46.995" lon="-0.24612">
        <ele>50.14</ele>
        <time>2024-07-15T01:39:07.135Z</time>
      </trkpt>
      <trkpt lat="46.99492" lon="-0.24618">
        <ele>50.11</ele>
        <time>2024-07-15T01:39:19.126Z</time>
      </trkpt>
      <trkpt lat="46.99482" lon="-0.24623">
        <ele>50.06</ele>
        <time>2024-07-15T01:39:31.119Z</time>
      </trkpt>
      <trkpt lat="46.99466" lon="-0.24627">
        <ele>50.2</ele>
        <time>2024-07-15T01:39:43.115Z</time>
      </trkpt>
      <trkpt lat="46.99442" lon="-0.24635">
        <ele>49.09</ele>
        <time>2024-07-15T01:39:55.114Z</time>
      </trkpt>
      <trkpt lat="46.99426" lon="-0.24643">
        <ele>47.83</ele>
        <time>2024-07-15T01:40:07.116Z</time>
      </trkpt>
      <trkpt lat="46.99395" lon="-0.24662">
        <ele>46.26</ele>
        <time>2024-07-15T01:40:19.124Z</time>
      </trkpt>
      <trkpt lat="46.99387" lon="-0.2466">
        <ele>47.12</ele>
        <time>2024-07-15T01:40:31.133Z</time>
      </trkpt>
      <trkpt lat="46.99382" lon="-0.24665">
        <ele>46.87</ele>
        <time>2024-07-15T01:40:43.143Z</time>
      </trkpt>
      <trkpt lat="46.99378" lon="-0.2467">
        <ele>46.65</ele>
        <time>2024-07-15T01:40:55.154Z</time>
      </trkpt>
      <trkpt lat="46.9934" lon="-0.24684">
        <ele>47.8</ele>
        <time>2024-07-15T01:41:07.171Z</time>
      </trkpt>
      <trkpt lat="46.993" lon="-0.24701">
        <ele>49.19</ele>
        <time>2024-07-15T01:41:19.195Z</time>
      </trkpt>
      <trkpt lat="46.99277" lon="-0.24721">
        <ele>49.33</ele>
        <time>2024-07-15T01:41:31.223Z</time>
      </trkpt>
      <trkpt lat="46.99237" lon="-0.24736">
        <ele>48.49</ele>
        <time>2024-07-15T01:41:43.258Z</time>
      </trkpt>
      <trkpt lat="46.9919" lon="-0.24756">
        <ele>48</ele>
        <time>2024-07-15T01:41:55.300Z</time>
      </trkpt>
      <trkpt lat="46.99178" lon="-0.24758">
        <ele>48</ele>
        <time>2024-07-15T01:42:07.344Z</time>
      </trkpt>
      <trkpt lat="46.99157" lon="-0.24744">
        <ele>48.8</ele>
        <time>2024-07-15T01:42:19.392Z</time>
      </trkpt>
      <trkpt lat="46.99119" lon="-0.24751">
        <ele>48.7</ele>
        <time>2024-07-15T01:42:31.446Z</time>
      </trkpt>
      <trkpt lat="46.99068" lon="-0.24764">
        <ele>48.82</ele>
        <time>2024-07-15T01:42:43.508Z</time>
      </trkpt>
      <trkpt lat="46.99009" lon="-0.24773">
        <ele>49.83</ele>
        <time>2024-07-15T01:42:55.580Z</time>
      </trkpt>
      <trkpt lat="46.98982" lon="-0.24773">
        <ele>49.77</ele>
        <time>2024-07-15T01:43:07.656Z</time>
      </trkpt>
      <trkpt lat="46.98962" lon="-0.24769">
        <ele>49.23</ele>
        <time>2024-07-15T01:43:19.736Z</time>
      </trkpt>
      <trkpt lat="46.98929" lon="-0.24759">
        <ele>48.43</ele>
        <time>2024-07-15T01:43:31.821Z</time>
      </trkpt>
      <trkpt lat="46.98905" lon="-0.24749">
        <ele>48.11</ele>
        <time>2024-07-15T01:43:43.910Z</time>
      </trkpt>
      <trkpt lat="46.98876" lon="-0.24728">
        <ele>48.17</ele>
        <time>2024-07-15T01:43:56.004Z</time>
      </trkpt>
      <trkpt lat="46.98862" lon="-0.24715">
        <ele>48.1</ele>
        <time>2024-07-15T01:44:08.101Z</time>
      </trkpt>
      <trkpt lat="46.98839" lon="-0.24699">
        <ele>48.16</ele>
        <time>2024-07-15T01:44:20.202Z</time>
      </trkpt>
      <trkpt lat="46.98827" lon="-0.24687">
        <ele>47.56</ele>
        <time>2024-07-15T01:44:32.305Z</time>
      </trkpt>
      <trkpt lat="46.98766" lon="-0.24624">
        <ele>48.52</ele>
        <time>2024-07-15T01:44:44.420Z</time>
      </trkpt>
      <trkpt lat="46.98735" lon="-0.24595">
        <ele>48.67</ele>
        <time>2024-07-15T01:44:56.541Z</time>
      </trkpt>
      <trkpt lat="46.98691" lon="-0.24556">
        <ele>50.03</ele>
        <time>2024-07-15T01:45:08.670Z</time>
      </trkpt>
      <trkpt lat="46.98671" lon="-0.24537">
        <ele>49.11</ele>
        <time>2024-07-15T01:45:20.803Z</time>
      </trkpt>
      <trkpt lat="46.98635" lon="-0.24502">
        <ele>48.78</ele>
        <time>2024-07-15T01:45:32.943Z</time>
      </trkpt>
      <trkpt lat="46.98585" lon="-0.24452">
        <ele>47.36</ele>
        <time>2024-07-15T01:45:45.093Z</time>
      </trkpt>
      <trkpt lat="46.98585" lon="-0.24451">
        <ele>47.44</ele>
        <time>2024-07-15T01:45:57.243Z</time>
      </trkpt>
      <trkpt lat="46.9854" lon="-0.24411">
        <ele>49.03</ele>
        <time>2024-07-15T01:46:09.401Z</time>
      </trkpt>
      <trkpt lat="46.98509" lon="-0.24385">
        <ele>49.69</ele>
        <time>2024-07-15T01:46:21.565Z</time>
      </trkpt>
      <trkpt lat="46.98457" lon="-0.24314">
        <ele>48.02</ele>
        <time>2024-07-15T01:46:33.740Z</time>
      </trkpt>
      <trkpt lat="46.98427" lon="-0.24258">
        <ele>49.44</ele>
        <time>2024-07-15T01:46:45.923Z</time>
      </trkpt>
      <trkpt lat="46.9838" lon="-0.24202">
        <ele>48.61</ele>
        <time>2024-07-15T01:46:58.116Z</time>
      </trkpt>
      <trkpt lat="46.98347" lon="-0.24141">
        <ele>46</ele>
        <time>2024-07-15T01:47:10.317Z</time>
      </trkpt>
      <trkpt lat="46.98331" lon="-0.24099">
        <ele>46.59</ele>
        <time>2024-07-15T01:47:22.523Z</time>
      </trkpt>
      <trkpt lat="46.98324" lon="-0.24079">
        <ele>47.07</ele>
        <time>2024-07-15T01:47:34.732Z</time>
      </trkpt>
      <trkpt lat="46.98315" lon="-0.24054">
        <ele>48.88</ele>
        <time>2024-07-15T01:47:46.944Z</time>
      </trkpt>
      <trkpt lat="46.98309" lon="-0.24036">
        <ele>49.87</ele>
        <time>2024-07-15T01:47:59.158Z</time>
      </trkpt>
      <trkpt lat="46.98304" lon="-0.24018">
        <ele>50.47</ele>
        <time>2024-07-15T01:48:11.374Z</time>
      </trkpt>
      <trkpt lat="46.98301" lon="-0.24001">
        <ele>49.98</ele>
        <time>2024-07-15T01:48:23.592Z</time>
      </trkpt>
      <trkpt lat="46.98296" lon="-0.23977">
        <ele>48.94</ele>
        <time>2024-07-15T01:48:35.813Z</time>
      </trkpt>
      <trkpt lat="46.98288" lon="-0.2394">
        <ele>47.1</ele>
        <time>2024-07-15T01:48:48.038Z</time>
      </trkpt>
      <trkpt lat="46.98284" lon="-0.23924">
        <ele>47.49</ele>
        <time>2024-07-15T01:49:00.265Z</time>
      </trkpt>
      <trkpt lat="46.9828" lon="-0.23905">
        <ele>47.58</ele>
        <time>2024-07-15T01:49:12.494Z</time>
      </trkpt>
      <trkpt lat="46.98275" lon="-0.2388">
        <ele>47.45</ele>
        <time>2024-07-15T01:49:24.726Z</time>
      </trkpt>
      <trkpt lat="46.98263" lon="-0.23818">
        <ele>49.31</ele>
        <time>2024-07-15T01:49:36.965Z</time>
      </trkpt>
      <trkpt lat="46.98253" lon="-0.23767">
        <ele>50.07</ele>
        <time>2024-07-15T01:49:49.210Z</time>
      </trkpt>
      <trkpt lat="46.98247" lon="-0.23731">
        <ele>48.82</ele>
        <time>2024-07-15T01:50:01.459Z</time>
      </trkpt>
      <trkpt lat="46.98242" lon="-0.23694">
        <ele>48.7</ele>
        <time>2024-07-15T01:50:13.712Z</time>
      </trkpt>
      <trkpt lat="46.98237" lon="-0.23656">
        <ele>49.28</ele>
        <time>2024-07-15T01:50:25.969Z</time>
      </trkpt>
      <trkpt lat="46.98229" lon="-0.23601">
        <ele>49.51</ele>
        <time>2024-07-15T01:50:38.233Z</time>
      </trkpt>
      <trkpt lat="46.98222" lon="-0.23561">
        <ele>49</ele>
        <time>2024-07-15T01:50:50.501Z</time>
      </trkpt>
      <trkpt lat="46.98207" lon="-0.23487">
        <ele>48.07</ele>
        <time>2024-07-15T01:51:02.778Z</time>
      </trkpt>
      <trkpt lat="46.982" lon="-0.23453">
        <ele>49.24</ele>
        <time>2024-07-15T01:51:15.059Z</time>
      </trkpt>
      <trkpt lat="46.98195" lon="-0.2343">
        <ele>49.45</ele>
        <time>2024-07-15T01:51:27.342Z</time>
      </trkpt>
      <trkpt lat="46.98191" lon="-0.23408">
        <ele>49</ele>
        <time>2024-07-15T01:51:39.628Z</time>
      </trkpt>
      <trkpt lat="46.98187" lon="-0.23385">
        <ele>48.39</ele>
        <time>2024-07-15T01:51:51.916Z</time>
      </trkpt>
      <trkpt lat="46.98184" lon="-0.23357">
        <ele>48.27</ele>
        <time>2024-07-15T01:52:04.207Z</time>
      </trkpt>
      <trkpt lat="46.98182" lon="-0.23335">
        <ele>48.16</ele>
        <time>2024-07-15T01:52:16.501Z</time>
      </trkpt>
      <trkpt lat="46.98174" lon="-0.23268">
        <ele>49.29</ele>
        <time>2024-07-15T01:52:28.802Z</time>
      </trkpt>
      <trkpt lat="46.98167" lon="-0.23201">
        <ele>51.48</ele>
        <time>2024-07-15T01:52:41.111Z</time>
      </trkpt>
      <trkpt lat="46.98165" lon="-0.23183">
        <ele>51.62</ele>
        <time>2024-07-15T01:52:53.422Z</time>
      </trkpt>
      <trkpt lat="46.98164" lon="-0.23166">
        <ele>51.87</ele>
        <time>2024-07-15T01:53:05.735Z</time>
      </trkpt>
      <trkpt lat="46.98164" lon="-0.2315">
        <ele>52.16</ele>
        <time>2024-07-15T01:53:18.049Z</time>
      </trkpt>
      <trkpt lat="46.98164" lon="-0.23134">
        <ele>52.22</ele>
        <time>2024-07-15T01:53:30.365Z</time>
      </trkpt>
      <trkpt lat="46.98164" lon="-0.2312">
        <ele>52.22</ele>
        <time>2024-07-15T01:53:42.683Z</time>
      </trkpt>
      <trkpt lat="46.98165" lon="-0.23061">
        <ele>52.44</ele>
        <time>2024-07-15T01:53:55.007Z</time>
      </trkpt>
      <trkpt lat="46.98166" lon="-0.23038">
        <ele>52.61</ele>
        <time>2024-07-15T01:54:07.334Z</time>
      </trkpt>
      <trkpt lat="46.98167" lon="-0.23026">
        <ele>52.78</ele>
        <time>2024-07-15T01:54:19.662Z</time>
      </trkpt>
      <trkpt lat="46.98169" lon="-0.23013">
        <ele>53.27</ele>
        <time>2024-07-15T01:54:31.991Z</time>
      </trkpt>
      <trkpt lat="46.98171" lon="-0.23002">
        <ele>53.65</ele>
        <time>2024-07-15T01:54:44.322Z</time>
      </trkpt>
      <trkpt lat="46.98173" lon="-0.22993">
        <ele>53.97</ele>
        <time>2024-07-15T01:54:56.654Z</time>
      </trkpt>
      <trkpt lat="46.98175" lon="-0.22989">
        <ele>54.12</ele>
        <time>2024-07-15T01:55:08.986Z</time>
      </trkpt>
      <trkpt lat="46.98176" lon="-0.22987">
        <ele>54.21</ele>
        <time>2024-07-15T01:55:21.319Z</time>
      </trkpt>
      <trkpt lat="46.98181" lon="-0.2298">
        <ele>54.54</ele>
        <time>2024-07-15T01:55:33.653Z</time>
      </trkpt>
      <trkpt lat="46.98182" lon="-0.22977">
        <ele>54.8</ele>
        <time>2024-07-15T01:55:45.987Z</time>
      </trkpt>
      <trkpt lat="46.98183" lon="-0.22975">
        <ele>54.95</ele>
        <time>2024-07-15T01:55:58.321Z</time>
      </trkpt>
      <trkpt lat="46.98184" lon="-0.22973">
        <ele>55.12</ele>
        <time>2024-07-15T01:56:10.655Z</time>
      </trkpt>
      <trkpt lat="46.98184" lon="-0.2297">
        <ele>55.26</ele>
        <time>2024-07-15T01:56:22.990Z</time>
      </trkpt>
      <trkpt lat="46.98185" lon="-0.22966">
        <ele>55.42</ele>
        <time>2024-07-15T01:56:35.325Z</time>
      </trkpt>
      <trkpt lat="46.98185" lon="-0.22963">
        <ele>55.62</ele>
        <time>2024-07-15T01:56:47.661Z</time>
      </trkpt>
      <trkpt lat="46.98184" lon="-0.22957">
        <ele>55.88</ele>
        <time>2024-07-15T01:56:59.997Z</time>
      </trkpt>
      <trkpt lat="46.98184" lon="-0.22947">
        <ele>56.22</ele>
        <time>2024-07-15T01:57:12.334Z</time>
      </trkpt>
      <trkpt lat="46.98184" lon="-0.22942">
        <ele>56.4</ele>
        <time>2024-07-15T01:57:24.672Z</time>
      </trkpt>
      <trkpt lat="46.98185" lon="-0.22938">
        <ele>56.62</ele>
        <time>2024-07-15T01:57:37.010Z</time>
      </trkpt>
      <trkpt lat="46.98186" lon="-0.2293">
        <ele>56.7</ele>
        <time>2024-07-15T01:57:49.349Z</time>
      </trkpt>
      <trkpt lat="46.98188" lon="-0.22917">
        <ele>56.23</ele>
        <time>2024-07-15T01:58:01.690Z</time>
      </trkpt>
      <trkpt lat="46.98189" lon="-0.22911">
        <ele>56.07</ele>
        <time>2024-07-15T01:58:14.031Z</time>
      </trkpt>
      <trkpt lat="46.98196" lon="-0.22883">
        <ele>55.19</ele>
        <time>2024-07-15T01:58:26.376Z</time>
      </trkpt>
      <trkpt lat="46.98199" lon="-0.2287">
        <ele>54.37</ele>
        <time>2024-07-15T01:58:38.722Z</time>
      </trkpt>
      <trkpt lat="46.982" lon="-0.22862">
        <ele>53.79</ele>
        <time>2024-07-15T01:58:51.069Z</time>
      </trkpt>
      <trkpt lat="46.98201" lon="-0.22853">
        <ele>53.7</ele>
        <time>2024-07-15T01:59:03.417Z</time>
      </trkpt>
      <trkpt lat="46.98206" lon="-0.22787">
        <ele>52.66</ele>
        <time>2024-07-15T01:59:15.772Z</time>
      </trkpt>
      <trkpt lat="46.98207" lon="-0.22772">
        <ele>52.79</ele>
        <time>2024-07-15T01:59:28.129Z</time>
      </trkpt>
      <trkpt lat="46.98208" lon="-0.22742">
        <ele>52</ele>
        <time>2024-07-15T01:59:40.489Z</time>
      </trkpt>
      <trkpt lat="46.9821" lon="-0.22715">
        <ele>52.66</ele>
        <time>2024-07-15T01:59:52.852Z</time>
      </trkpt>
      <trkpt lat="46.98213" lon="-0.22684">
        <ele>53.61</ele>
        <time>2024-07-15T02:00:05.219Z</time>
      </trkpt>
      <trkpt lat="46.98214" lon="-0.22677">
        <ele>54.24</ele>
        <time>2024-07-15T02:00:17.586Z</time>
      </trkpt>
      <trkpt lat="46.98216" lon="-0.22668">
        <ele>55.09</ele>
        <time>2024-07-15T02:00:29.954Z</time>
      </trkpt>
      <trkpt lat="46.98226" lon="-0.22623">
        <ele>57.27</ele>
        <time>2024-07-15T02:00:42.328Z</time>
      </trkpt>
      <trkpt lat="46.98231" lon="-0.22583">
        <ele>54.7</ele>
        <time>2024-07-15T02:00:54.706Z</time>
      </trkpt>
      <trkpt lat="46.98232" lon="-0.22516">
        <ele>52.62</ele>
        <time>2024-07-15T02:01:07.091Z</time>
      </trkpt>
      <trkpt lat="46.98232" lon="-0.22475">
        <ele>51.75</ele>
        <time>2024-07-15T02:01:19.481Z</time>
      </trkpt>
      <trkpt lat="46.98226" lon="-0.22408">
        <ele>51.39</ele>
        <time>2024-07-15T02:01:31.878Z</time>
      </trkpt>
      <trkpt lat="46.98223" lon="-0.22378">
        <ele>53.93</ele>
        <time>2024-07-15T02:01:44.279Z</time>
      </trkpt>
      <trkpt lat="46.98216" lon="-0.22335">
        <ele>54.37</ele>
        <time>2024-07-15T02:01:56.684Z</time>
      </trkpt>
      <trkpt lat="46.98204" lon="-0.22278">
        <ele>53.4</ele>
        <time>2024-07-15T02:02:09.096Z</time>
      </trkpt>
      <trkpt lat="46.98189" lon="-0.22206">
        <ele>53.8</ele>
        <time>2024-07-15T02:02:21.516Z</time>
      </trkpt>
      <trkpt lat="46.98181" lon="-0.22185">
        <ele>52.38</ele>
        <time>2024-07-15T02:02:33.939Z</time>
      </trkpt>
      <trkpt lat="46.9816" lon="-0.22134">
        <ele>51.35</ele>
        <time>2024-07-15T02:02:46.368Z</time>
      </trkpt>
      <trkpt lat="46.98154" lon="-0.22122">
        <ele>51.07</ele>
        <time>2024-07-15T02:02:58.799Z</time>
      </trkpt>
      <trkpt lat="46.98152" lon="-0.22115">
        <ele>51.11</ele>
        <time>2024-07-15T02:03:11.231Z</time>
      </trkpt>
      <trkpt lat="46.98149" lon="-0.22109">
        <ele>51.48</ele>
        <time>2024-07-15T02:03:23.664Z</time>
      </trkpt>
      <trkpt lat="46.98139" lon="-0.22078">
        <ele>52.53</ele>
        <time>2024-07-15T02:03:36.100Z</time>
      </trkpt>
      <trkpt lat="46.98137" lon="-0.22072">
        <ele>53.02</ele>
        <time>2024-07-15T02:03:48.537Z</time>
      </trkpt>
      <trkpt lat="46.98136" lon="-0.22069">
        <ele>53.32</ele>
        <time>2024-07-15T02:04:00.975Z</time>
      </trkpt>
      <trkpt lat="46.98134" lon="-0.22067">
        <ele>53.53</ele>
        <time>2024-07-15T02:04:13.413Z</time>
      </trkpt>
      <trkpt lat="46.98128" lon="-0.22061">
        <ele>52.83</ele>
        <time>2024-07-15T02:04:25.852Z</time>
      </trkpt>
      <trkpt lat="46.98119" lon="-0.22054">
        <ele>52.54</ele>
        <time>2024-07-15T02:04:38.293Z</time>
      </trkpt>
      <trkpt lat="46.98107" lon="-0.22044">
        <ele>52.34</ele>
        <time>2024-07-15T02:04:50.736Z</time>
      </trkpt>
      <trkpt lat="46.9808" lon="-0.22022">
        <ele>52.3</ele>
        <time>2024-07-15T02:05:03.184Z</time>
      </trkpt>
      <trkpt lat="46.98071" lon="-0.22014">
        <ele>53.14</ele>
        <time>2024-07-15T02:05:15.633Z</time>
      </trkpt>
      <trkpt lat="46.98057" lon="-0.22001">
        <ele>55.44</ele>
        <time>2024-07-15T02:05:28.085Z</time>
      </trkpt>
      <trkpt lat="46.98038" lon="-0.21985">
        <ele>56.49</ele>
        <time>2024-07-15T02:05:40.541Z</time>
      </trkpt>
      <trkpt lat="46.98014" lon="-0.21963">
        <ele>59.33</ele>
        <time>2024-07-15T02:05:53.001Z</time>
      </trkpt>
      <trkpt lat="46.97998" lon="-0.21948">
        <ele>62.8</ele>
        <time>2024-07-15T02:06:05.464Z</time>
      </trkpt>
      <trkpt lat="46.9798" lon="-0.21933">
        <ele>66.42</ele>
        <time>2024-07-15T02:06:17.931Z</time>
      </trkpt>
      <trkpt lat="46.9797" lon="-0.21926">
        <ele>67.47</ele>
        <time>2024-07-15T02:06:30.399Z</time>
      </trkpt>
      <trkpt lat="46.9796" lon="-0.21919">
        <ele>68.62</ele>
        <time>2024-07-15T02:06:42.869Z</time>
      </trkpt>
      <trkpt lat="46.97957" lon="-0.21916">
        <ele>69.19</ele>
        <time>2024-07-15T02:06:55.340Z</time>
      </trkpt>
      <trkpt lat="46.97954" lon="-0.2191">
        <ele>70.3</ele>
        <time>2024-07-15T02:07:07.812Z</time>
      </trkpt>
      <trkpt lat="46.97948" lon="-0.21899">
        <ele>73.28</ele>
        <time>2024-07-15T02:07:20.285Z</time>
      </trkpt>
      <trkpt lat="46.97943" lon="-0.21888">
        <ele>75.73</ele>
        <time>2024-07-15T02:07:32.760Z</time>
      </trkpt>
      <trkpt lat="46.97937" lon="-0.21877">
        <ele>77.73</ele>
        <time>2024-07-15T02:07:45.236Z</time>
      </trkpt>
      <trkpt lat="46.97928" lon="-0.21872">
        <ele>78.33</ele>
        <time>2024-07-15T02:07:57.714Z</time>
      </trkpt>
      <trkpt lat="46.97905" lon="-0.21871">
        <ele>78.64</ele>
        <time>2024-07-15T02:08:10.195Z</time>
      </trkpt>
      <trkpt lat="46.97898" lon="-0.21865">
        <ele>80.24</ele>
        <time>2024-07-15T02:08:22.678Z</time>
      </trkpt>
      <trkpt lat="46.97885" lon="-0.21855">
        <ele>83.21</ele>
        <time>2024-07-15T02:08:35.163Z</time>
      </trkpt>
      <trkpt lat="46.9788" lon="-0.21852">
        <ele>84.09</ele>
        <time>2024-07-15T02:08:47.649Z</time>
      </trkpt>
      <trkpt lat="46.97878" lon="-0.21849">
        <ele>84.71</ele>
        <time>2024-07-15T02:09:00.135Z</time>
      </trkpt>
      <trkpt lat="46.97876" lon="-0.21845">
        <ele>85.44</ele>
        <time>2024-07-15T02:09:12.622Z</time>
      </trkpt>
      <trkpt lat="46.97876" lon="-0.21841">
        <ele>86.14</ele>
        <time>2024-07-15T02:09:25.109Z</time>
      </trkpt>
      <trkpt lat="46.97877" lon="-0.21836">
        <ele>86.94</ele>
        <time>2024-07-15T02:09:37.597Z</time>
      </trkpt>
      <trkpt lat="46.9788" lon="-0.21832">
        <ele>87.65</ele>
        <time>2024-07-15T02:09:50.085Z</time>
      </trkpt>
      <trkpt lat="46.97883" lon="-0.21828">
        <ele>88.35</ele>
        <time>2024-07-15T02:10:02.574Z</time>
      </trkpt>
      <trkpt lat="46.97886" lon="-0.21824">
        <ele>88.76</ele>
        <time>2024-07-15T02:10:15.064Z</time>
      </trkpt>
      <trkpt lat="46.97891" lon="-0.21821">
        <ele>89.1</ele>
        <time>2024-07-15T02:10:27.555Z</time>
      </trkpt>
      <trkpt lat="46.97893" lon="-0.21818">
        <ele>89.43</ele>
        <time>2024-07-15T02:10:40.046Z</time>
      </trkpt>
      <trkpt lat="46.97895" lon="-0.21814">
        <ele>89.92</ele>
        <time>2024-07-15T02:10:52.538Z</time>
      </trkpt>
      <trkpt lat="46.97897" lon="-0.21807">
        <ele>90.8</ele>
        <time>2024-07-15T02:11:05.030Z</time>
      </trkpt>
      <trkpt lat="46.97903" lon="-0.21772">
        <ele>94.13</ele>
        <time>2024-07-15T02:11:17.526Z</time>
      </trkpt>
      <trkpt lat="46.97902" lon="-0.21772">
        <ele>93.86</ele>
        <time>2024-07-15T02:11:30.022Z</time>
      </trkpt>
      <trkpt lat="46.97869" lon="-0.21756">
        <ele>93.49</ele>
        <time>2024-07-15T02:11:42.524Z</time>
      </trkpt>
      <trkpt lat="46.97847" lon="-0.21745">
        <ele>93.91</ele>
        <time>2024-07-15T02:11:55.030Z</time>
      </trkpt>
      <trkpt lat="46.97841" lon="-0.21742">
        <ele>93.85</ele>
        <time>2024-07-15T02:12:07.537Z</time>
      </trkpt>
      <trkpt lat="46.97833" lon="-0.21735">
        <ele>94.01</ele>
        <time>2024-07-15T02:12:20.045Z</time>
      </trkpt>
      <trkpt lat="46.9781" lon="-0.21724">
        <ele>93.64</ele>
        <time>2024-07-15T02:12:32.557Z</time>
      </trkpt>
      <trkpt lat="46.97808" lon="-0.21724">
        <ele>93.53</ele>
        <time>2024-07-15T02:12:45.069Z</time>
      </trkpt>
      <trkpt lat="46.97807" lon="-0.21724">
        <ele>93.4</ele>
        <time>2024-07-15T02:12:57.582Z</time>
      </trkpt>
      <trkpt lat="46.97802" lon="-0.21725">
        <ele>93.06</ele>
        <time>2024-07-15T02:13:10.095Z</time>
      </trkpt>
      <trkpt lat="46.97795" lon="-0.21726">
        <ele>92.44</ele>
        <time>2024-07-15T02:13:22.610Z</time>
      </trkpt>
      <trkpt lat="46.97789" lon="-0.21726">
        <ele>92.11</ele>
        <time>2024-07-15T02:13:35.125Z</time>
      </trkpt>
      <trkpt lat="46.97784" lon="-0.21725">
        <ele>91.96</ele>
        <time>2024-07-15T02:13:47.641Z</time>
      </trkpt>
      <trkpt lat="46.97778" lon="-0.21724">
        <ele>91.84</ele>
        <time>2024-07-15T02:14:00.158Z</time>
      </trkpt>
      <trkpt lat="46.97768" lon="-0.2172">
        <ele>91.76</ele>
        <time>2024-07-15T02:14:12.677Z</time>
      </trkpt>
      <trkpt lat="46.9774" lon="-0.21707">
        <ele>91.75</ele>
        <time>2024-07-15T02:14:25.201Z</time>
      </trkpt>
      <trkpt lat="46.97724" lon="-0.21699">
        <ele>92.25</ele>
        <time>2024-07-15T02:14:37.727Z</time>
      </trkpt>
      <trkpt lat="46.9772" lon="-0.21697">
        <ele>92.32</ele>
        <time>2024-07-15T02:14:50.254Z</time>
      </trkpt>
      <trkpt lat="46.97703" lon="-0.21689">
        <ele>92.47</ele>
        <time>2024-07-15T02:15:02.784Z</time>
      </trkpt>
      <trkpt lat="46.97672" lon="-0.2167">
        <ele>92.8</ele>
        <time>2024-07-15T02:15:15.319Z</time>
      </trkpt>
      <trkpt lat="46.97667" lon="-0.21666">
        <ele>92.98</ele>
        <time>2024-07-15T02:15:27.855Z</time>
      </trkpt>
      <trkpt lat="46.97643" lon="-0.21652">
        <ele>92.89</ele>
        <time>2024-07-15T02:15:40.395Z</time>
      </trkpt>
      <trkpt lat="46.97629" lon="-0.21645">
        <ele>92.98</ele>
        <time>2024-07-15T02:15:52.938Z</time>
      </trkpt>
      <trkpt lat="46.97615" lon="-0.21639">
        <ele>92.67</ele>
        <time>2024-07-15T02:16:05.483Z</time>
      </trkpt>
      <trkpt lat="46.97583" lon="-0.2163">
        <ele>90.07</ele>
        <time>2024-07-15T02:16:18.033Z</time>
      </trkpt>
      <trkpt lat="46.97579" lon="-0.21629">
        <ele>89.79</ele>
        <time>2024-07-15T02:16:30.584Z</time>
      </trkpt>
      <trkpt lat="46.97575" lon="-0.21628">
        <ele>89.54</ele>
        <time>2024-07-15T02:16:43.136Z</time>
      </trkpt>
      <trkpt lat="46.97559" lon="-0.21626">
        <ele>88.83</ele>
        <time>2024-07-15T02:16:55.690Z</time>
      </trkpt>
      <trkpt lat="46.97556" lon="-0.21625">
        <ele>88.75</ele>
        <time>2024-07-15T02:17:08.245Z</time>
      </trkpt>
      <trkpt lat="46.97553" lon="-0.21624">
        <ele>88.68</ele>
        <time>2024-07-15T02:17:20.800Z</time>
      </trkpt>
      <trkpt lat="46.97542" lon="-0.21619">
        <ele>88.85</ele>
        <time>2024-07-15T02:17:33.357Z</time>
      </trkpt>
      <trkpt lat="46.97526" lon="-0.2161">
        <ele>89.74</ele>
        <time>2024-07-15T02:17:45.917Z</time>
      </trkpt>
      <trkpt lat="46.975" lon="-0.21594">
        <ele>91.31</ele>
        <time>2024-07-15T02:17:58.481Z</time>
      </trkpt>
      <trkpt lat="46.97498" lon="-0.21593">
        <ele>91.37</ele>
        <time>2024-07-15T02:18:11.046Z</time>
      </trkpt>
      <trkpt lat="46.97496" lon="-0.21591">
        <ele>91.45</ele>
        <time>2024-07-15T02:18:23.611Z</time>
      </trkpt>
      <trkpt lat="46.97486" lon="-0.21567">
        <ele>92.3</ele>
        <time>2024-07-15T02:18:36.179Z</time>
      </trkpt>
      <trkpt lat="46.97481" lon="-0.21562">
        <ele>92.32</ele>
        <time>2024-07-15T02:18:48.748Z</time>
      </trkpt>
      <trkpt lat="46.97475" lon="-0.21556">
        <ele>92.32</ele>
        <time>2024-07-15T02:19:01.318Z</time>
      </trkpt>
      <trkpt lat="46.97466" lon="-0.21549">
        <ele>92.25</ele>
        <time>2024-07-15T02:19:13.890Z</time>
      </trkpt>
      <trkpt lat="46.97462" lon="-0.21543">
        <ele>92.14</ele>
        <time>2024-07-15T02:19:26.463Z</time>
      </trkpt>
      <trkpt lat="46.97458" lon="-0.21537">
        <ele>92</ele>
        <time>2024-07-15T02:19:39.037Z</time>
      </trkpt>
      <trkpt lat="46.97454" lon="-0.2153">
        <ele>91.77</ele>
        <time>2024-07-15T02:19:51.612Z</time>
      </trkpt>
      <trkpt lat="46.97452" lon="-0.21531">
        <ele>91.6</ele>
        <time>2024-07-15T02:20:04.187Z</time>
      </trkpt>
      <trkpt lat="46.97437" lon="-0.21542">
        <ele>90.5</ele>
        <time>2024-07-15T02:20:16.765Z</time>
      </trkpt>
      <trkpt lat="46.97417" lon="-0.21553">
        <ele>88.62</ele>
        <time>2024-07-15T02:20:29.346Z</time>
      </trkpt>
      <trkpt lat="46.97418" lon="-0.21561">
        <ele>88.69</ele>
        <time>2024-07-15T02:20:41.928Z</time>
      </trkpt>
      <trkpt lat="46.97411" lon="-0.21565">
        <ele>87.92</ele>
        <time>2024-07-15T02:20:54.511Z</time>
      </trkpt>
      <trkpt lat="46.97334" lon="-0.21609">
        <ele>78.23</ele>
        <time>2024-07-15T02:21:07.107Z</time>
      </trkpt>
      <trkpt lat="46.97319" lon="-0.21617">
        <ele>76.6</ele>
        <time>2024-07-15T02:21:19.706Z</time>
      </trkpt>
      <trkpt lat="46.9731" lon="-0.21623">
        <ele>75.95</ele>
        <time>2024-07-15T02:21:32.307Z</time>
      </trkpt>
      <trkpt lat="46.97302" lon="-0.21631">
        <ele>75.82</ele>
        <time>2024-07-15T02:21:44.909Z</time>
      </trkpt>
      <trkpt lat="46.97298" lon="-0.21634">
        <ele>75.8</ele>
        <time>2024-07-15T02:21:57.512Z</time>
      </trkpt>
      <trkpt lat="46.97292" lon="-0.21632">
        <ele>74.31</ele>
        <time>2024-07-15T02:22:10.116Z</time>
      </trkpt>
      <trkpt lat="46.97287" lon="-0.21631">
        <ele>73.18</ele>
        <time>2024-07-15T02:22:22.721Z</time>
      </trkpt>
      <trkpt lat="46.97272" lon="-0.2164">
        <ele>72.5</ele>
        <time>2024-07-15T02:22:35.328Z</time>
      </trkpt>
      <trkpt lat="46.97262" lon="-0.21647">
        <ele>72.26</ele>
        <time>2024-07-15T02:22:47.937Z</time>
      </trkpt>
      <trkpt lat="46.97247" lon="-0.21659">
        <ele>72.66</ele>
        <time>2024-07-15T02:23:00.549Z</time>
      </trkpt>
      <trkpt lat="46.97234" lon="-0.21668">
        <ele>72.75</ele>
        <time>2024-07-15T02:23:13.163Z</time>
      </trkpt>
      <trkpt lat="46.97218" lon="-0.21676">
        <ele>72.77</ele>
        <time>2024-07-15T02:23:25.780Z</time>
      </trkpt>
      <trkpt lat="46.97213" lon="-0.21678">
        <ele>72.66</ele>
        <time>2024-07-15T02:23:38.398Z</time>
      </trkpt>
      <trkpt lat="46.97208" lon="-0.21679">
        <ele>72.3</ele>
        <time>2024-07-15T02:23:51.016Z</time>
      </trkpt>
      <trkpt lat="46.972" lon="-0.21679">
        <ele>71.84</ele>
        <time>2024-07-15T02:24:03.636Z</time>
      </trkpt>
      <trkpt lat="46.97177" lon="-0.21678">
        <ele>70.73</ele>
        <time>2024-07-15T02:24:16.259Z</time>
      </trkpt>
      <trkpt lat="46.97169" lon="-0.21677">
        <ele>71.39</ele>
        <time>2024-07-15T02:24:28.884Z</time>
      </trkpt>
      <trkpt lat="46.97158" lon="-0.21673">
        <ele>71.99</ele>
        <time>2024-07-15T02:24:41.510Z</time>
      </trkpt>
      <trkpt lat="46.97151" lon="-0.21671">
        <ele>72.25</ele>
        <time>2024-07-15T02:24:54.138Z</time>
      </trkpt>
      <trkpt lat="46.97144" lon="-0.21669">
        <ele>72.9</ele>
        <time>2024-07-15T02:25:06.767Z</time>
      </trkpt>
      <trkpt lat="46.97138" lon="-0.21666">
        <ele>73.63</ele>
        <time>2024-07-15T02:25:19.397Z</time>
      </trkpt>
      <trkpt lat="46.97126" lon="-0.21659">
        <ele>74.71</ele>
        <time>2024-07-15T02:25:32.029Z</time>
      </trkpt>
      <trkpt lat="46.97114" lon="-0.21651">
        <ele>74.44</ele>
        <time>2024-07-15T02:25:44.663Z</time>
      </trkpt>
      <trkpt lat="46.9711" lon="-0.21648">
        <ele>74.09</ele>
        <time>2024-07-15T02:25:57.298Z</time>
      </trkpt>
      <trkpt lat="46.97106" lon="-0.21643">
        <ele>74.02</ele>
        <time>2024-07-15T02:26:09.934Z</time>
      </trkpt>
      <trkpt lat="46.97084" lon="-0.21612">
        <ele>71.89</ele>
        <time>2024-07-15T02:26:22.574Z</time>
      </trkpt>
      <trkpt lat="46.97069" lon="-0.21581">
        <ele>69.95</ele>
        <time>2024-07-15T02:26:35.219Z</time>
      </trkpt>
      <trkpt lat="46.97064" lon="-0.2157">
        <ele>68.7</ele>
        <time>2024-07-15T02:26:47.865Z</time>
      </trkpt>
      <trkpt lat="46.97059" lon="-0.21556">
        <ele>66.68</ele>
        <time>2024-07-15T02:27:00.513Z</time>
      </trkpt>
      <trkpt lat="46.97052" lon="-0.21541">
        <ele>66.38</ele>
        <time>2024-07-15T02:27:13.163Z</time>
      </trkpt>
      <trkpt lat="46.97055" lon="-0.21522">
        <ele>62.55</ele>
        <time>2024-07-15T02:27:25.815Z</time>
      </trkpt>
      <trkpt lat="46.97063" lon="-0.21487">
        <ele>56.41</ele>
        <time>2024-07-15T02:27:38.471Z</time>
      </trkpt>
      <trkpt lat="46.97066" lon="-0.21476">
        <ele>54.71</ele>
        <time>2024-07-15T02:27:51.128Z</time>
      </trkpt>
      <trkpt lat="46.97068" lon="-0.21463">
        <ele>53.06</ele>
        <time>2024-07-15T02:28:03.787Z</time>
      </trkpt>
      <trkpt lat="46.97073" lon="-0.21442">
        <ele>52.06</ele>
        <time>2024-07-15T02:28:16.448Z</time>
      </trkpt>
      <trkpt lat="46.97073" lon="-0.21439">
        <ele>51.92</ele>
        <time>2024-07-15T02:28:29.109Z</time>
      </trkpt>
      <trkpt lat="46.97073" lon="-0.21436">
        <ele>51.82</ele>
        <time>2024-07-15T02:28:41.771Z</time>
      </trkpt>
      <trkpt lat="46.97073" lon="-0.21432">
        <ele>51.82</ele>
        <time>2024-07-15T02:28:54.433Z</time>
      </trkpt>
      <trkpt lat="46.97072" lon="-0.21424">
        <ele>51.55</ele>
        <time>2024-07-15T02:29:07.096Z</time>
      </trkpt>
      <trkpt lat="46.97069" lon="-0.21404">
        <ele>51.01</ele>
        <time>2024-07-15T02:29:19.761Z</time>
      </trkpt>
      <trkpt lat="46.97068" lon="-0.21386">
        <ele>51.07</ele>
        <time>2024-07-15T02:29:32.428Z</time>
      </trkpt>
      <trkpt lat="46.97067" lon="-0.21378">
        <ele>51.19</ele>
        <time>2024-07-15T02:29:45.096Z</time>
      </trkpt>
      <trkpt lat="46.97067" lon="-0.21371">
        <ele>51.75</ele>
        <time>2024-07-15T02:29:57.765Z</time>
      </trkpt>
      <trkpt lat="46.97067" lon="-0.21358">
        <ele>52.63</ele>
        <time>2024-07-15T02:30:10.435Z</time>
      </trkpt>
      <trkpt lat="46.97067" lon="-0.21353">
        <ele>52.84</ele>
        <time>2024-07-15T02:30:23.106Z</time>
      </trkpt>
      <trkpt lat="46.97072" lon="-0.21352">
        <ele>53.06</ele>
        <time>2024-07-15T02:30:35.778Z</time>
      </trkpt>
      <trkpt lat="46.97073" lon="-0.21352">
        <ele>53.07</ele>
        <time>2024-07-15T02:30:48.450Z</time>
      </trkpt>
      <trkpt lat="46.97079" lon="-0.21352">
        <ele>53.07</ele>
        <time>2024-07-15T02:31:01.123Z</time>
      </trkpt>
      <trkpt lat="46.97083" lon="-0.21353">
        <ele>53.03</ele>
        <time>2024-07-15T02:31:13.797Z</time>
      </trkpt>
      <trkpt lat="46.97087" lon="-0.21353">
        <ele>52.98</ele>
        <time>2024-07-15T02:31:26.471Z</time>
      </trkpt>
      <trkpt lat="46.97087" lon="-0.21353">
        <ele>52.98</ele>
        <time>2024-07-15T02:31:39.145Z</time>
      </trkpt>
      <trkpt lat="46.97088" lon="-0.21353">
        <ele>52.99</ele>
        <time>2024-07-15T02:31:51.819Z</time>
      </trkpt>
      <trkpt lat="46.97089" lon="-0.21353">
        <ele>53.04</ele>
        <time>2024-07-15T02:32:04.494Z</time>
      </trkpt>
      <trkpt lat="46.97102" lon="-0.21374">
        <ele>52.45</ele>
        <time>2024-07-15T02:32:17.172Z</time>
      </trkpt>
      <trkpt lat="46.9711" lon="-0.21391">
        <ele>52.13</ele>
        <time>2024-07-15T02:32:29.852Z</time>
      </trkpt>
      <trkpt lat="46.97111" lon="-0.21393">
        <ele>52.1</ele>
        <time>2024-07-15T02:32:42.532Z</time>
      </trkpt>
      <trkpt lat="46.97114" lon="-0.21398">
        <ele>52.02</ele>
        <time>2024-07-15T02:32:55.213Z</time>
      </trkpt>
      <trkpt lat="46.97119" lon="-0.21404">
        <ele>51.96</ele>
        <time>2024-07-15T02:33:07.895Z</time>
      </trkpt>
      <trkpt lat="46.97125" lon="-0.21411">
        <ele>51.95</ele>
        <time>2024-07-15T02:33:20.578Z</time>
      </trkpt>
      <trkpt lat="46.97131" lon="-0.21416">
        <ele>52.25</ele>
        <time>2024-07-15T02:33:33.262Z</time>
      </trkpt>
      <trkpt lat="46.97138" lon="-0.2142">
        <ele>52.59</ele>
        <time>2024-07-15T02:33:45.948Z</time>
      </trkpt>
      <trkpt lat="46.97145" lon="-0.21424">
        <ele>52.65</ele>
        <time>2024-07-15T02:33:58.635Z</time>
      </trkpt>
      <trkpt lat="46.97152" lon="-0.21427">
        <ele>52.71</ele>
        <time>2024-07-15T02:34:11.323Z</time>
      </trkpt>
      <trkpt lat="46.97163" lon="-0.21428">
        <ele>53.02</ele>
        <time>2024-07-15T02:34:24.013Z</time>
      </trkpt>
      <trkpt lat="46.97175" lon="-0.21427">
        <ele>53.49</ele>
        <time>2024-07-15T02:34:36.705Z</time>
      </trkpt>
      <trkpt lat="46.97179" lon="-0.21427">
        <ele>53.67</ele>
        <time>2024-07-15T02:34:49.397Z</time>
      </trkpt>
      <trkpt lat="46.97182" lon="-0.21426">
        <ele>53.59</ele>
        <time>2024-07-15T02:35:02.090Z</time>
      </trkpt>
      <trkpt lat="46.97185" lon="-0.21425">
        <ele>53.46</ele>
        <time>2024-07-15T02:35:14.783Z</time>
      </trkpt>
      <trkpt lat="46.97188" lon="-0.21424">
        <ele>53.31</ele>
        <time>2024-07-15T02:35:27.477Z</time>
      </trkpt>
      <trkpt lat="46.97191" lon="-0.21422">
        <ele>53.21</ele>
        <time>2024-07-15T02:35:40.171Z</time>
      </trkpt>
      <trkpt lat="46.97195" lon="-0.2142">
        <ele>53.13</ele>
        <time>2024-07-15T02:35:52.866Z</time>
      </trkpt>
      <trkpt lat="46.97198" lon="-0.21417">
        <ele>53.08</ele>
        <time>2024-07-15T02:36:05.561Z</time>
      </trkpt>
      <trkpt lat="46.97201" lon="-0.21415">
        <ele>53.06</ele>
        <time>2024-07-15T02:36:18.257Z</time>
      </trkpt>
      <trkpt lat="46.97209" lon="-0.21406">
        <ele>53.04</ele>
        <time>2024-07-15T02:36:30.955Z</time>
      </trkpt>
      <trkpt lat="46.97211" lon="-0.21403">
        <ele>53.05</ele>
        <time>2024-07-15T02:36:43.653Z</time>
      </trkpt>
      <trkpt lat="46.97213" lon="-0.21401">
        <ele>53.1</ele>
        <time>2024-07-15T02:36:56.351Z</time>
      </trkpt>
      <trkpt lat="46.97214" lon="-0.21398">
        <ele>53.17</ele>
        <time>2024-07-15T02:37:09.050Z</time>
      </trkpt>
      <trkpt lat="46.97214" lon="-0.21394">
        <ele>53.28</ele>
        <time>2024-07-15T02:37:21.749Z</time>
      </trkpt>
      <trkpt lat="46.97214" lon="-0.21391">
        <ele>53.41</ele>
        <time>2024-07-15T02:37:34.449Z</time>
      </trkpt>
      <trkpt lat="46.97214" lon="-0.21387">
        <ele>53.55</ele>
        <time>2024-07-15T02:37:47.149Z</time>
      </trkpt>
      <trkpt lat="46.97213" lon="-0.21384">
        <ele>53.69</ele>
        <time>2024-07-15T02:37:59.849Z</time>
      </trkpt>
      <trkpt lat="46.97212" lon="-0.21382">
        <ele>53.82</ele>
        <time>2024-07-15T02:38:12.550Z</time>
      </trkpt>
      <trkpt lat="46.97208" lon="-0.21374">
        <ele>54.5</ele>
        <time>2024-07-15T02:38:25.252Z</time>
      </trkpt>
      <trkpt lat="46.97207" lon="-0.21372">
        <ele>54.71</ele>
        <time>2024-07-15T02:38:37.954Z</time>
      </trkpt>
      <trkpt lat="46.97207" lon="-0.2137">
        <ele>54.86</ele>
        <time>2024-07-15T02:38:50.656Z</time>
      </trkpt>
      <trkpt lat="46.97209" lon="-0.21347">
        <ele>56.33</ele>
        <time>2024-07-15T02:39:03.361Z</time>
      </trkpt>
      <trkpt lat="46.97212" lon="-0.21294">
        <ele>59.77</ele>
        <time>2024-07-15T02:39:16.072Z</time>
      </trkpt>
      <trkpt lat="46.97217" lon="-0.21215">
        <ele>62.96</ele>
        <time>2024-07-15T02:39:28.791Z</time>
      </trkpt>
      <trkpt lat="46.9722" lon="-0.2115">
        <ele>61.77</ele>
        <time>2024-07-15T02:39:41.517Z</time>
      </trkpt>
      <trkpt lat="46.97213" lon="-0.21151">
        <ele>62.33</ele>
        <time>2024-07-15T02:39:54.245Z</time>
      </trkpt>
      <trkpt lat="46.97173" lon="-0.21156">
        <ele>64.91</ele>
        <time>2024-07-15T02:40:06.979Z</time>
      </trkpt>
      <trkpt lat="46.97139" lon="-0.2116">
        <ele>64.51</ele>
        <time>2024-07-15T02:40:19.718Z</time>
      </trkpt>
      <trkpt lat="46.97136" lon="-0.2116">
        <ele>64.36</ele>
        <time>2024-07-15T02:40:32.458Z</time>
      </trkpt>
      <trkpt lat="46.97134" lon="-0.2116">
        <ele>64.3</ele>
        <time>2024-07-15T02:40:45.198Z</time>
      </trkpt>
      <trkpt lat="46.97132" lon="-0.2116">
        <ele>64.22</ele>
        <time>2024-07-15T02:40:57.939Z</time>
      </trkpt>
      <trkpt lat="46.97134" lon="-0.21152">
        <ele>64.58</ele>
        <time>2024-07-15T02:41:10.680Z</time>
      </trkpt>
      <trkpt lat="46.97135" lon="-0.21141">
        <ele>65.03</ele>
        <time>2024-07-15T02:41:23.423Z</time>
      </trkpt>
      <trkpt lat="46.97136" lon="-0.21132">
        <ele>65.39</ele>
        <time>2024-07-15T02:41:36.167Z</time>
      </trkpt>
      <trkpt lat="46.97136" lon="-0.21126">
        <ele>65.43</ele>
        <time>2024-07-15T02:41:48.911Z</time>
      </trkpt>
      <trkpt lat="46.97137" lon="-0.21119">
        <ele>65.44</ele>
        <time>2024-07-15T02:42:01.656Z</time>
      </trkpt>
      <trkpt lat="46.97137" lon="-0.21105">
        <ele>65.92</ele>
        <time>2024-07-15T02:42:14.403Z</time>
      </trkpt>
      <trkpt lat="46.97137" lon="-0.21098">
        <ele>66.17</ele>
        <time>2024-07-15T02:42:27.150Z</time>
      </trkpt>
      <trkpt lat="46.97137" lon="-0.21092">
        <ele>66.39</ele>
        <time>2024-07-15T02:42:39.898Z</time>
      </trkpt>
      <trkpt lat="46.97136" lon="-0.21079">
        <ele>66.85</ele>
        <time>2024-07-15T02:42:52.647Z</time>
      </trkpt>
      <trkpt lat="46.97135" lon="-0.21066">
        <ele>67</ele>
        <time>2024-07-15T02:43:05.398Z</time>
      </trkpt>
      <trkpt lat="46.97133" lon="-0.21057">
        <ele>67.35</ele>
        <time>2024-07-15T02:43:18.150Z</time>
      </trkpt>
      <trkpt lat="46.97132" lon="-0.21053">
        <ele>67.5</ele>
        <time>2024-07-15T02:43:30.902Z</time>
      </trkpt>
      <trkpt lat="46.9713" lon="-0.21046">
        <ele>67.83</ele>
        <time>2024-07-15T02:43:43.655Z</time>
      </trkpt>
      <trkpt lat="46.97129" lon="-0.21039">
        <ele>68</ele>
        <time>2024-07-15T02:43:56.409Z</time>
      </trkpt>
      <trkpt lat="46.97125" lon="-0.21032">
        <ele>68</ele>
        <time>2024-07-15T02:44:09.164Z</time>
      </trkpt>
      <trkpt lat="46.9712" lon="-0.21022">
        <ele>68</ele>
        <time>2024-07-15T02:44:21.920Z</time>
      </trkpt>
      <trkpt lat="46.97111" lon="-0.21009">
        <ele>67.62</ele>
        <time>2024-07-15T02:44:34.678Z</time>
      </trkpt>
      <trkpt lat="46.97099" lon="-0.20993">
        <ele>67.92</ele>
        <time>2024-07-15T02:44:47.439Z</time>
      </trkpt>
      <trkpt lat="46.9709" lon="-0.20983">
        <ele>68.77</ele>
        <time>2024-07-15T02:45:00.202Z</time>
      </trkpt>
      <trkpt lat="46.9708" lon="-0.20972">
        <ele>69.94</ele>
        <time>2024-07-15T02:45:12.967Z</time>
      </trkpt>
      <trkpt lat="46.97069" lon="-0.20962">
        <ele>71.02</ele>
        <time>2024-07-15T02:45:25.734Z</time>
      </trkpt>
      <trkpt lat="46.97061" lon="-0.20956">
        <ele>71.84</ele>
        <time>2024-07-15T02:45:38.502Z</time>
      </trkpt>
      <trkpt lat="46.97051" lon="-0.20949">
        <ele>72.81</ele>
        <time>2024-07-15T02:45:51.272Z</time>
      </trkpt>
      <trkpt lat="46.97044" lon="-0.20945">
        <ele>73.47</ele>
        <time>2024-07-15T02:46:04.043Z</time>
      </trkpt>
      <trkpt lat="46.97038" lon="-0.20942">
        <ele>74.02</ele>
        <time>2024-07-15T02:46:16.815Z</time>
      </trkpt>
      <trkpt lat="46.97031" lon="-0.20939">
        <ele>74.35</ele>
        <time>2024-07-15T02:46:29.589Z</time>
      </trkpt>
      <trkpt lat="46.97023" lon="-0.20936">
        <ele>74.62</ele>
        <time>2024-07-15T02:46:42.364Z</time>
      </trkpt>
      <trkpt lat="46.97003" lon="-0.2093">
        <ele>75.68</ele>
        <time>2024-07-15T02:46:55.142Z</time>
      </trkpt>
      <trkpt lat="46.96984" lon="-0.20927">
        <ele>77.04</ele>
        <time>2024-07-15T02:47:07.923Z</time>
      </trkpt>
      <trkpt lat="46.96952" lon="-0.20923">
        <ele>78.41</ele>
        <time>2024-07-15T02:47:20.709Z</time>
      </trkpt>
      <trkpt lat="46.96951" lon="-0.2092">
        <ele>78.47</ele>
        <time>2024-07-15T02:47:33.496Z</time>
      </trkpt>
      <trkpt lat="46.96953" lon="-0.20911">
        <ele>78.33</ele>
        <time>2024-07-15T02:47:46.284Z</time>
      </trkpt>
      <trkpt lat="46.96955" lon="-0.20906">
        <ele>78.19</ele>
        <time>2024-07-15T02:47:59.072Z</time>
      </trkpt>
      <trkpt lat="46.96971" lon="-0.20892">
        <ele>77.53</ele>
        <time>2024-07-15T02:48:11.863Z</time>
      </trkpt>
      <trkpt lat="46.96967" lon="-0.20884">
        <ele>77.64</ele>
        <time>2024-07-15T02:48:24.655Z</time>
      </trkpt>
      <trkpt lat="46.96964" lon="-0.20877">
        <ele>77.75</ele>
        <time>2024-07-15T02:48:37.448Z</time>
      </trkpt>
      <trkpt lat="46.9695" lon="-0.20886">
        <ele>78.55</ele>
        <time>2024-07-15T02:48:50.244Z</time>
      </trkpt>
      <trkpt lat="46.96943" lon="-0.20888">
        <ele>79.07</ele>
        <time>2024-07-15T02:49:03.041Z</time>
      </trkpt>
      <trkpt lat="46.96933" lon="-0.20887">
        <ele>79.73</ele>
        <time>2024-07-15T02:49:15.840Z</time>
      </trkpt>
      <trkpt lat="46.96925" lon="-0.2089">
        <ele>80.31</ele>
        <time>2024-07-15T02:49:28.640Z</time>
      </trkpt>
      <trkpt lat="46.96919" lon="-0.20889">
        <ele>80.8</ele>
        <time>2024-07-15T02:49:41.441Z</time>
      </trkpt>
      <trkpt lat="46.96916" lon="-0.20894">
        <ele>80.99</ele>
        <time>2024-07-15T02:49:54.243Z</time>
      </trkpt>
      <trkpt lat="46.96911" lon="-0.20889">
        <ele>81.32</ele>
        <time>2024-07-15T02:50:07.046Z</time>
      </trkpt>
      <trkpt lat="46.96909" lon="-0.20881">
        <ele>81.52</ele>
        <time>2024-07-15T02:50:19.850Z</time>
      </trkpt>
      <trkpt lat="46.96907" lon="-0.20875">
        <ele>81.6</ele>
        <time>2024-07-15T02:50:32.654Z</time>
      </trkpt>
      <trkpt lat="46.96906" lon="-0.20854">
        <ele>81.71</ele>
        <time>2024-07-15T02:50:45.461Z</time>
      </trkpt>
      <trkpt lat="46.96904" lon="-0.20846">
        <ele>81.82</ele>
        <time>2024-07-15T02:50:58.269Z</time>
      </trkpt>
      <trkpt lat="46.96902" lon="-0.20834">
        <ele>82</ele>
        <time>2024-07-15T02:51:11.078Z</time>
      </trkpt>
      <trkpt lat="46.96899" lon="-0.20824">
        <ele>82</ele>
        <time>2024-07-15T02:51:23.888Z</time>
      </trkpt>
      <trkpt lat="46.96889" lon="-0.20794">
        <ele>82</ele>
        <time>2024-07-15T02:51:36.702Z</time>
      </trkpt>
      <trkpt lat="46.96877" lon="-0.20763">
        <ele>82</ele>
        <time>2024-07-15T02:51:49.520Z</time>
      </trkpt>
      <trkpt lat="46.96862" lon="-0.20728">
        <ele>82.44</ele>
        <time>2024-07-15T02:52:02.342Z</time>
      </trkpt>
      <trkpt lat="46.96846" lon="-0.20697">
        <ele>84</ele>
        <time>2024-07-15T02:52:15.168Z</time>
      </trkpt>
      <trkpt lat="46.96835" lon="-0.2068">
        <ele>84</ele>
        <time>2024-07-15T02:52:27.997Z</time>
      </trkpt>
      <trkpt lat="46.96822" lon="-0.20664">
        <ele>84</ele>
        <time>2024-07-15T02:52:40.829Z</time>
      </trkpt>
      <trkpt lat="46.96803" lon="-0.20643">
        <ele>83.98</ele>
        <time>2024-07-15T02:52:53.664Z</time>
      </trkpt>
      <trkpt lat="46.96774" lon="-0.20615">
        <ele>83.89</ele>
        <time>2024-07-15T02:53:06.505Z</time>
      </trkpt>
      <trkpt lat="46.96742" lon="-0.20583">
        <ele>81.79</ele>
        <time>2024-07-15T02:53:19.352Z</time>
      </trkpt>
      <trkpt lat="46.96711" lon="-0.20554">
        <ele>80.22</ele>
        <time>2024-07-15T02:53:32.205Z</time>
      </trkpt>
      <trkpt lat="46.96687" lon="-0.20538">
        <ele>79.65</ele>
        <time>2024-07-15T02:53:45.062Z</time>
      </trkpt>
      <trkpt lat="46.96671" lon="-0.20533">
        <ele>79.78</ele>
        <time>2024-07-15T02:53:57.922Z</time>
      </trkpt>
      <trkpt lat="46.96643" lon="-0.20521">
        <ele>79.13</ele>
        <time>2024-07-15T02:54:10.787Z</time>
      </trkpt>
      <trkpt lat="46.96633" lon="-0.20513">
        <ele>78.32</ele>
        <time>2024-07-15T02:54:23.653Z</time>
      </trkpt>
      <trkpt lat="46.96625" lon="-0.20503">
        <ele>77.76</ele>
        <time>2024-07-15T02:54:36.521Z</time>
      </trkpt>
      <trkpt lat="46.96618" lon="-0.20492">
        <ele>77.46</ele>
        <time>2024-07-15T02:54:49.391Z</time>
      </trkpt>
      <trkpt lat="46.96611" lon="-0.20478">
        <ele>76.45</ele>
        <time>2024-07-15T02:55:02.263Z</time>
      </trkpt>
      <trkpt lat="46.96596" lon="-0.20453">
        <ele>73.8</ele>
        <time>2024-07-15T02:55:15.138Z</time>
      </trkpt>
      <trkpt lat="46.96566" lon="-0.20415">
        <ele>69.71</ele>
        <time>2024-07-15T02:55:28.020Z</time>
      </trkpt>
      <trkpt lat="46.96561" lon="-0.20408">
        <ele>69.26</ele>
        <time>2024-07-15T02:55:40.903Z</time>
      </trkpt>
      <trkpt lat="46.96531" lon="-0.20368">
        <ele>70.17</ele>
        <time>2024-07-15T02:55:53.792Z</time>
      </trkpt>
      <trkpt lat="46.96493" lon="-0.20316">
        <ele>75.25</ele>
        <time>2024-07-15T02:56:06.690Z</time>
      </trkpt>
      <trkpt lat="46.96479" lon="-0.20296">
        <ele>76.3</ele>
        <time>2024-07-15T02:56:19.591Z</time>
      </trkpt>
      <trkpt lat="46.96468" lon="-0.20278">
        <ele>75.3</ele>
        <time>2024-07-15T02:56:32.494Z</time>
      </trkpt>
      <trkpt lat="46.96448" lon="-0.2024">
        <ele>77.07</ele>
        <time>2024-07-15T02:56:45.403Z</time>
      </trkpt>
      <trkpt lat="46.96445" lon="-0.20232">
        <ele>77.73</ele>
        <time>2024-07-15T02:56:58.313Z</time>
      </trkpt>
      <trkpt lat="46.96443" lon="-0.20222">
        <ele>78.14</ele>
        <time>2024-07-15T02:57:11.224Z</time>
      </trkpt>
      <trkpt lat="46.96439" lon="-0.20183">
        <ele>79.19</ele>
        <time>2024-07-15T02:57:24.139Z</time>
      </trkpt>
      <trkpt lat="46.96437" lon="-0.20174">
        <ele>78.98</ele>
        <time>2024-07-15T02:57:37.055Z</time>
      </trkpt>
      <trkpt lat="46.96435" lon="-0.20167">
        <ele>79.03</ele>
        <time>2024-07-15T02:57:49.972Z</time>
      </trkpt>
      <trkpt lat="46.96432" lon="-0.2016">
        <ele>79.36</ele>
        <time>2024-07-15T02:58:02.890Z</time>
      </trkpt>
      <trkpt lat="46.96421" lon="-0.20132">
        <ele>79.11</ele>
        <time>2024-07-15T02:58:15.811Z</time>
      </trkpt>
      <trkpt lat="46.96409" lon="-0.20097">
        <ele>78.77</ele>
        <time>2024-07-15T02:58:28.737Z</time>
      </trkpt>
      <trkpt lat="46.96402" lon="-0.20077">
        <ele>79.15</ele>
        <time>2024-07-15T02:58:41.665Z</time>
      </trkpt>
      <trkpt lat="46.96382" lon="-0.20034">
        <ele>77.41</ele>
        <time>2024-07-15T02:58:54.599Z</time>
      </trkpt>
      <trkpt lat="46.96365" lon="-0.19986">
        <ele>75.23</ele>
        <time>2024-07-15T02:59:07.539Z</time>
      </trkpt>
      <trkpt lat="46.9635" lon="-0.19957">
        <ele>75.22</ele>
        <time>2024-07-15T02:59:20.483Z</time>
      </trkpt>
      <trkpt lat="46.96337" lon="-0.19939">
        <ele>75.74</ele>
        <time>2024-07-15T02:59:33.430Z</time>
      </trkpt>
      <trkpt lat="46.9632" lon="-0.19911">
        <ele>76.02</ele>
        <time>2024-07-15T02:59:46.381Z</time>
      </trkpt>
      <trkpt lat="46.96315" lon="-0.19903">
        <ele>76.24</ele>
        <time>2024-07-15T02:59:59.333Z</time>
      </trkpt>
      <trkpt lat="46.9631" lon="-0.1989">
        <ele>76.63</ele>
        <time>2024-07-15T03:00:12.287Z</time>
      </trkpt>
      <trkpt lat="46.96305" lon="-0.19877">
        <ele>76.95</ele>
        <time>2024-07-15T03:00:25.242Z</time>
      </trkpt>
      <trkpt lat="46.96302" lon="-0.19868">
        <ele>77.17</ele>
        <time>2024-07-15T03:00:38.198Z</time>
      </trkpt>
      <trkpt lat="46.9629" lon="-0.19815">
        <ele>77.67</ele>
        <time>2024-07-15T03:00:51.160Z</time>
      </trkpt>
      <trkpt lat="46.96284" lon="-0.19794">
        <ele>77.37</ele>
        <time>2024-07-15T03:01:04.125Z</time>
      </trkpt>
      <trkpt lat="46.96281" lon="-0.19785">
        <ele>77.26</ele>
        <time>2024-07-15T03:01:17.091Z</time>
      </trkpt>
      <trkpt lat="46.96276" lon="-0.19776">
        <ele>77.26</ele>
        <time>2024-07-15T03:01:30.058Z</time>
      </trkpt>
      <trkpt lat="46.96272" lon="-0.19767">
        <ele>77.29</ele>
        <time>2024-07-15T03:01:43.027Z</time>
      </trkpt>
      <trkpt lat="46.9627" lon="-0.19764">
        <ele>77.29</ele>
        <time>2024-07-15T03:01:55.996Z</time>
      </trkpt>
      <trkpt lat="46.96264" lon="-0.19752">
        <ele>77.92</ele>
        <time>2024-07-15T03:02:08.967Z</time>
      </trkpt>
      <trkpt lat="46.96234" lon="-0.19708">
        <ele>77.78</ele>
        <time>2024-07-15T03:02:21.944Z</time>
      </trkpt>
      <trkpt lat="46.96224" lon="-0.19691">
        <ele>77.16</ele>
        <time>2024-07-15T03:02:34.924Z</time>
      </trkpt>
      <trkpt lat="46.96214" lon="-0.19668">
        <ele>76.35</ele>
        <time>2024-07-15T03:02:47.907Z</time>
      </trkpt>
      <trkpt lat="46.96202" lon="-0.19638">
        <ele>75.67</ele>
        <time>2024-07-15T03:03:00.894Z</time>
      </trkpt>
      <trkpt lat="46.96165" lon="-0.19537">
        <ele>77.51</ele>
        <time>2024-07-15T03:03:13.893Z</time>
      </trkpt>
      <trkpt lat="46.96159" lon="-0.19518">
        <ele>77</ele>
        <time>2024-07-15T03:03:26.894Z</time>
      </trkpt>
      <trkpt lat="46.96138" lon="-0.19456">
        <ele>76</ele>
        <time>2024-07-15T03:03:39.903Z</time>
      </trkpt>
      <trkpt lat="46.961" lon="-0.19334">
        <ele>74.57</ele>
        <time>2024-07-15T03:03:52.927Z</time>
      </trkpt>
      <trkpt lat="46.96063" lon="-0.19363">
        <ele>74.74</ele>
        <time>2024-07-15T03:04:05.957Z</time>
      </trkpt>
      <trkpt lat="46.96047" lon="-0.19374">
        <ele>75.5</ele>
        <time>2024-07-15T03:04:18.990Z</time>
      </trkpt>
      <trkpt lat="46.96032" lon="-0.19382">
        <ele>75.81</ele>
        <time>2024-07-15T03:04:32.026Z</time>
      </trkpt>
      <trkpt lat="46.96009" lon="-0.19367">
        <ele>73.31</ele>
        <time>2024-07-15T03:04:45.066Z</time>
      </trkpt>
      <trkpt lat="46.9599" lon="-0.1936">
        <ele>71.13</ele>
        <time>2024-07-15T03:04:58.109Z</time>
      </trkpt>
      <trkpt lat="46.95977" lon="-0.1936">
        <ele>70.51</ele>
        <time>2024-07-15T03:05:11.154Z</time>
      </trkpt>
      <trkpt lat="46.95964" lon="-0.1936">
        <ele>70.51</ele>
        <time>2024-07-15T03:05:24.201Z</time>
      </trkpt>
      <trkpt lat="46.95955" lon="-0.19362">
        <ele>70.66</ele>
        <time>2024-07-15T03:05:37.250Z</time>
      </trkpt>
      <trkpt lat="46.95942" lon="-0.19367">
        <ele>71.05</ele>
        <time>2024-07-15T03:05:50.301Z</time>
      </trkpt>
      <trkpt lat="46.95906" lon="-0.19401">
        <ele>71.74</ele>
        <time>2024-07-15T03:06:03.359Z</time>
      </trkpt>
      <trkpt lat="46.9589" lon="-0.19419">
        <ele>71.51</ele>
        <time>2024-07-15T03:06:16.420Z</time>
      </trkpt>
      <trkpt lat="46.95884" lon="-0.19426">
        <ele>71.35</ele>
        <time>2024-07-15T03:06:29.482Z</time>
      </trkpt>
      <trkpt lat="46.95873" lon="-0.19446">
        <ele>71.49</ele>
        <time>2024-07-15T03:06:42.547Z</time>
      </trkpt>
      <trkpt lat="46.95862" lon="-0.19462">
        <ele>71.15</ele>
        <time>2024-07-15T03:06:55.614Z</time>
      </trkpt>
      <trkpt lat="46.9585" lon="-0.19489">
        <ele>72.19</ele>
        <time>2024-07-15T03:07:08.685Z</time>
      </trkpt>
      <trkpt lat="46.95841" lon="-0.19503">
        <ele>73.26</ele>
        <time>2024-07-15T03:07:21.758Z</time>
      </trkpt>
      <trkpt lat="46.95834" lon="-0.1951">
        <ele>74</ele>
        <time>2024-07-15T03:07:34.832Z</time>
      </trkpt>
      <trkpt lat="46.95806" lon="-0.19507">
        <ele>73.62</ele>
        <time>2024-07-15T03:07:47.911Z</time>
      </trkpt>
      <trkpt lat="46.95784" lon="-0.19496">
        <ele>70.65</ele>
        <time>2024-07-15T03:08:00.994Z</time>
      </trkpt>
      <trkpt lat="46.95759" lon="-0.19491">
        <ele>68.44</ele>
        <time>2024-07-15T03:08:14.081Z</time>
      </trkpt>
      <trkpt lat="46.95734" lon="-0.19487">
        <ele>65.27</ele>
        <time>2024-07-15T03:08:27.172Z</time>
      </trkpt>
      <trkpt lat="46.95697" lon="-0.19495">
        <ele>64.82</ele>
        <time>2024-07-15T03:08:40.269Z</time>
      </trkpt>
      <trkpt lat="46.95667" lon="-0.19502">
        <ele>64.52</ele>
        <time>2024-07-15T03:08:53.370Z</time>
      </trkpt>
      <trkpt lat="46.95646" lon="-0.19505">
        <ele>64.53</ele>
        <time>2024-07-15T03:09:06.475Z</time>
      </trkpt>
      <trkpt lat="46.95626" lon="-0.19503">
        <ele>64.07</ele>
        <time>2024-07-15T03:09:19.583Z</time>
      </trkpt>
      <trkpt lat="46.956" lon="-0.19504">
        <ele>64.5</ele>
        <time>2024-07-15T03:09:32.695Z</time>
      </trkpt>
      <trkpt lat="46.95557" lon="-0.19505">
        <ele>62.13</ele>
        <time>2024-07-15T03:09:45.814Z</time>
      </trkpt>
      <trkpt lat="46.9554" lon="-0.19509">
        <ele>61.45</ele>
        <time>2024-07-15T03:09:58.936Z</time>
      </trkpt>
      <trkpt lat="46.95523" lon="-0.19513">
        <ele>59.64</ele>
        <time>2024-07-15T03:10:12.061Z</time>
      </trkpt>
      <trkpt lat="46.95502" lon="-0.19526">
        <ele>58.9</ele>
        <time>2024-07-15T03:10:25.189Z</time>
      </trkpt>
      <trkpt lat="46.95487" lon="-0.19542">
        <ele>59.57</ele>
        <time>2024-07-15T03:10:38.320Z</time>
      </trkpt>
      <trkpt lat="46.95467" lon="-0.19584">
        <ele>63.57</ele>
        <time>2024-07-15T03:10:51.457Z</time>
      </trkpt>
      <trkpt lat="46.95447" lon="-0.1961">
        <ele>62.8</ele>
        <time>2024-07-15T03:11:04.598Z</time>
      </trkpt>
      <trkpt lat="46.95421" lon="-0.19626">
        <ele>60.95</ele>
        <time>2024-07-15T03:11:17.744Z</time>
      </trkpt>
      <trkpt lat="46.95396" lon="-0.19637">
        <ele>61.23</ele>
        <time>2024-07-15T03:11:30.894Z</time>
      </trkpt>
      <trkpt lat="46.95371" lon="-0.19643">
        <ele>61.6</ele>
        <time>2024-07-15T03:11:44.048Z</time>
      </trkpt>
      <trkpt lat="46.95352" lon="-0.19642">
        <ele>63.29</ele>
        <time>2024-07-15T03:11:57.205Z</time>
      </trkpt>
      <trkpt lat="46.95336" lon="-0.19639">
        <ele>64.48</ele>
        <time>2024-07-15T03:12:10.365Z</time>
      </trkpt>
      <trkpt lat="46.95319" lon="-0.19634">
        <ele>65.92</ele>
        <time>2024-07-15T03:12:23.527Z</time>
      </trkpt>
      <trkpt lat="46.95299" lon="-0.19626">
        <ele>68.17</ele>
        <time>2024-07-15T03:12:36.693Z</time>
      </trkpt>
      <trkpt lat="46.95278" lon="-0.19612">
        <ele>69.71</ele>
        <time>2024-07-15T03:12:49.862Z</time>
      </trkpt>
      <trkpt lat="46.95261" lon="-0.19597">
        <ele>70.45</ele>
        <time>2024-07-15T03:13:03.035Z</time>
      </trkpt>
      <trkpt lat="46.95242" lon="-0.19577">
        <ele>71.99</ele>
        <time>2024-07-15T03:13:16.211Z</time>
      </trkpt>
      <trkpt lat="46.95216" lon="-0.19532">
        <ele>76.23</ele>
        <time>2024-07-15T03:13:29.394Z</time>
      </trkpt>
      <trkpt lat="46.952" lon="-0.19485">
        <ele>76.28</ele>
        <time>2024-07-15T03:13:42.583Z</time>
      </trkpt>
      <trkpt lat="46.9519" lon="-0.19435">
        <ele>73.76</ele>
        <time>2024-07-15T03:13:55.777Z</time>
      </trkpt>
      <trkpt lat="46.95184" lon="-0.19388">
        <ele>69.65</ele>
        <time>2024-07-15T03:14:08.977Z</time>
      </trkpt>
      <trkpt lat="46.95179" lon="-0.19316">
        <ele>66.93</ele>
        <time>2024-07-15T03:14:22.184Z</time>
      </trkpt>
      <trkpt lat="46.95181" lon="-0.19259">
        <ele>66.16</ele>
        <time>2024-07-15T03:14:35.398Z</time>
      </trkpt>
      <trkpt lat="46.95182" lon="-0.19239">
        <ele>65.36</ele>
        <time>2024-07-15T03:14:48.614Z</time>
      </trkpt>
      <trkpt lat="46.95181" lon="-0.19217">
        <ele>64.75</ele>
        <time>2024-07-15T03:15:01.832Z</time>
      </trkpt>
      <trkpt lat="46.95179" lon="-0.19163">
        <ele>62.97</ele>
        <time>2024-07-15T03:15:15.056Z</time>
      </trkpt>
      <trkpt lat="46.95181" lon="-0.19123">
        <ele>63.77</ele>
        <time>2024-07-15T03:15:28.285Z</time>
      </trkpt>
      <trkpt lat="46.95184" lon="-0.19102">
        <ele>63.48</ele>
        <time>2024-07-15T03:15:41.516Z</time>
      </trkpt>
      <trkpt lat="46.95186" lon="-0.19092">
        <ele>63.24</ele>
        <time>2024-07-15T03:15:54.748Z</time>
      </trkpt>
      <trkpt lat="46.9518" lon="-0.1908">
        <ele>63.9</ele>
        <time>2024-07-15T03:16:07.982Z</time>
      </trkpt>
      <trkpt lat="46.95175" lon="-0.19056">
        <ele>64.29</ele>
        <time>2024-07-15T03:16:21.218Z</time>
      </trkpt>
      <trkpt lat="46.95175" lon="-0.19035">
        <ele>64.31</ele>
        <time>2024-07-15T03:16:34.457Z</time>
      </trkpt>
      <trkpt lat="46.95174" lon="-0.19027">
        <ele>64.37</ele>
        <time>2024-07-15T03:16:47.697Z</time>
      </trkpt>
      <trkpt lat="46.95179" lon="-0.19022">
        <ele>64.01</ele>
        <time>2024-07-15T03:17:00.938Z</time>
      </trkpt>
      <trkpt lat="46.95182" lon="-0.19015">
        <ele>63.67</ele>
        <time>2024-07-15T03:17:14.180Z</time>
      </trkpt>
      <trkpt lat="46.95182" lon="-0.19005">
        <ele>63.24</ele>
        <time>2024-07-15T03:17:27.423Z</time>
      </trkpt>
      <trkpt lat="46.95184" lon="-0.18969">
        <ele>62.82</ele>
        <time>2024-07-15T03:17:40.670Z</time>
      </trkpt>
      <trkpt lat="46.95182" lon="-0.18909">
        <ele>64.85</ele>
        <time>2024-07-15T03:17:53.923Z</time>
      </trkpt>
      <trkpt lat="46.95183" lon="-0.18893">
        <ele>64.68</ele>
        <time>2024-07-15T03:18:07.178Z</time>
      </trkpt>
      <trkpt lat="46.95185" lon="-0.18883">
        <ele>64.57</ele>
        <time>2024-07-15T03:18:20.434Z</time>
      </trkpt>
      <trkpt lat="46.952" lon="-0.18834">
        <ele>63.9</ele>
        <time>2024-07-15T03:18:33.696Z</time>
      </trkpt>
      <trkpt lat="46.95226" lon="-0.1873">
        <ele>62.73</ele>
        <time>2024-07-15T03:18:46.970Z</time>
      </trkpt>
      <trkpt lat="46.95247" lon="-0.18633">
        <ele>62.19</ele>
        <time>2024-07-15T03:19:00.255Z</time>
      </trkpt>
      <trkpt lat="46.9525" lon="-0.18616">
        <ele>61.88</ele>
        <time>2024-07-15T03:19:13.542Z</time>
      </trkpt>
      <trkpt lat="46.95252" lon="-0.18594">
        <ele>61.67</ele>
        <time>2024-07-15T03:19:26.832Z</time>
      </trkpt>
      <trkpt lat="46.95252" lon="-0.18564">
        <ele>62</ele>
        <time>2024-07-15T03:19:40.125Z</time>
      </trkpt>
      <trkpt lat="46.95252" lon="-0.18544">
        <ele>62.38</ele>
        <time>2024-07-15T03:19:53.420Z</time>
      </trkpt>
      <trkpt lat="46.95252" lon="-0.18467">
        <ele>63.39</ele>
        <time>2024-07-15T03:20:06.724Z</time>
      </trkpt>
      <trkpt lat="46.95248" lon="-0.18409">
        <ele>62.08</ele>
        <time>2024-07-15T03:20:20.034Z</time>
      </trkpt>
      <trkpt lat="46.95241" lon="-0.18338">
        <ele>61.29</ele>
        <time>2024-07-15T03:20:33.352Z</time>
      </trkpt>
      <trkpt lat="46.95238" lon="-0.18313">
        <ele>62.32</ele>
        <time>2024-07-15T03:20:46.673Z</time>
      </trkpt>
      <trkpt lat="46.95238" lon="-0.18291">
        <ele>62.88</ele>
        <time>2024-07-15T03:20:59.996Z</time>
      </trkpt>
      <trkpt lat="46.95242" lon="-0.18263">
        <ele>62.74</ele>
        <time>2024-07-15T03:21:13.322Z</time>
      </trkpt>
      <trkpt lat="46.95277" lon="-0.18243">
        <ele>61.49</ele>
        <time>2024-07-15T03:21:26.654Z</time>
      </trkpt>
      <trkpt lat="46.9528" lon="-0.18234">
        <ele>61.39</ele>
        <time>2024-07-15T03:21:39.987Z</time>
      </trkpt>
      <trkpt lat="46.95274" lon="-0.18188">
        <ele>61.67</ele>
        <time>2024-07-15T03:21:53.325Z</time>
      </trkpt>
      <trkpt lat="46.95273" lon="-0.18182">
        <ele>61.6</ele>
        <time>2024-07-15T03:22:06.664Z</time>
      </trkpt>
      <trkpt lat="46.95273" lon="-0.18176">
        <ele>61.61</ele>
        <time>2024-07-15T03:22:20.004Z</time>
      </trkpt>
      <trkpt lat="46.95273" lon="-0.18171">
        <ele>61.61</ele>
        <time>2024-07-15T03:22:33.344Z</time>
      </trkpt>
      <trkpt lat="46.95273" lon="-0.18166">
        <ele>61.61</ele>
        <time>2024-07-15T03:22:46.685Z</time>
      </trkpt>
      <trkpt lat="46.95274" lon="-0.1816">
        <ele>61.58</ele>
        <time>2024-07-15T03:23:00.026Z</time>
      </trkpt>
      <trkpt lat="46.95275" lon="-0.18154">
        <ele>61.56</ele>
        <time>2024-07-15T03:23:13.368Z</time>
      </trkpt>
      <trkpt lat="46.95288" lon="-0.18094">
        <ele>59.39</ele>
        <time>2024-07-15T03:23:26.717Z</time>
      </trkpt>
      <trkpt lat="46.95293" lon="-0.18057">
        <ele>58</ele>
        <time>2024-07-15T03:23:40.070Z</time>
      </trkpt>
      <trkpt lat="46.95293" lon="-0.18041">
        <ele>58</ele>
        <time>2024-07-15T03:23:53.425Z</time>
      </trkpt>
      <trkpt lat="46.95293" lon="-0.18023">
        <ele>58</ele>
        <time>2024-07-15T03:24:06.782Z</time>
      </trkpt>
      <trkpt lat="46.95287" lon="-0.17933">
        <ele>59.34</ele>
        <time>2024-07-15T03:24:20.149Z</time>
      </trkpt>
      <trkpt lat="46.95278" lon="-0.17857">
        <ele>58.15</ele>
        <time>2024-07-15T03:24:33.524Z</time>
      </trkpt>
      <trkpt lat="46.95273" lon="-0.17779">
        <ele>57.28</ele>
        <time>2024-07-15T03:24:46.908Z</time>
      </trkpt>
      <trkpt lat="46.9527" lon="-0.17713">
        <ele>57.18</ele>
        <time>2024-07-15T03:25:00.299Z</time>
      </trkpt>
      <trkpt lat="46.95261" lon="-0.17658">
        <ele>57.07</ele>
        <time>2024-07-15T03:25:13.696Z</time>
      </trkpt>
      <trkpt lat="46.9524" lon="-0.17583">
        <ele>58.62</ele>
        <time>2024-07-15T03:25:27.102Z</time>
      </trkpt>
      <trkpt lat="46.95214" lon="-0.17495">
        <ele>55.89</ele>
        <time>2024-07-15T03:25:40.519Z</time>
      </trkpt>
      <trkpt lat="46.95208" lon="-0.17477">
        <ele>55</ele>
        <time>2024-07-15T03:25:53.938Z</time>
      </trkpt>
      <trkpt lat="46.95203" lon="-0.17466">
        <ele>54.42</ele>
        <time>2024-07-15T03:26:07.358Z</time>
      </trkpt>
      <trkpt lat="46.95178" lon="-0.17428">
        <ele>56.1</ele>
        <time>2024-07-15T03:26:20.784Z</time>
      </trkpt>
      <trkpt lat="46.95135" lon="-0.17378">
        <ele>57.09</ele>
        <time>2024-07-15T03:26:34.219Z</time>
      </trkpt>
      <trkpt lat="46.95109" lon="-0.17367">
        <ele>59.08</ele>
        <time>2024-07-15T03:26:47.658Z</time>
      </trkpt>
      <trkpt lat="46.95085" lon="-0.17357">
        <ele>60.93</ele>
        <time>2024-07-15T03:27:01.101Z</time>
      </trkpt>
      <trkpt lat="46.95047" lon="-0.17351">
        <ele>64.24</ele>
        <time>2024-07-15T03:27:14.550Z</time>
      </trkpt>
      <trkpt lat="46.95026" lon="-0.17356">
        <ele>66.17</ele>
        <time>2024-07-15T03:27:28.003Z</time>
      </trkpt>
      <trkpt lat="46.95011" lon="-0.17347">
        <ele>67.47</ele>
        <time>2024-07-15T03:27:41.458Z</time>
      </trkpt>
      <trkpt lat="46.94998" lon="-0.17346">
        <ele>69.35</ele>
        <time>2024-07-15T03:27:54.915Z</time>
      </trkpt>
      <trkpt lat="46.94938" lon="-0.17361">
        <ele>75.73</ele>
        <time>2024-07-15T03:28:08.382Z</time>
      </trkpt>
      <trkpt lat="46.9485" lon="-0.17395">
        <ele>82.89</ele>
        <time>2024-07-15T03:28:21.864Z</time>
      </trkpt>
      <trkpt lat="46.94833" lon="-0.17399">
        <ele>84.73</ele>
        <time>2024-07-15T03:28:35.348Z</time>
      </trkpt>
      <trkpt lat="46.94828" lon="-0.17398">
        <ele>85.6</ele>
        <time>2024-07-15T03:28:48.833Z</time>
      </trkpt>
      <trkpt lat="46.94823" lon="-0.17376">
        <ele>86.76</ele>
        <time>2024-07-15T03:29:02.321Z</time>
      </trkpt>
      <trkpt lat="46.9482" lon="-0.17302">
        <ele>88.78</ele>
        <time>2024-07-15T03:29:15.817Z</time>
      </trkpt>
      <trkpt lat="46.94818" lon="-0.17254">
        <ele>89.01</ele>
        <time>2024-07-15T03:29:29.318Z</time>
      </trkpt>
      <trkpt lat="46.94807" lon="-0.17213">
        <ele>88.39</ele>
        <time>2024-07-15T03:29:42.824Z</time>
      </trkpt>
      <trkpt lat="46.94788" lon="-0.17179">
        <ele>87.82</ele>
        <time>2024-07-15T03:29:56.335Z</time>
      </trkpt>
      <trkpt lat="46.94773" lon="-0.17143">
        <ele>87.61</ele>
        <time>2024-07-15T03:30:09.850Z</time>
      </trkpt>
      <trkpt lat="46.94717" lon="-0.1711">
        <ele>89.62</ele>
        <time>2024-07-15T03:30:23.375Z</time>
      </trkpt>
      <trkpt lat="46.94622" lon="-0.17076">
        <ele>92.15</ele>
        <time>2024-07-15T03:30:36.916Z</time>
      </trkpt>
      <trkpt lat="46.9457" lon="-0.16931">
        <ele>92.91</ele>
        <time>2024-07-15T03:30:50.475Z</time>
      </trkpt>
      <trkpt lat="46.94535" lon="-0.16862">
        <ele>94.36</ele>
        <time>2024-07-15T03:31:04.043Z</time>
      </trkpt>
      <trkpt lat="46.94466" lon="-0.16739">
        <ele>93.33</ele>
        <time>2024-07-15T03:31:17.628Z</time>
      </trkpt>
      <trkpt lat="46.94422" lon="-0.1669">
        <ele>92.81</ele>
        <time>2024-07-15T03:31:31.222Z</time>
      </trkpt>
      <trkpt lat="46.94324" lon="-0.16606">
        <ele>93.44</ele>
        <time>2024-07-15T03:31:44.835Z</time>
      </trkpt>
      <trkpt lat="46.94207" lon="-0.16505">
        <ele>89</ele>
        <time>2024-07-15T03:31:58.469Z</time>
      </trkpt>
      <trkpt lat="46.94201" lon="-0.16499">
        <ele>89</ele>
        <time>2024-07-15T03:32:12.104Z</time>
      </trkpt>
      <trkpt lat="46.9416" lon="-0.16464">
        <ele>88.04</ele>
        <time>2024-07-15T03:32:25.747Z</time>
      </trkpt>
      <trkpt lat="46.94042" lon="-0.16361">
        <ele>89.93</ele>
        <time>2024-07-15T03:32:39.412Z</time>
      </trkpt>
      <trkpt lat="46.94012" lon="-0.16337">
        <ele>89.98</ele>
        <time>2024-07-15T03:32:53.083Z</time>
      </trkpt>
      <trkpt lat="46.94006" lon="-0.16333">
        <ele>89.54</ele>
        <time>2024-07-15T03:33:06.755Z</time>
      </trkpt>
      <trkpt lat="46.94003" lon="-0.16332">
        <ele>89.35</ele>
        <time>2024-07-15T03:33:20.427Z</time>
      </trkpt>
      <trkpt lat="46.94" lon="-0.16331">
        <ele>89.08</ele>
        <time>2024-07-15T03:33:34.100Z</time>
      </trkpt>
      <trkpt lat="46.93999" lon="-0.16331">
        <ele>89.02</ele>
        <time>2024-07-15T03:33:47.773Z</time>
      </trkpt>
      <trkpt lat="46.93998" lon="-0.1633">
        <ele>89</ele>
        <time>2024-07-15T03:34:01.446Z</time>
      </trkpt>
      <trkpt lat="46.93999" lon="-0.16328">
        <ele>89</ele>
        <time>2024-07-15T03:34:15.119Z</time>
      </trkpt>
      <trkpt lat="46.93999" lon="-0.16326">
        <ele>89.02</ele>
        <time>2024-07-15T03:34:28.792Z</time>
      </trkpt>
      <trkpt lat="46.94" lon="-0.1631">
        <ele>89.13</ele>
        <time>2024-07-15T03:34:42.467Z</time>
      </trkpt>
      <trkpt lat="46.94001" lon="-0.163">
        <ele>89.16</ele>
        <time>2024-07-15T03:34:56.143Z</time>
      </trkpt>
      <trkpt lat="46.94001" lon="-0.16291">
        <ele>88.97</ele>
        <time>2024-07-15T03:35:09.820Z</time>
      </trkpt>
      <trkpt lat="46.94" lon="-0.16284">
        <ele>88.68</ele>
        <time>2024-07-15T03:35:23.498Z</time>
      </trkpt>
      <trkpt lat="46.93959" lon="-0.16297">
        <ele>87.07</ele>
        <time>2024-07-15T03:35:37.183Z</time>
      </trkpt>
      <trkpt lat="46.93893" lon="-0.16314">
        <ele>88.3</ele>
        <time>2024-07-15T03:35:50.879Z</time>
      </trkpt>
      <trkpt lat="46.93778" lon="-0.16351">
        <ele>92.53</ele>
        <time>2024-07-15T03:36:04.593Z</time>
      </trkpt>
      <trkpt lat="46.93676" lon="-0.16385">
        <ele>90</ele>
        <time>2024-07-15T03:36:18.324Z</time>
      </trkpt>
      <trkpt lat="46.9361" lon="-0.16413">
        <ele>87.57</ele>
        <time>2024-07-15T03:36:32.066Z</time>
      </trkpt>
      <trkpt lat="46.93584" lon="-0.16435">
        <ele>85.18</ele>
        <time>2024-07-15T03:36:45.813Z</time>
      </trkpt>
      <trkpt lat="46.93571" lon="-0.16442">
        <ele>84.52</ele>
        <time>2024-07-15T03:36:59.562Z</time>
      </trkpt>
      <trkpt lat="46.93547" lon="-0.16451">
        <ele>83.81</ele>
        <time>2024-07-15T03:37:13.315Z</time>
      </trkpt>
      <trkpt lat="46.93531" lon="-0.16459">
        <ele>83.84</ele>
        <time>2024-07-15T03:37:27.071Z</time>
      </trkpt>
      <trkpt lat="46.93493" lon="-0.16486">
        <ele>84.83</ele>
        <time>2024-07-15T03:37:40.834Z</time>
      </trkpt>
      <trkpt lat="46.93464" lon="-0.1651">
        <ele>84.97</ele>
        <time>2024-07-15T03:37:54.602Z</time>
      </trkpt>
      <trkpt lat="46.93451" lon="-0.16522">
        <ele>84.3</ele>
        <time>2024-07-15T03:38:08.372Z</time>
      </trkpt>
      <trkpt lat="46.93443" lon="-0.16535">
        <ele>83.04</ele>
        <time>2024-07-15T03:38:22.144Z</time>
      </trkpt>
      <trkpt lat="46.93428" lon="-0.1656">
        <ele>80.28</ele>
        <time>2024-07-15T03:38:35.920Z</time>
      </trkpt>
      <trkpt lat="46.93404" lon="-0.16592">
        <ele>70.06</ele>
        <time>2024-07-15T03:38:49.701Z</time>
      </trkpt>
      <trkpt lat="46.93367" lon="-0.16529">
        <ele>66.27</ele>
        <time>2024-07-15T03:39:03.491Z</time>
      </trkpt>
      <trkpt lat="46.93321" lon="-0.16466">
        <ele>65.16</ele>
        <time>2024-07-15T03:39:17.291Z</time>
      </trkpt>
      <trkpt lat="46.93282" lon="-0.16423">
        <ele>63.57</ele>
        <time>2024-07-15T03:39:31.099Z</time>
      </trkpt>
      <trkpt lat="46.93263" lon="-0.164">
        <ele>62.64</ele>
        <time>2024-07-15T03:39:44.911Z</time>
      </trkpt>
      <trkpt lat="46.93259" lon="-0.16398">
        <ele>62.47</ele>
        <time>2024-07-15T03:39:58.724Z</time>
      </trkpt>
      <trkpt lat="46.93258" lon="-0.16398">
        <ele>62.34</ele>
        <time>2024-07-15T03:40:12.537Z</time>
      </trkpt>
      <trkpt lat="46.93256" lon="-0.16402">
        <ele>61.94</ele>
        <time>2024-07-15T03:40:26.350Z</time>
      </trkpt>
      <trkpt lat="46.93267" lon="-0.16418">
        <ele>62.2</ele>
        <time>2024-07-15T03:40:40.166Z</time>
      </trkpt>
      <trkpt lat="46.93272" lon="-0.16429">
        <ele>62.35</ele>
        <time>2024-07-15T03:40:53.983Z</time>
      </trkpt>
      <trkpt lat="46.9328" lon="-0.1645">
        <ele>62.37</ele>
        <time>2024-07-15T03:41:07.803Z</time>
      </trkpt>
      <trkpt lat="46.93285" lon="-0.16462">
        <ele>62.46</ele>
        <time>2024-07-15T03:41:21.625Z</time>
      </trkpt>
      <trkpt lat="46.93291" lon="-0.16475">
        <ele>62.2</ele>
        <time>2024-07-15T03:41:35.448Z</time>
      </trkpt>
      <trkpt lat="46.93306" lon="-0.16503">
        <ele>62.13</ele>
        <time>2024-07-15T03:41:49.275Z</time>
      </trkpt>
      <trkpt lat="46.93313" lon="-0.16523">
        <ele>60.82</ele>
        <time>2024-07-15T03:42:03.105Z</time>
      </trkpt>
      <trkpt lat="46.93315" lon="-0.16538">
        <ele>60.29</ele>
        <time>2024-07-15T03:42:16.936Z</time>
      </trkpt>
      <trkpt lat="46.93309" lon="-0.16544">
        <ele>60.09</ele>
        <time>2024-07-15T03:42:30.769Z</time>
      </trkpt>
      <trkpt lat="46.93301" lon="-0.16554">
        <ele>60</ele>
        <time>2024-07-15T03:42:44.603Z</time>
      </trkpt>
      <trkpt lat="46.9328" lon="-0.16585">
        <ele>59.63</ele>
        <time>2024-07-15T03:42:58.442Z</time>
      </trkpt>
      <trkpt lat="46.93261" lon="-0.16606">
        <ele>59</ele>
        <time>2024-07-15T03:43:12.285Z</time>
      </trkpt>
      <trkpt lat="46.93219" lon="-0.16639">
        <ele>59.87</ele>
        <time>2024-07-15T03:43:26.135Z</time>
      </trkpt>
      <trkpt lat="46.93209" lon="-0.16648">
        <ele>60.59</ele>
        <time>2024-07-15T03:43:39.987Z</time>
      </trkpt>
      <trkpt lat="46.93207" lon="-0.1665">
        <ele>60.71</ele>
        <time>2024-07-15T03:43:53.840Z</time>
      </trkpt>
      <trkpt lat="46.93191" lon="-0.1666">
        <ele>60.52</ele>
        <time>2024-07-15T03:44:07.696Z</time>
      </trkpt>
      <trkpt lat="46.93182" lon="-0.16667">
        <ele>60.47</ele>
        <time>2024-07-15T03:44:21.553Z</time>
      </trkpt>
      <trkpt lat="46.93149" lon="-0.16693">
        <ele>62.36</ele>
        <time>2024-07-15T03:44:35.416Z</time>
      </trkpt>
      <trkpt lat="46.93142" lon="-0.16694">
        <ele>62.64</ele>
        <time>2024-07-15T03:44:49.280Z</time>
      </trkpt>
      <trkpt lat="46.93134" lon="-0.16686">
        <ele>63.24</ele>
        <time>2024-07-15T03:45:03.146Z</time>
      </trkpt>
      <trkpt lat="46.93127" lon="-0.16673">
        <ele>63.3</ele>
        <time>2024-07-15T03:45:17.014Z</time>
      </trkpt>
      <trkpt lat="46.93113" lon="-0.16642">
        <ele>62.26</ele>
        <time>2024-07-15T03:45:30.886Z</time>
      </trkpt>
      <trkpt lat="46.93078" lon="-0.16564">
        <ele>60.26</ele>
        <time>2024-07-15T03:45:44.768Z</time>
      </trkpt>
      <trkpt lat="46.93074" lon="-0.16554">
        <ele>60.05</ele>
        <time>2024-07-15T03:45:58.651Z</time>
      </trkpt>
      <trkpt lat="46.93071" lon="-0.16543">
        <ele>59.88</ele>
        <time>2024-07-15T03:46:12.536Z</time>
      </trkpt>
      <trkpt lat="46.93064" lon="-0.16483">
        <ele>58.83</ele>
        <time>2024-07-15T03:46:26.427Z</time>
      </trkpt>
      <trkpt lat="46.93063" lon="-0.16473">
        <ele>58.52</ele>
        <time>2024-07-15T03:46:40.319Z</time>
      </trkpt>
      <trkpt lat="46.93062" lon="-0.16466">
        <ele>58.3</ele>
        <time>2024-07-15T03:46:54.212Z</time>
      </trkpt>
      <trkpt lat="46.93057" lon="-0.16444">
        <ele>57.69</ele>
        <time>2024-07-15T03:47:08.108Z</time>
      </trkpt>
      <trkpt lat="46.93055" lon="-0.16435">
        <ele>57.46</ele>
        <time>2024-07-15T03:47:22.005Z</time>
      </trkpt>
      <trkpt lat="46.93048" lon="-0.16421">
        <ele>57.42</ele>
        <time>2024-07-15T03:47:35.904Z</time>
      </trkpt>
      <trkpt lat="46.9299" lon="-0.16333">
        <ele>57.54</ele>
        <time>2024-07-15T03:47:49.816Z</time>
      </trkpt>
      <trkpt lat="46.92868" lon="-0.16091">
        <ele>62.93</ele>
        <time>2024-07-15T03:48:03.761Z</time>
      </trkpt>
      <trkpt lat="46.92751" lon="-0.15825">
        <ele>56.39</ele>
        <time>2024-07-15T03:48:17.741Z</time>
      </trkpt>
      <trkpt lat="46.92712" lon="-0.15741">
        <ele>59</ele>
        <time>2024-07-15T03:48:31.732Z</time>
      </trkpt>
      <trkpt lat="46.92669" lon="-0.15669">
        <ele>59.3</ele>
        <time>2024-07-15T03:48:45.733Z</time>
      </trkpt>
      <trkpt lat="46.92576" lon="-0.15496">
        <ele>60.39</ele>
        <time>2024-07-15T03:48:59.758Z</time>
      </trkpt>
      <trkpt lat="46.92545" lon="-0.15434">
        <ele>61.79</ele>
        <time>2024-07-15T03:49:13.792Z</time>
      </trkpt>
      <trkpt lat="46.92487" lon="-0.15301">
        <ele>62.11</ele>
        <time>2024-07-15T03:49:27.843Z</time>
      </trkpt>
      <trkpt lat="46.92462" lon="-0.15231">
        <ele>57.66</ele>
        <time>2024-07-15T03:49:41.903Z</time>
      </trkpt>
      <trkpt lat="46.9245" lon="-0.15186">
        <ele>57.21</ele>
        <time>2024-07-15T03:49:55.968Z</time>
      </trkpt>
      <trkpt lat="46.92442" lon="-0.15141">
        <ele>57.02</ele>
        <time>2024-07-15T03:50:10.038Z</time>
      </trkpt>
      <trkpt lat="46.92437" lon="-0.15074">
        <ele>57.68</ele>
        <time>2024-07-15T03:50:24.116Z</time>
      </trkpt>
      <trkpt lat="46.92433" lon="-0.14959">
        <ele>57.83</ele>
        <time>2024-07-15T03:50:38.206Z</time>
      </trkpt>
      <trkpt lat="46.92435" lon="-0.14937">
        <ele>58.45</ele>
        <time>2024-07-15T03:50:52.298Z</time>
      </trkpt>
      <trkpt lat="46.92438" lon="-0.14903">
        <ele>57.49</ele>
        <time>2024-07-15T03:51:06.394Z</time>
      </trkpt>
      <trkpt lat="46.92451" lon="-0.14808">
        <ele>55.57</ele>
        <time>2024-07-15T03:51:20.501Z</time>
      </trkpt>
      <trkpt lat="46.92455" lon="-0.1475">
        <ele>57.64</ele>
        <time>2024-07-15T03:51:34.614Z</time>
      </trkpt>
      <trkpt lat="46.92453" lon="-0.1473">
        <ele>58</ele>
        <time>2024-07-15T03:51:48.730Z</time>
      </trkpt>
      <trkpt lat="46.92447" lon="-0.14711">
        <ele>58.33</ele>
        <time>2024-07-15T03:52:02.848Z</time>
      </trkpt>
      <trkpt lat="46.92427" lon="-0.14673">
        <ele>59.12</ele>
        <time>2024-07-15T03:52:16.971Z</time>
      </trkpt>
      <trkpt lat="46.92388" lon="-0.14623">
        <ele>60.65</ele>
        <time>2024-07-15T03:52:31.102Z</time>
      </trkpt>
      <trkpt lat="46.92374" lon="-0.14609">
        <ele>61.87</ele>
        <time>2024-07-15T03:52:45.236Z</time>
      </trkpt>
      <trkpt lat="46.9237" lon="-0.14606">
        <ele>62.28</ele>
        <time>2024-07-15T03:52:59.371Z</time>
      </trkpt>
      <trkpt lat="46.92355" lon="-0.14573">
        <ele>64.54</ele>
        <time>2024-07-15T03:53:13.510Z</time>
      </trkpt>
      <trkpt lat="46.9234" lon="-0.14529">
        <ele>65.59</ele>
        <time>2024-07-15T03:53:27.655Z</time>
      </trkpt>
      <trkpt lat="46.92336" lon="-0.14518">
        <ele>65.68</ele>
        <time>2024-07-15T03:53:41.801Z</time>
      </trkpt>
      <trkpt lat="46.92327" lon="-0.14481">
        <ele>65.32</ele>
        <time>2024-07-15T03:53:55.951Z</time>
      </trkpt>
      <trkpt lat="46.92324" lon="-0.14471">
        <ele>65.06</ele>
        <time>2024-07-15T03:54:10.102Z</time>
      </trkpt>
      <trkpt lat="46.92322" lon="-0.1446">
        <ele>64.76</ele>
        <time>2024-07-15T03:54:24.255Z</time>
      </trkpt>
      <trkpt lat="46.92315" lon="-0.14397">
        <ele>64.74</ele>
        <time>2024-07-15T03:54:38.415Z</time>
      </trkpt>
      <trkpt lat="46.92291" lon="-0.14409">
        <ele>65.95</ele>
        <time>2024-07-15T03:54:52.579Z</time>
      </trkpt>
      <trkpt lat="46.92267" lon="-0.14409">
        <ele>66</ele>
        <time>2024-07-15T03:55:06.747Z</time>
      </trkpt>
      <trkpt lat="46.9225" lon="-0.1442">
        <ele>65.57</ele>
        <time>2024-07-15T03:55:20.917Z</time>
      </trkpt>
      <trkpt lat="46.92248" lon="-0.14421">
        <ele>65.51</ele>
        <time>2024-07-15T03:55:35.088Z</time>
      </trkpt>
      <trkpt lat="46.922" lon="-0.14449">
        <ele>65.73</ele>
        <time>2024-07-15T03:55:49.267Z</time>
      </trkpt>
      <trkpt lat="46.92184" lon="-0.14459">
        <ele>66.66</ele>
        <time>2024-07-15T03:56:03.449Z</time>
      </trkpt>
      <trkpt lat="46.92169" lon="-0.14466">
        <ele>67</ele>
        <time>2024-07-15T03:56:17.633Z</time>
      </trkpt>
      <trkpt lat="46.92163" lon="-0.14469">
        <ele>67</ele>
        <time>2024-07-15T03:56:31.818Z</time>
      </trkpt>
      <trkpt lat="46.92156" lon="-0.1447">
        <ele>67</ele>
        <time>2024-07-15T03:56:46.005Z</time>
      </trkpt>
      <trkpt lat="46.92152" lon="-0.1447">
        <ele>67</ele>
        <time>2024-07-15T03:57:00.192Z</time>
      </trkpt>
      <trkpt lat="46.92145" lon="-0.14469">
        <ele>66.79</ele>
        <time>2024-07-15T03:57:14.380Z</time>
      </trkpt>
      <trkpt lat="46.92139" lon="-0.14466">
        <ele>66.58</ele>
        <time>2024-07-15T03:57:28.569Z</time>
      </trkpt>
      <trkpt lat="46.92141" lon="-0.14452">
        <ele>66.63</ele>
        <time>2024-07-15T03:57:42.760Z</time>
      </trkpt>
      <trkpt lat="46.92141" lon="-0.14434">
        <ele>66.65</ele>
        <time>2024-07-15T03:57:56.953Z</time>
      </trkpt>
      <trkpt lat="46.92138" lon="-0.14416">
        <ele>66.66</ele>
        <time>2024-07-15T03:58:11.148Z</time>
      </trkpt>
      <trkpt lat="46.92126" lon="-0.14363">
        <ele>68.58</ele>
        <time>2024-07-15T03:58:25.349Z</time>
      </trkpt>
      <trkpt lat="46.9212" lon="-0.1434">
        <ele>69.42</ele>
        <time>2024-07-15T03:58:39.553Z</time>
      </trkpt>
      <trkpt lat="46.92117" lon="-0.14325">
        <ele>69.94</ele>
        <time>2024-07-15T03:58:53.758Z</time>
      </trkpt>
      <trkpt lat="46.92089" lon="-0.14209">
        <ele>69.2</ele>
        <time>2024-07-15T03:59:07.977Z</time>
      </trkpt>
      <trkpt lat="46.92068" lon="-0.14132">
        <ele>68.96</ele>
        <time>2024-07-15T03:59:22.205Z</time>
      </trkpt>
      <trkpt lat="46.92054" lon="-0.14087">
        <ele>69.47</ele>
        <time>2024-07-15T03:59:36.438Z</time>
      </trkpt>
      <trkpt lat="46.9204" lon="-0.14056">
        <ele>68.35</ele>
        <time>2024-07-15T03:59:50.675Z</time>
      </trkpt>
      <trkpt lat="46.92005" lon="-0.13984">
        <ele>67.23</ele>
        <time>2024-07-15T04:00:04.922Z</time>
      </trkpt>
      <trkpt lat="46.92" lon="-0.13973">
        <ele>67.39</ele>
        <time>2024-07-15T04:00:19.170Z</time>
      </trkpt>
      <trkpt lat="46.91996" lon="-0.1396">
        <ele>67.55</ele>
        <time>2024-07-15T04:00:33.420Z</time>
      </trkpt>
      <trkpt lat="46.91995" lon="-0.13952">
        <ele>67.6</ele>
        <time>2024-07-15T04:00:47.671Z</time>
      </trkpt>
      <trkpt lat="46.91993" lon="-0.13942">
        <ele>67.26</ele>
        <time>2024-07-15T04:01:01.923Z</time>
      </trkpt>
      <trkpt lat="46.91992" lon="-0.13929">
        <ele>67</ele>
        <time>2024-07-15T04:01:16.177Z</time>
      </trkpt>
      <trkpt lat="46.91992" lon="-0.13918">
        <ele>67.29</ele>
        <time>2024-07-15T04:01:30.432Z</time>
      </trkpt>
      <trkpt lat="46.91993" lon="-0.13694">
        <ele>58.01</ele>
        <time>2024-07-15T04:01:44.711Z</time>
      </trkpt>
      <trkpt lat="46.91994" lon="-0.13588">
        <ele>58.11</ele>
        <time>2024-07-15T04:01:59.002Z</time>
      </trkpt>
      <trkpt lat="46.91993" lon="-0.1352">
        <ele>59.24</ele>
        <time>2024-07-15T04:02:13.300Z</time>
      </trkpt>
      <trkpt lat="46.91994" lon="-0.13483">
        <ele>60.53</ele>
        <time>2024-07-15T04:02:27.602Z</time>
      </trkpt>
      <trkpt lat="46.91994" lon="-0.13476">
        <ele>60.63</ele>
        <time>2024-07-15T04:02:41.905Z</time>
      </trkpt>
      <trkpt lat="46.91985" lon="-0.13481">
        <ele>60.97</ele>
        <time>2024-07-15T04:02:56.210Z</time>
      </trkpt>
      <trkpt lat="46.91964" lon="-0.13498">
        <ele>60.69</ele>
        <time>2024-07-15T04:03:10.519Z</time>
      </trkpt>
      <trkpt lat="46.91956" lon="-0.13502">
        <ele>60.57</ele>
        <time>2024-07-15T04:03:24.829Z</time>
      </trkpt>
      <trkpt lat="46.91945" lon="-0.13503">
        <ele>60.52</ele>
        <time>2024-07-15T04:03:39.141Z</time>
      </trkpt>
      <trkpt lat="46.91944" lon="-0.1351">
        <ele>60.28</ele>
        <time>2024-07-15T04:03:53.454Z</time>
      </trkpt>
      <trkpt lat="46.9194" lon="-0.13514">
        <ele>60.13</ele>
        <time>2024-07-15T04:04:07.767Z</time>
      </trkpt>
      <trkpt lat="46.91906" lon="-0.13532">
        <ele>60.56</ele>
        <time>2024-07-15T04:04:22.086Z</time>
      </trkpt>
      <trkpt lat="46.91873" lon="-0.13537">
        <ele>61.59</ele>
        <time>2024-07-15T04:04:36.410Z</time>
      </trkpt>
      <trkpt lat="46.91866" lon="-0.13538">
        <ele>61.76</ele>
        <time>2024-07-15T04:04:50.736Z</time>
      </trkpt>
      <trkpt lat="46.91843" lon="-0.13553">
        <ele>61.71</ele>
        <time>2024-07-15T04:05:05.066Z</time>
      </trkpt>
      <trkpt lat="46.91819" lon="-0.13586">
        <ele>61</ele>
        <time>2024-07-15T04:05:19.401Z</time>
      </trkpt>
      <trkpt lat="46.91787" lon="-0.13638">
        <ele>60.77</ele>
        <time>2024-07-15T04:05:33.743Z</time>
      </trkpt>
      <trkpt lat="46.9176" lon="-0.13677">
        <ele>61</ele>
        <time>2024-07-15T04:05:48.092Z</time>
      </trkpt>
      <trkpt lat="46.91743" lon="-0.13701">
        <ele>61</ele>
        <time>2024-07-15T04:06:02.444Z</time>
      </trkpt>
      <trkpt lat="46.91705" lon="-0.13745">
        <ele>63.17</ele>
        <time>2024-07-15T04:06:16.804Z</time>
      </trkpt>
      <trkpt lat="46.91681" lon="-0.13775">
        <ele>64.53</ele>
        <time>2024-07-15T04:06:31.169Z</time>
      </trkpt>
      <trkpt lat="46.91668" lon="-0.13794">
        <ele>65.51</ele>
        <time>2024-07-15T04:06:45.537Z</time>
      </trkpt>
      <trkpt lat="46.91623" lon="-0.13878">
        <ele>62.99</ele>
        <time>2024-07-15T04:06:59.917Z</time>
      </trkpt>
      <trkpt lat="46.91589" lon="-0.1393">
        <ele>61.61</ele>
        <time>2024-07-15T04:07:14.305Z</time>
      </trkpt>
      <trkpt lat="46.91551" lon="-0.13982">
        <ele>62</ele>
        <time>2024-07-15T04:07:28.701Z</time>
      </trkpt>
      <trkpt lat="46.91523" lon="-0.14014">
        <ele>63.17</ele>
        <time>2024-07-15T04:07:43.103Z</time>
      </trkpt>
      <trkpt lat="46.9149" lon="-0.1404">
        <ele>61.73</ele>
        <time>2024-07-15T04:07:57.511Z</time>
      </trkpt>
      <trkpt lat="46.91487" lon="-0.14043">
        <ele>61.36</ele>
        <time>2024-07-15T04:08:11.919Z</time>
      </trkpt>
      <trkpt lat="46.91438" lon="-0.14082">
        <ele>58.65</ele>
        <time>2024-07-15T04:08:26.336Z</time>
      </trkpt>
      <trkpt lat="46.91422" lon="-0.14093">
        <ele>58.71</ele>
        <time>2024-07-15T04:08:40.756Z</time>
      </trkpt>
      <trkpt lat="46.91336" lon="-0.14122">
        <ele>62.74</ele>
        <time>2024-07-15T04:08:55.190Z</time>
      </trkpt>
      <trkpt lat="46.91231" lon="-0.14144">
        <ele>61.46</ele>
        <time>2024-07-15T04:09:09.641Z</time>
      </trkpt>
      <trkpt lat="46.91077" lon="-0.14209">
        <ele>62.3</ele>
        <time>2024-07-15T04:09:24.118Z</time>
      </trkpt>
      <trkpt lat="46.91" lon="-0.1424">
        <ele>62.57</ele>
        <time>2024-07-15T04:09:38.608Z</time>
      </trkpt>
      <trkpt lat="46.90926" lon="-0.14267">
        <ele>62.05</ele>
        <time>2024-07-15T04:09:53.110Z</time>
      </trkpt>
      <trkpt lat="46.90917" lon="-0.1427">
        <ele>62.47</ele>
        <time>2024-07-15T04:10:07.613Z</time>
      </trkpt>
      <trkpt lat="46.90899" lon="-0.14271">
        <ele>63.22</ele>
        <time>2024-07-15T04:10:22.119Z</time>
      </trkpt>
      <trkpt lat="46.90893" lon="-0.14271">
        <ele>63.91</ele>
        <time>2024-07-15T04:10:36.626Z</time>
      </trkpt>
      <trkpt lat="46.90861" lon="-0.14273">
        <ele>66.58</ele>
        <time>2024-07-15T04:10:51.138Z</time>
      </trkpt>
      <trkpt lat="46.90847" lon="-0.14274">
        <ele>67.14</ele>
        <time>2024-07-15T04:11:05.653Z</time>
      </trkpt>
      <trkpt lat="46.9083" lon="-0.14278">
        <ele>66.45</ele>
        <time>2024-07-15T04:11:20.170Z</time>
      </trkpt>
      <trkpt lat="46.90805" lon="-0.14284">
        <ele>65.56</ele>
        <time>2024-07-15T04:11:34.691Z</time>
      </trkpt>
      <trkpt lat="46.90793" lon="-0.14286">
        <ele>64.96</ele>
        <time>2024-07-15T04:11:49.214Z</time>
      </trkpt>
      <trkpt lat="46.90781" lon="-0.14286">
        <ele>64.35</ele>
        <time>2024-07-15T04:12:03.739Z</time>
      </trkpt>
      <trkpt lat="46.9077" lon="-0.14282">
        <ele>64</ele>
        <time>2024-07-15T04:12:18.266Z</time>
      </trkpt>
      <trkpt lat="46.90756" lon="-0.14275">
        <ele>64</ele>
        <time>2024-07-15T04:12:32.795Z</time>
      </trkpt>
      <trkpt lat="46.90719" lon="-0.14256">
        <ele>63.05</ele>
        <time>2024-07-15T04:12:47.331Z</time>
      </trkpt>
      <trkpt lat="46.90701" lon="-0.1425">
        <ele>62.17</ele>
        <time>2024-07-15T04:13:01.870Z</time>
      </trkpt>
      <trkpt lat="46.90685" lon="-0.14242">
        <ele>61.33</ele>
        <time>2024-07-15T04:13:16.411Z</time>
      </trkpt>
      <trkpt lat="46.90669" lon="-0.14233">
        <ele>61</ele>
        <time>2024-07-15T04:13:30.955Z</time>
      </trkpt>
      <trkpt lat="46.90645" lon="-0.14218">
        <ele>61</ele>
        <time>2024-07-15T04:13:45.503Z</time>
      </trkpt>
      <trkpt lat="46.90546" lon="-0.1415">
        <ele>62.25</ele>
        <time>2024-07-15T04:14:00.069Z</time>
      </trkpt>
      <trkpt lat="46.90489" lon="-0.14092">
        <ele>61.51</ele>
        <time>2024-07-15T04:14:14.646Z</time>
      </trkpt>
      <trkpt lat="46.90447" lon="-0.14041">
        <ele>61.21</ele>
        <time>2024-07-15T04:14:29.232Z</time>
      </trkpt>
      <trkpt lat="46.9042" lon="-0.13982">
        <ele>60.69</ele>
        <time>2024-07-15T04:14:43.826Z</time>
      </trkpt>
      <trkpt lat="46.90392" lon="-0.13929">
        <ele>62.18</ele>
        <time>2024-07-15T04:14:58.427Z</time>
      </trkpt>
      <trkpt lat="46.90354" lon="-0.13889">
        <ele>64.9</ele>
        <time>2024-07-15T04:15:13.035Z</time>
      </trkpt>
      <trkpt lat="46.90316" lon="-0.13857">
        <ele>66.49</ele>
        <time>2024-07-15T04:15:27.650Z</time>
      </trkpt>
      <trkpt lat="46.90259" lon="-0.13803">
        <ele>75.3</ele>
        <time>2024-07-15T04:15:42.276Z</time>
      </trkpt>
      <trkpt lat="46.90251" lon="-0.13795">
        <ele>76.36</ele>
        <time>2024-07-15T04:15:56.904Z</time>
      </trkpt>
      <trkpt lat="46.90245" lon="-0.13791">
        <ele>76.58</ele>
        <time>2024-07-15T04:16:11.533Z</time>
      </trkpt>
      <trkpt lat="46.90235" lon="-0.13786">
        <ele>77.81</ele>
        <time>2024-07-15T04:16:26.164Z</time>
      </trkpt>
      <trkpt lat="46.9022" lon="-0.13781">
        <ele>79.06</ele>
        <time>2024-07-15T04:16:40.797Z</time>
      </trkpt>
      <trkpt lat="46.90183" lon="-0.13772">
        <ele>80.33</ele>
        <time>2024-07-15T04:16:55.436Z</time>
      </trkpt>
      <trkpt lat="46.90149" lon="-0.13763">
        <ele>81.11</ele>
        <time>2024-07-15T04:17:10.081Z</time>
      </trkpt>
      <trkpt lat="46.90114" lon="-0.13742">
        <ele>81.65</ele>
        <time>2024-07-15T04:17:24.732Z</time>
      </trkpt>
      <trkpt lat="46.90083" lon="-0.13708">
        <ele>82.15</ele>
        <time>2024-07-15T04:17:39.389Z</time>
      </trkpt>
      <trkpt lat="46.90044" lon="-0.13674">
        <ele>82.37</ele>
        <time>2024-07-15T04:17:54.053Z</time>
      </trkpt>
      <trkpt lat="46.90023" lon="-0.13663">
        <ele>82.77</ele>
        <time>2024-07-15T04:18:08.721Z</time>
      </trkpt>
      <trkpt lat="46.90002" lon="-0.13652">
        <ele>83.17</ele>
        <time>2024-07-15T04:18:23.392Z</time>
      </trkpt>
      <trkpt lat="46.89972" lon="-0.13646">
        <ele>84.17</ele>
        <time>2024-07-15T04:18:38.068Z</time>
      </trkpt>
      <trkpt lat="46.89922" lon="-0.13645">
        <ele>85</ele>
        <time>2024-07-15T04:18:52.752Z</time>
      </trkpt>
      <trkpt lat="46.89848" lon="-0.13648">
        <ele>84.12</ele>
        <time>2024-07-15T04:19:07.448Z</time>
      </trkpt>
      <trkpt lat="46.89797" lon="-0.13644">
        <ele>87.39</ele>
        <time>2024-07-15T04:19:22.152Z</time>
      </trkpt>
      <trkpt lat="46.89747" lon="-0.13641">
        <ele>89.44</ele>
        <time>2024-07-15T04:19:36.864Z</time>
      </trkpt>
      <trkpt lat="46.89713" lon="-0.13651">
        <ele>89.79</ele>
        <time>2024-07-15T04:19:51.582Z</time>
      </trkpt>
      <trkpt lat="46.89688" lon="-0.13664">
        <ele>89.63</ele>
        <time>2024-07-15T04:20:06.304Z</time>
      </trkpt>
      <trkpt lat="46.89664" lon="-0.13686">
        <ele>89.95</ele>
        <time>2024-07-15T04:20:21.030Z</time>
      </trkpt>
      <trkpt lat="46.8965" lon="-0.13697">
        <ele>89.54</ele>
        <time>2024-07-15T04:20:35.759Z</time>
      </trkpt>
      <trkpt lat="46.89633" lon="-0.13716">
        <ele>88.22</ele>
        <time>2024-07-15T04:20:50.491Z</time>
      </trkpt>
      <trkpt lat="46.89614" lon="-0.13735">
        <ele>86.88</ele>
        <time>2024-07-15T04:21:05.227Z</time>
      </trkpt>
      <trkpt lat="46.89596" lon="-0.13749">
        <ele>85.73</ele>
        <time>2024-07-15T04:21:19.966Z</time>
      </trkpt>
      <trkpt lat="46.89581" lon="-0.13752">
        <ele>85.15</ele>
        <time>2024-07-15T04:21:34.708Z</time>
      </trkpt>
      <trkpt lat="46.89558" lon="-0.13756">
        <ele>85.12</ele>
        <time>2024-07-15T04:21:49.453Z</time>
      </trkpt>
      <trkpt lat="46.89515" lon="-0.13756">
        <ele>86.41</ele>
        <time>2024-07-15T04:22:04.205Z</time>
      </trkpt>
      <trkpt lat="46.89485" lon="-0.13748">
        <ele>86.72</ele>
        <time>2024-07-15T04:22:18.962Z</time>
      </trkpt>
      <trkpt lat="46.894" lon="-0.13721">
        <ele>89.09</ele>
        <time>2024-07-15T04:22:33.733Z</time>
      </trkpt>
      <trkpt lat="46.89341" lon="-0.13708">
        <ele>87.29</ele>
        <time>2024-07-15T04:22:48.514Z</time>
      </trkpt>
      <trkpt lat="46.89332" lon="-0.13706">
        <ele>87.22</ele>
        <time>2024-07-15T04:23:03.296Z</time>
      </trkpt>
      <trkpt lat="46.89325" lon="-0.13703">
        <ele>87.27</ele>
        <time>2024-07-15T04:23:18.079Z</time>
      </trkpt>
      <trkpt lat="46.89319" lon="-0.13699">
        <ele>87.16</ele>
        <time>2024-07-15T04:23:32.863Z</time>
      </trkpt>
      <trkpt lat="46.89313" lon="-0.13692">
        <ele>87.32</ele>
        <time>2024-07-15T04:23:47.649Z</time>
      </trkpt>
      <trkpt lat="46.89307" lon="-0.13683">
        <ele>87.79</ele>
        <time>2024-07-15T04:24:02.436Z</time>
      </trkpt>
      <trkpt lat="46.89302" lon="-0.13674">
        <ele>88.26</ele>
        <time>2024-07-15T04:24:17.224Z</time>
      </trkpt>
      <trkpt lat="46.89297" lon="-0.13666">
        <ele>88.27</ele>
        <time>2024-07-15T04:24:32.013Z</time>
      </trkpt>
      <trkpt lat="46.89293" lon="-0.1366">
        <ele>88.15</ele>
        <time>2024-07-15T04:24:46.803Z</time>
      </trkpt>
      <trkpt lat="46.89284" lon="-0.13653">
        <ele>88.22</ele>
        <time>2024-07-15T04:25:01.595Z</time>
      </trkpt>
      <trkpt lat="46.89276" lon="-0.1365">
        <ele>88.49</ele>
        <time>2024-07-15T04:25:16.388Z</time>
      </trkpt>
      <trkpt lat="46.89267" lon="-0.13647">
        <ele>88.56</ele>
        <time>2024-07-15T04:25:31.183Z</time>
      </trkpt>
      <trkpt lat="46.89258" lon="-0.13646">
        <ele>88.27</ele>
        <time>2024-07-15T04:25:45.979Z</time>
      </trkpt>
      <trkpt lat="46.89236" lon="-0.13647">
        <ele>87.44</ele>
        <time>2024-07-15T04:26:00.779Z</time>
      </trkpt>
      <trkpt lat="46.89214" lon="-0.13647">
        <ele>88.05</ele>
        <time>2024-07-15T04:26:15.582Z</time>
      </trkpt>
      <trkpt lat="46.89178" lon="-0.1364">
        <ele>90.57</ele>
        <time>2024-07-15T04:26:30.391Z</time>
      </trkpt>
      <trkpt lat="46.89164" lon="-0.13647">
        <ele>90.83</ele>
        <time>2024-07-15T04:26:45.202Z</time>
      </trkpt>
      <trkpt lat="46.89138" lon="-0.13655">
        <ele>91.07</ele>
        <time>2024-07-15T04:27:00.018Z</time>
      </trkpt>
      <trkpt lat="46.89119" lon="-0.13657">
        <ele>91</ele>
        <time>2024-07-15T04:27:14.837Z</time>
      </trkpt>
      <trkpt lat="46.89079" lon="-0.13645">
        <ele>92.1</ele>
        <time>2024-07-15T04:27:29.662Z</time>
      </trkpt>
      <trkpt lat="46.89027" lon="-0.13611">
        <ele>96.41</ele>
        <time>2024-07-15T04:27:44.496Z</time>
      </trkpt>
      <trkpt lat="46.89002" lon="-0.13602">
        <ele>97.64</ele>
        <time>2024-07-15T04:27:59.335Z</time>
      </trkpt>
      <trkpt lat="46.8898" lon="-0.13599">
        <ele>99.04</ele>
        <time>2024-07-15T04:28:14.177Z</time>
      </trkpt>
      <trkpt lat="46.8896" lon="-0.13586">
        <ele>99.27</ele>
        <time>2024-07-15T04:28:29.023Z</time>
      </trkpt>
      <trkpt lat="46.88948" lon="-0.13568">
        <ele>98.35</ele>
        <time>2024-07-15T04:28:43.871Z</time>
      </trkpt>
      <trkpt lat="46.88934" lon="-0.13568">
        <ele>97.82</ele>
        <time>2024-07-15T04:28:58.722Z</time>
      </trkpt>
      <trkpt lat="46.88916" lon="-0.13571">
        <ele>97.47</ele>
        <time>2024-07-15T04:29:13.576Z</time>
      </trkpt>
      <trkpt lat="46.88908" lon="-0.13504">
        <ele>96</ele>
        <time>2024-07-15T04:29:28.437Z</time>
      </trkpt>
      <trkpt lat="46.889" lon="-0.13483">
        <ele>96</ele>
        <time>2024-07-15T04:29:43.301Z</time>
      </trkpt>
      <trkpt lat="46.8887" lon="-0.13445">
        <ele>95.32</ele>
        <time>2024-07-15T04:29:58.171Z</time>
      </trkpt>
      <trkpt lat="46.88803" lon="-0.13396">
        <ele>92.51</ele>
        <time>2024-07-15T04:30:13.053Z</time>
      </trkpt>
      <trkpt lat="46.88773" lon="-0.13383">
        <ele>91.58</ele>
        <time>2024-07-15T04:30:27.940Z</time>
      </trkpt>
      <trkpt lat="46.8872" lon="-0.13356">
        <ele>92.45</ele>
        <time>2024-07-15T04:30:42.836Z</time>
      </trkpt>
      <trkpt lat="46.88679" lon="-0.13323">
        <ele>93</ele>
        <time>2024-07-15T04:30:57.740Z</time>
      </trkpt>
      <trkpt lat="46.88638" lon="-0.13268">
        <ele>89.14</ele>
        <time>2024-07-15T04:31:12.652Z</time>
      </trkpt>
      <trkpt lat="46.88628" lon="-0.13258">
        <ele>88.41</ele>
        <time>2024-07-15T04:31:27.566Z</time>
      </trkpt>
      <trkpt lat="46.88618" lon="-0.13249">
        <ele>87.86</ele>
        <time>2024-07-15T04:31:42.482Z</time>
      </trkpt>
      <trkpt lat="46.88604" lon="-0.13243">
        <ele>86.85</ele>
        <time>2024-07-15T04:31:57.401Z</time>
      </trkpt>
      <trkpt lat="46.88583" lon="-0.13237">
        <ele>85.5</ele>
        <time>2024-07-15T04:32:12.323Z</time>
      </trkpt>
      <trkpt lat="46.88558" lon="-0.13235">
        <ele>85.3</ele>
        <time>2024-07-15T04:32:27.249Z</time>
      </trkpt>
      <trkpt lat="46.88551" lon="-0.13235">
        <ele>85.56</ele>
        <time>2024-07-15T04:32:42.176Z</time>
      </trkpt>
      <trkpt lat="46.88549" lon="-0.13233">
        <ele>85.63</ele>
        <time>2024-07-15T04:32:57.104Z</time>
      </trkpt>
      <trkpt lat="46.88526" lon="-0.13261">
        <ele>85.68</ele>
        <time>2024-07-15T04:33:12.036Z</time>
      </trkpt>
      <trkpt lat="46.88527" lon="-0.1327">
        <ele>85.42</ele>
        <time>2024-07-15T04:33:26.969Z</time>
      </trkpt>
      <trkpt lat="46.88521" lon="-0.13289">
        <ele>85.78</ele>
        <time>2024-07-15T04:33:41.905Z</time>
      </trkpt>
      <trkpt lat="46.88505" lon="-0.13345">
        <ele>85.19</ele>
        <time>2024-07-15T04:33:56.847Z</time>
      </trkpt>
      <trkpt lat="46.88493" lon="-0.1339">
        <ele>84.59</ele>
        <time>2024-07-15T04:34:11.794Z</time>
      </trkpt>
      <trkpt lat="46.88488" lon="-0.13412">
        <ele>84.18</ele>
        <time>2024-07-15T04:34:26.744Z</time>
      </trkpt>
      <trkpt lat="46.88482" lon="-0.13442">
        <ele>83.97</ele>
        <time>2024-07-15T04:34:41.697Z</time>
      </trkpt>
      <trkpt lat="46.88481" lon="-0.13448">
        <ele>83.92</ele>
        <time>2024-07-15T04:34:56.651Z</time>
      </trkpt>
      <trkpt lat="46.8848" lon="-0.13451">
        <ele>83.88</ele>
        <time>2024-07-15T04:35:11.605Z</time>
      </trkpt>
      <trkpt lat="46.88478" lon="-0.13454">
        <ele>83.84</ele>
        <time>2024-07-15T04:35:26.560Z</time>
      </trkpt>
      <trkpt lat="46.88477" lon="-0.13457">
        <ele>83.77</ele>
        <time>2024-07-15T04:35:41.515Z</time>
      </trkpt>
      <trkpt lat="46.88474" lon="-0.13459">
        <ele>83.68</ele>
        <time>2024-07-15T04:35:56.471Z</time>
      </trkpt>
      <trkpt lat="46.88457" lon="-0.13475">
        <ele>82.59</ele>
        <time>2024-07-15T04:36:11.430Z</time>
      </trkpt>
      <trkpt lat="46.88454" lon="-0.13477">
        <ele>82.51</ele>
        <time>2024-07-15T04:36:26.389Z</time>
      </trkpt>
      <trkpt lat="46.8845" lon="-0.13476">
        <ele>82.7</ele>
        <time>2024-07-15T04:36:41.349Z</time>
      </trkpt>
      <trkpt lat="46.88447" lon="-0.13481">
        <ele>82.59</ele>
        <time>2024-07-15T04:36:56.310Z</time>
      </trkpt>
      <trkpt lat="46.88446" lon="-0.13484">
        <ele>82.54</ele>
        <time>2024-07-15T04:37:11.271Z</time>
      </trkpt>
      <trkpt lat="46.88432" lon="-0.13506">
        <ele>82.27</ele>
        <time>2024-07-15T04:37:26.236Z</time>
      </trkpt>
      <trkpt lat="46.88424" lon="-0.13518">
        <ele>82.54</ele>
        <time>2024-07-15T04:37:41.202Z</time>
      </trkpt>
      <trkpt lat="46.88409" lon="-0.13558">
        <ele>82.02</ele>
        <time>2024-07-15T04:37:56.173Z</time>
      </trkpt>
      <trkpt lat="46.88399" lon="-0.13591">
        <ele>81.62</ele>
        <time>2024-07-15T04:38:11.148Z</time>
      </trkpt>
      <trkpt lat="46.88378" lon="-0.13652">
        <ele>80.77</ele>
        <time>2024-07-15T04:38:26.131Z</time>
      </trkpt>
      <trkpt lat="46.8837" lon="-0.13678">
        <ele>79.75</ele>
        <time>2024-07-15T04:38:41.117Z</time>
      </trkpt>
      <trkpt lat="46.88366" lon="-0.13696">
        <ele>79.62</ele>
        <time>2024-07-15T04:38:56.105Z</time>
      </trkpt>
      <trkpt lat="46.88361" lon="-0.13724">
        <ele>79.12</ele>
        <time>2024-07-15T04:39:11.096Z</time>
      </trkpt>
      <trkpt lat="46.88359" lon="-0.13737">
        <ele>78.95</ele>
        <time>2024-07-15T04:39:26.089Z</time>
      </trkpt>
      <trkpt lat="46.88357" lon="-0.13748">
        <ele>79.21</ele>
        <time>2024-07-15T04:39:41.083Z</time>
      </trkpt>
      <trkpt lat="46.88354" lon="-0.13758">
        <ele>79.59</ele>
        <time>2024-07-15T04:39:56.078Z</time>
      </trkpt>
      <trkpt lat="46.88347" lon="-0.13776">
        <ele>80.48</ele>
        <time>2024-07-15T04:40:11.075Z</time>
      </trkpt>
      <trkpt lat="46.88345" lon="-0.13781">
        <ele>80.75</ele>
        <time>2024-07-15T04:40:26.073Z</time>
      </trkpt>
      <trkpt lat="46.88345" lon="-0.13787">
        <ele>80.82</ele>
        <time>2024-07-15T04:40:41.072Z</time>
      </trkpt>
      <trkpt lat="46.88346" lon="-0.13793">
        <ele>80.68</ele>
        <time>2024-07-15T04:40:56.071Z</time>
      </trkpt>
      <trkpt lat="46.88347" lon="-0.138">
        <ele>80.37</ele>
        <time>2024-07-15T04:41:11.071Z</time>
      </trkpt>
      <trkpt lat="46.88351" lon="-0.13814">
        <ele>79.55</ele>
        <time>2024-07-15T04:41:26.073Z</time>
      </trkpt>
      <trkpt lat="46.88354" lon="-0.13832">
        <ele>78.67</ele>
        <time>2024-07-15T04:41:41.077Z</time>
      </trkpt>
      <trkpt lat="46.88357" lon="-0.1385">
        <ele>77.78</ele>
        <time>2024-07-15T04:41:56.083Z</time>
      </trkpt>
      <trkpt lat="46.88359" lon="-0.13868">
        <ele>75.71</ele>
        <time>2024-07-15T04:42:11.091Z</time>
      </trkpt>
      <trkpt lat="46.88364" lon="-0.13868">
        <ele>73.79</ele>
        <time>2024-07-15T04:42:26.100Z</time>
      </trkpt>
      <trkpt lat="46.88369" lon="-0.13868">
        <ele>71.77</ele>
        <time>2024-07-15T04:42:41.110Z</time>
      </trkpt>
      <trkpt lat="46.88373" lon="-0.1387">
        <ele>70.16</ele>
        <time>2024-07-15T04:42:56.120Z</time>
      </trkpt>
      <trkpt lat="46.88375" lon="-0.13871">
        <ele>69.51</ele>
        <time>2024-07-15T04:43:11.131Z</time>
      </trkpt>
      <trkpt lat="46.88378" lon="-0.13877">
        <ele>68.31</ele>
        <time>2024-07-15T04:43:26.142Z</time>
      </trkpt>
      <trkpt lat="46.88379" lon="-0.13885">
        <ele>67.21</ele>
        <time>2024-07-15T04:43:41.154Z</time>
      </trkpt>
      <trkpt lat="46.88382" lon="-0.13901">
        <ele>65.57</ele>
        <time>2024-07-15T04:43:56.168Z</time>
      </trkpt>
      <trkpt lat="46.88391" lon="-0.1395">
        <ele>61.95</ele>
        <time>2024-07-15T04:44:11.188Z</time>
      </trkpt>
      <trkpt lat="46.88402" lon="-0.14002">
        <ele>61.94</ele>
        <time>2024-07-15T04:44:26.214Z</time>
      </trkpt>
      <trkpt lat="46.88403" lon="-0.14014">
        <ele>62.84</ele>
        <time>2024-07-15T04:44:41.241Z</time>
      </trkpt>
      <trkpt lat="46.88404" lon="-0.14021">
        <ele>63.1</ele>
        <time>2024-07-15T04:44:56.269Z</time>
      </trkpt>
      <trkpt lat="46.88404" lon="-0.14029">
        <ele>63.38</ele>
        <time>2024-07-15T04:45:11.298Z</time>
      </trkpt>
      <trkpt lat="46.88404" lon="-0.14036">
        <ele>63.66</ele>
        <time>2024-07-15T04:45:26.327Z</time>
      </trkpt>
      <trkpt lat="46.88403" lon="-0.14041">
        <ele>63.83</ele>
        <time>2024-07-15T04:45:41.357Z</time>
      </trkpt>
      <trkpt lat="46.88402" lon="-0.14046">
        <ele>64.02</ele>
        <time>2024-07-15T04:45:56.388Z</time>
      </trkpt>
      <trkpt lat="46.88413" lon="-0.14083">
        <ele>65.33</ele>
        <time>2024-07-15T04:46:11.423Z</time>
      </trkpt>
      <trkpt lat="46.88423" lon="-0.14117">
        <ele>66.42</ele>
        <time>2024-07-15T04:46:26.462Z</time>
      </trkpt>
      <trkpt lat="46.88442" lon="-0.14185">
        <ele>69</ele>
        <time>2024-07-15T04:46:41.509Z</time>
      </trkpt>
      <trkpt lat="46.88459" lon="-0.1425">
        <ele>71.35</ele>
        <time>2024-07-15T04:46:56.564Z</time>
      </trkpt>
      <trkpt lat="46.88479" lon="-0.14315">
        <ele>74.67</ele>
        <time>2024-07-15T04:47:11.627Z</time>
      </trkpt>
      <trkpt lat="46.88492" lon="-0.14356">
        <ele>77.7</ele>
        <time>2024-07-15T04:47:26.695Z</time>
      </trkpt>
      <trkpt lat="46.88522" lon="-0.14436">
        <ele>80.08</ele>
        <time>2024-07-15T04:47:41.773Z</time>
      </trkpt>
      <trkpt lat="46.88525" lon="-0.14448">
        <ele>80.98</ele>
        <time>2024-07-15T04:47:56.852Z</time>
      </trkpt>
      <trkpt lat="46.88549" lon="-0.1452">
        <ele>85.38</ele>
        <time>2024-07-15T04:48:11.940Z</time>
      </trkpt>
      <trkpt lat="46.88565" lon="-0.14564">
        <ele>86.69</ele>
        <time>2024-07-15T04:48:27.033Z</time>
      </trkpt>
      <trkpt lat="46.88567" lon="-0.1457">
        <ele>86.87</ele>
        <time>2024-07-15T04:48:42.127Z</time>
      </trkpt>
      <trkpt lat="46.88572" lon="-0.14587">
        <ele>87</ele>
        <time>2024-07-15T04:48:57.223Z</time>
      </trkpt>
      <trkpt lat="46.88577" lon="-0.14606">
        <ele>87</ele>
        <time>2024-07-15T04:49:12.321Z</time>
      </trkpt>
      <trkpt lat="46.8858" lon="-0.14628">
        <ele>87.43</ele>
        <time>2024-07-15T04:49:27.422Z</time>
      </trkpt>
      <trkpt lat="46.88582" lon="-0.14647">
        <ele>87.54</ele>
        <time>2024-07-15T04:49:42.525Z</time>
      </trkpt>
      <trkpt lat="46.88584" lon="-0.14674">
        <ele>88.22</ele>
        <time>2024-07-15T04:49:57.631Z</time>
      </trkpt>
      <trkpt lat="46.88588" lon="-0.14745">
        <ele>89.97</ele>
        <time>2024-07-15T04:50:12.745Z</time>
      </trkpt>
      <trkpt lat="46.88592" lon="-0.14791">
        <ele>89.25</ele>
        <time>2024-07-15T04:50:27.864Z</time>
      </trkpt>
      <trkpt lat="46.88593" lon="-0.14808">
        <ele>88.62</ele>
        <time>2024-07-15T04:50:42.984Z</time>
      </trkpt>
      <trkpt lat="46.8859" lon="-0.14812">
        <ele>88.71</ele>
        <time>2024-07-15T04:50:58.105Z</time>
      </trkpt>
      <trkpt lat="46.88587" lon="-0.14819">
        <ele>88.66</ele>
        <time>2024-07-15T04:51:13.227Z</time>
      </trkpt>
      <trkpt lat="46.88575" lon="-0.14879">
        <ele>89.38</ele>
        <time>2024-07-15T04:51:28.356Z</time>
      </trkpt>
      <trkpt lat="46.88564" lon="-0.14951">
        <ele>90.07</ele>
        <time>2024-07-15T04:51:43.493Z</time>
      </trkpt>
      <trkpt lat="46.88559" lon="-0.15009">
        <ele>90</ele>
        <time>2024-07-15T04:51:58.636Z</time>
      </trkpt>
      <trkpt lat="46.88563" lon="-0.15073">
        <ele>89.02</ele>
        <time>2024-07-15T04:52:13.786Z</time>
      </trkpt>
      <trkpt lat="46.88566" lon="-0.15137">
        <ele>87.98</ele>
        <time>2024-07-15T04:52:28.944Z</time>
      </trkpt>
      <trkpt lat="46.88563" lon="-0.15174">
        <ele>87.87</ele>
        <time>2024-07-15T04:52:44.106Z</time>
      </trkpt>
      <trkpt lat="46.8856" lon="-0.15197">
        <ele>88</ele>
        <time>2024-07-15T04:52:59.270Z</time>
      </trkpt>
      <trkpt lat="46.88558" lon="-0.15203">
        <ele>88</ele>
        <time>2024-07-15T04:53:14.435Z</time>
      </trkpt>
      <trkpt lat="46.88551" lon="-0.15231">
        <ele>88</ele>
        <time>2024-07-15T04:53:29.603Z</time>
      </trkpt>
      <trkpt lat="46.88506" lon="-0.15394">
        <ele>92.72</ele>
        <time>2024-07-15T04:53:44.791Z</time>
      </trkpt>
      <trkpt lat="46.88488" lon="-0.15428">
        <ele>94.58</ele>
        <time>2024-07-15T04:53:59.983Z</time>
      </trkpt>
      <trkpt lat="46.88475" lon="-0.15452">
        <ele>95.32</ele>
        <time>2024-07-15T04:54:15.178Z</time>
      </trkpt>
      <trkpt lat="46.88435" lon="-0.15523">
        <ele>96</ele>
        <time>2024-07-15T04:54:30.384Z</time>
      </trkpt>
      <trkpt lat="46.8841" lon="-0.15577">
        <ele>96.63</ele>
        <time>2024-07-15T04:54:45.597Z</time>
      </trkpt>
      <trkpt lat="46.88384" lon="-0.15624">
        <ele>96.76</ele>
        <time>2024-07-15T04:55:00.816Z</time>
      </trkpt>
      <trkpt lat="46.88364" lon="-0.15667">
        <ele>96</ele>
        <time>2024-07-15T04:55:16.041Z</time>
      </trkpt>
      <trkpt lat="46.88344" lon="-0.15708">
        <ele>96.84</ele>
        <time>2024-07-15T04:55:31.272Z</time>
      </trkpt>
      <trkpt lat="46.88308" lon="-0.1578">
        <ele>97</ele>
        <time>2024-07-15T04:55:46.512Z</time>
      </trkpt>
      <trkpt lat="46.88297" lon="-0.15802">
        <ele>97</ele>
        <time>2024-07-15T04:56:01.755Z</time>
      </trkpt>
      <trkpt lat="46.88283" lon="-0.15825">
        <ele>97</ele>
        <time>2024-07-15T04:56:17.002Z</time>
      </trkpt>
      <trkpt lat="46.88269" lon="-0.15851">
        <ele>97</ele>
        <time>2024-07-15T04:56:32.252Z</time>
      </trkpt>
      <trkpt lat="46.88265" lon="-0.15862">
        <ele>97</ele>
        <time>2024-07-15T04:56:47.504Z</time>
      </trkpt>
      <trkpt lat="46.88262" lon="-0.15872">
        <ele>97</ele>
        <time>2024-07-15T04:57:02.757Z</time>
      </trkpt>
      <trkpt lat="46.8826" lon="-0.15883">
        <ele>97</ele>
        <time>2024-07-15T04:57:18.011Z</time>
      </trkpt>
      <trkpt lat="46.88255" lon="-0.15885">
        <ele>97</ele>
        <time>2024-07-15T04:57:33.266Z</time>
      </trkpt>
      <trkpt lat="46.88251" lon="-0.15889">
        <ele>97.01</ele>
        <time>2024-07-15T04:57:48.522Z</time>
      </trkpt>
      <trkpt lat="46.88239" lon="-0.15905">
        <ele>97</ele>
        <time>2024-07-15T04:58:03.780Z</time>
      </trkpt>
      <trkpt lat="46.88229" lon="-0.15921">
        <ele>97.13</ele>
        <time>2024-07-15T04:58:19.041Z</time>
      </trkpt>
      <trkpt lat="46.8822" lon="-0.15936">
        <ele>97.43</ele>
        <time>2024-07-15T04:58:34.304Z</time>
      </trkpt>
      <trkpt lat="46.88218" lon="-0.15942">
        <ele>97.29</ele>
        <time>2024-07-15T04:58:49.568Z</time>
      </trkpt>
      <trkpt lat="46.88217" lon="-0.15948">
        <ele>97.1</ele>
        <time>2024-07-15T04:59:04.832Z</time>
      </trkpt>
      <trkpt lat="46.88214" lon="-0.15963">
        <ele>97</ele>
        <time>2024-07-15T04:59:20.098Z</time>
      </trkpt>
      <trkpt lat="46.88213" lon="-0.15972">
        <ele>97</ele>
        <time>2024-07-15T04:59:35.365Z</time>
      </trkpt>
      <trkpt lat="46.8821" lon="-0.1598">
        <ele>97</ele>
        <time>2024-07-15T04:59:50.633Z</time>
      </trkpt>
      <trkpt lat="46.88207" lon="-0.15986">
        <ele>97</ele>
        <time>2024-07-15T05:00:05.902Z</time>
      </trkpt>
      <trkpt lat="46.88183" lon="-0.16014">
        <ele>97</ele>
        <time>2024-07-15T05:00:21.176Z</time>
      </trkpt>
      <trkpt lat="46.8818" lon="-0.16026">
        <ele>96.71</ele>
        <time>2024-07-15T05:00:36.451Z</time>
      </trkpt>
      <trkpt lat="46.88162" lon="-0.16032">
        <ele>95.94</ele>
        <time>2024-07-15T05:00:51.729Z</time>
      </trkpt>
      <trkpt lat="46.8815" lon="-0.16034">
        <ele>95.46</ele>
        <time>2024-07-15T05:01:07.009Z</time>
      </trkpt>
      <trkpt lat="46.88142" lon="-0.16034">
        <ele>95.15</ele>
        <time>2024-07-15T05:01:22.290Z</time>
      </trkpt>
      <trkpt lat="46.88132" lon="-0.16032">
        <ele>94.89</ele>
        <time>2024-07-15T05:01:37.573Z</time>
      </trkpt>
      <trkpt lat="46.88123" lon="-0.16026">
        <ele>94.75</ele>
        <time>2024-07-15T05:01:52.858Z</time>
      </trkpt>
      <trkpt lat="46.88115" lon="-0.16019">
        <ele>95.23</ele>
        <time>2024-07-15T05:02:08.144Z</time>
      </trkpt>
      <trkpt lat="46.88097" lon="-0.15993">
        <ele>96</ele>
        <time>2024-07-15T05:02:23.434Z</time>
      </trkpt>
      <trkpt lat="46.88092" lon="-0.15988">
        <ele>96</ele>
        <time>2024-07-15T05:02:38.725Z</time>
      </trkpt>
      <trkpt lat="46.88085" lon="-0.15983">
        <ele>96</ele>
        <time>2024-07-15T05:02:54.017Z</time>
      </trkpt>
      <trkpt lat="46.88076" lon="-0.1598">
        <ele>96</ele>
        <time>2024-07-15T05:03:09.311Z</time>
      </trkpt>
      <trkpt lat="46.88066" lon="-0.15979">
        <ele>96</ele>
        <time>2024-07-15T05:03:24.606Z</time>
      </trkpt>
      <trkpt lat="46.88054" lon="-0.15979">
        <ele>96.44</ele>
        <time>2024-07-15T05:03:39.903Z</time>
      </trkpt>
      <trkpt lat="46.88029" lon="-0.15982">
        <ele>96.69</ele>
        <time>2024-07-15T05:03:55.204Z</time>
      </trkpt>
      <trkpt lat="46.88014" lon="-0.15984">
        <ele>96.66</ele>
        <time>2024-07-15T05:04:10.508Z</time>
      </trkpt>
      <trkpt lat="46.87981" lon="-0.15988">
        <ele>94.55</ele>
        <time>2024-07-15T05:04:25.817Z</time>
      </trkpt>
      <trkpt lat="46.87958" lon="-0.15991">
        <ele>92.26</ele>
        <time>2024-07-15T05:04:41.130Z</time>
      </trkpt>
      <trkpt lat="46.87935" lon="-0.15992">
        <ele>91.31</ele>
        <time>2024-07-15T05:04:56.447Z</time>
      </trkpt>
      <trkpt lat="46.87895" lon="-0.15994">
        <ele>88.56</ele>
        <time>2024-07-15T05:05:11.770Z</time>
      </trkpt>
      <trkpt lat="46.87839" lon="-0.16001">
        <ele>80.44</ele>
        <time>2024-07-15T05:05:27.102Z</time>
      </trkpt>
      <trkpt lat="46.87832" lon="-0.16002">
        <ele>79.45</ele>
        <time>2024-07-15T05:05:42.435Z</time>
      </trkpt>
      <trkpt lat="46.87826" lon="-0.16003">
        <ele>78.81</ele>
        <time>2024-07-15T05:05:57.769Z</time>
      </trkpt>
      <trkpt lat="46.87821" lon="-0.16006">
        <ele>78.36</ele>
        <time>2024-07-15T05:06:13.104Z</time>
      </trkpt>
      <trkpt lat="46.87815" lon="-0.1601">
        <ele>77.97</ele>
        <time>2024-07-15T05:06:28.440Z</time>
      </trkpt>
      <trkpt lat="46.8781" lon="-0.16014">
        <ele>78.05</ele>
        <time>2024-07-15T05:06:43.777Z</time>
      </trkpt>
      <trkpt lat="46.87793" lon="-0.16031">
        <ele>78.72</ele>
        <time>2024-07-15T05:06:59.117Z</time>
      </trkpt>
      <trkpt lat="46.87783" lon="-0.16041">
        <ele>78.82</ele>
        <time>2024-07-15T05:07:14.459Z</time>
      </trkpt>
      <trkpt lat="46.87776" lon="-0.16046">
        <ele>78.67</ele>
        <time>2024-07-15T05:07:29.802Z</time>
      </trkpt>
      <trkpt lat="46.8777" lon="-0.1605">
        <ele>78.48</ele>
        <time>2024-07-15T05:07:45.146Z</time>
      </trkpt>
      <trkpt lat="46.87759" lon="-0.16053">
        <ele>77.85</ele>
        <time>2024-07-15T05:08:00.492Z</time>
      </trkpt>
      <trkpt lat="46.87745" lon="-0.16057">
        <ele>77.02</ele>
        <time>2024-07-15T05:08:15.840Z</time>
      </trkpt>
      <trkpt lat="46.87736" lon="-0.16058">
        <ele>76.45</ele>
        <time>2024-07-15T05:08:31.190Z</time>
      </trkpt>
      <trkpt lat="46.87724" lon="-0.16058">
        <ele>75.29</ele>
        <time>2024-07-15T05:08:46.542Z</time>
      </trkpt>
      <trkpt lat="46.87713" lon="-0.16057">
        <ele>74.06</ele>
        <time>2024-07-15T05:09:01.896Z</time>
      </trkpt>
      <trkpt lat="46.87701" lon="-0.16057">
        <ele>72.56</ele>
        <time>2024-07-15T05:09:17.252Z</time>
      </trkpt>
      <trkpt lat="46.87694" lon="-0.16057">
        <ele>71.58</ele>
        <time>2024-07-15T05:09:32.609Z</time>
      </trkpt>
      <trkpt lat="46.8769" lon="-0.16056">
        <ele>71.12</ele>
        <time>2024-07-15T05:09:47.966Z</time>
      </trkpt>
      <trkpt lat="46.87688" lon="-0.16056">
        <ele>70.87</ele>
        <time>2024-07-15T05:10:03.324Z</time>
      </trkpt>
      <trkpt lat="46.87687" lon="-0.16055">
        <ele>70.62</ele>
        <time>2024-07-15T05:10:18.682Z</time>
      </trkpt>
      <trkpt lat="46.87685" lon="-0.16053">
        <ele>70.37</ele>
        <time>2024-07-15T05:10:34.040Z</time>
      </trkpt>
      <trkpt lat="46.87684" lon="-0.1605">
        <ele>70.06</ele>
        <time>2024-07-15T05:10:49.398Z</time>
      </trkpt>
      <trkpt lat="46.87684" lon="-0.16046">
        <ele>69.71</ele>
        <time>2024-07-15T05:11:04.757Z</time>
      </trkpt>
      <trkpt lat="46.87683" lon="-0.16033">
        <ele>68.66</ele>
        <time>2024-07-15T05:11:20.117Z</time>
      </trkpt>
      <trkpt lat="46.87682" lon="-0.16027">
        <ele>68.13</ele>
        <time>2024-07-15T05:11:35.478Z</time>
      </trkpt>
      <trkpt lat="46.87681" lon="-0.1602">
        <ele>67.48</ele>
        <time>2024-07-15T05:11:50.840Z</time>
      </trkpt>
      <trkpt lat="46.87679" lon="-0.1601">
        <ele>67.06</ele>
        <time>2024-07-15T05:12:06.203Z</time>
      </trkpt>
      <trkpt lat="46.87677" lon="-0.15999">
        <ele>67</ele>
        <time>2024-07-15T05:12:21.567Z</time>
      </trkpt>
      <trkpt lat="46.87674" lon="-0.15985">
        <ele>67.11</ele>
        <time>2024-07-15T05:12:36.933Z</time>
      </trkpt>
      <trkpt lat="46.87667" lon="-0.1596">
        <ele>67.36</ele>
        <time>2024-07-15T05:12:52.302Z</time>
      </trkpt>
      <trkpt lat="46.87663" lon="-0.15949">
        <ele>67.49</ele>
        <time>2024-07-15T05:13:07.672Z</time>
      </trkpt>
      <trkpt lat="46.8766" lon="-0.1594">
        <ele>67.62</ele>
        <time>2024-07-15T05:13:23.043Z</time>
      </trkpt>
      <trkpt lat="46.87656" lon="-0.15934">
        <ele>67.75</ele>
        <time>2024-07-15T05:13:38.415Z</time>
      </trkpt>
      <trkpt lat="46.87652" lon="-0.15929">
        <ele>67.89</ele>
        <time>2024-07-15T05:13:53.788Z</time>
      </trkpt>
      <trkpt lat="46.87645" lon="-0.15924">
        <ele>68.28</ele>
        <time>2024-07-15T05:14:09.162Z</time>
      </trkpt>
      <trkpt lat="46.87639" lon="-0.15921">
        <ele>68.75</ele>
        <time>2024-07-15T05:14:24.537Z</time>
      </trkpt>
      <trkpt lat="46.87628" lon="-0.15916">
        <ele>69.55</ele>
        <time>2024-07-15T05:14:39.914Z</time>
      </trkpt>
      <trkpt lat="46.87623" lon="-0.15913">
        <ele>69.9</ele>
        <time>2024-07-15T05:14:55.292Z</time>
      </trkpt>
      <trkpt lat="46.8762" lon="-0.1591">
        <ele>70.15</ele>
        <time>2024-07-15T05:15:10.671Z</time>
      </trkpt>
      <trkpt lat="46.87617" lon="-0.15907">
        <ele>70.43</ele>
        <time>2024-07-15T05:15:26.050Z</time>
      </trkpt>
      <trkpt lat="46.87615" lon="-0.15903">
        <ele>70.72</ele>
        <time>2024-07-15T05:15:41.430Z</time>
      </trkpt>
      <trkpt lat="46.87612" lon="-0.15894">
        <ele>71.05</ele>
        <time>2024-07-15T05:15:56.811Z</time>
      </trkpt>
      <trkpt lat="46.8761" lon="-0.15885">
        <ele>71.08</ele>
        <time>2024-07-15T05:16:12.193Z</time>
      </trkpt>
      <trkpt lat="46.87609" lon="-0.15879">
        <ele>70.89</ele>
        <time>2024-07-15T05:16:27.575Z</time>
      </trkpt>
      <trkpt lat="46.87609" lon="-0.15872">
        <ele>70.86</ele>
        <time>2024-07-15T05:16:42.958Z</time>
      </trkpt>
      <trkpt lat="46.87612" lon="-0.15845">
        <ele>70.96</ele>
        <time>2024-07-15T05:16:58.344Z</time>
      </trkpt>
      <trkpt lat="46.87612" lon="-0.15837">
        <ele>71.19</ele>
        <time>2024-07-15T05:17:13.731Z</time>
      </trkpt>
      <trkpt lat="46.87613" lon="-0.15829">
        <ele>71.44</ele>
        <time>2024-07-15T05:17:29.119Z</time>
      </trkpt>
      <trkpt lat="46.87612" lon="-0.15823">
        <ele>71.67</ele>
        <time>2024-07-15T05:17:44.508Z</time>
      </trkpt>
      <trkpt lat="46.87611" lon="-0.15815">
        <ele>71.73</ele>
        <time>2024-07-15T05:17:59.898Z</time>
      </trkpt>
      <trkpt lat="46.87609" lon="-0.15806">
        <ele>72.02</ele>
        <time>2024-07-15T05:18:15.289Z</time>
      </trkpt>
      <trkpt lat="46.876" lon="-0.15781">
        <ele>72.73</ele>
        <time>2024-07-15T05:18:30.683Z</time>
      </trkpt>
      <trkpt lat="46.8759" lon="-0.15752">
        <ele>72.24</ele>
        <time>2024-07-15T05:18:46.080Z</time>
      </trkpt>
      <trkpt lat="46.87587" lon="-0.15743">
        <ele>71.88</ele>
        <time>2024-07-15T05:19:01.478Z</time>
      </trkpt>
      <trkpt lat="46.87585" lon="-0.15733">
        <ele>71.13</ele>
        <time>2024-07-15T05:19:16.877Z</time>
      </trkpt>
      <trkpt lat="46.87584" lon="-0.15724">
        <ele>70.25</ele>
        <time>2024-07-15T05:19:32.277Z</time>
      </trkpt>
      <trkpt lat="46.87584" lon="-0.15716">
        <ele>69.43</ele>
        <time>2024-07-15T05:19:47.678Z</time>
      </trkpt>
      <trkpt lat="46.87585" lon="-0.15707">
        <ele>68.49</ele>
        <time>2024-07-15T05:20:03.080Z</time>
      </trkpt>
      <trkpt lat="46.87588" lon="-0.15693">
        <ele>67.24</ele>
        <time>2024-07-15T05:20:18.484Z</time>
      </trkpt>
      <trkpt lat="46.87591" lon="-0.15681">
        <ele>66.06</ele>
        <time>2024-07-15T05:20:33.889Z</time>
      </trkpt>
      <trkpt lat="46.87592" lon="-0.15674">
        <ele>65.7</ele>
        <time>2024-07-15T05:20:49.295Z</time>
      </trkpt>
      <trkpt lat="46.87593" lon="-0.15667">
        <ele>65.43</ele>
        <time>2024-07-15T05:21:04.702Z</time>
      </trkpt>
      <trkpt lat="46.87593" lon="-0.15658">
        <ele>65.1</ele>
        <time>2024-07-15T05:21:20.110Z</time>
      </trkpt>
      <trkpt lat="46.87592" lon="-0.15652">
        <ele>65.06</ele>
        <time>2024-07-15T05:21:35.519Z</time>
      </trkpt>
      <trkpt lat="46.87591" lon="-0.15645">
        <ele>65.1</ele>
        <time>2024-07-15T05:21:50.928Z</time>
      </trkpt>
      <trkpt lat="46.87588" lon="-0.15634">
        <ele>65.21</ele>
        <time>2024-07-15T05:22:06.339Z</time>
      </trkpt>
      <trkpt lat="46.87583" lon="-0.15621">
        <ele>65.39</ele>
        <time>2024-07-15T05:22:21.751Z</time>
      </trkpt>
      <trkpt lat="46.87558" lon="-0.15555">
        <ele>64.93</ele>
        <time>2024-07-15T05:22:37.172Z</time>
      </trkpt>
      <trkpt lat="46.87534" lon="-0.15492">
        <ele>64.2</ele>
        <time>2024-07-15T05:22:52.600Z</time>
      </trkpt>
      <trkpt lat="46.87485" lon="-0.15358">
        <ele>64.93</ele>
        <time>2024-07-15T05:23:08.045Z</time>
      </trkpt>
      <trkpt lat="46.87455" lon="-0.15278">
        <ele>62.99</ele>
        <time>2024-07-15T05:23:23.500Z</time>
      </trkpt>
      <trkpt lat="46.87422" lon="-0.1519">
        <ele>64.2</ele>
        <time>2024-07-15T05:23:38.966Z</time>
      </trkpt>
      <trkpt lat="46.87407" lon="-0.15148">
        <ele>64.47</ele>
        <time>2024-07-15T05:23:54.437Z</time>
      </trkpt>
      <trkpt lat="46.87398" lon="-0.15117">
        <ele>64.62</ele>
        <time>2024-07-15T05:24:09.912Z</time>
      </trkpt>
      <trkpt lat="46.87389" lon="-0.15079">
        <ele>64.71</ele>
        <time>2024-07-15T05:24:25.391Z</time>
      </trkpt>
      <trkpt lat="46.8738" lon="-0.15034">
        <ele>66.25</ele>
        <time>2024-07-15T05:24:40.876Z</time>
      </trkpt>
      <trkpt lat="46.87373" lon="-0.14989">
        <ele>65.89</ele>
        <time>2024-07-15T05:24:56.366Z</time>
      </trkpt>
      <trkpt lat="46.87365" lon="-0.14918">
        <ele>63.38</ele>
        <time>2024-07-15T05:25:11.864Z</time>
      </trkpt>
      <trkpt lat="46.87361" lon="-0.14887">
        <ele>63.88</ele>
        <time>2024-07-15T05:25:27.365Z</time>
      </trkpt>
      <trkpt lat="46.87356" lon="-0.14861">
        <ele>64.3</ele>
        <time>2024-07-15T05:25:42.869Z</time>
      </trkpt>
      <trkpt lat="46.87338" lon="-0.1478">
        <ele>67.22</ele>
        <time>2024-07-15T05:25:58.382Z</time>
      </trkpt>
      <trkpt lat="46.87331" lon="-0.14753">
        <ele>65.9</ele>
        <time>2024-07-15T05:26:13.899Z</time>
      </trkpt>
      <trkpt lat="46.87323" lon="-0.14726">
        <ele>65.22</ele>
        <time>2024-07-15T05:26:29.419Z</time>
      </trkpt>
      <trkpt lat="46.87312" lon="-0.147">
        <ele>65.15</ele>
        <time>2024-07-15T05:26:44.942Z</time>
      </trkpt>
      <trkpt lat="46.87276" lon="-0.1463">
        <ele>66.89</ele>
        <time>2024-07-15T05:27:00.475Z</time>
      </trkpt>
      <trkpt lat="46.87259" lon="-0.14597">
        <ele>69.15</ele>
        <time>2024-07-15T05:27:16.012Z</time>
      </trkpt>
      <trkpt lat="46.8725" lon="-0.14581">
        <ele>70.14</ele>
        <time>2024-07-15T05:27:31.552Z</time>
      </trkpt>
      <trkpt lat="46.87238" lon="-0.14563">
        <ele>71.07</ele>
        <time>2024-07-15T05:27:47.094Z</time>
      </trkpt>
      <trkpt lat="46.87226" lon="-0.14546">
        <ele>72.02</ele>
        <time>2024-07-15T05:28:02.639Z</time>
      </trkpt>
      <trkpt lat="46.87207" lon="-0.14526">
        <ele>73.31</ele>
        <time>2024-07-15T05:28:18.188Z</time>
      </trkpt>
      <trkpt lat="46.87181" lon="-0.14502">
        <ele>73.42</ele>
        <time>2024-07-15T05:28:33.742Z</time>
      </trkpt>
      <trkpt lat="46.87136" lon="-0.14461">
        <ele>73.74</ele>
        <time>2024-07-15T05:28:49.304Z</time>
      </trkpt>
      <trkpt lat="46.87095" lon="-0.14426">
        <ele>73.93</ele>
        <time>2024-07-15T05:29:04.874Z</time>
      </trkpt>
      <trkpt lat="46.87063" lon="-0.14404">
        <ele>73.61</ele>
        <time>2024-07-15T05:29:20.449Z</time>
      </trkpt>
      <trkpt lat="46.87035" lon="-0.14388">
        <ele>72.73</ele>
        <time>2024-07-15T05:29:36.029Z</time>
      </trkpt>
      <trkpt lat="46.8702" lon="-0.14381">
        <ele>72.83</ele>
        <time>2024-07-15T05:29:51.612Z</time>
      </trkpt>
      <trkpt lat="46.87005" lon="-0.14378">
        <ele>72.93</ele>
        <time>2024-07-15T05:30:07.197Z</time>
      </trkpt>
      <trkpt lat="46.86994" lon="-0.14379">
        <ele>73.01</ele>
        <time>2024-07-15T05:30:22.784Z</time>
      </trkpt>
      <trkpt lat="46.86981" lon="-0.14384">
        <ele>73.55</ele>
        <time>2024-07-15T05:30:38.373Z</time>
      </trkpt>
      <trkpt lat="46.8693" lon="-0.14419">
        <ele>75.15</ele>
        <time>2024-07-15T05:30:53.971Z</time>
      </trkpt>
      <trkpt lat="46.8683" lon="-0.14488">
        <ele>74.17</ele>
        <time>2024-07-15T05:31:09.587Z</time>
      </trkpt>
      <trkpt lat="46.86795" lon="-0.14508">
        <ele>72.62</ele>
        <time>2024-07-15T05:31:25.209Z</time>
      </trkpt>
      <trkpt lat="46.86745" lon="-0.14532">
        <ele>73.98</ele>
        <time>2024-07-15T05:31:40.839Z</time>
      </trkpt>
      <trkpt lat="46.86712" lon="-0.14544">
        <ele>75.94</ele>
        <time>2024-07-15T05:31:56.475Z</time>
      </trkpt>
      <trkpt lat="46.86662" lon="-0.14555">
        <ele>74.56</ele>
        <time>2024-07-15T05:32:12.119Z</time>
      </trkpt>
      <trkpt lat="46.86554" lon="-0.14579">
        <ele>71.02</ele>
        <time>2024-07-15T05:32:27.780Z</time>
      </trkpt>
      <trkpt lat="46.86473" lon="-0.14609">
        <ele>68.61</ele>
        <time>2024-07-15T05:32:43.455Z</time>
      </trkpt>
      <trkpt lat="46.8646" lon="-0.14612">
        <ele>66.79</ele>
        <time>2024-07-15T05:32:59.132Z</time>
      </trkpt>
      <trkpt lat="46.86454" lon="-0.14613">
        <ele>65.93</ele>
        <time>2024-07-15T05:33:14.810Z</time>
      </trkpt>
      <trkpt lat="46.86447" lon="-0.14614">
        <ele>65.46</ele>
        <time>2024-07-15T05:33:30.489Z</time>
      </trkpt>
      <trkpt lat="46.86441" lon="-0.14614">
        <ele>65.02</ele>
        <time>2024-07-15T05:33:46.169Z</time>
      </trkpt>
      <trkpt lat="46.86429" lon="-0.1461">
        <ele>64.14</ele>
        <time>2024-07-15T05:34:01.851Z</time>
      </trkpt>
      <trkpt lat="46.86413" lon="-0.14606">
        <ele>63.64</ele>
        <time>2024-07-15T05:34:17.535Z</time>
      </trkpt>
      <trkpt lat="46.8641" lon="-0.14604">
        <ele>63.49</ele>
        <time>2024-07-15T05:34:33.220Z</time>
      </trkpt>
      <trkpt lat="46.86393" lon="-0.14598">
        <ele>63.2</ele>
        <time>2024-07-15T05:34:48.908Z</time>
      </trkpt>
      <trkpt lat="46.86373" lon="-0.14591">
        <ele>63.62</ele>
        <time>2024-07-15T05:35:04.599Z</time>
      </trkpt>
      <trkpt lat="46.86352" lon="-0.14587">
        <ele>64.19</ele>
        <time>2024-07-15T05:35:20.293Z</time>
      </trkpt>
      <trkpt lat="46.86324" lon="-0.14587">
        <ele>64.68</ele>
        <time>2024-07-15T05:35:35.992Z</time>
      </trkpt>
      <trkpt lat="46.86232" lon="-0.14602">
        <ele>66</ele>
        <time>2024-07-15T05:35:51.706Z</time>
      </trkpt>
      <trkpt lat="46.86209" lon="-0.14605">
        <ele>66</ele>
        <time>2024-07-15T05:36:07.423Z</time>
      </trkpt>
      <trkpt lat="46.86198" lon="-0.14605">
        <ele>65.75</ele>
        <time>2024-07-15T05:36:23.142Z</time>
      </trkpt>
      <trkpt lat="46.86187" lon="-0.14603">
        <ele>65.38</ele>
        <time>2024-07-15T05:36:38.863Z</time>
      </trkpt>
      <trkpt lat="46.86172" lon="-0.14599">
        <ele>65.16</ele>
        <time>2024-07-15T05:36:54.586Z</time>
      </trkpt>
      <trkpt lat="46.86126" lon="-0.14584">
        <ele>65.17</ele>
        <time>2024-07-15T05:37:10.317Z</time>
      </trkpt>
      <trkpt lat="46.86073" lon="-0.14567">
        <ele>64.49</ele>
        <time>2024-07-15T05:37:26.057Z</time>
      </trkpt>
      <trkpt lat="46.86057" lon="-0.14555">
        <ele>64.66</ele>
        <time>2024-07-15T05:37:41.799Z</time>
      </trkpt>
      <trkpt lat="46.86051" lon="-0.14551">
        <ele>64.4</ele>
        <time>2024-07-15T05:37:57.542Z</time>
      </trkpt>
      <trkpt lat="46.86019" lon="-0.14532">
        <ele>63.48</ele>
        <time>2024-07-15T05:38:13.291Z</time>
      </trkpt>
      <trkpt lat="46.86014" lon="-0.14529">
        <ele>63.39</ele>
        <time>2024-07-15T05:38:29.041Z</time>
      </trkpt>
      <trkpt lat="46.85947" lon="-0.14513">
        <ele>63.45</ele>
        <time>2024-07-15T05:38:44.802Z</time>
      </trkpt>
      <trkpt lat="46.85902" lon="-0.14509">
        <ele>64</ele>
        <time>2024-07-15T05:39:00.570Z</time>
      </trkpt>
      <trkpt lat="46.85888" lon="-0.14509">
        <ele>64.81</ele>
        <time>2024-07-15T05:39:16.340Z</time>
      </trkpt>
      <trkpt lat="46.85879" lon="-0.14508">
        <ele>65.34</ele>
        <time>2024-07-15T05:39:32.112Z</time>
      </trkpt>
      <trkpt lat="46.85873" lon="-0.14507">
        <ele>65.52</ele>
        <time>2024-07-15T05:39:47.885Z</time>
      </trkpt>
      <trkpt lat="46.85868" lon="-0.14504">
        <ele>65.5</ele>
        <time>2024-07-15T05:40:03.659Z</time>
      </trkpt>
      <trkpt lat="46.85863" lon="-0.145">
        <ele>65.36</ele>
        <time>2024-07-15T05:40:19.433Z</time>
      </trkpt>
      <trkpt lat="46.85857" lon="-0.14493">
        <ele>65.49</ele>
        <time>2024-07-15T05:40:35.209Z</time>
      </trkpt>
      <trkpt lat="46.85852" lon="-0.14497">
        <ele>65.68</ele>
        <time>2024-07-15T05:40:50.986Z</time>
      </trkpt>
      <trkpt lat="46.8583" lon="-0.14511">
        <ele>66.48</ele>
        <time>2024-07-15T05:41:06.766Z</time>
      </trkpt>
      <trkpt lat="46.85826" lon="-0.14531">
        <ele>67.09</ele>
        <time>2024-07-15T05:41:22.549Z</time>
      </trkpt>
      <trkpt lat="46.85826" lon="-0.1458">
        <ele>68.63</ele>
        <time>2024-07-15T05:41:38.337Z</time>
      </trkpt>
      <trkpt lat="46.85826" lon="-0.14603">
        <ele>69</ele>
        <time>2024-07-15T05:41:54.128Z</time>
      </trkpt>
      <trkpt lat="46.85825" lon="-0.14627">
        <ele>69</ele>
        <time>2024-07-15T05:42:09.921Z</time>
      </trkpt>
      <trkpt lat="46.85817" lon="-0.14681">
        <ele>69.96</ele>
        <time>2024-07-15T05:42:25.720Z</time>
      </trkpt>
      <trkpt lat="46.85802" lon="-0.14735">
        <ele>70.79</ele>
        <time>2024-07-15T05:42:41.526Z</time>
      </trkpt>
      <trkpt lat="46.858" lon="-0.14752">
        <ele>71.84</ele>
        <time>2024-07-15T05:42:57.334Z</time>
      </trkpt>
      <trkpt lat="46.85801" lon="-0.14769">
        <ele>73.56</ele>
        <time>2024-07-15T05:43:13.143Z</time>
      </trkpt>
      <trkpt lat="46.85802" lon="-0.14784">
        <ele>74.65</ele>
        <time>2024-07-15T05:43:28.954Z</time>
      </trkpt>
      <trkpt lat="46.85808" lon="-0.14801">
        <ele>76.12</ele>
        <time>2024-07-15T05:43:44.767Z</time>
      </trkpt>
      <trkpt lat="46.85824" lon="-0.14815">
        <ele>78.66</ele>
        <time>2024-07-15T05:44:00.583Z</time>
      </trkpt>
      <trkpt lat="46.85841" lon="-0.14825">
        <ele>80.02</ele>
        <time>2024-07-15T05:44:16.402Z</time>
      </trkpt>
      <trkpt lat="46.85868" lon="-0.14841">
        <ele>82</ele>
        <time>2024-07-15T05:44:32.226Z</time>
      </trkpt>
      <trkpt lat="46.85897" lon="-0.14855">
        <ele>84.15</ele>
        <time>2024-07-15T05:44:48.055Z</time>
      </trkpt>
      <trkpt lat="46.85911" lon="-0.14859">
        <ele>84.97</ele>
        <time>2024-07-15T05:45:03.886Z</time>
      </trkpt>
      <trkpt lat="46.85923" lon="-0.14864">
        <ele>85.8</ele>
        <time>2024-07-15T05:45:19.719Z</time>
      </trkpt>
      <trkpt lat="46.85925" lon="-0.14873">
        <ele>86.47</ele>
        <time>2024-07-15T05:45:35.553Z</time>
      </trkpt>
      <trkpt lat="46.85926" lon="-0.14885">
        <ele>87.38</ele>
        <time>2024-07-15T05:45:51.388Z</time>
      </trkpt>
      <trkpt lat="46.85925" lon="-0.14899">
        <ele>88.43</ele>
        <time>2024-07-15T05:46:07.225Z</time>
      </trkpt>
      <trkpt lat="46.85896" lon="-0.14978">
        <ele>92.19</ele>
        <time>2024-07-15T05:46:23.072Z</time>
      </trkpt>
      <trkpt lat="46.85865" lon="-0.15054">
        <ele>92.59</ele>
        <time>2024-07-15T05:46:38.928Z</time>
      </trkpt>
      <trkpt lat="46.85837" lon="-0.15119">
        <ele>90.85</ele>
        <time>2024-07-15T05:46:54.793Z</time>
      </trkpt>
      <trkpt lat="46.8578" lon="-0.15291">
        <ele>95.83</ele>
        <time>2024-07-15T05:47:10.679Z</time>
      </trkpt>
      <trkpt lat="46.85767" lon="-0.15324">
        <ele>96.97</ele>
        <time>2024-07-15T05:47:26.569Z</time>
      </trkpt>
      <trkpt lat="46.85748" lon="-0.15359">
        <ele>98.29</ele>
        <time>2024-07-15T05:47:42.464Z</time>
      </trkpt>
      <trkpt lat="46.85728" lon="-0.15408">
        <ele>98.42</ele>
        <time>2024-07-15T05:47:58.365Z</time>
      </trkpt>
      <trkpt lat="46.85703" lon="-0.15489">
        <ele>98.2</ele>
        <time>2024-07-15T05:48:14.276Z</time>
      </trkpt>
      <trkpt lat="46.85672" lon="-0.15616">
        <ele>99.15</ele>
        <time>2024-07-15T05:48:30.202Z</time>
      </trkpt>
      <trkpt lat="46.85657" lon="-0.15676">
        <ele>100.14</ele>
        <time>2024-07-15T05:48:46.135Z</time>
      </trkpt>
      <trkpt lat="46.85648" lon="-0.15713">
        <ele>100.17</ele>
        <time>2024-07-15T05:49:02.072Z</time>
      </trkpt>
      <trkpt lat="46.85646" lon="-0.15729">
        <ele>100.33</ele>
        <time>2024-07-15T05:49:18.011Z</time>
      </trkpt>
      <trkpt lat="46.85645" lon="-0.15745">
        <ele>100.14</ele>
        <time>2024-07-15T05:49:33.952Z</time>
      </trkpt>
      <trkpt lat="46.85644" lon="-0.15842">
        <ele>97.16</ele>
        <time>2024-07-15T05:49:49.903Z</time>
      </trkpt>
      <trkpt lat="46.85633" lon="-0.15923">
        <ele>97.1</ele>
        <time>2024-07-15T05:50:05.863Z</time>
      </trkpt>
      <trkpt lat="46.8563" lon="-0.1599">
        <ele>98.67</ele>
        <time>2024-07-15T05:50:21.831Z</time>
      </trkpt>
      <trkpt lat="46.85626" lon="-0.16066">
        <ele>100.38</ele>
        <time>2024-07-15T05:50:37.807Z</time>
      </trkpt>
      <trkpt lat="46.856" lon="-0.16125">
        <ele>102.54</ele>
        <time>2024-07-15T05:50:53.791Z</time>
      </trkpt>
      <trkpt lat="46.85562" lon="-0.16223">
        <ele>105.23</ele>
        <time>2024-07-15T05:51:09.787Z</time>
      </trkpt>
      <trkpt lat="46.85545" lon="-0.16283">
        <ele>104.63</ele>
        <time>2024-07-15T05:51:25.790Z</time>
      </trkpt>
      <trkpt lat="46.85537" lon="-0.16303">
        <ele>104.76</ele>
        <time>2024-07-15T05:51:41.796Z</time>
      </trkpt>
      <trkpt lat="46.8553" lon="-0.16318">
        <ele>104.8</ele>
        <time>2024-07-15T05:51:57.804Z</time>
      </trkpt>
      <trkpt lat="46.85498" lon="-0.16356">
        <ele>105.12</ele>
        <time>2024-07-15T05:52:13.818Z</time>
      </trkpt>
      <trkpt lat="46.85416" lon="-0.16433">
        <ele>103.55</ele>
        <time>2024-07-15T05:52:29.848Z</time>
      </trkpt>
      <trkpt lat="46.85403" lon="-0.16442">
        <ele>103.34</ele>
        <time>2024-07-15T05:52:45.880Z</time>
      </trkpt>
      <trkpt lat="46.85389" lon="-0.16452">
        <ele>103.16</ele>
        <time>2024-07-15T05:53:01.915Z</time>
      </trkpt>
      <trkpt lat="46.85339" lon="-0.16485">
        <ele>103</ele>
        <time>2024-07-15T05:53:17.959Z</time>
      </trkpt>
      <trkpt lat="46.8531" lon="-0.16501">
        <ele>103.19</ele>
        <time>2024-07-15T05:53:34.008Z</time>
      </trkpt>
      <trkpt lat="46.85301" lon="-0.16505">
        <ele>103.52</ele>
        <time>2024-07-15T05:53:50.058Z</time>
      </trkpt>
      <trkpt lat="46.85293" lon="-0.16507">
        <ele>104.05</ele>
        <time>2024-07-15T05:54:06.109Z</time>
      </trkpt>
      <trkpt lat="46.85286" lon="-0.16507">
        <ele>104.45</ele>
        <time>2024-07-15T05:54:22.162Z</time>
      </trkpt>
      <trkpt lat="46.85278" lon="-0.16507">
        <ele>104.73</ele>
        <time>2024-07-15T05:54:38.216Z</time>
      </trkpt>
      <trkpt lat="46.85264" lon="-0.16506">
        <ele>105.28</ele>
        <time>2024-07-15T05:54:54.272Z</time>
      </trkpt>
      <trkpt lat="46.85252" lon="-0.16504">
        <ele>105.51</ele>
        <time>2024-07-15T05:55:10.330Z</time>
      </trkpt>
      <trkpt lat="46.85246" lon="-0.16503">
        <ele>105.54</ele>
        <time>2024-07-15T05:55:26.389Z</time>
      </trkpt>
      <trkpt lat="46.85205" lon="-0.16493">
        <ele>106</ele>
        <time>2024-07-15T05:55:42.455Z</time>
      </trkpt>
      <trkpt lat="46.852" lon="-0.16492">
        <ele>106.29</ele>
        <time>2024-07-15T05:55:58.521Z</time>
      </trkpt>
      <trkpt lat="46.85196" lon="-0.1649">
        <ele>106.62</ele>
        <time>2024-07-15T05:56:14.588Z</time>
      </trkpt>
      <trkpt lat="46.85183" lon="-0.16483">
        <ele>107.55</ele>
        <time>2024-07-15T05:56:30.657Z</time>
      </trkpt>
      <trkpt lat="46.85178" lon="-0.16481">
        <ele>107.86</ele>
        <time>2024-07-15T05:56:46.727Z</time>
      </trkpt>
      <trkpt lat="46.8517" lon="-0.16479">
        <ele>108</ele>
        <time>2024-07-15T05:57:02.798Z</time>
      </trkpt>
      <trkpt lat="46.85164" lon="-0.16479">
        <ele>108</ele>
        <time>2024-07-15T05:57:18.870Z</time>
      </trkpt>
      <trkpt lat="46.85162" lon="-0.1648">
        <ele>108</ele>
        <time>2024-07-15T05:57:34.943Z</time>
      </trkpt>
      <trkpt lat="46.85157" lon="-0.16481">
        <ele>108</ele>
        <time>2024-07-15T05:57:51.017Z</time>
      </trkpt>
      <trkpt lat="46.85149" lon="-0.16483">
        <ele>108</ele>
        <time>2024-07-15T05:58:07.092Z</time>
      </trkpt>
      <trkpt lat="46.85136" lon="-0.16489">
        <ele>107.54</ele>
        <time>2024-07-15T05:58:23.169Z</time>
      </trkpt>
      <trkpt lat="46.85122" lon="-0.16497">
        <ele>107.26</ele>
        <time>2024-07-15T05:58:39.248Z</time>
      </trkpt>
      <trkpt lat="46.85105" lon="-0.16507">
        <ele>107.58</ele>
        <time>2024-07-15T05:58:55.330Z</time>
      </trkpt>
      <trkpt lat="46.85094" lon="-0.16515">
        <ele>107.87</ele>
        <time>2024-07-15T05:59:11.414Z</time>
      </trkpt>
      <trkpt lat="46.85087" lon="-0.16521">
        <ele>108</ele>
        <time>2024-07-15T05:59:27.500Z</time>
      </trkpt>
      <trkpt lat="46.85075" lon="-0.16534">
        <ele>108</ele>
        <time>2024-07-15T05:59:43.588Z</time>
      </trkpt>
      <trkpt lat="46.85066" lon="-0.16542">
        <ele>108</ele>
        <time>2024-07-15T05:59:59.678Z</time>
      </trkpt>
      <trkpt lat="46.85057" lon="-0.1655">
        <ele>108</ele>
        <time>2024-07-15T06:00:15.769Z</time>
      </trkpt>
      <trkpt lat="46.85039" lon="-0.16565">
        <ele>108</ele>
        <time>2024-07-15T06:00:31.864Z</time>
      </trkpt>
      <trkpt lat="46.85029" lon="-0.16574">
        <ele>108.32</ele>
        <time>2024-07-15T06:00:47.961Z</time>
      </trkpt>
      <trkpt lat="46.85019" lon="-0.16584">
        <ele>108.65</ele>
        <time>2024-07-15T06:01:04.060Z</time>
      </trkpt>
      <trkpt lat="46.85011" lon="-0.16594">
        <ele>108.94</ele>
        <time>2024-07-15T06:01:20.160Z</time>
      </trkpt>
      <trkpt lat="46.84994" lon="-0.16613">
        <ele>109.16</ele>
        <time>2024-07-15T06:01:36.264Z</time>
      </trkpt>
      <trkpt lat="46.84963" lon="-0.16648">
        <ele>109.68</ele>
        <time>2024-07-15T06:01:52.374Z</time>
      </trkpt>
      <trkpt lat="46.84952" lon="-0.1666">
        <ele>109.97</ele>
        <time>2024-07-15T06:02:08.486Z</time>
      </trkpt>
      <trkpt lat="46.84947" lon="-0.16666">
        <ele>109.94</ele>
        <time>2024-07-15T06:02:24.599Z</time>
      </trkpt>
      <trkpt lat="46.84937" lon="-0.16679">
        <ele>109.86</ele>
        <time>2024-07-15T06:02:40.714Z</time>
      </trkpt>
      <trkpt lat="46.8492" lon="-0.16695">
        <ele>109.88</ele>
        <time>2024-07-15T06:02:56.833Z</time>
      </trkpt>
      <trkpt lat="46.84915" lon="-0.16699">
        <ele>109.9</ele>
        <time>2024-07-15T06:03:12.952Z</time>
      </trkpt>
      <trkpt lat="46.84906" lon="-0.16708">
        <ele>109.93</ele>
        <time>2024-07-15T06:03:29.073Z</time>
      </trkpt>
      <trkpt lat="46.84901" lon="-0.16713">
        <ele>109.91</ele>
        <time>2024-07-15T06:03:45.195Z</time>
      </trkpt>
      <trkpt lat="46.84889" lon="-0.16729">
        <ele>110.58</ele>
        <time>2024-07-15T06:04:01.320Z</time>
      </trkpt>
      <trkpt lat="46.84879" lon="-0.16741">
        <ele>111</ele>
        <time>2024-07-15T06:04:17.447Z</time>
      </trkpt>
      <trkpt lat="46.84871" lon="-0.1675">
        <ele>111.33</ele>
        <time>2024-07-15T06:04:33.575Z</time>
      </trkpt>
      <trkpt lat="46.8487" lon="-0.16748">
        <ele>111.24</ele>
        <time>2024-07-15T06:04:49.704Z</time>
      </trkpt>
      <trkpt lat="46.8486" lon="-0.1675">
        <ele>110.94</ele>
        <time>2024-07-15T06:05:05.834Z</time>
      </trkpt>
      <trkpt lat="46.84843" lon="-0.16755">
        <ele>110.49</ele>
        <time>2024-07-15T06:05:21.967Z</time>
      </trkpt>
      <trkpt lat="46.84831" lon="-0.16758">
        <ele>110.16</ele>
        <time>2024-07-15T06:05:38.102Z</time>
      </trkpt>
      <trkpt lat="46.84711" lon="-0.16783">
        <ele>110</ele>
        <time>2024-07-15T06:05:54.256Z</time>
      </trkpt>
      <trkpt lat="46.84695" lon="-0.16786">
        <ele>110.33</ele>
        <time>2024-07-15T06:06:10.413Z</time>
      </trkpt>
      <trkpt lat="46.84678" lon="-0.16787">
        <ele>110.94</ele>
        <time>2024-07-15T06:06:26.573Z</time>
      </trkpt>
      <trkpt lat="46.84658" lon="-0.16785">
        <ele>111</ele>
        <time>2024-07-15T06:06:42.736Z</time>
      </trkpt>
      <trkpt lat="46.84639" lon="-0.16781">
        <ele>111</ele>
        <time>2024-07-15T06:06:58.902Z</time>
      </trkpt>
      <trkpt lat="46.84619" lon="-0.16774">
        <ele>111</ele>
        <time>2024-07-15T06:07:15.071Z</time>
      </trkpt>
      <trkpt lat="46.84565" lon="-0.16746">
        <ele>111</ele>
        <time>2024-07-15T06:07:31.250Z</time>
      </trkpt>
      <trkpt lat="46.84448" lon="-0.16683">
        <ele>110.12</ele>
        <time>2024-07-15T06:07:47.449Z</time>
      </trkpt>
      <trkpt lat="46.84349" lon="-0.16628">
        <ele>111.71</ele>
        <time>2024-07-15T06:08:03.665Z</time>
      </trkpt>
      <trkpt lat="46.84253" lon="-0.16568">
        <ele>111.23</ele>
        <time>2024-07-15T06:08:19.897Z</time>
      </trkpt>
      <trkpt lat="46.84236" lon="-0.16557">
        <ele>111.85</ele>
        <time>2024-07-15T06:08:36.132Z</time>
      </trkpt>
      <trkpt lat="46.84224" lon="-0.16548">
        <ele>112.33</ele>
        <time>2024-07-15T06:08:52.369Z</time>
      </trkpt>
      <trkpt lat="46.84216" lon="-0.1654">
        <ele>112.33</ele>
        <time>2024-07-15T06:09:08.608Z</time>
      </trkpt>
      <trkpt lat="46.842" lon="-0.1652">
        <ele>111.1</ele>
        <time>2024-07-15T06:09:24.850Z</time>
      </trkpt>
      <trkpt lat="46.84167" lon="-0.16477">
        <ele>110.82</ele>
        <time>2024-07-15T06:09:41.099Z</time>
      </trkpt>
      <trkpt lat="46.8415" lon="-0.16455">
        <ele>111.27</ele>
        <time>2024-07-15T06:09:57.352Z</time>
      </trkpt>
      <trkpt lat="46.8414" lon="-0.16441">
        <ele>111.59</ele>
        <time>2024-07-15T06:10:13.607Z</time>
      </trkpt>
      <trkpt lat="46.84101" lon="-0.16392">
        <ele>108.02</ele>
        <time>2024-07-15T06:10:29.871Z</time>
      </trkpt>
      <trkpt lat="46.84071" lon="-0.16352">
        <ele>106.77</ele>
        <time>2024-07-15T06:10:46.141Z</time>
      </trkpt>
      <trkpt lat="46.8406" lon="-0.16335">
        <ele>107.18</ele>
        <time>2024-07-15T06:11:02.414Z</time>
      </trkpt>
      <trkpt lat="46.84038" lon="-0.16298">
        <ele>107.96</ele>
        <time>2024-07-15T06:11:18.692Z</time>
      </trkpt>
      <trkpt lat="46.84034" lon="-0.16291">
        <ele>107.68</ele>
        <time>2024-07-15T06:11:34.971Z</time>
      </trkpt>
      <trkpt lat="46.84025" lon="-0.16278">
        <ele>106.88</ele>
        <time>2024-07-15T06:11:51.252Z</time>
      </trkpt>
      <trkpt lat="46.84017" lon="-0.16268">
        <ele>106.22</ele>
        <time>2024-07-15T06:12:07.535Z</time>
      </trkpt>
      <trkpt lat="46.84009" lon="-0.16259">
        <ele>105.65</ele>
        <time>2024-07-15T06:12:23.819Z</time>
      </trkpt>
      <trkpt lat="46.84001" lon="-0.16252">
        <ele>105.39</ele>
        <time>2024-07-15T06:12:40.105Z</time>
      </trkpt>
      <trkpt lat="46.83991" lon="-0.16244">
        <ele>105.12</ele>
        <time>2024-07-15T06:12:56.393Z</time>
      </trkpt>
      <trkpt lat="46.83983" lon="-0.16239">
        <ele>104.91</ele>
        <time>2024-07-15T06:13:12.682Z</time>
      </trkpt>
      <trkpt lat="46.83972" lon="-0.16234">
        <ele>104.42</ele>
        <time>2024-07-15T06:13:28.973Z</time>
      </trkpt>
      <trkpt lat="46.83965" lon="-0.16232">
        <ele>104.09</ele>
        <time>2024-07-15T06:13:45.265Z</time>
      </trkpt>
      <trkpt lat="46.83946" lon="-0.16228">
        <ele>103.54</ele>
        <time>2024-07-15T06:14:01.560Z</time>
      </trkpt>
      <trkpt lat="46.83926" lon="-0.16224">
        <ele>102.8</ele>
        <time>2024-07-15T06:14:17.858Z</time>
      </trkpt>
      <trkpt lat="46.83912" lon="-0.16221">
        <ele>103.09</ele>
        <time>2024-07-15T06:14:34.158Z</time>
      </trkpt>
      <trkpt lat="46.83909" lon="-0.16221">
        <ele>103.17</ele>
        <time>2024-07-15T06:14:50.459Z</time>
      </trkpt>
      <trkpt lat="46.83902" lon="-0.16219">
        <ele>103.29</ele>
        <time>2024-07-15T06:15:06.761Z</time>
      </trkpt>
      <trkpt lat="46.83884" lon="-0.16215">
        <ele>104.12</ele>
        <time>2024-07-15T06:15:23.066Z</time>
      </trkpt>
      <trkpt lat="46.83867" lon="-0.1621">
        <ele>105</ele>
        <time>2024-07-15T06:15:39.374Z</time>
      </trkpt>
      <trkpt lat="46.83853" lon="-0.16205">
        <ele>105.35</ele>
        <time>2024-07-15T06:15:55.684Z</time>
      </trkpt>
      <trkpt lat="46.83843" lon="-0.16201">
        <ele>105.55</ele>
        <time>2024-07-15T06:16:11.996Z</time>
      </trkpt>
      <trkpt lat="46.83808" lon="-0.16188">
        <ele>106.09</ele>
        <time>2024-07-15T06:16:28.314Z</time>
      </trkpt>
      <trkpt lat="46.83772" lon="-0.16174">
        <ele>106.65</ele>
        <time>2024-07-15T06:16:44.638Z</time>
      </trkpt>
      <trkpt lat="46.83694" lon="-0.16143">
        <ele>105.95</ele>
        <time>2024-07-15T06:17:00.974Z</time>
      </trkpt>
      <trkpt lat="46.83684" lon="-0.16138">
        <ele>105.63</ele>
        <time>2024-07-15T06:17:17.312Z</time>
      </trkpt>
      <trkpt lat="46.83668" lon="-0.16132">
        <ele>105.09</ele>
        <time>2024-07-15T06:17:33.653Z</time>
      </trkpt>
      <trkpt lat="46.83663" lon="-0.16129">
        <ele>104.96</ele>
        <time>2024-07-15T06:17:49.995Z</time>
      </trkpt>
      <trkpt lat="46.83656" lon="-0.16124">
        <ele>104.8</ele>
        <time>2024-07-15T06:18:06.338Z</time>
      </trkpt>
      <trkpt lat="46.83646" lon="-0.16114">
        <ele>103.81</ele>
        <time>2024-07-15T06:18:22.683Z</time>
      </trkpt>
      <trkpt lat="46.83639" lon="-0.16106">
        <ele>103.15</ele>
        <time>2024-07-15T06:18:39.029Z</time>
      </trkpt>
      <trkpt lat="46.836" lon="-0.16056">
        <ele>100.71</ele>
        <time>2024-07-15T06:18:55.384Z</time>
      </trkpt>
      <trkpt lat="46.83589" lon="-0.16042">
        <ele>99.52</ele>
        <time>2024-07-15T06:19:11.741Z</time>
      </trkpt>
      <trkpt lat="46.83578" lon="-0.16029">
        <ele>98.38</ele>
        <time>2024-07-15T06:19:28.100Z</time>
      </trkpt>
      <trkpt lat="46.83561" lon="-0.16012">
        <ele>98</ele>
        <time>2024-07-15T06:19:44.463Z</time>
      </trkpt>
      <trkpt lat="46.83539" lon="-0.15992">
        <ele>98</ele>
        <time>2024-07-15T06:20:00.830Z</time>
      </trkpt>
      <trkpt lat="46.83516" lon="-0.15971">
        <ele>100.27</ele>
        <time>2024-07-15T06:20:17.201Z</time>
      </trkpt>
      <trkpt lat="46.83497" lon="-0.15953">
        <ele>102.28</ele>
        <time>2024-07-15T06:20:33.576Z</time>
      </trkpt>
      <trkpt lat="46.83481" lon="-0.15943">
        <ele>103.69</ele>
        <time>2024-07-15T06:20:49.953Z</time>
      </trkpt>
      <trkpt lat="46.83469" lon="-0.15938">
        <ele>103.88</ele>
        <time>2024-07-15T06:21:06.333Z</time>
      </trkpt>
      <trkpt lat="46.83456" lon="-0.15935">
        <ele>104.01</ele>
        <time>2024-07-15T06:21:22.715Z</time>
      </trkpt>
      <trkpt lat="46.83448" lon="-0.15933">
        <ele>103.78</ele>
        <time>2024-07-15T06:21:39.098Z</time>
      </trkpt>
      <trkpt lat="46.83402" lon="-0.15928">
        <ele>104</ele>
        <time>2024-07-15T06:21:55.488Z</time>
      </trkpt>
      <trkpt lat="46.83382" lon="-0.15925">
        <ele>104.58</ele>
        <time>2024-07-15T06:22:11.881Z</time>
      </trkpt>
      <trkpt lat="46.83367" lon="-0.15922">
        <ele>105.11</ele>
        <time>2024-07-15T06:22:28.277Z</time>
      </trkpt>
      <trkpt lat="46.83354" lon="-0.15919">
        <ele>105.58</ele>
        <time>2024-07-15T06:22:44.675Z</time>
      </trkpt>
      <trkpt lat="46.83317" lon="-0.15908">
        <ele>106.87</ele>
        <time>2024-07-15T06:23:01.079Z</time>
      </trkpt>
      <trkpt lat="46.83283" lon="-0.15899">
        <ele>106</ele>
        <time>2024-07-15T06:23:17.489Z</time>
      </trkpt>
      <trkpt lat="46.83232" lon="-0.15885">
        <ele>106.97</ele>
        <time>2024-07-15T06:23:33.907Z</time>
      </trkpt>
      <trkpt lat="46.83206" lon="-0.15877">
        <ele>106.73</ele>
        <time>2024-07-15T06:23:50.329Z</time>
      </trkpt>
      <trkpt lat="46.83179" lon="-0.15867">
        <ele>105.53</ele>
        <time>2024-07-15T06:24:06.756Z</time>
      </trkpt>
      <trkpt lat="46.83167" lon="-0.15861">
        <ele>104.32</ele>
        <time>2024-07-15T06:24:23.185Z</time>
      </trkpt>
      <trkpt lat="46.83156" lon="-0.15854">
        <ele>103.58</ele>
        <time>2024-07-15T06:24:39.616Z</time>
      </trkpt>
      <trkpt lat="46.83126" lon="-0.15829">
        <ele>101.8</ele>
        <time>2024-07-15T06:24:56.052Z</time>
      </trkpt>
      <trkpt lat="46.83079" lon="-0.1579">
        <ele>105</ele>
        <time>2024-07-15T06:25:12.497Z</time>
      </trkpt>
      <trkpt lat="46.83045" lon="-0.15764">
        <ele>104.56</ele>
        <time>2024-07-15T06:25:28.948Z</time>
      </trkpt>
      <trkpt lat="46.83031" lon="-0.15753">
        <ele>104.34</ele>
        <time>2024-07-15T06:25:45.401Z</time>
      </trkpt>
      <trkpt lat="46.83024" lon="-0.15748">
        <ele>104.02</ele>
        <time>2024-07-15T06:26:01.856Z</time>
      </trkpt>
      <trkpt lat="46.83019" lon="-0.15746">
        <ele>103.69</ele>
        <time>2024-07-15T06:26:18.312Z</time>
      </trkpt>
      <trkpt lat="46.83015" lon="-0.15745">
        <ele>103.42</ele>
        <time>2024-07-15T06:26:34.768Z</time>
      </trkpt>
      <trkpt lat="46.83011" lon="-0.15746">
        <ele>103.12</ele>
        <time>2024-07-15T06:26:51.225Z</time>
      </trkpt>
      <trkpt lat="46.8301" lon="-0.1574">
        <ele>103.06</ele>
        <time>2024-07-15T06:27:07.682Z</time>
      </trkpt>
      <trkpt lat="46.83009" lon="-0.15736">
        <ele>103.16</ele>
        <time>2024-07-15T06:27:24.140Z</time>
      </trkpt>
      <trkpt lat="46.83007" lon="-0.15729">
        <ele>103.27</ele>
        <time>2024-07-15T06:27:40.599Z</time>
      </trkpt>
      <trkpt lat="46.83007" lon="-0.15726">
        <ele>103.36</ele>
        <time>2024-07-15T06:27:57.058Z</time>
      </trkpt>
      <trkpt lat="46.83007" lon="-0.15723">
        <ele>103.48</ele>
        <time>2024-07-15T06:28:13.517Z</time>
      </trkpt>
      <trkpt lat="46.83008" lon="-0.15716">
        <ele>103.78</ele>
        <time>2024-07-15T06:28:29.977Z</time>
      </trkpt>
      <trkpt lat="46.83009" lon="-0.15683">
        <ele>102.97</ele>
        <time>2024-07-15T06:28:46.441Z</time>
      </trkpt>
      <trkpt lat="46.8301" lon="-0.15657">
        <ele>103</ele>
        <time>2024-07-15T06:29:02.908Z</time>
      </trkpt>
      <trkpt lat="46.8301" lon="-0.15653">
        <ele>102.63</ele>
        <time>2024-07-15T06:29:19.375Z</time>
      </trkpt>
      <trkpt lat="46.83011" lon="-0.15616">
        <ele>98.23</ele>
        <time>2024-07-15T06:29:35.846Z</time>
      </trkpt>
      <trkpt lat="46.8302" lon="-0.15566">
        <ele>94.78</ele>
        <time>2024-07-15T06:29:52.323Z</time>
      </trkpt>
      <trkpt lat="46.8302" lon="-0.1556">
        <ele>94.51</ele>
        <time>2024-07-15T06:30:08.800Z</time>
      </trkpt>
      <trkpt lat="46.8302" lon="-0.15556">
        <ele>94.37</ele>
        <time>2024-07-15T06:30:25.278Z</time>
      </trkpt>
      <trkpt lat="46.8302" lon="-0.15552">
        <ele>94.21</ele>
        <time>2024-07-15T06:30:41.756Z</time>
      </trkpt>
      <trkpt lat="46.83017" lon="-0.15546">
        <ele>94</ele>
        <time>2024-07-15T06:30:58.235Z</time>
      </trkpt>
      <trkpt lat="46.83012" lon="-0.1554">
        <ele>93.59</ele>
        <time>2024-07-15T06:31:14.715Z</time>
      </trkpt>
      <trkpt lat="46.83001" lon="-0.15531">
        <ele>92.61</ele>
        <time>2024-07-15T06:31:31.197Z</time>
      </trkpt>
      <trkpt lat="46.82995" lon="-0.15524">
        <ele>91.6</ele>
        <time>2024-07-15T06:31:47.680Z</time>
      </trkpt>
      <trkpt lat="46.82992" lon="-0.15518">
        <ele>90.77</ele>
        <time>2024-07-15T06:32:04.164Z</time>
      </trkpt>
      <trkpt lat="46.8299" lon="-0.15512">
        <ele>90.16</ele>
        <time>2024-07-15T06:32:20.649Z</time>
      </trkpt>
      <trkpt lat="46.8299" lon="-0.15504">
        <ele>89.3</ele>
        <time>2024-07-15T06:32:37.135Z</time>
      </trkpt>
      <trkpt lat="46.82991" lon="-0.15498">
        <ele>88.83</ele>
        <time>2024-07-15T06:32:53.622Z</time>
      </trkpt>
      <trkpt lat="46.82994" lon="-0.15492">
        <ele>88.49</ele>
        <time>2024-07-15T06:33:10.109Z</time>
      </trkpt>
      <trkpt lat="46.83003" lon="-0.15477">
        <ele>87.84</ele>
        <time>2024-07-15T06:33:26.599Z</time>
      </trkpt>
      <trkpt lat="46.83008" lon="-0.15472">
        <ele>87.86</ele>
        <time>2024-07-15T06:33:43.090Z</time>
      </trkpt>
      <trkpt lat="46.83012" lon="-0.1547">
        <ele>87.54</ele>
        <time>2024-07-15T06:33:59.581Z</time>
      </trkpt>
      <trkpt lat="46.83022" lon="-0.15469">
        <ele>86.8</ele>
        <time>2024-07-15T06:34:16.074Z</time>
      </trkpt>
      <trkpt lat="46.83051" lon="-0.15473">
        <ele>83.65</ele>
        <time>2024-07-15T06:34:32.572Z</time>
      </trkpt>
      <trkpt lat="46.83086" lon="-0.15479">
        <ele>81.1</ele>
        <time>2024-07-15T06:34:49.075Z</time>
      </trkpt>
      <trkpt lat="46.831" lon="-0.15483">
        <ele>80.58</ele>
        <time>2024-07-15T06:35:05.581Z</time>
      </trkpt>
      <trkpt lat="46.83106" lon="-0.15477">
        <ele>79.6</ele>
        <time>2024-07-15T06:35:22.088Z</time>
      </trkpt>
      <trkpt lat="46.8311" lon="-0.1547">
        <ele>78.4</ele>
        <time>2024-07-15T06:35:38.596Z</time>
      </trkpt>
      <trkpt lat="46.83112" lon="-0.15461">
        <ele>77.22</ele>
        <time>2024-07-15T06:35:55.105Z</time>
      </trkpt>
      <trkpt lat="46.83113" lon="-0.15452">
        <ele>76.87</ele>
        <time>2024-07-15T06:36:11.615Z</time>
      </trkpt>
      <trkpt lat="46.83101" lon="-0.15439">
        <ele>76.28</ele>
        <time>2024-07-15T06:36:28.127Z</time>
      </trkpt>
      <trkpt lat="46.8309" lon="-0.15426">
        <ele>76.22</ele>
        <time>2024-07-15T06:36:44.641Z</time>
      </trkpt>
      <trkpt lat="46.83074" lon="-0.15408">
        <ele>76.7</ele>
        <time>2024-07-15T06:37:01.159Z</time>
      </trkpt>
      <trkpt lat="46.83055" lon="-0.1539">
        <ele>77.82</ele>
        <time>2024-07-15T06:37:17.680Z</time>
      </trkpt>
      <trkpt lat="46.83035" lon="-0.15372">
        <ele>78.85</ele>
        <time>2024-07-15T06:37:34.205Z</time>
      </trkpt>
      <trkpt lat="46.83016" lon="-0.15353">
        <ele>79.56</ele>
        <time>2024-07-15T06:37:50.734Z</time>
      </trkpt>
      <trkpt lat="46.83007" lon="-0.15344">
        <ele>79.74</ele>
        <time>2024-07-15T06:38:07.264Z</time>
      </trkpt>
      <trkpt lat="46.82995" lon="-0.15334">
        <ele>79.65</ele>
        <time>2024-07-15T06:38:23.797Z</time>
      </trkpt>
      <trkpt lat="46.82981" lon="-0.15325">
        <ele>80.94</ele>
        <time>2024-07-15T06:38:40.332Z</time>
      </trkpt>
      <trkpt lat="46.82968" lon="-0.15315">
        <ele>80.01</ele>
        <time>2024-07-15T06:38:56.869Z</time>
      </trkpt>
      <trkpt lat="46.82925" lon="-0.15263">
        <ele>76.62</ele>
        <time>2024-07-15T06:39:13.415Z</time>
      </trkpt>
      <trkpt lat="46.82879" lon="-0.15217">
        <ele>74.97</ele>
        <time>2024-07-15T06:39:29.970Z</time>
      </trkpt>
      <trkpt lat="46.82828" lon="-0.15142">
        <ele>79.44</ele>
        <time>2024-07-15T06:39:46.537Z</time>
      </trkpt>
      <trkpt lat="46.82817" lon="-0.15123">
        <ele>78.49</ele>
        <time>2024-07-15T06:40:03.107Z</time>
      </trkpt>
      <trkpt lat="46.82812" lon="-0.15116">
        <ele>78.19</ele>
        <time>2024-07-15T06:40:19.678Z</time>
      </trkpt>
      <trkpt lat="46.82805" lon="-0.15107">
        <ele>78.07</ele>
        <time>2024-07-15T06:40:36.250Z</time>
      </trkpt>
      <trkpt lat="46.82802" lon="-0.15103">
        <ele>78.03</ele>
        <time>2024-07-15T06:40:52.823Z</time>
      </trkpt>
      <trkpt lat="46.82794" lon="-0.15094">
        <ele>78.24</ele>
        <time>2024-07-15T06:41:09.397Z</time>
      </trkpt>
      <trkpt lat="46.828" lon="-0.15076">
        <ele>77.14</ele>
        <time>2024-07-15T06:41:25.974Z</time>
      </trkpt>
      <trkpt lat="46.82823" lon="-0.15005">
        <ele>73.35</ele>
        <time>2024-07-15T06:41:42.559Z</time>
      </trkpt>
      <trkpt lat="46.82829" lon="-0.14983">
        <ele>72.76</ele>
        <time>2024-07-15T06:41:59.147Z</time>
      </trkpt>
      <trkpt lat="46.82831" lon="-0.14972">
        <ele>73.21</ele>
        <time>2024-07-15T06:42:15.736Z</time>
      </trkpt>
      <trkpt lat="46.82831" lon="-0.1496">
        <ele>73.67</ele>
        <time>2024-07-15T06:42:32.326Z</time>
      </trkpt>
      <trkpt lat="46.82831" lon="-0.14948">
        <ele>74.07</ele>
        <time>2024-07-15T06:42:48.918Z</time>
      </trkpt>
      <trkpt lat="46.82829" lon="-0.14938">
        <ele>74.05</ele>
        <time>2024-07-15T06:43:05.511Z</time>
      </trkpt>
      <trkpt lat="46.82827" lon="-0.14925">
        <ele>74.52</ele>
        <time>2024-07-15T06:43:22.105Z</time>
      </trkpt>
      <trkpt lat="46.82819" lon="-0.14907">
        <ele>75.29</ele>
        <time>2024-07-15T06:43:38.702Z</time>
      </trkpt>
      <trkpt lat="46.82795" lon="-0.14854">
        <ele>76.83</ele>
        <time>2024-07-15T06:43:55.306Z</time>
      </trkpt>
      <trkpt lat="46.8275" lon="-0.14755">
        <ele>80.04</ele>
        <time>2024-07-15T06:44:11.923Z</time>
      </trkpt>
      <trkpt lat="46.82745" lon="-0.14747">
        <ele>79.53</ele>
        <time>2024-07-15T06:44:28.541Z</time>
      </trkpt>
      <trkpt lat="46.82738" lon="-0.14729">
        <ele>78.02</ele>
        <time>2024-07-15T06:44:45.161Z</time>
      </trkpt>
      <trkpt lat="46.82729" lon="-0.1471">
        <ele>76.81</ele>
        <time>2024-07-15T06:45:01.784Z</time>
      </trkpt>
      <trkpt lat="46.82722" lon="-0.14698">
        <ele>76.78</ele>
        <time>2024-07-15T06:45:18.408Z</time>
      </trkpt>
      <trkpt lat="46.82706" lon="-0.14671">
        <ele>74.87</ele>
        <time>2024-07-15T06:45:35.036Z</time>
      </trkpt>
      <trkpt lat="46.82686" lon="-0.14642">
        <ele>74.28</ele>
        <time>2024-07-15T06:45:51.669Z</time>
      </trkpt>
      <trkpt lat="46.82667" lon="-0.14613">
        <ele>75.73</ele>
        <time>2024-07-15T06:46:08.306Z</time>
      </trkpt>
      <trkpt lat="46.82664" lon="-0.14608">
        <ele>75.88</ele>
        <time>2024-07-15T06:46:24.944Z</time>
      </trkpt>
      <trkpt lat="46.82661" lon="-0.14604">
        <ele>75.85</ele>
        <time>2024-07-15T06:46:41.583Z</time>
      </trkpt>
      <trkpt lat="46.82658" lon="-0.14597">
        <ele>76.46</ele>
        <time>2024-07-15T06:46:58.223Z</time>
      </trkpt>
      <trkpt lat="46.82655" lon="-0.1459">
        <ele>77.56</ele>
        <time>2024-07-15T06:47:14.863Z</time>
      </trkpt>
      <trkpt lat="46.82652" lon="-0.14581">
        <ele>79</ele>
        <time>2024-07-15T06:47:31.505Z</time>
      </trkpt>
      <trkpt lat="46.82649" lon="-0.14573">
        <ele>80.2</ele>
        <time>2024-07-15T06:47:48.148Z</time>
      </trkpt>
      <trkpt lat="46.82645" lon="-0.14563">
        <ele>82.18</ele>
        <time>2024-07-15T06:48:04.792Z</time>
      </trkpt>
      <trkpt lat="46.82641" lon="-0.14555">
        <ele>84.1</ele>
        <time>2024-07-15T06:48:21.437Z</time>
      </trkpt>
      <trkpt lat="46.82637" lon="-0.14549">
        <ele>84.78</ele>
        <time>2024-07-15T06:48:38.083Z</time>
      </trkpt>
      <trkpt lat="46.82634" lon="-0.14545">
        <ele>85.19</ele>
        <time>2024-07-15T06:48:54.729Z</time>
      </trkpt>
      <trkpt lat="46.82627" lon="-0.14537">
        <ele>86.32</ele>
        <time>2024-07-15T06:49:11.377Z</time>
      </trkpt>
      <trkpt lat="46.82614" lon="-0.14524">
        <ele>86.64</ele>
        <time>2024-07-15T06:49:28.027Z</time>
      </trkpt>
      <trkpt lat="46.82603" lon="-0.14511">
        <ele>86.84</ele>
        <time>2024-07-15T06:49:44.680Z</time>
      </trkpt>
      <trkpt lat="46.82573" lon="-0.14465">
        <ele>89.78</ele>
        <time>2024-07-15T06:50:01.340Z</time>
      </trkpt>
      <trkpt lat="46.82559" lon="-0.14446">
        <ele>89.92</ele>
        <time>2024-07-15T06:50:18.003Z</time>
      </trkpt>
      <trkpt lat="46.8255" lon="-0.14432">
        <ele>89.52</ele>
        <time>2024-07-15T06:50:34.668Z</time>
      </trkpt>
      <trkpt lat="46.82546" lon="-0.14422">
        <ele>89.41</ele>
        <time>2024-07-15T06:50:51.334Z</time>
      </trkpt>
      <trkpt lat="46.82542" lon="-0.14409">
        <ele>89.43</ele>
        <time>2024-07-15T06:51:08.002Z</time>
      </trkpt>
      <trkpt lat="46.8254" lon="-0.144">
        <ele>89.52</ele>
        <time>2024-07-15T06:51:24.671Z</time>
      </trkpt>
      <trkpt lat="46.82539" lon="-0.14393">
        <ele>89.45</ele>
        <time>2024-07-15T06:51:41.341Z</time>
      </trkpt>
      <trkpt lat="46.82539" lon="-0.14386">
        <ele>89.39</ele>
        <time>2024-07-15T06:51:58.011Z</time>
      </trkpt>
      <trkpt lat="46.8254" lon="-0.14379">
        <ele>89.45</ele>
        <time>2024-07-15T06:52:14.682Z</time>
      </trkpt>
      <trkpt lat="46.8254" lon="-0.14374">
        <ele>89.79</ele>
        <time>2024-07-15T06:52:31.354Z</time>
      </trkpt>
      <trkpt lat="46.82541" lon="-0.14367">
        <ele>90.23</ele>
        <time>2024-07-15T06:52:48.026Z</time>
      </trkpt>
      <trkpt lat="46.82543" lon="-0.14359">
        <ele>90.85</ele>
        <time>2024-07-15T06:53:04.699Z</time>
      </trkpt>
      <trkpt lat="46.82548" lon="-0.14344">
        <ele>91.96</ele>
        <time>2024-07-15T06:53:21.374Z</time>
      </trkpt>
      <trkpt lat="46.82554" lon="-0.14327">
        <ele>92.99</ele>
        <time>2024-07-15T06:53:38.051Z</time>
      </trkpt>
      <trkpt lat="46.82555" lon="-0.14323">
        <ele>93.34</ele>
        <time>2024-07-15T06:53:54.729Z</time>
      </trkpt>
      <trkpt lat="46.82558" lon="-0.1432">
        <ele>93.75</ele>
        <time>2024-07-15T06:54:11.407Z</time>
      </trkpt>
      <trkpt lat="46.8256" lon="-0.14318">
        <ele>94.16</ele>
        <time>2024-07-15T06:54:28.086Z</time>
      </trkpt>
      <trkpt lat="46.82563" lon="-0.14316">
        <ele>94.78</ele>
        <time>2024-07-15T06:54:44.765Z</time>
      </trkpt>
      <trkpt lat="46.82565" lon="-0.14314">
        <ele>95.1</ele>
        <time>2024-07-15T06:55:01.445Z</time>
      </trkpt>
      <trkpt lat="46.82567" lon="-0.14311">
        <ele>95.32</ele>
        <time>2024-07-15T06:55:18.125Z</time>
      </trkpt>
      <trkpt lat="46.82568" lon="-0.14308">
        <ele>95.54</ele>
        <time>2024-07-15T06:55:34.806Z</time>
      </trkpt>
      <trkpt lat="46.82569" lon="-0.14306">
        <ele>95.65</ele>
        <time>2024-07-15T06:55:51.487Z</time>
      </trkpt>
      <trkpt lat="46.82571" lon="-0.14306">
        <ele>95.98</ele>
        <time>2024-07-15T06:56:08.168Z</time>
      </trkpt>
      <trkpt lat="46.82581" lon="-0.14305">
        <ele>97.35</ele>
        <time>2024-07-15T06:56:24.851Z</time>
      </trkpt>
      <trkpt lat="46.82584" lon="-0.14304">
        <ele>97.79</ele>
        <time>2024-07-15T06:56:41.534Z</time>
      </trkpt>
      <trkpt lat="46.82587" lon="-0.14301">
        <ele>98.17</ele>
        <time>2024-07-15T06:56:58.218Z</time>
      </trkpt>
      <trkpt lat="46.82601" lon="-0.14281">
        <ele>98.93</ele>
        <time>2024-07-15T06:57:14.905Z</time>
      </trkpt>
      <trkpt lat="46.82609" lon="-0.14272">
        <ele>99.07</ele>
        <time>2024-07-15T06:57:31.593Z</time>
      </trkpt>
      <trkpt lat="46.82613" lon="-0.14268">
        <ele>99.22</ele>
        <time>2024-07-15T06:57:48.282Z</time>
      </trkpt>
      <trkpt lat="46.82621" lon="-0.14263">
        <ele>99.77</ele>
        <time>2024-07-15T06:58:04.973Z</time>
      </trkpt>
      <trkpt lat="46.82623" lon="-0.14262">
        <ele>100.16</ele>
        <time>2024-07-15T06:58:21.664Z</time>
      </trkpt>
      <trkpt lat="46.82625" lon="-0.14263">
        <ele>100.56</ele>
        <time>2024-07-15T06:58:38.355Z</time>
      </trkpt>
      <trkpt lat="46.82627" lon="-0.14265">
        <ele>100.83</ele>
        <time>2024-07-15T06:58:55.047Z</time>
      </trkpt>
      <trkpt lat="46.82638" lon="-0.14244">
        <ele>101.52</ele>
        <time>2024-07-15T06:59:11.742Z</time>
      </trkpt>
      <trkpt lat="46.82662" lon="-0.14198">
        <ele>102.52</ele>
        <time>2024-07-15T06:59:28.443Z</time>
      </trkpt>
      <trkpt lat="46.82667" lon="-0.14189">
        <ele>102.93</ele>
        <time>2024-07-15T06:59:45.145Z</time>
      </trkpt>
      <trkpt lat="46.82675" lon="-0.14176">
        <ele>103.6</ele>
        <time>2024-07-15T07:00:01.849Z</time>
      </trkpt>
      <trkpt lat="46.8268" lon="-0.14168">
        <ele>103.92</ele>
        <time>2024-07-15T07:00:18.554Z</time>
      </trkpt>
      <trkpt lat="46.82683" lon="-0.14161">
        <ele>104.11</ele>
        <time>2024-07-15T07:00:35.260Z</time>
      </trkpt>
      <trkpt lat="46.82687" lon="-0.14149">
        <ele>104.27</ele>
        <time>2024-07-15T07:00:51.968Z</time>
      </trkpt>
      <trkpt lat="46.8269" lon="-0.14136">
        <ele>103.97</ele>
        <time>2024-07-15T07:01:08.677Z</time>
      </trkpt>
      <trkpt lat="46.82691" lon="-0.1413">
        <ele>103.85</ele>
        <time>2024-07-15T07:01:25.387Z</time>
      </trkpt>
      <trkpt lat="46.82693" lon="-0.14127">
        <ele>103.97</ele>
        <time>2024-07-15T07:01:42.097Z</time>
      </trkpt>
      <trkpt lat="46.82695" lon="-0.14123">
        <ele>104.3</ele>
        <time>2024-07-15T07:01:58.808Z</time>
      </trkpt>
      <trkpt lat="46.82702" lon="-0.14109">
        <ele>105.05</ele>
        <time>2024-07-15T07:02:15.521Z</time>
      </trkpt>
      <trkpt lat="46.82707" lon="-0.14096">
        <ele>105.53</ele>
        <time>2024-07-15T07:02:32.235Z</time>
      </trkpt>
      <trkpt lat="46.82709" lon="-0.14092">
        <ele>105.75</ele>
        <time>2024-07-15T07:02:48.950Z</time>
      </trkpt>
      <trkpt lat="46.82711" lon="-0.14079">
        <ele>106.02</ele>
        <time>2024-07-15T07:03:05.666Z</time>
      </trkpt>
      <trkpt lat="46.82713" lon="-0.14058">
        <ele>105.8</ele>
        <time>2024-07-15T07:03:22.385Z</time>
      </trkpt>
      <trkpt lat="46.82713" lon="-0.14055">
        <ele>105.76</ele>
        <time>2024-07-15T07:03:39.104Z</time>
      </trkpt>
      <trkpt lat="46.82715" lon="-0.14054">
        <ele>105.92</ele>
        <time>2024-07-15T07:03:55.823Z</time>
      </trkpt>
      <trkpt lat="46.82725" lon="-0.1405">
        <ele>107.22</ele>
        <time>2024-07-15T07:04:12.544Z</time>
      </trkpt>
      <trkpt lat="46.82729" lon="-0.1405">
        <ele>107.88</ele>
        <time>2024-07-15T07:04:29.266Z</time>
      </trkpt>
      <trkpt lat="46.82751" lon="-0.14054">
        <ele>110.42</ele>
        <time>2024-07-15T07:04:45.991Z</time>
      </trkpt>
      <trkpt lat="46.82753" lon="-0.14054">
        <ele>110.56</ele>
        <time>2024-07-15T07:05:02.716Z</time>
      </trkpt>
      <trkpt lat="46.82756" lon="-0.14055">
        <ele>110.78</ele>
        <time>2024-07-15T07:05:19.442Z</time>
      </trkpt>
      <trkpt lat="46.82759" lon="-0.1405">
        <ele>110.97</ele>
        <time>2024-07-15T07:05:36.169Z</time>
      </trkpt>
      <trkpt lat="46.82763" lon="-0.14048">
        <ele>111.13</ele>
        <time>2024-07-15T07:05:52.896Z</time>
      </trkpt>
      <trkpt lat="46.82766" lon="-0.14049">
        <ele>111.24</ele>
        <time>2024-07-15T07:06:09.624Z</time>
      </trkpt>
      <trkpt lat="46.82768" lon="-0.1405">
        <ele>111.32</ele>
        <time>2024-07-15T07:06:26.352Z</time>
      </trkpt>
      <trkpt lat="46.82771" lon="-0.14053">
        <ele>111.41</ele>
        <time>2024-07-15T07:06:43.081Z</time>
      </trkpt>
      <trkpt lat="46.82772" lon="-0.14057">
        <ele>111.48</ele>
        <time>2024-07-15T07:06:59.810Z</time>
      </trkpt>
      <trkpt lat="46.82773" lon="-0.14062">
        <ele>111.49</ele>
        <time>2024-07-15T07:07:16.540Z</time>
      </trkpt>
      <trkpt lat="46.82772" lon="-0.14067">
        <ele>111.46</ele>
        <time>2024-07-15T07:07:33.270Z</time>
      </trkpt>
      <trkpt lat="46.8277" lon="-0.14071">
        <ele>111.38</ele>
        <time>2024-07-15T07:07:50.001Z</time>
      </trkpt>
      <trkpt lat="46.82772" lon="-0.14076">
        <ele>111.55</ele>
        <time>2024-07-15T07:08:06.732Z</time>
      </trkpt>
      <trkpt lat="46.8278" lon="-0.14086">
        <ele>112</ele>
        <time>2024-07-15T07:08:23.465Z</time>
      </trkpt>
      <trkpt lat="46.82787" lon="-0.14098">
        <ele>112</ele>
        <time>2024-07-15T07:08:40.200Z</time>
      </trkpt>
      <trkpt lat="46.82823" lon="-0.14162">
        <ele>112</ele>
        <time>2024-07-15T07:08:56.944Z</time>
      </trkpt>
      <trkpt lat="46.82841" lon="-0.14192">
        <ele>111.95</ele>
        <time>2024-07-15T07:09:13.692Z</time>
      </trkpt>
      <trkpt lat="46.82857" lon="-0.14212">
        <ele>111.49</ele>
        <time>2024-07-15T07:09:30.444Z</time>
      </trkpt>
      <trkpt lat="46.82872" lon="-0.14225">
        <ele>111</ele>
        <time>2024-07-15T07:09:47.199Z</time>
      </trkpt>
      <trkpt lat="46.82907" lon="-0.14255">
        <ele>110.15</ele>
        <time>2024-07-15T07:10:03.960Z</time>
      </trkpt>
      <trkpt lat="46.82921" lon="-0.14273">
        <ele>109.82</ele>
        <time>2024-07-15T07:10:20.724Z</time>
      </trkpt>
      <trkpt lat="46.8293" lon="-0.14286">
        <ele>109.19</ele>
        <time>2024-07-15T07:10:37.490Z</time>
      </trkpt>
      <trkpt lat="46.82944" lon="-0.14306">
        <ele>108.99</ele>
        <time>2024-07-15T07:10:54.259Z</time>
      </trkpt>
      <trkpt lat="46.82955" lon="-0.1432">
        <ele>108.1</ele>
        <time>2024-07-15T07:11:11.031Z</time>
      </trkpt>
      <trkpt lat="46.82964" lon="-0.14332">
        <ele>108.37</ele>
        <time>2024-07-15T07:11:27.804Z</time>
      </trkpt>
      <trkpt lat="46.82972" lon="-0.1434">
        <ele>108.66</ele>
        <time>2024-07-15T07:11:44.579Z</time>
      </trkpt>
      <trkpt lat="46.82984" lon="-0.1435">
        <ele>109.08</ele>
        <time>2024-07-15T07:12:01.356Z</time>
      </trkpt>
      <trkpt lat="46.82993" lon="-0.14359">
        <ele>109.15</ele>
        <time>2024-07-15T07:12:18.135Z</time>
      </trkpt>
      <trkpt lat="46.82996" lon="-0.14363">
        <ele>109.11</ele>
        <time>2024-07-15T07:12:34.915Z</time>
      </trkpt>
      <trkpt lat="46.82998" lon="-0.14366">
        <ele>109.06</ele>
        <time>2024-07-15T07:12:51.695Z</time>
      </trkpt>
      <trkpt lat="46.82999" lon="-0.14364">
        <ele>109.18</ele>
        <time>2024-07-15T07:13:08.475Z</time>
      </trkpt>
      <trkpt lat="46.83002" lon="-0.14363">
        <ele>109.28</ele>
        <time>2024-07-15T07:13:25.256Z</time>
      </trkpt>
      <trkpt lat="46.83004" lon="-0.14363">
        <ele>109.36</ele>
        <time>2024-07-15T07:13:42.037Z</time>
      </trkpt>
      <trkpt lat="46.83006" lon="-0.14364">
        <ele>109.39</ele>
        <time>2024-07-15T07:13:58.818Z</time>
      </trkpt>
      <trkpt lat="46.83007" lon="-0.14366">
        <ele>109.39</ele>
        <time>2024-07-15T07:14:15.600Z</time>
      </trkpt>
      <trkpt lat="46.83009" lon="-0.14369">
        <ele>109.35</ele>
        <time>2024-07-15T07:14:32.382Z</time>
      </trkpt>
      <trkpt lat="46.8301" lon="-0.14372">
        <ele>109.26</ele>
        <time>2024-07-15T07:14:49.164Z</time>
      </trkpt>
      <trkpt lat="46.8301" lon="-0.14375">
        <ele>109.15</ele>
        <time>2024-07-15T07:15:05.947Z</time>
      </trkpt>
      <trkpt lat="46.83009" lon="-0.14378">
        <ele>109.03</ele>
        <time>2024-07-15T07:15:22.730Z</time>
      </trkpt>
      <trkpt lat="46.83008" lon="-0.14381">
        <ele>108.89</ele>
        <time>2024-07-15T07:15:39.514Z</time>
      </trkpt>
      <trkpt lat="46.83007" lon="-0.14383">
        <ele>108.75</ele>
        <time>2024-07-15T07:15:56.298Z</time>
      </trkpt>
      <trkpt lat="46.83004" lon="-0.14385">
        <ele>108.61</ele>
        <time>2024-07-15T07:16:13.082Z</time>
      </trkpt>
      <trkpt lat="46.83006" lon="-0.14388">
        <ele>108.53</ele>
        <time>2024-07-15T07:16:29.867Z</time>
      </trkpt>
      <trkpt lat="46.83007" lon="-0.14395">
        <ele>108.34</ele>
        <time>2024-07-15T07:16:46.652Z</time>
      </trkpt>
      <trkpt lat="46.83009" lon="-0.14402">
        <ele>108.15</ele>
        <time>2024-07-15T07:17:03.438Z</time>
      </trkpt>
      <trkpt lat="46.8301" lon="-0.14407">
        <ele>108.03</ele>
        <time>2024-07-15T07:17:20.225Z</time>
      </trkpt>
      <trkpt lat="46.83013" lon="-0.14412">
        <ele>107.94</ele>
        <time>2024-07-15T07:17:37.013Z</time>
      </trkpt>
      <trkpt lat="46.83016" lon="-0.14418">
        <ele>107.83</ele>
        <time>2024-07-15T07:17:53.801Z</time>
      </trkpt>
      <trkpt lat="46.83028" lon="-0.14441">
        <ele>107.43</ele>
        <time>2024-07-15T07:18:10.593Z</time>
      </trkpt>
      <trkpt lat="46.83031" lon="-0.14446">
        <ele>107.34</ele>
        <time>2024-07-15T07:18:27.385Z</time>
      </trkpt>
      <trkpt lat="46.83038" lon="-0.14461">
        <ele>107</ele>
        <time>2024-07-15T07:18:44.179Z</time>
      </trkpt>
      <trkpt lat="46.83048" lon="-0.1448">
        <ele>106.38</ele>
        <time>2024-07-15T07:19:00.976Z</time>
      </trkpt>
      <trkpt lat="46.8306" lon="-0.14502">
        <ele>105.56</ele>
        <time>2024-07-15T07:19:17.776Z</time>
      </trkpt>
      <trkpt lat="46.83062" lon="-0.14507">
        <ele>105.4</ele>
        <time>2024-07-15T07:19:34.577Z</time>
      </trkpt>
      <trkpt lat="46.83069" lon="-0.14521">
        <ele>104.76</ele>
        <time>2024-07-15T07:19:51.379Z</time>
      </trkpt>
      <trkpt lat="46.83075" lon="-0.14533">
        <ele>104.07</ele>
        <time>2024-07-15T07:20:08.183Z</time>
      </trkpt>
      <trkpt lat="46.83096" lon="-0.14569">
        <ele>104</ele>
        <time>2024-07-15T07:20:24.992Z</time>
      </trkpt>
      <trkpt lat="46.83103" lon="-0.14582">
        <ele>103.68</ele>
        <time>2024-07-15T07:20:41.803Z</time>
      </trkpt>
      <trkpt lat="46.83109" lon="-0.14592">
        <ele>103.34</ele>
        <time>2024-07-15T07:20:58.616Z</time>
      </trkpt>
      <trkpt lat="46.83119" lon="-0.14604">
        <ele>102.88</ele>
        <time>2024-07-15T07:21:15.431Z</time>
      </trkpt>
      <trkpt lat="46.83129" lon="-0.14616">
        <ele>101.67</ele>
        <time>2024-07-15T07:21:32.248Z</time>
      </trkpt>
      <trkpt lat="46.83136" lon="-0.14623">
        <ele>101.2</ele>
        <time>2024-07-15T07:21:49.066Z</time>
      </trkpt>
      <trkpt lat="46.83154" lon="-0.14642">
        <ele>99.68</ele>
        <time>2024-07-15T07:22:05.888Z</time>
      </trkpt>
      <trkpt lat="46.8317" lon="-0.1466">
        <ele>98.87</ele>
        <time>2024-07-15T07:22:22.713Z</time>
      </trkpt>
      <trkpt lat="46.83203" lon="-0.14695">
        <ele>97</ele>
        <time>2024-07-15T07:22:39.544Z</time>
      </trkpt>
      <trkpt lat="46.83226" lon="-0.14718">
        <ele>97.99</ele>
        <time>2024-07-15T07:22:56.380Z</time>
      </trkpt>
      <trkpt lat="46.83236" lon="-0.14726">
        <ele>97.32</ele>
        <time>2024-07-15T07:23:13.218Z</time>
      </trkpt>
      <trkpt lat="46.83245" lon="-0.14732">
        <ele>96.81</ele>
        <time>2024-07-15T07:23:30.057Z</time>
      </trkpt>
      <trkpt lat="46.8325" lon="-0.14736">
        <ele>96.48</ele>
        <time>2024-07-15T07:23:46.897Z</time>
      </trkpt>
      <trkpt lat="46.83258" lon="-0.14744">
        <ele>95.96</ele>
        <time>2024-07-15T07:24:03.739Z</time>
      </trkpt>
      <trkpt lat="46.83269" lon="-0.14759">
        <ele>95.31</ele>
        <time>2024-07-15T07:24:20.583Z</time>
      </trkpt>
      <trkpt lat="46.83275" lon="-0.14767">
        <ele>94.49</ele>
        <time>2024-07-15T07:24:37.429Z</time>
      </trkpt>
      <trkpt lat="46.83282" lon="-0.14773">
        <ele>94.01</ele>
        <time>2024-07-15T07:24:54.276Z</time>
      </trkpt>
      <trkpt lat="46.83292" lon="-0.14781">
        <ele>94.1</ele>
        <time>2024-07-15T07:25:11.125Z</time>
      </trkpt>
      <trkpt lat="46.83298" lon="-0.14786">
        <ele>94.47</ele>
        <time>2024-07-15T07:25:27.975Z</time>
      </trkpt>
      <trkpt lat="46.83306" lon="-0.14793">
        <ele>94.58</ele>
        <time>2024-07-15T07:25:44.826Z</time>
      </trkpt>
      <trkpt lat="46.83313" lon="-0.148">
        <ele>94.61</ele>
        <time>2024-07-15T07:26:01.679Z</time>
      </trkpt>
      <trkpt lat="46.83316" lon="-0.14804">
        <ele>94.51</ele>
        <time>2024-07-15T07:26:18.532Z</time>
      </trkpt>
      <trkpt lat="46.83321" lon="-0.14812">
        <ele>94.49</ele>
        <time>2024-07-15T07:26:35.386Z</time>
      </trkpt>
      <trkpt lat="46.83325" lon="-0.14823">
        <ele>94.21</ele>
        <time>2024-07-15T07:26:52.242Z</time>
      </trkpt>
      <trkpt lat="46.83329" lon="-0.14833">
        <ele>94.15</ele>
        <time>2024-07-15T07:27:09.099Z</time>
      </trkpt>
      <trkpt lat="46.83332" lon="-0.14848">
        <ele>93.94</ele>
        <time>2024-07-15T07:27:25.958Z</time>
      </trkpt>
      <trkpt lat="46.83334" lon="-0.14858">
        <ele>94.06</ele>
        <time>2024-07-15T07:27:42.818Z</time>
      </trkpt>
      <trkpt lat="46.83336" lon="-0.14866">
        <ele>93.71</ele>
        <time>2024-07-15T07:27:59.679Z</time>
      </trkpt>
      <trkpt lat="46.83338" lon="-0.14875">
        <ele>93.15</ele>
        <time>2024-07-15T07:28:16.541Z</time>
      </trkpt>
    </trkseg>
  </trk>
</gpx>